<?xml version="1.0" encoding="UTF-8" standalone="no" ?>
<gpx xmlns="http://www.topografix.com/GPX/1/1" xmlns:xsi="http://www.w3.org/2001/XMLSchema-instance" xsi:schemaLocation="http://www.topografix.com/GPX/1/1 http://www.topografix.com/GPX/1/1/gpx.xsd" version="1.1" creator="VisuGPX - https://www.visugpx.com">
  <metadata>
    <name>Sainte Christine - Cuers</name>
    <desc><![CDATA[boucle au départ de la Crau via Sainte Christine et Cuers]]></desc>
  </metadata>
  <trk>
    <name><![CDATA[2022-04-10 Sainte Christine - Cuers]]></name>
    <trkseg>
      <trkpt lat="43.15384" lon="6.06979">
        <ele>45.90234375</ele>
        <time>2022-04-10T06:58:55Z</time>
      </trkpt>
      <trkpt lat="43.15386" lon="6.06981">
        <ele>45.91796875</ele>
        <time>2022-04-10T06:59:11Z</time>
      </trkpt>
      <trkpt lat="43.15385" lon="6.06981">
        <ele>45.890625</ele>
        <time>2022-04-10T06:59:18Z</time>
      </trkpt>
      <trkpt lat="43.15388" lon="6.06981">
        <ele>46.0078125</ele>
        <time>2022-04-10T06:59:36Z</time>
      </trkpt>
      <trkpt lat="43.15388" lon="6.06982">
        <ele>45.953125</ele>
        <time>2022-04-10T07:00:00Z</time>
      </trkpt>
      <trkpt lat="43.15389" lon="6.06987">
        <ele>45.8125</ele>
        <time>2022-04-10T07:00:26Z</time>
      </trkpt>
      <trkpt lat="43.15391" lon="6.06986">
        <ele>45.9296875</ele>
        <time>2022-04-10T07:00:48Z</time>
      </trkpt>
      <trkpt lat="43.15388" lon="6.06983">
        <ele>45.9140625</ele>
        <time>2022-04-10T07:01:14Z</time>
      </trkpt>
      <trkpt lat="43.15385" lon="6.06985">
        <ele>45.76953125</ele>
        <time>2022-04-10T07:01:18Z</time>
      </trkpt>
      <trkpt lat="43.15389" lon="6.06993">
        <ele>45.62890625</ele>
        <time>2022-04-10T07:01:30Z</time>
      </trkpt>
      <trkpt lat="43.15388" lon="6.0699">
        <ele>45.69921875</ele>
        <time>2022-04-10T07:01:54Z</time>
      </trkpt>
      <trkpt lat="43.15389" lon="6.06991">
        <ele>45.6484375</ele>
        <time>2022-04-10T07:02:20Z</time>
      </trkpt>
      <trkpt lat="43.15388" lon="6.06988">
        <ele>45.7734375</ele>
        <time>2022-04-10T07:02:49Z</time>
      </trkpt>
      <trkpt lat="43.15389" lon="6.06986">
        <ele>45.8515625</ele>
        <time>2022-04-10T07:03:20Z</time>
      </trkpt>
      <trkpt lat="43.15389" lon="6.06988">
        <ele>45.78515625</ele>
        <time>2022-04-10T07:03:50Z</time>
      </trkpt>
      <trkpt lat="43.15389" lon="6.06988">
        <ele>45.80078125</ele>
        <time>2022-04-10T07:04:28Z</time>
      </trkpt>
      <trkpt lat="43.15388" lon="6.0699">
        <ele>45.6796875</ele>
        <time>2022-04-10T07:05:03Z</time>
      </trkpt>
      <trkpt lat="43.15388" lon="6.06989">
        <ele>45.71875</ele>
        <time>2022-04-10T07:05:35Z</time>
      </trkpt>
      <trkpt lat="43.1539" lon="6.06992">
        <ele>45.67578125</ele>
        <time>2022-04-10T07:05:59Z</time>
      </trkpt>
      <trkpt lat="43.1539" lon="6.06992">
        <ele>45.67578125</ele>
        <time>2022-04-10T07:06:00Z</time>
      </trkpt>
      <trkpt lat="43.15392" lon="6.06989">
        <ele>45.8515625</ele>
        <time>2022-04-10T07:06:39Z</time>
      </trkpt>
      <trkpt lat="43.15393" lon="6.06985">
        <ele>46.05078125</ele>
        <time>2022-04-10T07:07:13Z</time>
      </trkpt>
      <trkpt lat="43.15392" lon="6.06987">
        <ele>45.93359375</ele>
        <time>2022-04-10T07:07:50Z</time>
      </trkpt>
      <trkpt lat="43.15389" lon="6.0699">
        <ele>45.69140625</ele>
        <time>2022-04-10T07:08:17Z</time>
      </trkpt>
      <trkpt lat="43.15389" lon="6.06993">
        <ele>45.609375</ele>
        <time>2022-04-10T07:08:39Z</time>
      </trkpt>
      <trkpt lat="43.15389" lon="6.06996">
        <ele>45.49609375</ele>
        <time>2022-04-10T07:09:06Z</time>
      </trkpt>
      <trkpt lat="43.15392" lon="6.06986">
        <ele>45.9453125</ele>
        <time>2022-04-10T07:09:36Z</time>
      </trkpt>
      <trkpt lat="43.1539" lon="6.06992">
        <ele>45.671875</ele>
        <time>2022-04-10T07:10:13Z</time>
      </trkpt>
      <trkpt lat="43.1539" lon="6.06994">
        <ele>45.6015625</ele>
        <time>2022-04-10T07:10:27Z</time>
      </trkpt>
      <trkpt lat="43.15391" lon="6.06994">
        <ele>45.64453125</ele>
        <time>2022-04-10T07:10:58Z</time>
      </trkpt>
      <trkpt lat="43.15394" lon="6.06995">
        <ele>45.703125</ele>
        <time>2022-04-10T07:11:15Z</time>
      </trkpt>
      <trkpt lat="43.15411" lon="6.06988">
        <ele>46.125</ele>
        <time>2022-04-10T07:11:25Z</time>
      </trkpt>
      <trkpt lat="43.15418" lon="6.07">
        <ele>45.68359375</ele>
        <time>2022-04-10T07:11:29Z</time>
      </trkpt>
      <trkpt lat="43.15419" lon="6.07006">
        <ele>45.4765625</ele>
        <time>2022-04-10T07:11:31Z</time>
      </trkpt>
      <trkpt lat="43.15425" lon="6.07008">
        <ele>45.37890625</ele>
        <time>2022-04-10T07:11:36Z</time>
      </trkpt>
      <trkpt lat="43.15427" lon="6.07006">
        <ele>45.4765625</ele>
        <time>2022-04-10T07:11:37Z</time>
      </trkpt>
      <trkpt lat="43.15429" lon="6.07004">
        <ele>45.5859375</ele>
        <time>2022-04-10T07:11:38Z</time>
      </trkpt>
      <trkpt lat="43.15432" lon="6.07002">
        <ele>45.68359375</ele>
        <time>2022-04-10T07:11:39Z</time>
      </trkpt>
      <trkpt lat="43.15452" lon="6.06991">
        <ele>46.0078125</ele>
        <time>2022-04-10T07:11:46Z</time>
      </trkpt>
      <trkpt lat="43.15463" lon="6.06985">
        <ele>46.1484375</ele>
        <time>2022-04-10T07:11:51Z</time>
      </trkpt>
      <trkpt lat="43.15464" lon="6.06987">
        <ele>46.10546875</ele>
        <time>2022-04-10T07:11:52Z</time>
      </trkpt>
      <trkpt lat="43.15465" lon="6.0699">
        <ele>46.03125</ele>
        <time>2022-04-10T07:11:53Z</time>
      </trkpt>
      <trkpt lat="43.15466" lon="6.06993">
        <ele>46</ele>
        <time>2022-04-10T07:11:54Z</time>
      </trkpt>
      <trkpt lat="43.15466" lon="6.06995">
        <ele>46</ele>
        <time>2022-04-10T07:11:55Z</time>
      </trkpt>
      <trkpt lat="43.15467" lon="6.06999">
        <ele>46</ele>
        <time>2022-04-10T07:11:56Z</time>
      </trkpt>
      <trkpt lat="43.15469" lon="6.07002">
        <ele>46</ele>
        <time>2022-04-10T07:11:57Z</time>
      </trkpt>
      <trkpt lat="43.15472" lon="6.07004">
        <ele>46</ele>
        <time>2022-04-10T07:11:58Z</time>
      </trkpt>
      <trkpt lat="43.15475" lon="6.07006">
        <ele>46</ele>
        <time>2022-04-10T07:11:59Z</time>
      </trkpt>
      <trkpt lat="43.15477" lon="6.07009">
        <ele>46</ele>
        <time>2022-04-10T07:12:00Z</time>
      </trkpt>
      <trkpt lat="43.15479" lon="6.07013">
        <ele>46</ele>
        <time>2022-04-10T07:12:01Z</time>
      </trkpt>
      <trkpt lat="43.1548" lon="6.07018">
        <ele>46</ele>
        <time>2022-04-10T07:12:02Z</time>
      </trkpt>
      <trkpt lat="43.1548" lon="6.07022">
        <ele>45.9921875</ele>
        <time>2022-04-10T07:12:03Z</time>
      </trkpt>
      <trkpt lat="43.1548" lon="6.07027">
        <ele>45.984375</ele>
        <time>2022-04-10T07:12:04Z</time>
      </trkpt>
      <trkpt lat="43.1548" lon="6.07032">
        <ele>45.97265625</ele>
        <time>2022-04-10T07:12:05Z</time>
      </trkpt>
      <trkpt lat="43.1548" lon="6.07037">
        <ele>45.96484375</ele>
        <time>2022-04-10T07:12:06Z</time>
      </trkpt>
      <trkpt lat="43.15482" lon="6.07047">
        <ele>45.984375</ele>
        <time>2022-04-10T07:12:09Z</time>
      </trkpt>
      <trkpt lat="43.15483" lon="6.0705">
        <ele>45.90234375</ele>
        <time>2022-04-10T07:12:13Z</time>
      </trkpt>
      <trkpt lat="43.15484" lon="6.07052">
        <ele>45.83984375</ele>
        <time>2022-04-10T07:12:14Z</time>
      </trkpt>
      <trkpt lat="43.15486" lon="6.07054">
        <ele>45.77734375</ele>
        <time>2022-04-10T07:12:15Z</time>
      </trkpt>
      <trkpt lat="43.15487" lon="6.07057">
        <ele>45.7109375</ele>
        <time>2022-04-10T07:12:16Z</time>
      </trkpt>
      <trkpt lat="43.15488" lon="6.0706">
        <ele>45.64453125</ele>
        <time>2022-04-10T07:12:17Z</time>
      </trkpt>
      <trkpt lat="43.15489" lon="6.07062">
        <ele>45.61328125</ele>
        <time>2022-04-10T07:12:18Z</time>
      </trkpt>
      <trkpt lat="43.15493" lon="6.07058">
        <ele>45.75390625</ele>
        <time>2022-04-10T07:12:20Z</time>
      </trkpt>
      <trkpt lat="43.15493" lon="6.07053">
        <ele>45.85546875</ele>
        <time>2022-04-10T07:12:21Z</time>
      </trkpt>
      <trkpt lat="43.15493" lon="6.07049">
        <ele>45.95703125</ele>
        <time>2022-04-10T07:12:22Z</time>
      </trkpt>
      <trkpt lat="43.15495" lon="6.07045">
        <ele>46</ele>
        <time>2022-04-10T07:12:23Z</time>
      </trkpt>
      <trkpt lat="43.15497" lon="6.07041">
        <ele>46</ele>
        <time>2022-04-10T07:12:24Z</time>
      </trkpt>
      <trkpt lat="43.155" lon="6.07037">
        <ele>46</ele>
        <time>2022-04-10T07:12:25Z</time>
      </trkpt>
      <trkpt lat="43.15501" lon="6.07031">
        <ele>46</ele>
        <time>2022-04-10T07:12:26Z</time>
      </trkpt>
      <trkpt lat="43.15514" lon="6.06998">
        <ele>46</ele>
        <time>2022-04-10T07:12:31Z</time>
      </trkpt>
      <trkpt lat="43.15516" lon="6.06991">
        <ele>46</ele>
        <time>2022-04-10T07:12:32Z</time>
      </trkpt>
      <trkpt lat="43.15517" lon="6.06983">
        <ele>46</ele>
        <time>2022-04-10T07:12:33Z</time>
      </trkpt>
      <trkpt lat="43.15517" lon="6.06974">
        <ele>46</ele>
        <time>2022-04-10T07:12:34Z</time>
      </trkpt>
      <trkpt lat="43.15517" lon="6.06966">
        <ele>46</ele>
        <time>2022-04-10T07:12:35Z</time>
      </trkpt>
      <trkpt lat="43.15517" lon="6.06957">
        <ele>46.22265625</ele>
        <time>2022-04-10T07:12:36Z</time>
      </trkpt>
      <trkpt lat="43.15518" lon="6.06949">
        <ele>46.52734375</ele>
        <time>2022-04-10T07:12:37Z</time>
      </trkpt>
      <trkpt lat="43.15521" lon="6.06941">
        <ele>46.8046875</ele>
        <time>2022-04-10T07:12:38Z</time>
      </trkpt>
      <trkpt lat="43.15525" lon="6.06934">
        <ele>47</ele>
        <time>2022-04-10T07:12:39Z</time>
      </trkpt>
      <trkpt lat="43.15528" lon="6.06928">
        <ele>47</ele>
        <time>2022-04-10T07:12:40Z</time>
      </trkpt>
      <trkpt lat="43.15532" lon="6.06922">
        <ele>47</ele>
        <time>2022-04-10T07:12:41Z</time>
      </trkpt>
      <trkpt lat="43.15556" lon="6.06892">
        <ele>47</ele>
        <time>2022-04-10T07:12:50Z</time>
      </trkpt>
      <trkpt lat="43.15588" lon="6.06853">
        <ele>47</ele>
        <time>2022-04-10T07:13:05Z</time>
      </trkpt>
      <trkpt lat="43.15621" lon="6.06822">
        <ele>47.125</ele>
        <time>2022-04-10T07:13:18Z</time>
      </trkpt>
      <trkpt lat="43.15665" lon="6.06775">
        <ele>48</ele>
        <time>2022-04-10T07:13:35Z</time>
      </trkpt>
      <trkpt lat="43.157" lon="6.06727">
        <ele>48.9375</ele>
        <time>2022-04-10T07:13:49Z</time>
      </trkpt>
      <trkpt lat="43.15738" lon="6.06681">
        <ele>49</ele>
        <time>2022-04-10T07:14:03Z</time>
      </trkpt>
      <trkpt lat="43.15779" lon="6.06632">
        <ele>49.28125</ele>
        <time>2022-04-10T07:14:20Z</time>
      </trkpt>
      <trkpt lat="43.15813" lon="6.06626">
        <ele>48.2421875</ele>
        <time>2022-04-10T07:14:31Z</time>
      </trkpt>
      <trkpt lat="43.15842" lon="6.06668">
        <ele>48</ele>
        <time>2022-04-10T07:14:41Z</time>
      </trkpt>
      <trkpt lat="43.15845" lon="6.06672">
        <ele>47.87890625</ele>
        <time>2022-04-10T07:14:42Z</time>
      </trkpt>
      <trkpt lat="43.15866" lon="6.06698">
        <ele>46.32421875</ele>
        <time>2022-04-10T07:14:49Z</time>
      </trkpt>
      <trkpt lat="43.15869" lon="6.06701">
        <ele>46.078125</ele>
        <time>2022-04-10T07:14:50Z</time>
      </trkpt>
      <trkpt lat="43.15925" lon="6.06726">
        <ele>45.046875</ele>
        <time>2022-04-10T07:15:05Z</time>
      </trkpt>
      <trkpt lat="43.15934" lon="6.06729">
        <ele>45.28125</ele>
        <time>2022-04-10T07:15:08Z</time>
      </trkpt>
      <trkpt lat="43.15936" lon="6.06728">
        <ele>45.37890625</ele>
        <time>2022-04-10T07:15:09Z</time>
      </trkpt>
      <trkpt lat="43.15939" lon="6.06727">
        <ele>45.46484375</ele>
        <time>2022-04-10T07:15:10Z</time>
      </trkpt>
      <trkpt lat="43.1594" lon="6.06723">
        <ele>45.5234375</ele>
        <time>2022-04-10T07:15:11Z</time>
      </trkpt>
      <trkpt lat="43.15942" lon="6.0672">
        <ele>45.56640625</ele>
        <time>2022-04-10T07:15:12Z</time>
      </trkpt>
      <trkpt lat="43.15943" lon="6.06718">
        <ele>45.6015625</ele>
        <time>2022-04-10T07:15:13Z</time>
      </trkpt>
      <trkpt lat="43.15943" lon="6.06716">
        <ele>45.609375</ele>
        <time>2022-04-10T07:15:14Z</time>
      </trkpt>
      <trkpt lat="43.15942" lon="6.06714">
        <ele>45.58203125</ele>
        <time>2022-04-10T07:15:15Z</time>
      </trkpt>
      <trkpt lat="43.15941" lon="6.06712">
        <ele>45.54296875</ele>
        <time>2022-04-10T07:15:16Z</time>
      </trkpt>
      <trkpt lat="43.1594" lon="6.06709">
        <ele>45.515625</ele>
        <time>2022-04-10T07:15:17Z</time>
      </trkpt>
      <trkpt lat="43.1594" lon="6.06705">
        <ele>45.5</ele>
        <time>2022-04-10T07:15:18Z</time>
      </trkpt>
      <trkpt lat="43.15939" lon="6.06701">
        <ele>45.47265625</ele>
        <time>2022-04-10T07:15:19Z</time>
      </trkpt>
      <trkpt lat="43.15938" lon="6.06698">
        <ele>45.4453125</ele>
        <time>2022-04-10T07:15:20Z</time>
      </trkpt>
      <trkpt lat="43.15938" lon="6.06695">
        <ele>45.42578125</ele>
        <time>2022-04-10T07:15:21Z</time>
      </trkpt>
      <trkpt lat="43.15937" lon="6.0669">
        <ele>45.40625</ele>
        <time>2022-04-10T07:15:22Z</time>
      </trkpt>
      <trkpt lat="43.15936" lon="6.06685">
        <ele>45.3671875</ele>
        <time>2022-04-10T07:15:23Z</time>
      </trkpt>
      <trkpt lat="43.15935" lon="6.06682">
        <ele>45.33984375</ele>
        <time>2022-04-10T07:15:24Z</time>
      </trkpt>
      <trkpt lat="43.15933" lon="6.06649">
        <ele>45.5</ele>
        <time>2022-04-10T07:15:31Z</time>
      </trkpt>
      <trkpt lat="43.15936" lon="6.06644">
        <ele>45.67578125</ele>
        <time>2022-04-10T07:15:32Z</time>
      </trkpt>
      <trkpt lat="43.15939" lon="6.06641">
        <ele>45.796875</ele>
        <time>2022-04-10T07:15:33Z</time>
      </trkpt>
      <trkpt lat="43.15943" lon="6.06639">
        <ele>45.8828125</ele>
        <time>2022-04-10T07:15:34Z</time>
      </trkpt>
      <trkpt lat="43.15947" lon="6.06638">
        <ele>45.9375</ele>
        <time>2022-04-10T07:15:35Z</time>
      </trkpt>
      <trkpt lat="43.15951" lon="6.06637">
        <ele>45.9765625</ele>
        <time>2022-04-10T07:15:36Z</time>
      </trkpt>
      <trkpt lat="43.15954" lon="6.06637">
        <ele>46.0078125</ele>
        <time>2022-04-10T07:15:37Z</time>
      </trkpt>
      <trkpt lat="43.15958" lon="6.06638">
        <ele>46.04296875</ele>
        <time>2022-04-10T07:15:38Z</time>
      </trkpt>
      <trkpt lat="43.15962" lon="6.06639">
        <ele>46.08984375</ele>
        <time>2022-04-10T07:15:39Z</time>
      </trkpt>
      <trkpt lat="43.15965" lon="6.06641">
        <ele>46.15625</ele>
        <time>2022-04-10T07:15:40Z</time>
      </trkpt>
      <trkpt lat="43.15994" lon="6.06685">
        <ele>47.8828125</ele>
        <time>2022-04-10T07:15:51Z</time>
      </trkpt>
      <trkpt lat="43.16033" lon="6.06713">
        <ele>49.86328125</ele>
        <time>2022-04-10T07:16:03Z</time>
      </trkpt>
      <trkpt lat="43.16079" lon="6.0672">
        <ele>50</ele>
        <time>2022-04-10T07:16:17Z</time>
      </trkpt>
      <trkpt lat="43.16139" lon="6.06725">
        <ele>50.2890625</ele>
        <time>2022-04-10T07:16:33Z</time>
      </trkpt>
      <trkpt lat="43.16188" lon="6.06722">
        <ele>51</ele>
        <time>2022-04-10T07:16:47Z</time>
      </trkpt>
      <trkpt lat="43.16193" lon="6.06722">
        <ele>51</ele>
        <time>2022-04-10T07:16:48Z</time>
      </trkpt>
      <trkpt lat="43.16197" lon="6.06721">
        <ele>51</ele>
        <time>2022-04-10T07:16:49Z</time>
      </trkpt>
      <trkpt lat="43.16201" lon="6.0672">
        <ele>51</ele>
        <time>2022-04-10T07:16:50Z</time>
      </trkpt>
      <trkpt lat="43.16205" lon="6.0672">
        <ele>51</ele>
        <time>2022-04-10T07:16:51Z</time>
      </trkpt>
      <trkpt lat="43.16244" lon="6.06737">
        <ele>51</ele>
        <time>2022-04-10T07:17:03Z</time>
      </trkpt>
      <trkpt lat="43.16272" lon="6.06807">
        <ele>52</ele>
        <time>2022-04-10T07:17:19Z</time>
      </trkpt>
      <trkpt lat="43.16275" lon="6.06808">
        <ele>52</ele>
        <time>2022-04-10T07:17:20Z</time>
      </trkpt>
      <trkpt lat="43.16279" lon="6.06808">
        <ele>52</ele>
        <time>2022-04-10T07:17:21Z</time>
      </trkpt>
      <trkpt lat="43.16282" lon="6.06806">
        <ele>52</ele>
        <time>2022-04-10T07:17:22Z</time>
      </trkpt>
      <trkpt lat="43.16286" lon="6.06804">
        <ele>52</ele>
        <time>2022-04-10T07:17:23Z</time>
      </trkpt>
      <trkpt lat="43.16289" lon="6.068">
        <ele>52</ele>
        <time>2022-04-10T07:17:24Z</time>
      </trkpt>
      <trkpt lat="43.16292" lon="6.06796">
        <ele>52</ele>
        <time>2022-04-10T07:17:25Z</time>
      </trkpt>
      <trkpt lat="43.16314" lon="6.06785">
        <ele>52</ele>
        <time>2022-04-10T07:17:32Z</time>
      </trkpt>
      <trkpt lat="43.16315" lon="6.06786">
        <ele>52</ele>
        <time>2022-04-10T07:17:33Z</time>
      </trkpt>
      <trkpt lat="43.16318" lon="6.06784">
        <ele>52</ele>
        <time>2022-04-10T07:17:36Z</time>
      </trkpt>
      <trkpt lat="43.1632" lon="6.06783">
        <ele>52</ele>
        <time>2022-04-10T07:17:37Z</time>
      </trkpt>
      <trkpt lat="43.16322" lon="6.06781">
        <ele>52</ele>
        <time>2022-04-10T07:17:38Z</time>
      </trkpt>
      <trkpt lat="43.16326" lon="6.06779">
        <ele>52</ele>
        <time>2022-04-10T07:17:39Z</time>
      </trkpt>
      <trkpt lat="43.16329" lon="6.06776">
        <ele>52</ele>
        <time>2022-04-10T07:17:40Z</time>
      </trkpt>
      <trkpt lat="43.16333" lon="6.06775">
        <ele>52</ele>
        <time>2022-04-10T07:17:41Z</time>
      </trkpt>
      <trkpt lat="43.16338" lon="6.06773">
        <ele>52</ele>
        <time>2022-04-10T07:17:42Z</time>
      </trkpt>
      <trkpt lat="43.16407" lon="6.0675">
        <ele>52</ele>
        <time>2022-04-10T07:17:56Z</time>
      </trkpt>
      <trkpt lat="43.1647" lon="6.06725">
        <ele>52</ele>
        <time>2022-04-10T07:18:12Z</time>
      </trkpt>
      <trkpt lat="43.16537" lon="6.06685">
        <ele>53</ele>
        <time>2022-04-10T07:18:30Z</time>
      </trkpt>
      <trkpt lat="43.166" lon="6.06648">
        <ele>53.296875</ele>
        <time>2022-04-10T07:18:49Z</time>
      </trkpt>
      <trkpt lat="43.16661" lon="6.06618">
        <ele>54.21484375</ele>
        <time>2022-04-10T07:19:07Z</time>
      </trkpt>
      <trkpt lat="43.16717" lon="6.06593">
        <ele>55</ele>
        <time>2022-04-10T07:19:23Z</time>
      </trkpt>
      <trkpt lat="43.16778" lon="6.06574">
        <ele>55.671875</ele>
        <time>2022-04-10T07:19:40Z</time>
      </trkpt>
      <trkpt lat="43.16781" lon="6.06571">
        <ele>55.68359375</ele>
        <time>2022-04-10T07:19:41Z</time>
      </trkpt>
      <trkpt lat="43.16783" lon="6.06567">
        <ele>55.62109375</ele>
        <time>2022-04-10T07:19:42Z</time>
      </trkpt>
      <trkpt lat="43.16784" lon="6.06562">
        <ele>55.48828125</ele>
        <time>2022-04-10T07:19:43Z</time>
      </trkpt>
      <trkpt lat="43.16785" lon="6.06556">
        <ele>55.3125</ele>
        <time>2022-04-10T07:19:44Z</time>
      </trkpt>
      <trkpt lat="43.16785" lon="6.06551">
        <ele>55.12890625</ele>
        <time>2022-04-10T07:19:45Z</time>
      </trkpt>
      <trkpt lat="43.16785" lon="6.06546">
        <ele>55</ele>
        <time>2022-04-10T07:19:46Z</time>
      </trkpt>
      <trkpt lat="43.16784" lon="6.06541">
        <ele>55</ele>
        <time>2022-04-10T07:19:47Z</time>
      </trkpt>
      <trkpt lat="43.16784" lon="6.06537">
        <ele>55</ele>
        <time>2022-04-10T07:19:48Z</time>
      </trkpt>
      <trkpt lat="43.16785" lon="6.06532">
        <ele>55</ele>
        <time>2022-04-10T07:19:49Z</time>
      </trkpt>
      <trkpt lat="43.16787" lon="6.06528">
        <ele>55</ele>
        <time>2022-04-10T07:19:50Z</time>
      </trkpt>
      <trkpt lat="43.16789" lon="6.06526">
        <ele>55.01953125</ele>
        <time>2022-04-10T07:19:51Z</time>
      </trkpt>
      <trkpt lat="43.16828" lon="6.06485">
        <ele>55</ele>
        <time>2022-04-10T07:20:03Z</time>
      </trkpt>
      <trkpt lat="43.16861" lon="6.06448">
        <ele>55</ele>
        <time>2022-04-10T07:20:15Z</time>
      </trkpt>
      <trkpt lat="43.16886" lon="6.06396">
        <ele>55</ele>
        <time>2022-04-10T07:20:28Z</time>
      </trkpt>
      <trkpt lat="43.16904" lon="6.06339">
        <ele>55</ele>
        <time>2022-04-10T07:20:40Z</time>
      </trkpt>
      <trkpt lat="43.16935" lon="6.06288">
        <ele>55.20703125</ele>
        <time>2022-04-10T07:20:53Z</time>
      </trkpt>
      <trkpt lat="43.16983" lon="6.06224">
        <ele>56.65625</ele>
        <time>2022-04-10T07:21:10Z</time>
      </trkpt>
      <trkpt lat="43.17035" lon="6.06151">
        <ele>58</ele>
        <time>2022-04-10T07:21:28Z</time>
      </trkpt>
      <trkpt lat="43.17069" lon="6.06082">
        <ele>59.12890625</ele>
        <time>2022-04-10T07:21:43Z</time>
      </trkpt>
      <trkpt lat="43.1712" lon="6.05986">
        <ele>61</ele>
        <time>2022-04-10T07:22:05Z</time>
      </trkpt>
      <trkpt lat="43.17136" lon="6.05955">
        <ele>61</ele>
        <time>2022-04-10T07:22:12Z</time>
      </trkpt>
      <trkpt lat="43.17174" lon="6.05902">
        <ele>61</ele>
        <time>2022-04-10T07:22:26Z</time>
      </trkpt>
      <trkpt lat="43.17236" lon="6.05847">
        <ele>62</ele>
        <time>2022-04-10T07:22:44Z</time>
      </trkpt>
      <trkpt lat="43.17274" lon="6.0582">
        <ele>62</ele>
        <time>2022-04-10T07:22:56Z</time>
      </trkpt>
      <trkpt lat="43.17324" lon="6.05778">
        <ele>62</ele>
        <time>2022-04-10T07:23:11Z</time>
      </trkpt>
      <trkpt lat="43.17379" lon="6.05744">
        <ele>63</ele>
        <time>2022-04-10T07:23:27Z</time>
      </trkpt>
      <trkpt lat="43.17382" lon="6.05741">
        <ele>62.98046875</ele>
        <time>2022-04-10T07:23:28Z</time>
      </trkpt>
      <trkpt lat="43.17386" lon="6.05738">
        <ele>62.9375</ele>
        <time>2022-04-10T07:23:29Z</time>
      </trkpt>
      <trkpt lat="43.17441" lon="6.05682">
        <ele>63</ele>
        <time>2022-04-10T07:23:46Z</time>
      </trkpt>
      <trkpt lat="43.175" lon="6.05641">
        <ele>63</ele>
        <time>2022-04-10T07:24:02Z</time>
      </trkpt>
      <trkpt lat="43.17503" lon="6.05639">
        <ele>63</ele>
        <time>2022-04-10T07:24:03Z</time>
      </trkpt>
      <trkpt lat="43.17507" lon="6.05636">
        <ele>63</ele>
        <time>2022-04-10T07:24:04Z</time>
      </trkpt>
      <trkpt lat="43.17523" lon="6.05626">
        <ele>63</ele>
        <time>2022-04-10T07:24:08Z</time>
      </trkpt>
      <trkpt lat="43.17527" lon="6.05623">
        <ele>63</ele>
        <time>2022-04-10T07:24:09Z</time>
      </trkpt>
      <trkpt lat="43.1754" lon="6.0561">
        <ele>63.140625</ele>
        <time>2022-04-10T07:24:13Z</time>
      </trkpt>
      <trkpt lat="43.17543" lon="6.05606">
        <ele>63.23828125</ele>
        <time>2022-04-10T07:24:14Z</time>
      </trkpt>
      <trkpt lat="43.17545" lon="6.05601">
        <ele>63.3203125</ele>
        <time>2022-04-10T07:24:15Z</time>
      </trkpt>
      <trkpt lat="43.17546" lon="6.05596">
        <ele>63.375</ele>
        <time>2022-04-10T07:24:16Z</time>
      </trkpt>
      <trkpt lat="43.17548" lon="6.0559">
        <ele>63.41796875</ele>
        <time>2022-04-10T07:24:17Z</time>
      </trkpt>
      <trkpt lat="43.17549" lon="6.05585">
        <ele>63.453125</ele>
        <time>2022-04-10T07:24:18Z</time>
      </trkpt>
      <trkpt lat="43.17551" lon="6.05574">
        <ele>63.5390625</ele>
        <time>2022-04-10T07:24:20Z</time>
      </trkpt>
      <trkpt lat="43.17555" lon="6.05563">
        <ele>63.6875</ele>
        <time>2022-04-10T07:24:22Z</time>
      </trkpt>
      <trkpt lat="43.17558" lon="6.05558">
        <ele>63.78515625</ele>
        <time>2022-04-10T07:24:23Z</time>
      </trkpt>
      <trkpt lat="43.17567" lon="6.05545">
        <ele>64</ele>
        <time>2022-04-10T07:24:26Z</time>
      </trkpt>
      <trkpt lat="43.1757" lon="6.05541">
        <ele>64</ele>
        <time>2022-04-10T07:24:27Z</time>
      </trkpt>
      <trkpt lat="43.17625" lon="6.05496">
        <ele>64.1875</ele>
        <time>2022-04-10T07:24:43Z</time>
      </trkpt>
      <trkpt lat="43.1767" lon="6.05456">
        <ele>65</ele>
        <time>2022-04-10T07:24:56Z</time>
      </trkpt>
      <trkpt lat="43.17731" lon="6.05401">
        <ele>66</ele>
        <time>2022-04-10T07:25:14Z</time>
      </trkpt>
      <trkpt lat="43.17788" lon="6.05359">
        <ele>66.07421875</ele>
        <time>2022-04-10T07:25:32Z</time>
      </trkpt>
      <trkpt lat="43.17837" lon="6.05324">
        <ele>67.0390625</ele>
        <time>2022-04-10T07:25:47Z</time>
      </trkpt>
      <trkpt lat="43.1791" lon="6.05262">
        <ele>68</ele>
        <time>2022-04-10T07:26:07Z</time>
      </trkpt>
      <trkpt lat="43.17954" lon="6.05232">
        <ele>69</ele>
        <time>2022-04-10T07:26:19Z</time>
      </trkpt>
      <trkpt lat="43.17957" lon="6.05229">
        <ele>69</ele>
        <time>2022-04-10T07:26:20Z</time>
      </trkpt>
      <trkpt lat="43.17961" lon="6.05225">
        <ele>69</ele>
        <time>2022-04-10T07:26:21Z</time>
      </trkpt>
      <trkpt lat="43.17963" lon="6.05222">
        <ele>69</ele>
        <time>2022-04-10T07:26:22Z</time>
      </trkpt>
      <trkpt lat="43.17966" lon="6.05217">
        <ele>69</ele>
        <time>2022-04-10T07:26:23Z</time>
      </trkpt>
      <trkpt lat="43.17967" lon="6.05212">
        <ele>69</ele>
        <time>2022-04-10T07:26:24Z</time>
      </trkpt>
      <trkpt lat="43.17969" lon="6.05207">
        <ele>69</ele>
        <time>2022-04-10T07:26:25Z</time>
      </trkpt>
      <trkpt lat="43.1797" lon="6.05202">
        <ele>69</ele>
        <time>2022-04-10T07:26:26Z</time>
      </trkpt>
      <trkpt lat="43.17971" lon="6.05196">
        <ele>69</ele>
        <time>2022-04-10T07:26:27Z</time>
      </trkpt>
      <trkpt lat="43.17973" lon="6.05184">
        <ele>69</ele>
        <time>2022-04-10T07:26:29Z</time>
      </trkpt>
      <trkpt lat="43.17975" lon="6.05179">
        <ele>69</ele>
        <time>2022-04-10T07:26:30Z</time>
      </trkpt>
      <trkpt lat="43.17978" lon="6.05174">
        <ele>69</ele>
        <time>2022-04-10T07:26:31Z</time>
      </trkpt>
      <trkpt lat="43.17981" lon="6.0517">
        <ele>69</ele>
        <time>2022-04-10T07:26:32Z</time>
      </trkpt>
      <trkpt lat="43.17985" lon="6.05167">
        <ele>69</ele>
        <time>2022-04-10T07:26:33Z</time>
      </trkpt>
      <trkpt lat="43.17989" lon="6.05165">
        <ele>69</ele>
        <time>2022-04-10T07:26:34Z</time>
      </trkpt>
      <trkpt lat="43.17993" lon="6.05164">
        <ele>69</ele>
        <time>2022-04-10T07:26:35Z</time>
      </trkpt>
      <trkpt lat="43.18032" lon="6.05147">
        <ele>69.875</ele>
        <time>2022-04-10T07:26:45Z</time>
      </trkpt>
      <trkpt lat="43.18036" lon="6.05145">
        <ele>70</ele>
        <time>2022-04-10T07:26:46Z</time>
      </trkpt>
      <trkpt lat="43.181" lon="6.05116">
        <ele>70.62109375</ele>
        <time>2022-04-10T07:27:03Z</time>
      </trkpt>
      <trkpt lat="43.18141" lon="6.05095">
        <ele>70.93359375</ele>
        <time>2022-04-10T07:27:15Z</time>
      </trkpt>
      <trkpt lat="43.18167" lon="6.05083">
        <ele>71</ele>
        <time>2022-04-10T07:27:25Z</time>
      </trkpt>
      <trkpt lat="43.18218" lon="6.05088">
        <ele>71.5625</ele>
        <time>2022-04-10T07:27:41Z</time>
      </trkpt>
      <trkpt lat="43.18273" lon="6.05122">
        <ele>72</ele>
        <time>2022-04-10T07:27:58Z</time>
      </trkpt>
      <trkpt lat="43.18319" lon="6.05144">
        <ele>73</ele>
        <time>2022-04-10T07:28:11Z</time>
      </trkpt>
      <trkpt lat="43.18375" lon="6.05177">
        <ele>71.859375</ele>
        <time>2022-04-10T07:28:26Z</time>
      </trkpt>
      <trkpt lat="43.18426" lon="6.05203">
        <ele>69.41015625</ele>
        <time>2022-04-10T07:28:39Z</time>
      </trkpt>
      <trkpt lat="43.1843" lon="6.05204">
        <ele>69.390625</ele>
        <time>2022-04-10T07:28:40Z</time>
      </trkpt>
      <trkpt lat="43.18435" lon="6.05203">
        <ele>69.42578125</ele>
        <time>2022-04-10T07:28:41Z</time>
      </trkpt>
      <trkpt lat="43.18439" lon="6.05201">
        <ele>69.49609375</ele>
        <time>2022-04-10T07:28:42Z</time>
      </trkpt>
      <trkpt lat="43.18444" lon="6.05198">
        <ele>69.59765625</ele>
        <time>2022-04-10T07:28:43Z</time>
      </trkpt>
      <trkpt lat="43.18448" lon="6.05195">
        <ele>69.71484375</ele>
        <time>2022-04-10T07:28:44Z</time>
      </trkpt>
      <trkpt lat="43.18451" lon="6.05191">
        <ele>69.83984375</ele>
        <time>2022-04-10T07:28:45Z</time>
      </trkpt>
      <trkpt lat="43.1849" lon="6.05157">
        <ele>71.046875</ele>
        <time>2022-04-10T07:28:56Z</time>
      </trkpt>
      <trkpt lat="43.18559" lon="6.05137">
        <ele>70.79296875</ele>
        <time>2022-04-10T07:29:12Z</time>
      </trkpt>
      <trkpt lat="43.18639" lon="6.05126">
        <ele>71</ele>
        <time>2022-04-10T07:29:30Z</time>
      </trkpt>
      <trkpt lat="43.18699" lon="6.05132">
        <ele>71</ele>
        <time>2022-04-10T07:29:45Z</time>
      </trkpt>
      <trkpt lat="43.18704" lon="6.05133">
        <ele>71</ele>
        <time>2022-04-10T07:29:46Z</time>
      </trkpt>
      <trkpt lat="43.18708" lon="6.05134">
        <ele>71</ele>
        <time>2022-04-10T07:29:47Z</time>
      </trkpt>
      <trkpt lat="43.18767" lon="6.05166">
        <ele>71</ele>
        <time>2022-04-10T07:30:03Z</time>
      </trkpt>
      <trkpt lat="43.18822" lon="6.052">
        <ele>71</ele>
        <time>2022-04-10T07:30:18Z</time>
      </trkpt>
      <trkpt lat="43.18863" lon="6.05235">
        <ele>71</ele>
        <time>2022-04-10T07:30:30Z</time>
      </trkpt>
      <trkpt lat="43.18867" lon="6.05236">
        <ele>71</ele>
        <time>2022-04-10T07:30:31Z</time>
      </trkpt>
      <trkpt lat="43.18899" lon="6.05246">
        <ele>72</ele>
        <time>2022-04-10T07:30:39Z</time>
      </trkpt>
      <trkpt lat="43.18902" lon="6.05248">
        <ele>72</ele>
        <time>2022-04-10T07:30:40Z</time>
      </trkpt>
      <trkpt lat="43.18906" lon="6.0525">
        <ele>72</ele>
        <time>2022-04-10T07:30:41Z</time>
      </trkpt>
      <trkpt lat="43.18971" lon="6.05275">
        <ele>72</ele>
        <time>2022-04-10T07:30:59Z</time>
      </trkpt>
      <trkpt lat="43.18976" lon="6.05273">
        <ele>72</ele>
        <time>2022-04-10T07:31:06Z</time>
      </trkpt>
      <trkpt lat="43.18977" lon="6.05271">
        <ele>72</ele>
        <time>2022-04-10T07:31:07Z</time>
      </trkpt>
      <trkpt lat="43.18978" lon="6.05268">
        <ele>72</ele>
        <time>2022-04-10T07:31:08Z</time>
      </trkpt>
      <trkpt lat="43.18978" lon="6.05265">
        <ele>72</ele>
        <time>2022-04-10T07:31:09Z</time>
      </trkpt>
      <trkpt lat="43.18978" lon="6.05261">
        <ele>72</ele>
        <time>2022-04-10T07:31:10Z</time>
      </trkpt>
      <trkpt lat="43.18978" lon="6.05256">
        <ele>72</ele>
        <time>2022-04-10T07:31:11Z</time>
      </trkpt>
      <trkpt lat="43.18978" lon="6.05251">
        <ele>72</ele>
        <time>2022-04-10T07:31:12Z</time>
      </trkpt>
      <trkpt lat="43.18983" lon="6.05165">
        <ele>73</ele>
        <time>2022-04-10T07:31:28Z</time>
      </trkpt>
      <trkpt lat="43.18991" lon="6.05131">
        <ele>73</ele>
        <time>2022-04-10T07:31:34Z</time>
      </trkpt>
      <trkpt lat="43.18996" lon="6.05115">
        <ele>73</ele>
        <time>2022-04-10T07:31:37Z</time>
      </trkpt>
      <trkpt lat="43.19003" lon="6.05095">
        <ele>73</ele>
        <time>2022-04-10T07:31:41Z</time>
      </trkpt>
      <trkpt lat="43.1903" lon="6.05041">
        <ele>73</ele>
        <time>2022-04-10T07:31:53Z</time>
      </trkpt>
      <trkpt lat="43.19048" lon="6.05027">
        <ele>73</ele>
        <time>2022-04-10T07:31:58Z</time>
      </trkpt>
      <trkpt lat="43.19117" lon="6.04999">
        <ele>74</ele>
        <time>2022-04-10T07:32:15Z</time>
      </trkpt>
      <trkpt lat="43.19191" lon="6.0497">
        <ele>75</ele>
        <time>2022-04-10T07:32:33Z</time>
      </trkpt>
      <trkpt lat="43.1924" lon="6.04948">
        <ele>75</ele>
        <time>2022-04-10T07:32:45Z</time>
      </trkpt>
      <trkpt lat="43.19244" lon="6.04946">
        <ele>75</ele>
        <time>2022-04-10T07:32:46Z</time>
      </trkpt>
      <trkpt lat="43.19248" lon="6.04943">
        <ele>75</ele>
        <time>2022-04-10T07:32:47Z</time>
      </trkpt>
      <trkpt lat="43.19252" lon="6.04941">
        <ele>75</ele>
        <time>2022-04-10T07:32:48Z</time>
      </trkpt>
      <trkpt lat="43.19256" lon="6.04938">
        <ele>75</ele>
        <time>2022-04-10T07:32:49Z</time>
      </trkpt>
      <trkpt lat="43.19261" lon="6.04936">
        <ele>75.1484375</ele>
        <time>2022-04-10T07:32:50Z</time>
      </trkpt>
      <trkpt lat="43.19266" lon="6.04932">
        <ele>75.328125</ele>
        <time>2022-04-10T07:32:51Z</time>
      </trkpt>
      <trkpt lat="43.19311" lon="6.04892">
        <ele>76.56640625</ele>
        <time>2022-04-10T07:33:02Z</time>
      </trkpt>
      <trkpt lat="43.19358" lon="6.04841">
        <ele>77</ele>
        <time>2022-04-10T07:33:17Z</time>
      </trkpt>
      <trkpt lat="43.19361" lon="6.04838">
        <ele>77</ele>
        <time>2022-04-10T07:33:18Z</time>
      </trkpt>
      <trkpt lat="43.19364" lon="6.04833">
        <ele>77</ele>
        <time>2022-04-10T07:33:19Z</time>
      </trkpt>
      <trkpt lat="43.19365" lon="6.04826">
        <ele>77</ele>
        <time>2022-04-10T07:33:20Z</time>
      </trkpt>
      <trkpt lat="43.19367" lon="6.0482">
        <ele>77</ele>
        <time>2022-04-10T07:33:21Z</time>
      </trkpt>
      <trkpt lat="43.1937" lon="6.04814">
        <ele>77</ele>
        <time>2022-04-10T07:33:22Z</time>
      </trkpt>
      <trkpt lat="43.19373" lon="6.04808">
        <ele>77</ele>
        <time>2022-04-10T07:33:23Z</time>
      </trkpt>
      <trkpt lat="43.19376" lon="6.04802">
        <ele>77</ele>
        <time>2022-04-10T07:33:24Z</time>
      </trkpt>
      <trkpt lat="43.19379" lon="6.04795">
        <ele>77</ele>
        <time>2022-04-10T07:33:25Z</time>
      </trkpt>
      <trkpt lat="43.19406" lon="6.04732">
        <ele>77.359375</ele>
        <time>2022-04-10T07:33:33Z</time>
      </trkpt>
      <trkpt lat="43.19411" lon="6.04716">
        <ele>77.55078125</ele>
        <time>2022-04-10T07:33:35Z</time>
      </trkpt>
      <trkpt lat="43.19413" lon="6.04707">
        <ele>77.6171875</ele>
        <time>2022-04-10T07:33:36Z</time>
      </trkpt>
      <trkpt lat="43.19415" lon="6.04699">
        <ele>77.66796875</ele>
        <time>2022-04-10T07:33:37Z</time>
      </trkpt>
      <trkpt lat="43.19416" lon="6.04682">
        <ele>77.70703125</ele>
        <time>2022-04-10T07:33:42Z</time>
      </trkpt>
      <trkpt lat="43.19416" lon="6.0468">
        <ele>77.71484375</ele>
        <time>2022-04-10T07:33:43Z</time>
      </trkpt>
      <trkpt lat="43.19419" lon="6.04649">
        <ele>77.8125</ele>
        <time>2022-04-10T07:33:49Z</time>
      </trkpt>
      <trkpt lat="43.1942" lon="6.04644">
        <ele>77.87109375</ele>
        <time>2022-04-10T07:33:50Z</time>
      </trkpt>
      <trkpt lat="43.19423" lon="6.04638">
        <ele>77.96484375</ele>
        <time>2022-04-10T07:33:51Z</time>
      </trkpt>
      <trkpt lat="43.19427" lon="6.04634">
        <ele>78</ele>
        <time>2022-04-10T07:33:52Z</time>
      </trkpt>
      <trkpt lat="43.19431" lon="6.04632">
        <ele>78</ele>
        <time>2022-04-10T07:33:53Z</time>
      </trkpt>
      <trkpt lat="43.19437" lon="6.04632">
        <ele>78</ele>
        <time>2022-04-10T07:33:54Z</time>
      </trkpt>
      <trkpt lat="43.19441" lon="6.04634">
        <ele>78</ele>
        <time>2022-04-10T07:33:55Z</time>
      </trkpt>
      <trkpt lat="43.19446" lon="6.04638">
        <ele>78</ele>
        <time>2022-04-10T07:33:56Z</time>
      </trkpt>
      <trkpt lat="43.1945" lon="6.04641">
        <ele>78</ele>
        <time>2022-04-10T07:33:57Z</time>
      </trkpt>
      <trkpt lat="43.19467" lon="6.04653">
        <ele>78</ele>
        <time>2022-04-10T07:34:01Z</time>
      </trkpt>
      <trkpt lat="43.19472" lon="6.04655">
        <ele>78</ele>
        <time>2022-04-10T07:34:02Z</time>
      </trkpt>
      <trkpt lat="43.19476" lon="6.04656">
        <ele>78</ele>
        <time>2022-04-10T07:34:03Z</time>
      </trkpt>
      <trkpt lat="43.19489" lon="6.04657">
        <ele>78</ele>
        <time>2022-04-10T07:34:06Z</time>
      </trkpt>
      <trkpt lat="43.19551" lon="6.04676">
        <ele>78.58984375</ele>
        <time>2022-04-10T07:34:21Z</time>
      </trkpt>
      <trkpt lat="43.19617" lon="6.04705">
        <ele>79.984375</ele>
        <time>2022-04-10T07:34:37Z</time>
      </trkpt>
      <trkpt lat="43.1968" lon="6.04743">
        <ele>80</ele>
        <time>2022-04-10T07:34:53Z</time>
      </trkpt>
      <trkpt lat="43.19755" lon="6.0478">
        <ele>80</ele>
        <time>2022-04-10T07:35:11Z</time>
      </trkpt>
      <trkpt lat="43.19822" lon="6.0478">
        <ele>81.3515625</ele>
        <time>2022-04-10T07:35:27Z</time>
      </trkpt>
      <trkpt lat="43.19892" lon="6.04767">
        <ele>82.87890625</ele>
        <time>2022-04-10T07:35:44Z</time>
      </trkpt>
      <trkpt lat="43.19964" lon="6.04753">
        <ele>84.921875</ele>
        <time>2022-04-10T07:36:03Z</time>
      </trkpt>
      <trkpt lat="43.19985" lon="6.04741">
        <ele>85.953125</ele>
        <time>2022-04-10T07:36:09Z</time>
      </trkpt>
      <trkpt lat="43.19989" lon="6.04741">
        <ele>85.9609375</ele>
        <time>2022-04-10T07:36:10Z</time>
      </trkpt>
      <trkpt lat="43.19993" lon="6.04743">
        <ele>86</ele>
        <time>2022-04-10T07:36:11Z</time>
      </trkpt>
      <trkpt lat="43.19997" lon="6.04745">
        <ele>86</ele>
        <time>2022-04-10T07:36:12Z</time>
      </trkpt>
      <trkpt lat="43.2" lon="6.04748">
        <ele>86</ele>
        <time>2022-04-10T07:36:13Z</time>
      </trkpt>
      <trkpt lat="43.20004" lon="6.0475">
        <ele>86</ele>
        <time>2022-04-10T07:36:14Z</time>
      </trkpt>
      <trkpt lat="43.20008" lon="6.04751">
        <ele>86.0546875</ele>
        <time>2022-04-10T07:36:15Z</time>
      </trkpt>
      <trkpt lat="43.20012" lon="6.0475">
        <ele>86.19140625</ele>
        <time>2022-04-10T07:36:16Z</time>
      </trkpt>
      <trkpt lat="43.20015" lon="6.04749">
        <ele>86.3125</ele>
        <time>2022-04-10T07:36:17Z</time>
      </trkpt>
      <trkpt lat="43.20018" lon="6.04746">
        <ele>86.41796875</ele>
        <time>2022-04-10T07:36:18Z</time>
      </trkpt>
      <trkpt lat="43.20021" lon="6.04743">
        <ele>86.51953125</ele>
        <time>2022-04-10T07:36:19Z</time>
      </trkpt>
      <trkpt lat="43.20023" lon="6.04738">
        <ele>86.6015625</ele>
        <time>2022-04-10T07:36:20Z</time>
      </trkpt>
      <trkpt lat="43.20025" lon="6.04733">
        <ele>86.66015625</ele>
        <time>2022-04-10T07:36:21Z</time>
      </trkpt>
      <trkpt lat="43.20026" lon="6.04728">
        <ele>86.6796875</ele>
        <time>2022-04-10T07:36:22Z</time>
      </trkpt>
      <trkpt lat="43.20026" lon="6.04722">
        <ele>86.6875</ele>
        <time>2022-04-10T07:36:23Z</time>
      </trkpt>
      <trkpt lat="43.20029" lon="6.04712">
        <ele>86.796875</ele>
        <time>2022-04-10T07:36:25Z</time>
      </trkpt>
      <trkpt lat="43.20032" lon="6.0471">
        <ele>86.9140625</ele>
        <time>2022-04-10T07:36:26Z</time>
      </trkpt>
      <trkpt lat="43.20036" lon="6.0471">
        <ele>87.0546875</ele>
        <time>2022-04-10T07:36:27Z</time>
      </trkpt>
      <trkpt lat="43.20084" lon="6.04699">
        <ele>88.32421875</ele>
        <time>2022-04-10T07:36:38Z</time>
      </trkpt>
      <trkpt lat="43.20088" lon="6.04696">
        <ele>88.2890625</ele>
        <time>2022-04-10T07:36:39Z</time>
      </trkpt>
      <trkpt lat="43.20125" lon="6.04667">
        <ele>89.453125</ele>
        <time>2022-04-10T07:36:48Z</time>
      </trkpt>
      <trkpt lat="43.2013" lon="6.04666">
        <ele>89.7578125</ele>
        <time>2022-04-10T07:36:49Z</time>
      </trkpt>
      <trkpt lat="43.20134" lon="6.04667">
        <ele>90.03515625</ele>
        <time>2022-04-10T07:36:50Z</time>
      </trkpt>
      <trkpt lat="43.20138" lon="6.04668">
        <ele>90.2578125</ele>
        <time>2022-04-10T07:36:51Z</time>
      </trkpt>
      <trkpt lat="43.20142" lon="6.0467">
        <ele>90.42578125</ele>
        <time>2022-04-10T07:36:52Z</time>
      </trkpt>
      <trkpt lat="43.20146" lon="6.04672">
        <ele>90.54296875</ele>
        <time>2022-04-10T07:36:53Z</time>
      </trkpt>
      <trkpt lat="43.20158" lon="6.04681">
        <ele>90.6640625</ele>
        <time>2022-04-10T07:36:57Z</time>
      </trkpt>
      <trkpt lat="43.20193" lon="6.04708">
        <ele>91.72265625</ele>
        <time>2022-04-10T07:37:08Z</time>
      </trkpt>
      <trkpt lat="43.20219" lon="6.04715">
        <ele>92.6328125</ele>
        <time>2022-04-10T07:37:17Z</time>
      </trkpt>
      <trkpt lat="43.20222" lon="6.04705">
        <ele>92.73828125</ele>
        <time>2022-04-10T07:37:20Z</time>
      </trkpt>
      <trkpt lat="43.20213" lon="6.04713">
        <ele>92.4140625</ele>
        <time>2022-04-10T07:37:27Z</time>
      </trkpt>
      <trkpt lat="43.20209" lon="6.04715">
        <ele>92.30078125</ele>
        <time>2022-04-10T07:37:28Z</time>
      </trkpt>
      <trkpt lat="43.20205" lon="6.04714">
        <ele>92.13671875</ele>
        <time>2022-04-10T07:37:29Z</time>
      </trkpt>
      <trkpt lat="43.202" lon="6.04712">
        <ele>91.95703125</ele>
        <time>2022-04-10T07:37:30Z</time>
      </trkpt>
      <trkpt lat="43.20194" lon="6.04708">
        <ele>91.76171875</ele>
        <time>2022-04-10T07:37:31Z</time>
      </trkpt>
      <trkpt lat="43.2018" lon="6.04693">
        <ele>91.234375</ele>
        <time>2022-04-10T07:37:34Z</time>
      </trkpt>
      <trkpt lat="43.20178" lon="6.04684">
        <ele>91.25</ele>
        <time>2022-04-10T07:37:35Z</time>
      </trkpt>
      <trkpt lat="43.20177" lon="6.04676">
        <ele>91.484375</ele>
        <time>2022-04-10T07:37:36Z</time>
      </trkpt>
      <trkpt lat="43.20176" lon="6.04668">
        <ele>91.7109375</ele>
        <time>2022-04-10T07:37:37Z</time>
      </trkpt>
      <trkpt lat="43.20175" lon="6.04662">
        <ele>91.90625</ele>
        <time>2022-04-10T07:37:38Z</time>
      </trkpt>
      <trkpt lat="43.20174" lon="6.04657">
        <ele>92</ele>
        <time>2022-04-10T07:37:39Z</time>
      </trkpt>
      <trkpt lat="43.20172" lon="6.04654">
        <ele>91.95703125</ele>
        <time>2022-04-10T07:37:40Z</time>
      </trkpt>
      <trkpt lat="43.20157" lon="6.04613">
        <ele>91.40234375</ele>
        <time>2022-04-10T07:37:49Z</time>
      </trkpt>
      <trkpt lat="43.20156" lon="6.04604">
        <ele>91.3671875</ele>
        <time>2022-04-10T07:37:50Z</time>
      </trkpt>
      <trkpt lat="43.20155" lon="6.04596">
        <ele>91.328125</ele>
        <time>2022-04-10T07:37:51Z</time>
      </trkpt>
      <trkpt lat="43.20122" lon="6.04497">
        <ele>90.14453125</ele>
        <time>2022-04-10T07:38:04Z</time>
      </trkpt>
      <trkpt lat="43.20111" lon="6.0447">
        <ele>89.76171875</ele>
        <time>2022-04-10T07:38:08Z</time>
      </trkpt>
      <trkpt lat="43.20098" lon="6.0442">
        <ele>88.671875</ele>
        <time>2022-04-10T07:38:16Z</time>
      </trkpt>
      <trkpt lat="43.20098" lon="6.04414">
        <ele>88.44140625</ele>
        <time>2022-04-10T07:38:17Z</time>
      </trkpt>
      <trkpt lat="43.20098" lon="6.04408">
        <ele>88.3046875</ele>
        <time>2022-04-10T07:38:18Z</time>
      </trkpt>
      <trkpt lat="43.201" lon="6.04402">
        <ele>88.34375</ele>
        <time>2022-04-10T07:38:19Z</time>
      </trkpt>
      <trkpt lat="43.20102" lon="6.04396">
        <ele>88.4140625</ele>
        <time>2022-04-10T07:38:20Z</time>
      </trkpt>
      <trkpt lat="43.20104" lon="6.04391">
        <ele>88.5078125</ele>
        <time>2022-04-10T07:38:21Z</time>
      </trkpt>
      <trkpt lat="43.20107" lon="6.04387">
        <ele>88.625</ele>
        <time>2022-04-10T07:38:22Z</time>
      </trkpt>
      <trkpt lat="43.20111" lon="6.04384">
        <ele>88.7734375</ele>
        <time>2022-04-10T07:38:23Z</time>
      </trkpt>
      <trkpt lat="43.20116" lon="6.04383">
        <ele>88.93359375</ele>
        <time>2022-04-10T07:38:24Z</time>
      </trkpt>
      <trkpt lat="43.2012" lon="6.04383">
        <ele>89.09765625</ele>
        <time>2022-04-10T07:38:25Z</time>
      </trkpt>
      <trkpt lat="43.20125" lon="6.04383">
        <ele>89.26171875</ele>
        <time>2022-04-10T07:38:26Z</time>
      </trkpt>
      <trkpt lat="43.20193" lon="6.04382">
        <ele>91.7109375</ele>
        <time>2022-04-10T07:38:42Z</time>
      </trkpt>
      <trkpt lat="43.20251" lon="6.04379">
        <ele>93.78125</ele>
        <time>2022-04-10T07:38:56Z</time>
      </trkpt>
      <trkpt lat="43.20268" lon="6.04383">
        <ele>94.4140625</ele>
        <time>2022-04-10T07:39:00Z</time>
      </trkpt>
      <trkpt lat="43.20272" lon="6.04382">
        <ele>94.5625</ele>
        <time>2022-04-10T07:39:01Z</time>
      </trkpt>
      <trkpt lat="43.20276" lon="6.04381">
        <ele>94.703125</ele>
        <time>2022-04-10T07:39:02Z</time>
      </trkpt>
      <trkpt lat="43.20284" lon="6.04377">
        <ele>94.99609375</ele>
        <time>2022-04-10T07:39:04Z</time>
      </trkpt>
      <trkpt lat="43.20293" lon="6.04374">
        <ele>95.52734375</ele>
        <time>2022-04-10T07:39:06Z</time>
      </trkpt>
      <trkpt lat="43.2033" lon="6.04356">
        <ele>96.73046875</ele>
        <time>2022-04-10T07:39:17Z</time>
      </trkpt>
      <trkpt lat="43.20376" lon="6.04334">
        <ele>98.5234375</ele>
        <time>2022-04-10T07:39:30Z</time>
      </trkpt>
      <trkpt lat="43.20439" lon="6.04342">
        <ele>101.8046875</ele>
        <time>2022-04-10T07:39:47Z</time>
      </trkpt>
      <trkpt lat="43.20495" lon="6.04334">
        <ele>104.3125</ele>
        <time>2022-04-10T07:40:03Z</time>
      </trkpt>
      <trkpt lat="43.20536" lon="6.04332">
        <ele>105.8984375</ele>
        <time>2022-04-10T07:40:14Z</time>
      </trkpt>
      <trkpt lat="43.20552" lon="6.04324">
        <ele>107.37890625</ele>
        <time>2022-04-10T07:40:19Z</time>
      </trkpt>
      <trkpt lat="43.20595" lon="6.04304">
        <ele>109.98828125</ele>
        <time>2022-04-10T07:40:33Z</time>
      </trkpt>
      <trkpt lat="43.20647" lon="6.04312">
        <ele>111.5703125</ele>
        <time>2022-04-10T07:40:48Z</time>
      </trkpt>
      <trkpt lat="43.20695" lon="6.04319">
        <ele>113.05859375</ele>
        <time>2022-04-10T07:41:02Z</time>
      </trkpt>
      <trkpt lat="43.20758" lon="6.04335">
        <ele>115.0546875</ele>
        <time>2022-04-10T07:41:20Z</time>
      </trkpt>
      <trkpt lat="43.20811" lon="6.04342">
        <ele>116.390625</ele>
        <time>2022-04-10T07:41:35Z</time>
      </trkpt>
      <trkpt lat="43.20868" lon="6.04345">
        <ele>118.02734375</ele>
        <time>2022-04-10T07:41:51Z</time>
      </trkpt>
      <trkpt lat="43.20903" lon="6.04364">
        <ele>119.56640625</ele>
        <time>2022-04-10T07:42:01Z</time>
      </trkpt>
      <trkpt lat="43.20906" lon="6.04365">
        <ele>119.8046875</ele>
        <time>2022-04-10T07:42:02Z</time>
      </trkpt>
      <trkpt lat="43.20909" lon="6.04364">
        <ele>120.03515625</ele>
        <time>2022-04-10T07:42:03Z</time>
      </trkpt>
      <trkpt lat="43.20913" lon="6.04362">
        <ele>120.26171875</ele>
        <time>2022-04-10T07:42:04Z</time>
      </trkpt>
      <trkpt lat="43.20916" lon="6.0436">
        <ele>120.4765625</ele>
        <time>2022-04-10T07:42:05Z</time>
      </trkpt>
      <trkpt lat="43.20939" lon="6.04328">
        <ele>123.12890625</ele>
        <time>2022-04-10T07:42:15Z</time>
      </trkpt>
      <trkpt lat="43.20939" lon="6.04324">
        <ele>123.171875</ele>
        <time>2022-04-10T07:42:16Z</time>
      </trkpt>
      <trkpt lat="43.20938" lon="6.0432">
        <ele>123.08984375</ele>
        <time>2022-04-10T07:42:17Z</time>
      </trkpt>
      <trkpt lat="43.20939" lon="6.04286">
        <ele>123.32421875</ele>
        <time>2022-04-10T07:42:24Z</time>
      </trkpt>
      <trkpt lat="43.20959" lon="6.04244">
        <ele>124.6328125</ele>
        <time>2022-04-10T07:42:34Z</time>
      </trkpt>
      <trkpt lat="43.20964" lon="6.04244">
        <ele>124.9375</ele>
        <time>2022-04-10T07:42:35Z</time>
      </trkpt>
      <trkpt lat="43.20968" lon="6.04245">
        <ele>125.2421875</ele>
        <time>2022-04-10T07:42:36Z</time>
      </trkpt>
      <trkpt lat="43.20972" lon="6.04249">
        <ele>125.51953125</ele>
        <time>2022-04-10T07:42:37Z</time>
      </trkpt>
      <trkpt lat="43.20975" lon="6.04252">
        <ele>125.75390625</ele>
        <time>2022-04-10T07:42:38Z</time>
      </trkpt>
      <trkpt lat="43.20987" lon="6.0426">
        <ele>126.6484375</ele>
        <time>2022-04-10T07:42:42Z</time>
      </trkpt>
      <trkpt lat="43.20991" lon="6.04258">
        <ele>126.89453125</ele>
        <time>2022-04-10T07:42:43Z</time>
      </trkpt>
      <trkpt lat="43.20994" lon="6.04255">
        <ele>127.11328125</ele>
        <time>2022-04-10T07:42:44Z</time>
      </trkpt>
      <trkpt lat="43.20996" lon="6.04252">
        <ele>127.296875</ele>
        <time>2022-04-10T07:42:45Z</time>
      </trkpt>
      <trkpt lat="43.20998" lon="6.04248">
        <ele>127.4453125</ele>
        <time>2022-04-10T07:42:46Z</time>
      </trkpt>
      <trkpt lat="43.2103" lon="6.042">
        <ele>129.7265625</ele>
        <time>2022-04-10T07:43:00Z</time>
      </trkpt>
      <trkpt lat="43.2107" lon="6.04179">
        <ele>132.6015625</ele>
        <time>2022-04-10T07:43:13Z</time>
      </trkpt>
      <trkpt lat="43.2111" lon="6.04195">
        <ele>134.73828125</ele>
        <time>2022-04-10T07:43:25Z</time>
      </trkpt>
      <trkpt lat="43.21163" lon="6.04199">
        <ele>138.75390625</ele>
        <time>2022-04-10T07:43:40Z</time>
      </trkpt>
      <trkpt lat="43.21215" lon="6.04203">
        <ele>142.01953125</ele>
        <time>2022-04-10T07:43:55Z</time>
      </trkpt>
      <trkpt lat="43.21257" lon="6.0423">
        <ele>146.6328125</ele>
        <time>2022-04-10T07:44:08Z</time>
      </trkpt>
      <trkpt lat="43.21297" lon="6.04247">
        <ele>150.203125</ele>
        <time>2022-04-10T07:44:20Z</time>
      </trkpt>
      <trkpt lat="43.21345" lon="6.0426">
        <ele>152.2109375</ele>
        <time>2022-04-10T07:44:34Z</time>
      </trkpt>
      <trkpt lat="43.21394" lon="6.04282">
        <ele>159.94921875</ele>
        <time>2022-04-10T07:44:50Z</time>
      </trkpt>
      <trkpt lat="43.21429" lon="6.04265">
        <ele>160.93359375</ele>
        <time>2022-04-10T07:45:03Z</time>
      </trkpt>
      <trkpt lat="43.21458" lon="6.04261">
        <ele>164.12109375</ele>
        <time>2022-04-10T07:45:14Z</time>
      </trkpt>
      <trkpt lat="43.21494" lon="6.04274">
        <ele>167.90234375</ele>
        <time>2022-04-10T07:45:28Z</time>
      </trkpt>
      <trkpt lat="43.21518" lon="6.04277">
        <ele>172.16015625</ele>
        <time>2022-04-10T07:45:37Z</time>
      </trkpt>
      <trkpt lat="43.21521" lon="6.04279">
        <ele>172.921875</ele>
        <time>2022-04-10T07:45:38Z</time>
      </trkpt>
      <trkpt lat="43.21522" lon="6.0428">
        <ele>173.56640625</ele>
        <time>2022-04-10T07:45:39Z</time>
      </trkpt>
      <trkpt lat="43.21524" lon="6.04281">
        <ele>174.14453125</ele>
        <time>2022-04-10T07:45:40Z</time>
      </trkpt>
      <trkpt lat="43.21527" lon="6.04282">
        <ele>174.6328125</ele>
        <time>2022-04-10T07:45:41Z</time>
      </trkpt>
      <trkpt lat="43.21529" lon="6.04281">
        <ele>175.015625</ele>
        <time>2022-04-10T07:45:42Z</time>
      </trkpt>
      <trkpt lat="43.21531" lon="6.04281">
        <ele>175.35546875</ele>
        <time>2022-04-10T07:45:43Z</time>
      </trkpt>
      <trkpt lat="43.21543" lon="6.04278">
        <ele>178.29296875</ele>
        <time>2022-04-10T07:45:50Z</time>
      </trkpt>
      <trkpt lat="43.21546" lon="6.04276">
        <ele>178.77734375</ele>
        <time>2022-04-10T07:45:51Z</time>
      </trkpt>
      <trkpt lat="43.21548" lon="6.04275">
        <ele>179.48046875</ele>
        <time>2022-04-10T07:45:52Z</time>
      </trkpt>
      <trkpt lat="43.21556" lon="6.04272">
        <ele>181.33203125</ele>
        <time>2022-04-10T07:45:56Z</time>
      </trkpt>
      <trkpt lat="43.21558" lon="6.0427">
        <ele>181.62890625</ele>
        <time>2022-04-10T07:45:57Z</time>
      </trkpt>
      <trkpt lat="43.21572" lon="6.04262">
        <ele>185.1953125</ele>
        <time>2022-04-10T07:46:05Z</time>
      </trkpt>
      <trkpt lat="43.21584" lon="6.0425">
        <ele>187.33203125</ele>
        <time>2022-04-10T07:46:16Z</time>
      </trkpt>
      <trkpt lat="43.21587" lon="6.04246">
        <ele>187.83984375</ele>
        <time>2022-04-10T07:46:23Z</time>
      </trkpt>
      <trkpt lat="43.21606" lon="6.04217">
        <ele>189.0703125</ele>
        <time>2022-04-10T07:46:33Z</time>
      </trkpt>
      <trkpt lat="43.21621" lon="6.04186">
        <ele>188.171875</ele>
        <time>2022-04-10T07:46:45Z</time>
      </trkpt>
      <trkpt lat="43.21638" lon="6.04168">
        <ele>190.16796875</ele>
        <time>2022-04-10T07:46:54Z</time>
      </trkpt>
      <trkpt lat="43.2164" lon="6.04168">
        <ele>190.765625</ele>
        <time>2022-04-10T07:46:55Z</time>
      </trkpt>
      <trkpt lat="43.21648" lon="6.04166">
        <ele>192.21484375</ele>
        <time>2022-04-10T07:47:00Z</time>
      </trkpt>
      <trkpt lat="43.21671" lon="6.04174">
        <ele>197.88671875</ele>
        <time>2022-04-10T07:47:09Z</time>
      </trkpt>
      <trkpt lat="43.21677" lon="6.04172">
        <ele>197.70703125</ele>
        <time>2022-04-10T07:47:10Z</time>
      </trkpt>
      <trkpt lat="43.21682" lon="6.0417">
        <ele>197.51953125</ele>
        <time>2022-04-10T07:47:11Z</time>
      </trkpt>
      <trkpt lat="43.21701" lon="6.04166">
        <ele>197.91015625</ele>
        <time>2022-04-10T07:47:17Z</time>
      </trkpt>
      <trkpt lat="43.21704" lon="6.04166">
        <ele>197.546875</ele>
        <time>2022-04-10T07:47:18Z</time>
      </trkpt>
      <trkpt lat="43.21707" lon="6.04165">
        <ele>197.30078125</ele>
        <time>2022-04-10T07:47:19Z</time>
      </trkpt>
      <trkpt lat="43.2171" lon="6.04165">
        <ele>197.1796875</ele>
        <time>2022-04-10T07:47:20Z</time>
      </trkpt>
      <trkpt lat="43.21712" lon="6.04167">
        <ele>197.453125</ele>
        <time>2022-04-10T07:47:21Z</time>
      </trkpt>
      <trkpt lat="43.21714" lon="6.04168">
        <ele>197.4921875</ele>
        <time>2022-04-10T07:47:22Z</time>
      </trkpt>
      <trkpt lat="43.21716" lon="6.04169">
        <ele>197.734375</ele>
        <time>2022-04-10T07:47:23Z</time>
      </trkpt>
      <trkpt lat="43.21719" lon="6.04169">
        <ele>197.66796875</ele>
        <time>2022-04-10T07:47:24Z</time>
      </trkpt>
      <trkpt lat="43.21721" lon="6.0417">
        <ele>197.60546875</ele>
        <time>2022-04-10T07:47:25Z</time>
      </trkpt>
      <trkpt lat="43.21723" lon="6.0417">
        <ele>197.609375</ele>
        <time>2022-04-10T07:47:26Z</time>
      </trkpt>
      <trkpt lat="43.21728" lon="6.04172">
        <ele>197.609375</ele>
        <time>2022-04-10T07:47:28Z</time>
      </trkpt>
      <trkpt lat="43.2173" lon="6.04172">
        <ele>197.6328125</ele>
        <time>2022-04-10T07:47:29Z</time>
      </trkpt>
      <trkpt lat="43.21732" lon="6.04173">
        <ele>197.62890625</ele>
        <time>2022-04-10T07:47:30Z</time>
      </trkpt>
      <trkpt lat="43.21734" lon="6.04174">
        <ele>197.7890625</ele>
        <time>2022-04-10T07:47:31Z</time>
      </trkpt>
      <trkpt lat="43.21735" lon="6.04176">
        <ele>197.98828125</ele>
        <time>2022-04-10T07:47:32Z</time>
      </trkpt>
      <trkpt lat="43.21737" lon="6.04178">
        <ele>198.2734375</ele>
        <time>2022-04-10T07:47:33Z</time>
      </trkpt>
      <trkpt lat="43.21738" lon="6.0418">
        <ele>198.546875</ele>
        <time>2022-04-10T07:47:34Z</time>
      </trkpt>
      <trkpt lat="43.2174" lon="6.0418">
        <ele>198.44921875</ele>
        <time>2022-04-10T07:47:35Z</time>
      </trkpt>
      <trkpt lat="43.21742" lon="6.04181">
        <ele>198.37890625</ele>
        <time>2022-04-10T07:47:36Z</time>
      </trkpt>
      <trkpt lat="43.21744" lon="6.04182">
        <ele>198.33203125</ele>
        <time>2022-04-10T07:47:37Z</time>
      </trkpt>
      <trkpt lat="43.21746" lon="6.04183">
        <ele>198.36328125</ele>
        <time>2022-04-10T07:47:38Z</time>
      </trkpt>
      <trkpt lat="43.21748" lon="6.04184">
        <ele>198.41015625</ele>
        <time>2022-04-10T07:47:39Z</time>
      </trkpt>
      <trkpt lat="43.2175" lon="6.04186">
        <ele>198.4453125</ele>
        <time>2022-04-10T07:47:40Z</time>
      </trkpt>
      <trkpt lat="43.21751" lon="6.04188">
        <ele>198.734375</ele>
        <time>2022-04-10T07:47:41Z</time>
      </trkpt>
      <trkpt lat="43.21752" lon="6.0419">
        <ele>199.03515625</ele>
        <time>2022-04-10T07:47:42Z</time>
      </trkpt>
      <trkpt lat="43.21772" lon="6.04189">
        <ele>196.04296875</ele>
        <time>2022-04-10T07:47:46Z</time>
      </trkpt>
      <trkpt lat="43.21794" lon="6.04196">
        <ele>196.48046875</ele>
        <time>2022-04-10T07:47:56Z</time>
      </trkpt>
      <trkpt lat="43.21799" lon="6.04198">
        <ele>197.16796875</ele>
        <time>2022-04-10T07:47:59Z</time>
      </trkpt>
      <trkpt lat="43.21801" lon="6.04198">
        <ele>197.30078125</ele>
        <time>2022-04-10T07:48:00Z</time>
      </trkpt>
      <trkpt lat="43.21803" lon="6.04198">
        <ele>197.31640625</ele>
        <time>2022-04-10T07:48:01Z</time>
      </trkpt>
      <trkpt lat="43.21805" lon="6.04198">
        <ele>197.453125</ele>
        <time>2022-04-10T07:48:02Z</time>
      </trkpt>
      <trkpt lat="43.21806" lon="6.04199">
        <ele>197.76953125</ele>
        <time>2022-04-10T07:48:03Z</time>
      </trkpt>
      <trkpt lat="43.21808" lon="6.042">
        <ele>197.98046875</ele>
        <time>2022-04-10T07:48:04Z</time>
      </trkpt>
      <trkpt lat="43.21837" lon="6.042">
        <ele>200.6328125</ele>
        <time>2022-04-10T07:48:14Z</time>
      </trkpt>
      <trkpt lat="43.21845" lon="6.042">
        <ele>201.08984375</ele>
        <time>2022-04-10T07:48:25Z</time>
      </trkpt>
      <trkpt lat="43.21848" lon="6.04206">
        <ele>201.8359375</ele>
        <time>2022-04-10T07:48:38Z</time>
      </trkpt>
      <trkpt lat="43.2185" lon="6.04207">
        <ele>202.01171875</ele>
        <time>2022-04-10T07:48:39Z</time>
      </trkpt>
      <trkpt lat="43.21851" lon="6.04208">
        <ele>202.19921875</ele>
        <time>2022-04-10T07:48:40Z</time>
      </trkpt>
      <trkpt lat="43.21853" lon="6.04209">
        <ele>202.37890625</ele>
        <time>2022-04-10T07:48:41Z</time>
      </trkpt>
      <trkpt lat="43.21855" lon="6.0421">
        <ele>202.5234375</ele>
        <time>2022-04-10T07:48:42Z</time>
      </trkpt>
      <trkpt lat="43.21857" lon="6.04212">
        <ele>202.67578125</ele>
        <time>2022-04-10T07:48:43Z</time>
      </trkpt>
      <trkpt lat="43.21859" lon="6.04213">
        <ele>202.828125</ele>
        <time>2022-04-10T07:48:44Z</time>
      </trkpt>
      <trkpt lat="43.21861" lon="6.04215">
        <ele>202.9453125</ele>
        <time>2022-04-10T07:48:45Z</time>
      </trkpt>
      <trkpt lat="43.21863" lon="6.04215">
        <ele>203.0234375</ele>
        <time>2022-04-10T07:48:46Z</time>
      </trkpt>
      <trkpt lat="43.21865" lon="6.04216">
        <ele>203.07421875</ele>
        <time>2022-04-10T07:48:47Z</time>
      </trkpt>
      <trkpt lat="43.21867" lon="6.04215">
        <ele>203.00390625</ele>
        <time>2022-04-10T07:48:48Z</time>
      </trkpt>
      <trkpt lat="43.21894" lon="6.04218">
        <ele>204.2265625</ele>
        <time>2022-04-10T07:48:58Z</time>
      </trkpt>
      <trkpt lat="43.21925" lon="6.0423">
        <ele>203.75390625</ele>
        <time>2022-04-10T07:49:09Z</time>
      </trkpt>
      <trkpt lat="43.21957" lon="6.04258">
        <ele>207.1171875</ele>
        <time>2022-04-10T07:49:20Z</time>
      </trkpt>
      <trkpt lat="43.21969" lon="6.04289">
        <ele>208.9921875</ele>
        <time>2022-04-10T07:49:29Z</time>
      </trkpt>
      <trkpt lat="43.21971" lon="6.04304">
        <ele>209.359375</ele>
        <time>2022-04-10T07:49:33Z</time>
      </trkpt>
      <trkpt lat="43.21973" lon="6.04306">
        <ele>209.34375</ele>
        <time>2022-04-10T07:49:34Z</time>
      </trkpt>
      <trkpt lat="43.21974" lon="6.04309">
        <ele>209.3203125</ele>
        <time>2022-04-10T07:49:35Z</time>
      </trkpt>
      <trkpt lat="43.21979" lon="6.04322">
        <ele>209.26171875</ele>
        <time>2022-04-10T07:49:40Z</time>
      </trkpt>
      <trkpt lat="43.21985" lon="6.04326">
        <ele>210.484375</ele>
        <time>2022-04-10T07:49:42Z</time>
      </trkpt>
      <trkpt lat="43.21988" lon="6.04327">
        <ele>211.1875</ele>
        <time>2022-04-10T07:49:43Z</time>
      </trkpt>
      <trkpt lat="43.21995" lon="6.04335">
        <ele>212.22265625</ele>
        <time>2022-04-10T07:49:46Z</time>
      </trkpt>
      <trkpt lat="43.21995" lon="6.04338">
        <ele>212.1171875</ele>
        <time>2022-04-10T07:49:47Z</time>
      </trkpt>
      <trkpt lat="43.21996" lon="6.04342">
        <ele>212.046875</ele>
        <time>2022-04-10T07:49:48Z</time>
      </trkpt>
      <trkpt lat="43.21998" lon="6.04344">
        <ele>212.0859375</ele>
        <time>2022-04-10T07:49:49Z</time>
      </trkpt>
      <trkpt lat="43.22" lon="6.04347">
        <ele>212.1015625</ele>
        <time>2022-04-10T07:49:50Z</time>
      </trkpt>
      <trkpt lat="43.22001" lon="6.0435">
        <ele>212.0390625</ele>
        <time>2022-04-10T07:49:51Z</time>
      </trkpt>
      <trkpt lat="43.22003" lon="6.04352">
        <ele>211.9765625</ele>
        <time>2022-04-10T07:49:52Z</time>
      </trkpt>
      <trkpt lat="43.22022" lon="6.04381">
        <ele>213.2109375</ele>
        <time>2022-04-10T07:50:04Z</time>
      </trkpt>
      <trkpt lat="43.22028" lon="6.04388">
        <ele>213.5234375</ele>
        <time>2022-04-10T07:50:07Z</time>
      </trkpt>
      <trkpt lat="43.2203" lon="6.04391">
        <ele>213.54296875</ele>
        <time>2022-04-10T07:50:08Z</time>
      </trkpt>
      <trkpt lat="43.22031" lon="6.04394">
        <ele>213.51953125</ele>
        <time>2022-04-10T07:50:09Z</time>
      </trkpt>
      <trkpt lat="43.22034" lon="6.04396">
        <ele>213.55078125</ele>
        <time>2022-04-10T07:50:10Z</time>
      </trkpt>
      <trkpt lat="43.22036" lon="6.04397">
        <ele>213.76953125</ele>
        <time>2022-04-10T07:50:11Z</time>
      </trkpt>
      <trkpt lat="43.22038" lon="6.04399">
        <ele>213.96875</ele>
        <time>2022-04-10T07:50:12Z</time>
      </trkpt>
      <trkpt lat="43.22041" lon="6.04401">
        <ele>214.2578125</ele>
        <time>2022-04-10T07:50:13Z</time>
      </trkpt>
      <trkpt lat="43.22043" lon="6.04403">
        <ele>214.40234375</ele>
        <time>2022-04-10T07:50:14Z</time>
      </trkpt>
      <trkpt lat="43.22045" lon="6.04406">
        <ele>214.4921875</ele>
        <time>2022-04-10T07:50:15Z</time>
      </trkpt>
      <trkpt lat="43.22049" lon="6.04408">
        <ele>214.765625</ele>
        <time>2022-04-10T07:50:16Z</time>
      </trkpt>
      <trkpt lat="43.22052" lon="6.0441">
        <ele>214.95703125</ele>
        <time>2022-04-10T07:50:17Z</time>
      </trkpt>
      <trkpt lat="43.22078" lon="6.04433">
        <ele>216.68359375</ele>
        <time>2022-04-10T07:50:29Z</time>
      </trkpt>
      <trkpt lat="43.22079" lon="6.04436">
        <ele>216.75</ele>
        <time>2022-04-10T07:50:30Z</time>
      </trkpt>
      <trkpt lat="43.22098" lon="6.04452">
        <ele>218.0859375</ele>
        <time>2022-04-10T07:50:40Z</time>
      </trkpt>
      <trkpt lat="43.221" lon="6.04453">
        <ele>218.234375</ele>
        <time>2022-04-10T07:50:41Z</time>
      </trkpt>
      <trkpt lat="43.22101" lon="6.04455">
        <ele>218.1953125</ele>
        <time>2022-04-10T07:50:42Z</time>
      </trkpt>
      <trkpt lat="43.22101" lon="6.04458">
        <ele>217.8984375</ele>
        <time>2022-04-10T07:50:43Z</time>
      </trkpt>
      <trkpt lat="43.22101" lon="6.04461">
        <ele>217.61328125</ele>
        <time>2022-04-10T07:50:44Z</time>
      </trkpt>
      <trkpt lat="43.22101" lon="6.04465">
        <ele>217.27734375</ele>
        <time>2022-04-10T07:50:45Z</time>
      </trkpt>
      <trkpt lat="43.22102" lon="6.04491">
        <ele>217.88671875</ele>
        <time>2022-04-10T07:50:55Z</time>
      </trkpt>
      <trkpt lat="43.221" lon="6.04492">
        <ele>217.78515625</ele>
        <time>2022-04-10T07:50:56Z</time>
      </trkpt>
      <trkpt lat="43.22098" lon="6.04494">
        <ele>217.87109375</ele>
        <time>2022-04-10T07:50:57Z</time>
      </trkpt>
      <trkpt lat="43.22098" lon="6.04496">
        <ele>218.1171875</ele>
        <time>2022-04-10T07:50:58Z</time>
      </trkpt>
      <trkpt lat="43.22098" lon="6.04499">
        <ele>218.5078125</ele>
        <time>2022-04-10T07:50:59Z</time>
      </trkpt>
      <trkpt lat="43.22099" lon="6.04502">
        <ele>218.92578125</ele>
        <time>2022-04-10T07:51:00Z</time>
      </trkpt>
      <trkpt lat="43.22099" lon="6.04505">
        <ele>219.3671875</ele>
        <time>2022-04-10T07:51:01Z</time>
      </trkpt>
      <trkpt lat="43.221" lon="6.04511">
        <ele>220.22265625</ele>
        <time>2022-04-10T07:51:03Z</time>
      </trkpt>
      <trkpt lat="43.22102" lon="6.04513">
        <ele>220.55859375</ele>
        <time>2022-04-10T07:51:04Z</time>
      </trkpt>
      <trkpt lat="43.22104" lon="6.04514">
        <ele>220.73046875</ele>
        <time>2022-04-10T07:51:05Z</time>
      </trkpt>
      <trkpt lat="43.22129" lon="6.04527">
        <ele>224.40625</ele>
        <time>2022-04-10T07:51:18Z</time>
      </trkpt>
      <trkpt lat="43.2213" lon="6.04529">
        <ele>224.9140625</ele>
        <time>2022-04-10T07:51:19Z</time>
      </trkpt>
      <trkpt lat="43.22133" lon="6.04533">
        <ele>225.80078125</ele>
        <time>2022-04-10T07:51:21Z</time>
      </trkpt>
      <trkpt lat="43.22133" lon="6.04537">
        <ele>226.59375</ele>
        <time>2022-04-10T07:51:23Z</time>
      </trkpt>
      <trkpt lat="43.22125" lon="6.04542">
        <ele>227.515625</ele>
        <time>2022-04-10T07:51:34Z</time>
      </trkpt>
      <trkpt lat="43.22123" lon="6.04543">
        <ele>227.80859375</ele>
        <time>2022-04-10T07:51:36Z</time>
      </trkpt>
      <trkpt lat="43.22117" lon="6.04549">
        <ele>229.15234375</ele>
        <time>2022-04-10T07:51:47Z</time>
      </trkpt>
      <trkpt lat="43.22112" lon="6.04562">
        <ele>232.515625</ele>
        <time>2022-04-10T07:52:01Z</time>
      </trkpt>
      <trkpt lat="43.221" lon="6.04566">
        <ele>232.63671875</ele>
        <time>2022-04-10T07:52:13Z</time>
      </trkpt>
      <trkpt lat="43.22081" lon="6.04588">
        <ele>236.5234375</ele>
        <time>2022-04-10T07:52:25Z</time>
      </trkpt>
      <trkpt lat="43.22059" lon="6.04602">
        <ele>238.78515625</ele>
        <time>2022-04-10T07:52:36Z</time>
      </trkpt>
      <trkpt lat="43.22039" lon="6.04573">
        <ele>234.06640625</ele>
        <time>2022-04-10T07:52:48Z</time>
      </trkpt>
      <trkpt lat="43.22025" lon="6.04543">
        <ele>231.296875</ele>
        <time>2022-04-10T07:53:01Z</time>
      </trkpt>
      <trkpt lat="43.22002" lon="6.04509">
        <ele>232.2578125</ele>
        <time>2022-04-10T07:53:16Z</time>
      </trkpt>
      <trkpt lat="43.21975" lon="6.04462">
        <ele>231.6640625</ele>
        <time>2022-04-10T07:53:32Z</time>
      </trkpt>
      <trkpt lat="43.21949" lon="6.04419">
        <ele>230.69140625</ele>
        <time>2022-04-10T07:53:45Z</time>
      </trkpt>
      <trkpt lat="43.219" lon="6.04369">
        <ele>235.67578125</ele>
        <time>2022-04-10T07:54:01Z</time>
      </trkpt>
      <trkpt lat="43.21866" lon="6.0437">
        <ele>240.3828125</ele>
        <time>2022-04-10T07:54:12Z</time>
      </trkpt>
      <trkpt lat="43.21845" lon="6.04409">
        <ele>247.40234375</ele>
        <time>2022-04-10T07:54:25Z</time>
      </trkpt>
      <trkpt lat="43.21821" lon="6.04453">
        <ele>251.5546875</ele>
        <time>2022-04-10T07:54:37Z</time>
      </trkpt>
      <trkpt lat="43.21817" lon="6.04454">
        <ele>251.2265625</ele>
        <time>2022-04-10T07:54:38Z</time>
      </trkpt>
      <trkpt lat="43.21813" lon="6.04453">
        <ele>250.73046875</ele>
        <time>2022-04-10T07:54:39Z</time>
      </trkpt>
      <trkpt lat="43.2181" lon="6.04453">
        <ele>250.10546875</ele>
        <time>2022-04-10T07:54:40Z</time>
      </trkpt>
      <trkpt lat="43.21776" lon="6.04445">
        <ele>245.1328125</ele>
        <time>2022-04-10T07:54:52Z</time>
      </trkpt>
      <trkpt lat="43.2176" lon="6.04445">
        <ele>246.1796875</ele>
        <time>2022-04-10T07:54:59Z</time>
      </trkpt>
      <trkpt lat="43.21758" lon="6.04446">
        <ele>246.5</ele>
        <time>2022-04-10T07:55:00Z</time>
      </trkpt>
      <trkpt lat="43.21756" lon="6.04448">
        <ele>246.94921875</ele>
        <time>2022-04-10T07:55:01Z</time>
      </trkpt>
      <trkpt lat="43.21755" lon="6.0445">
        <ele>247.3828125</ele>
        <time>2022-04-10T07:55:02Z</time>
      </trkpt>
      <trkpt lat="43.21755" lon="6.04453">
        <ele>247.78515625</ele>
        <time>2022-04-10T07:55:03Z</time>
      </trkpt>
      <trkpt lat="43.21753" lon="6.0446">
        <ele>249.09765625</ele>
        <time>2022-04-10T07:55:06Z</time>
      </trkpt>
      <trkpt lat="43.21748" lon="6.04467">
        <ele>250.40234375</ele>
        <time>2022-04-10T07:55:11Z</time>
      </trkpt>
      <trkpt lat="43.21746" lon="6.04473">
        <ele>251.5</ele>
        <time>2022-04-10T07:55:15Z</time>
      </trkpt>
      <trkpt lat="43.21754" lon="6.04479">
        <ele>252.91796875</ele>
        <time>2022-04-10T07:55:21Z</time>
      </trkpt>
      <trkpt lat="43.21754" lon="6.04481">
        <ele>253.41015625</ele>
        <time>2022-04-10T07:55:22Z</time>
      </trkpt>
      <trkpt lat="43.21754" lon="6.04483">
        <ele>253.8671875</ele>
        <time>2022-04-10T07:55:23Z</time>
      </trkpt>
      <trkpt lat="43.21755" lon="6.04486">
        <ele>254.390625</ele>
        <time>2022-04-10T07:55:24Z</time>
      </trkpt>
      <trkpt lat="43.21755" lon="6.04488">
        <ele>254.88671875</ele>
        <time>2022-04-10T07:55:25Z</time>
      </trkpt>
      <trkpt lat="43.21758" lon="6.04494">
        <ele>256.25</ele>
        <time>2022-04-10T07:55:28Z</time>
      </trkpt>
      <trkpt lat="43.21758" lon="6.04496">
        <ele>256.62890625</ele>
        <time>2022-04-10T07:55:29Z</time>
      </trkpt>
      <trkpt lat="43.21759" lon="6.04498">
        <ele>256.96875</ele>
        <time>2022-04-10T07:55:30Z</time>
      </trkpt>
      <trkpt lat="43.21759" lon="6.045">
        <ele>257.32421875</ele>
        <time>2022-04-10T07:55:31Z</time>
      </trkpt>
      <trkpt lat="43.2176" lon="6.04503">
        <ele>257.9296875</ele>
        <time>2022-04-10T07:55:32Z</time>
      </trkpt>
      <trkpt lat="43.21762" lon="6.0451">
        <ele>259.4375</ele>
        <time>2022-04-10T07:55:35Z</time>
      </trkpt>
      <trkpt lat="43.21763" lon="6.04512">
        <ele>259.875</ele>
        <time>2022-04-10T07:55:36Z</time>
      </trkpt>
      <trkpt lat="43.21763" lon="6.04514">
        <ele>260.265625</ele>
        <time>2022-04-10T07:55:37Z</time>
      </trkpt>
      <trkpt lat="43.21764" lon="6.04516">
        <ele>260.7109375</ele>
        <time>2022-04-10T07:55:38Z</time>
      </trkpt>
      <trkpt lat="43.21767" lon="6.04528">
        <ele>263.33984375</ele>
        <time>2022-04-10T07:55:46Z</time>
      </trkpt>
      <trkpt lat="43.21781" lon="6.0454">
        <ele>266.84765625</ele>
        <time>2022-04-10T07:55:57Z</time>
      </trkpt>
      <trkpt lat="43.21782" lon="6.04541">
        <ele>267.37109375</ele>
        <time>2022-04-10T07:55:58Z</time>
      </trkpt>
      <trkpt lat="43.21783" lon="6.04543">
        <ele>267.91015625</ele>
        <time>2022-04-10T07:55:59Z</time>
      </trkpt>
      <trkpt lat="43.21792" lon="6.04553">
        <ele>270.73046875</ele>
        <time>2022-04-10T07:56:06Z</time>
      </trkpt>
      <trkpt lat="43.21801" lon="6.0456">
        <ele>272.70703125</ele>
        <time>2022-04-10T07:56:11Z</time>
      </trkpt>
      <trkpt lat="43.21808" lon="6.04566">
        <ele>274.6640625</ele>
        <time>2022-04-10T07:56:16Z</time>
      </trkpt>
      <trkpt lat="43.21809" lon="6.04568">
        <ele>275.07421875</ele>
        <time>2022-04-10T07:56:17Z</time>
      </trkpt>
      <trkpt lat="43.21811" lon="6.04569">
        <ele>275.390625</ele>
        <time>2022-04-10T07:56:18Z</time>
      </trkpt>
      <trkpt lat="43.21824" lon="6.04577">
        <ele>277.62109375</ele>
        <time>2022-04-10T07:56:25Z</time>
      </trkpt>
      <trkpt lat="43.21826" lon="6.04578">
        <ele>277.7734375</ele>
        <time>2022-04-10T07:56:26Z</time>
      </trkpt>
      <trkpt lat="43.21828" lon="6.04579">
        <ele>278</ele>
        <time>2022-04-10T07:56:27Z</time>
      </trkpt>
      <trkpt lat="43.21829" lon="6.0458">
        <ele>278.2265625</ele>
        <time>2022-04-10T07:56:28Z</time>
      </trkpt>
      <trkpt lat="43.21838" lon="6.04583">
        <ele>278.95703125</ele>
        <time>2022-04-10T07:56:40Z</time>
      </trkpt>
      <trkpt lat="43.21839" lon="6.0458">
        <ele>278.52734375</ele>
        <time>2022-04-10T07:56:58Z</time>
      </trkpt>
      <trkpt lat="43.21841" lon="6.04581">
        <ele>278.63671875</ele>
        <time>2022-04-10T07:57:02Z</time>
      </trkpt>
      <trkpt lat="43.21843" lon="6.04581">
        <ele>278.76953125</ele>
        <time>2022-04-10T07:57:03Z</time>
      </trkpt>
      <trkpt lat="43.21844" lon="6.04583">
        <ele>279.0078125</ele>
        <time>2022-04-10T07:57:04Z</time>
      </trkpt>
      <trkpt lat="43.21845" lon="6.04585">
        <ele>279.2734375</ele>
        <time>2022-04-10T07:57:05Z</time>
      </trkpt>
      <trkpt lat="43.21846" lon="6.04587">
        <ele>279.5078125</ele>
        <time>2022-04-10T07:57:06Z</time>
      </trkpt>
      <trkpt lat="43.21847" lon="6.04588">
        <ele>279.7421875</ele>
        <time>2022-04-10T07:57:07Z</time>
      </trkpt>
      <trkpt lat="43.21849" lon="6.0459">
        <ele>279.953125</ele>
        <time>2022-04-10T07:57:08Z</time>
      </trkpt>
      <trkpt lat="43.2185" lon="6.04591">
        <ele>280.17578125</ele>
        <time>2022-04-10T07:57:09Z</time>
      </trkpt>
      <trkpt lat="43.2185" lon="6.04593">
        <ele>280.390625</ele>
        <time>2022-04-10T07:57:10Z</time>
      </trkpt>
      <trkpt lat="43.21851" lon="6.04594">
        <ele>280.640625</ele>
        <time>2022-04-10T07:57:11Z</time>
      </trkpt>
      <trkpt lat="43.21854" lon="6.04599">
        <ele>281.32421875</ele>
        <time>2022-04-10T07:57:14Z</time>
      </trkpt>
      <trkpt lat="43.21856" lon="6.046">
        <ele>281.50390625</ele>
        <time>2022-04-10T07:57:15Z</time>
      </trkpt>
      <trkpt lat="43.21858" lon="6.04602">
        <ele>281.71484375</ele>
        <time>2022-04-10T07:57:16Z</time>
      </trkpt>
      <trkpt lat="43.21862" lon="6.04605">
        <ele>282.1953125</ele>
        <time>2022-04-10T07:57:19Z</time>
      </trkpt>
      <trkpt lat="43.21863" lon="6.04607">
        <ele>282.44140625</ele>
        <time>2022-04-10T07:57:20Z</time>
      </trkpt>
      <trkpt lat="43.21866" lon="6.04611">
        <ele>283.0625</ele>
        <time>2022-04-10T07:57:22Z</time>
      </trkpt>
      <trkpt lat="43.21878" lon="6.04615">
        <ele>282.65234375</ele>
        <time>2022-04-10T07:57:31Z</time>
      </trkpt>
      <trkpt lat="43.21879" lon="6.04617">
        <ele>282.7109375</ele>
        <time>2022-04-10T07:57:32Z</time>
      </trkpt>
      <trkpt lat="43.21881" lon="6.04618">
        <ele>282.81640625</ele>
        <time>2022-04-10T07:57:33Z</time>
      </trkpt>
      <trkpt lat="43.21882" lon="6.04622">
        <ele>283.1796875</ele>
        <time>2022-04-10T07:57:35Z</time>
      </trkpt>
      <trkpt lat="43.21886" lon="6.04627">
        <ele>283.375</ele>
        <time>2022-04-10T07:57:45Z</time>
      </trkpt>
      <trkpt lat="43.21887" lon="6.04627">
        <ele>283.25390625</ele>
        <time>2022-04-10T07:57:47Z</time>
      </trkpt>
      <trkpt lat="43.2189" lon="6.04629">
        <ele>283.12890625</ele>
        <time>2022-04-10T07:57:50Z</time>
      </trkpt>
      <trkpt lat="43.21892" lon="6.04631">
        <ele>283.2109375</ele>
        <time>2022-04-10T07:57:51Z</time>
      </trkpt>
      <trkpt lat="43.21893" lon="6.04633">
        <ele>283.4375</ele>
        <time>2022-04-10T07:57:52Z</time>
      </trkpt>
      <trkpt lat="43.21894" lon="6.04636">
        <ele>283.671875</ele>
        <time>2022-04-10T07:57:53Z</time>
      </trkpt>
      <trkpt lat="43.21895" lon="6.04638">
        <ele>283.8359375</ele>
        <time>2022-04-10T07:57:54Z</time>
      </trkpt>
      <trkpt lat="43.21896" lon="6.0464">
        <ele>284.078125</ele>
        <time>2022-04-10T07:57:55Z</time>
      </trkpt>
      <trkpt lat="43.21896" lon="6.04643">
        <ele>284.3671875</ele>
        <time>2022-04-10T07:57:56Z</time>
      </trkpt>
      <trkpt lat="43.21897" lon="6.04645">
        <ele>284.6015625</ele>
        <time>2022-04-10T07:57:57Z</time>
      </trkpt>
      <trkpt lat="43.21898" lon="6.04647">
        <ele>284.69921875</ele>
        <time>2022-04-10T07:57:58Z</time>
      </trkpt>
      <trkpt lat="43.21905" lon="6.04663">
        <ele>285.4765625</ele>
        <time>2022-04-10T07:58:05Z</time>
      </trkpt>
      <trkpt lat="43.21906" lon="6.04664">
        <ele>285.55859375</ele>
        <time>2022-04-10T07:58:06Z</time>
      </trkpt>
      <trkpt lat="43.21907" lon="6.04666">
        <ele>285.67578125</ele>
        <time>2022-04-10T07:58:07Z</time>
      </trkpt>
      <trkpt lat="43.21908" lon="6.04669">
        <ele>285.7890625</ele>
        <time>2022-04-10T07:58:08Z</time>
      </trkpt>
      <trkpt lat="43.21909" lon="6.04672">
        <ele>285.921875</ele>
        <time>2022-04-10T07:58:09Z</time>
      </trkpt>
      <trkpt lat="43.21911" lon="6.04674">
        <ele>286</ele>
        <time>2022-04-10T07:58:10Z</time>
      </trkpt>
      <trkpt lat="43.21911" lon="6.04677">
        <ele>286.1796875</ele>
        <time>2022-04-10T07:58:11Z</time>
      </trkpt>
      <trkpt lat="43.21912" lon="6.04679">
        <ele>286.37109375</ele>
        <time>2022-04-10T07:58:12Z</time>
      </trkpt>
      <trkpt lat="43.21912" lon="6.04682">
        <ele>286.8046875</ele>
        <time>2022-04-10T07:58:13Z</time>
      </trkpt>
      <trkpt lat="43.21913" lon="6.04686">
        <ele>287.2109375</ele>
        <time>2022-04-10T07:58:14Z</time>
      </trkpt>
      <trkpt lat="43.21913" lon="6.04689">
        <ele>287.625</ele>
        <time>2022-04-10T07:58:15Z</time>
      </trkpt>
      <trkpt lat="43.21921" lon="6.04721">
        <ele>290.43359375</ele>
        <time>2022-04-10T07:58:27Z</time>
      </trkpt>
      <trkpt lat="43.21928" lon="6.04753">
        <ele>293.3828125</ele>
        <time>2022-04-10T07:58:37Z</time>
      </trkpt>
      <trkpt lat="43.21929" lon="6.04756">
        <ele>293.40234375</ele>
        <time>2022-04-10T07:58:38Z</time>
      </trkpt>
      <trkpt lat="43.2193" lon="6.04759">
        <ele>293.34765625</ele>
        <time>2022-04-10T07:58:39Z</time>
      </trkpt>
      <trkpt lat="43.21931" lon="6.04761">
        <ele>293.30078125</ele>
        <time>2022-04-10T07:58:40Z</time>
      </trkpt>
      <trkpt lat="43.21932" lon="6.04764">
        <ele>293.125</ele>
        <time>2022-04-10T07:58:41Z</time>
      </trkpt>
      <trkpt lat="43.21933" lon="6.04767">
        <ele>293.1328125</ele>
        <time>2022-04-10T07:58:42Z</time>
      </trkpt>
      <trkpt lat="43.21941" lon="6.0478">
        <ele>291.6953125</ele>
        <time>2022-04-10T07:58:53Z</time>
      </trkpt>
      <trkpt lat="43.21945" lon="6.04779">
        <ele>290.4453125</ele>
        <time>2022-04-10T07:59:22Z</time>
      </trkpt>
      <trkpt lat="43.21955" lon="6.04797">
        <ele>289.18359375</ele>
        <time>2022-04-10T07:59:30Z</time>
      </trkpt>
      <trkpt lat="43.21969" lon="6.04829">
        <ele>286.37109375</ele>
        <time>2022-04-10T07:59:37Z</time>
      </trkpt>
      <trkpt lat="43.21973" lon="6.0484">
        <ele>286.78515625</ele>
        <time>2022-04-10T07:59:39Z</time>
      </trkpt>
      <trkpt lat="43.21974" lon="6.04847">
        <ele>287.22265625</ele>
        <time>2022-04-10T07:59:40Z</time>
      </trkpt>
      <trkpt lat="43.21975" lon="6.04855">
        <ele>288.2109375</ele>
        <time>2022-04-10T07:59:41Z</time>
      </trkpt>
      <trkpt lat="43.21975" lon="6.04862">
        <ele>289.734375</ele>
        <time>2022-04-10T07:59:42Z</time>
      </trkpt>
      <trkpt lat="43.21976" lon="6.0487">
        <ele>291.078125</ele>
        <time>2022-04-10T07:59:43Z</time>
      </trkpt>
      <trkpt lat="43.21977" lon="6.04877">
        <ele>292.1796875</ele>
        <time>2022-04-10T07:59:44Z</time>
      </trkpt>
      <trkpt lat="43.21979" lon="6.04883">
        <ele>293.1484375</ele>
        <time>2022-04-10T07:59:45Z</time>
      </trkpt>
      <trkpt lat="43.21981" lon="6.04889">
        <ele>294.07421875</ele>
        <time>2022-04-10T07:59:46Z</time>
      </trkpt>
      <trkpt lat="43.21984" lon="6.04903">
        <ele>296.2734375</ele>
        <time>2022-04-10T07:59:48Z</time>
      </trkpt>
      <trkpt lat="43.21994" lon="6.04948">
        <ele>303.25</ele>
        <time>2022-04-10T07:59:58Z</time>
      </trkpt>
      <trkpt lat="43.22012" lon="6.04956">
        <ele>299.37890625</ele>
        <time>2022-04-10T08:00:02Z</time>
      </trkpt>
      <trkpt lat="43.22041" lon="6.04967">
        <ele>291.76171875</ele>
        <time>2022-04-10T08:00:09Z</time>
      </trkpt>
      <trkpt lat="43.22046" lon="6.0498">
        <ele>290.7734375</ele>
        <time>2022-04-10T08:00:12Z</time>
      </trkpt>
      <trkpt lat="43.22047" lon="6.04985">
        <ele>290.54296875</ele>
        <time>2022-04-10T08:00:13Z</time>
      </trkpt>
      <trkpt lat="43.22048" lon="6.04991">
        <ele>290.25</ele>
        <time>2022-04-10T08:00:14Z</time>
      </trkpt>
      <trkpt lat="43.2205" lon="6.05002">
        <ele>289.875</ele>
        <time>2022-04-10T08:00:16Z</time>
      </trkpt>
      <trkpt lat="43.22053" lon="6.05019">
        <ele>289.62890625</ele>
        <time>2022-04-10T08:00:19Z</time>
      </trkpt>
      <trkpt lat="43.22059" lon="6.05037">
        <ele>288.81640625</ele>
        <time>2022-04-10T08:00:22Z</time>
      </trkpt>
      <trkpt lat="43.22073" lon="6.0508">
        <ele>288.81640625</ele>
        <time>2022-04-10T08:00:29Z</time>
      </trkpt>
      <trkpt lat="43.22082" lon="6.05107">
        <ele>288.81640625</ele>
        <time>2022-04-10T08:00:34Z</time>
      </trkpt>
      <trkpt lat="43.22086" lon="6.05136">
        <ele>289.15234375</ele>
        <time>2022-04-10T08:00:40Z</time>
      </trkpt>
      <trkpt lat="43.2211" lon="6.05139">
        <ele>289.7734375</ele>
        <time>2022-04-10T08:00:49Z</time>
      </trkpt>
      <trkpt lat="43.22117" lon="6.05139">
        <ele>290.015625</ele>
        <time>2022-04-10T08:00:50Z</time>
      </trkpt>
      <trkpt lat="43.22134" lon="6.05155">
        <ele>291.1875</ele>
        <time>2022-04-10T08:00:56Z</time>
      </trkpt>
      <trkpt lat="43.22146" lon="6.05174">
        <ele>292.0703125</ele>
        <time>2022-04-10T08:01:01Z</time>
      </trkpt>
      <trkpt lat="43.22158" lon="6.052">
        <ele>293.453125</ele>
        <time>2022-04-10T08:01:09Z</time>
      </trkpt>
      <trkpt lat="43.22166" lon="6.05231">
        <ele>294.42578125</ele>
        <time>2022-04-10T08:01:17Z</time>
      </trkpt>
      <trkpt lat="43.22186" lon="6.05274">
        <ele>297.0390625</ele>
        <time>2022-04-10T08:01:31Z</time>
      </trkpt>
      <trkpt lat="43.22207" lon="6.05293">
        <ele>300.51953125</ele>
        <time>2022-04-10T08:01:43Z</time>
      </trkpt>
      <trkpt lat="43.22214" lon="6.0529">
        <ele>302.1171875</ele>
        <time>2022-04-10T08:02:12Z</time>
      </trkpt>
      <trkpt lat="43.22216" lon="6.05287">
        <ele>302.45703125</ele>
        <time>2022-04-10T08:02:20Z</time>
      </trkpt>
      <trkpt lat="43.22218" lon="6.05288">
        <ele>302.8671875</ele>
        <time>2022-04-10T08:02:21Z</time>
      </trkpt>
      <trkpt lat="43.2222" lon="6.05289">
        <ele>303.33203125</ele>
        <time>2022-04-10T08:02:22Z</time>
      </trkpt>
      <trkpt lat="43.22222" lon="6.0529">
        <ele>303.7109375</ele>
        <time>2022-04-10T08:02:23Z</time>
      </trkpt>
      <trkpt lat="43.22223" lon="6.0529">
        <ele>304.08203125</ele>
        <time>2022-04-10T08:02:24Z</time>
      </trkpt>
      <trkpt lat="43.22226" lon="6.05291">
        <ele>304.578125</ele>
        <time>2022-04-10T08:02:25Z</time>
      </trkpt>
      <trkpt lat="43.22228" lon="6.05292">
        <ele>305.171875</ele>
        <time>2022-04-10T08:02:26Z</time>
      </trkpt>
      <trkpt lat="43.22231" lon="6.05293">
        <ele>305.9296875</ele>
        <time>2022-04-10T08:02:27Z</time>
      </trkpt>
      <trkpt lat="43.22233" lon="6.05295">
        <ele>306.62890625</ele>
        <time>2022-04-10T08:02:28Z</time>
      </trkpt>
      <trkpt lat="43.22234" lon="6.05298">
        <ele>307.12109375</ele>
        <time>2022-04-10T08:02:29Z</time>
      </trkpt>
      <trkpt lat="43.22235" lon="6.053">
        <ele>307.37890625</ele>
        <time>2022-04-10T08:02:30Z</time>
      </trkpt>
      <trkpt lat="43.22235" lon="6.05302">
        <ele>307.44921875</ele>
        <time>2022-04-10T08:02:31Z</time>
      </trkpt>
      <trkpt lat="43.22235" lon="6.05305">
        <ele>307.31640625</ele>
        <time>2022-04-10T08:02:32Z</time>
      </trkpt>
      <trkpt lat="43.2223" lon="6.05339">
        <ele>304.921875</ele>
        <time>2022-04-10T08:02:42Z</time>
      </trkpt>
      <trkpt lat="43.22237" lon="6.05373">
        <ele>304.7578125</ele>
        <time>2022-04-10T08:02:54Z</time>
      </trkpt>
      <trkpt lat="43.22239" lon="6.05399">
        <ele>303.67578125</ele>
        <time>2022-04-10T08:02:58Z</time>
      </trkpt>
      <trkpt lat="43.22231" lon="6.05453">
        <ele>299.91796875</ele>
        <time>2022-04-10T08:03:05Z</time>
      </trkpt>
      <trkpt lat="43.2223" lon="6.05469">
        <ele>299.50390625</ele>
        <time>2022-04-10T08:03:07Z</time>
      </trkpt>
      <trkpt lat="43.22229" lon="6.05478">
        <ele>298.9375</ele>
        <time>2022-04-10T08:03:08Z</time>
      </trkpt>
      <trkpt lat="43.22227" lon="6.05486">
        <ele>298.18359375</ele>
        <time>2022-04-10T08:03:09Z</time>
      </trkpt>
      <trkpt lat="43.22222" lon="6.05514">
        <ele>294.57421875</ele>
        <time>2022-04-10T08:03:12Z</time>
      </trkpt>
      <trkpt lat="43.22221" lon="6.05524">
        <ele>293.390625</ele>
        <time>2022-04-10T08:03:13Z</time>
      </trkpt>
      <trkpt lat="43.22221" lon="6.05535">
        <ele>292.57421875</ele>
        <time>2022-04-10T08:03:14Z</time>
      </trkpt>
      <trkpt lat="43.22222" lon="6.05545">
        <ele>292.23046875</ele>
        <time>2022-04-10T08:03:15Z</time>
      </trkpt>
      <trkpt lat="43.22224" lon="6.05554">
        <ele>292.33984375</ele>
        <time>2022-04-10T08:03:16Z</time>
      </trkpt>
      <trkpt lat="43.22228" lon="6.05564">
        <ele>292.8359375</ele>
        <time>2022-04-10T08:03:17Z</time>
      </trkpt>
      <trkpt lat="43.22232" lon="6.05573">
        <ele>293.578125</ele>
        <time>2022-04-10T08:03:18Z</time>
      </trkpt>
      <trkpt lat="43.22244" lon="6.05598">
        <ele>296.99609375</ele>
        <time>2022-04-10T08:03:21Z</time>
      </trkpt>
      <trkpt lat="43.22246" lon="6.05606">
        <ele>297.69140625</ele>
        <time>2022-04-10T08:03:22Z</time>
      </trkpt>
      <trkpt lat="43.22248" lon="6.05613">
        <ele>297.921875</ele>
        <time>2022-04-10T08:03:23Z</time>
      </trkpt>
      <trkpt lat="43.22247" lon="6.0562">
        <ele>297.51171875</ele>
        <time>2022-04-10T08:03:24Z</time>
      </trkpt>
      <trkpt lat="43.22245" lon="6.05628">
        <ele>296.421875</ele>
        <time>2022-04-10T08:03:25Z</time>
      </trkpt>
      <trkpt lat="43.22242" lon="6.05633">
        <ele>294.95703125</ele>
        <time>2022-04-10T08:03:26Z</time>
      </trkpt>
      <trkpt lat="43.22237" lon="6.05638">
        <ele>293.0234375</ele>
        <time>2022-04-10T08:03:27Z</time>
      </trkpt>
      <trkpt lat="43.22233" lon="6.05643">
        <ele>290.91015625</ele>
        <time>2022-04-10T08:03:28Z</time>
      </trkpt>
      <trkpt lat="43.22228" lon="6.05648">
        <ele>288.78125</ele>
        <time>2022-04-10T08:03:29Z</time>
      </trkpt>
      <trkpt lat="43.22218" lon="6.0566">
        <ele>284.81640625</ele>
        <time>2022-04-10T08:03:31Z</time>
      </trkpt>
      <trkpt lat="43.22214" lon="6.05666">
        <ele>283.3046875</ele>
        <time>2022-04-10T08:03:32Z</time>
      </trkpt>
      <trkpt lat="43.22211" lon="6.05673">
        <ele>282.23046875</ele>
        <time>2022-04-10T08:03:33Z</time>
      </trkpt>
      <trkpt lat="43.22211" lon="6.05681">
        <ele>281.66796875</ele>
        <time>2022-04-10T08:03:34Z</time>
      </trkpt>
      <trkpt lat="43.22211" lon="6.05689">
        <ele>281.484375</ele>
        <time>2022-04-10T08:03:35Z</time>
      </trkpt>
      <trkpt lat="43.22213" lon="6.05698">
        <ele>281.3984375</ele>
        <time>2022-04-10T08:03:36Z</time>
      </trkpt>
      <trkpt lat="43.22216" lon="6.05706">
        <ele>281.390625</ele>
        <time>2022-04-10T08:03:37Z</time>
      </trkpt>
      <trkpt lat="43.22225" lon="6.05743">
        <ele>281.27734375</ele>
        <time>2022-04-10T08:03:41Z</time>
      </trkpt>
      <trkpt lat="43.22226" lon="6.05753">
        <ele>282.375</ele>
        <time>2022-04-10T08:03:42Z</time>
      </trkpt>
      <trkpt lat="43.22226" lon="6.05763">
        <ele>283.02734375</ele>
        <time>2022-04-10T08:03:43Z</time>
      </trkpt>
      <trkpt lat="43.22225" lon="6.05773">
        <ele>283.39453125</ele>
        <time>2022-04-10T08:03:44Z</time>
      </trkpt>
      <trkpt lat="43.22223" lon="6.05782">
        <ele>283.6171875</ele>
        <time>2022-04-10T08:03:45Z</time>
      </trkpt>
      <trkpt lat="43.2222" lon="6.05792">
        <ele>283.76171875</ele>
        <time>2022-04-10T08:03:46Z</time>
      </trkpt>
      <trkpt lat="43.22218" lon="6.05802">
        <ele>284.05859375</ele>
        <time>2022-04-10T08:03:47Z</time>
      </trkpt>
      <trkpt lat="43.22214" lon="6.05809">
        <ele>284.20703125</ele>
        <time>2022-04-10T08:03:48Z</time>
      </trkpt>
      <trkpt lat="43.22209" lon="6.05815">
        <ele>283.765625</ele>
        <time>2022-04-10T08:03:49Z</time>
      </trkpt>
      <trkpt lat="43.22203" lon="6.05818">
        <ele>282.82421875</ele>
        <time>2022-04-10T08:03:50Z</time>
      </trkpt>
      <trkpt lat="43.22197" lon="6.05819">
        <ele>281.64453125</ele>
        <time>2022-04-10T08:03:51Z</time>
      </trkpt>
      <trkpt lat="43.22191" lon="6.05818">
        <ele>280.41015625</ele>
        <time>2022-04-10T08:03:52Z</time>
      </trkpt>
      <trkpt lat="43.22185" lon="6.05815">
        <ele>278.79296875</ele>
        <time>2022-04-10T08:03:53Z</time>
      </trkpt>
      <trkpt lat="43.22179" lon="6.0581">
        <ele>276.90625</ele>
        <time>2022-04-10T08:03:54Z</time>
      </trkpt>
      <trkpt lat="43.22173" lon="6.05802">
        <ele>274.87890625</ele>
        <time>2022-04-10T08:03:55Z</time>
      </trkpt>
      <trkpt lat="43.22168" lon="6.05794">
        <ele>273.0625</ele>
        <time>2022-04-10T08:03:56Z</time>
      </trkpt>
      <trkpt lat="43.22163" lon="6.05787">
        <ele>271.51953125</ele>
        <time>2022-04-10T08:03:57Z</time>
      </trkpt>
      <trkpt lat="43.22158" lon="6.05781">
        <ele>270.24609375</ele>
        <time>2022-04-10T08:03:58Z</time>
      </trkpt>
      <trkpt lat="43.22154" lon="6.05777">
        <ele>269.19921875</ele>
        <time>2022-04-10T08:03:59Z</time>
      </trkpt>
      <trkpt lat="43.22149" lon="6.05775">
        <ele>268.29296875</ele>
        <time>2022-04-10T08:04:00Z</time>
      </trkpt>
      <trkpt lat="43.22144" lon="6.05774">
        <ele>267.46484375</ele>
        <time>2022-04-10T08:04:01Z</time>
      </trkpt>
      <trkpt lat="43.22139" lon="6.05774">
        <ele>266.95703125</ele>
        <time>2022-04-10T08:04:02Z</time>
      </trkpt>
      <trkpt lat="43.22134" lon="6.05776">
        <ele>266.58203125</ele>
        <time>2022-04-10T08:04:03Z</time>
      </trkpt>
      <trkpt lat="43.22128" lon="6.05778">
        <ele>266.3125</ele>
        <time>2022-04-10T08:04:04Z</time>
      </trkpt>
      <trkpt lat="43.22123" lon="6.05781">
        <ele>266.21484375</ele>
        <time>2022-04-10T08:04:05Z</time>
      </trkpt>
      <trkpt lat="43.22117" lon="6.05785">
        <ele>266.26953125</ele>
        <time>2022-04-10T08:04:06Z</time>
      </trkpt>
      <trkpt lat="43.22105" lon="6.05793">
        <ele>265.76171875</ele>
        <time>2022-04-10T08:04:08Z</time>
      </trkpt>
      <trkpt lat="43.22098" lon="6.05797">
        <ele>265.26171875</ele>
        <time>2022-04-10T08:04:09Z</time>
      </trkpt>
      <trkpt lat="43.22086" lon="6.05805">
        <ele>263.94921875</ele>
        <time>2022-04-10T08:04:11Z</time>
      </trkpt>
      <trkpt lat="43.2208" lon="6.0581">
        <ele>263.30078125</ele>
        <time>2022-04-10T08:04:12Z</time>
      </trkpt>
      <trkpt lat="43.22075" lon="6.05816">
        <ele>262.78515625</ele>
        <time>2022-04-10T08:04:13Z</time>
      </trkpt>
      <trkpt lat="43.22069" lon="6.05823">
        <ele>262.2734375</ele>
        <time>2022-04-10T08:04:14Z</time>
      </trkpt>
      <trkpt lat="43.22063" lon="6.05829">
        <ele>261.37109375</ele>
        <time>2022-04-10T08:04:15Z</time>
      </trkpt>
      <trkpt lat="43.22058" lon="6.05833">
        <ele>260.28515625</ele>
        <time>2022-04-10T08:04:16Z</time>
      </trkpt>
      <trkpt lat="43.22037" lon="6.05852">
        <ele>256.5625</ele>
        <time>2022-04-10T08:04:21Z</time>
      </trkpt>
      <trkpt lat="43.22032" lon="6.05854">
        <ele>255.62890625</ele>
        <time>2022-04-10T08:04:22Z</time>
      </trkpt>
      <trkpt lat="43.22027" lon="6.05857">
        <ele>254.46484375</ele>
        <time>2022-04-10T08:04:23Z</time>
      </trkpt>
      <trkpt lat="43.22022" lon="6.05859">
        <ele>253.44921875</ele>
        <time>2022-04-10T08:04:24Z</time>
      </trkpt>
      <trkpt lat="43.22018" lon="6.05861">
        <ele>252.625</ele>
        <time>2022-04-10T08:04:25Z</time>
      </trkpt>
      <trkpt lat="43.22015" lon="6.05863">
        <ele>251.95703125</ele>
        <time>2022-04-10T08:04:26Z</time>
      </trkpt>
      <trkpt lat="43.21997" lon="6.05874">
        <ele>248.37890625</ele>
        <time>2022-04-10T08:04:34Z</time>
      </trkpt>
      <trkpt lat="43.21995" lon="6.05874">
        <ele>248.05859375</ele>
        <time>2022-04-10T08:04:35Z</time>
      </trkpt>
      <trkpt lat="43.21992" lon="6.05873">
        <ele>247.65234375</ele>
        <time>2022-04-10T08:04:36Z</time>
      </trkpt>
      <trkpt lat="43.21989" lon="6.05872">
        <ele>247.109375</ele>
        <time>2022-04-10T08:04:37Z</time>
      </trkpt>
      <trkpt lat="43.21986" lon="6.05872">
        <ele>246.52734375</ele>
        <time>2022-04-10T08:04:38Z</time>
      </trkpt>
      <trkpt lat="43.21983" lon="6.05873">
        <ele>245.984375</ele>
        <time>2022-04-10T08:04:39Z</time>
      </trkpt>
      <trkpt lat="43.21981" lon="6.05875">
        <ele>245.63671875</ele>
        <time>2022-04-10T08:04:40Z</time>
      </trkpt>
      <trkpt lat="43.2198" lon="6.05878">
        <ele>245.4765625</ele>
        <time>2022-04-10T08:04:41Z</time>
      </trkpt>
      <trkpt lat="43.2198" lon="6.05881">
        <ele>245.43359375</ele>
        <time>2022-04-10T08:04:42Z</time>
      </trkpt>
      <trkpt lat="43.2198" lon="6.05885">
        <ele>245.0078125</ele>
        <time>2022-04-10T08:04:43Z</time>
      </trkpt>
      <trkpt lat="43.21978" lon="6.05891">
        <ele>244.37890625</ele>
        <time>2022-04-10T08:04:44Z</time>
      </trkpt>
      <trkpt lat="43.21977" lon="6.05897">
        <ele>243.65625</ele>
        <time>2022-04-10T08:04:45Z</time>
      </trkpt>
      <trkpt lat="43.21975" lon="6.05903">
        <ele>242.9296875</ele>
        <time>2022-04-10T08:04:46Z</time>
      </trkpt>
      <trkpt lat="43.21972" lon="6.05907">
        <ele>242.13671875</ele>
        <time>2022-04-10T08:04:47Z</time>
      </trkpt>
      <trkpt lat="43.21969" lon="6.0591">
        <ele>241.1953125</ele>
        <time>2022-04-10T08:04:48Z</time>
      </trkpt>
      <trkpt lat="43.21965" lon="6.05913">
        <ele>240.2109375</ele>
        <time>2022-04-10T08:04:49Z</time>
      </trkpt>
      <trkpt lat="43.21961" lon="6.05915">
        <ele>239.28125</ele>
        <time>2022-04-10T08:04:50Z</time>
      </trkpt>
      <trkpt lat="43.21947" lon="6.05922">
        <ele>236.08203125</ele>
        <time>2022-04-10T08:04:54Z</time>
      </trkpt>
      <trkpt lat="43.21945" lon="6.05926">
        <ele>235.36328125</ele>
        <time>2022-04-10T08:04:56Z</time>
      </trkpt>
      <trkpt lat="43.21945" lon="6.05927">
        <ele>235.21484375</ele>
        <time>2022-04-10T08:04:57Z</time>
      </trkpt>
      <trkpt lat="43.21947" lon="6.05934">
        <ele>234.890625</ele>
        <time>2022-04-10T08:05:11Z</time>
      </trkpt>
      <trkpt lat="43.21951" lon="6.05936">
        <ele>235.203125</ele>
        <time>2022-04-10T08:05:25Z</time>
      </trkpt>
      <trkpt lat="43.21953" lon="6.05937">
        <ele>235.328125</ele>
        <time>2022-04-10T08:05:26Z</time>
      </trkpt>
      <trkpt lat="43.21955" lon="6.05939">
        <ele>235.54296875</ele>
        <time>2022-04-10T08:05:27Z</time>
      </trkpt>
      <trkpt lat="43.21958" lon="6.05941">
        <ele>235.6875</ele>
        <time>2022-04-10T08:05:28Z</time>
      </trkpt>
      <trkpt lat="43.21961" lon="6.05944">
        <ele>235.6875</ele>
        <time>2022-04-10T08:05:29Z</time>
      </trkpt>
      <trkpt lat="43.21986" lon="6.05985">
        <ele>234.29296875</ele>
        <time>2022-04-10T08:05:41Z</time>
      </trkpt>
      <trkpt lat="43.22011" lon="6.0602">
        <ele>234.8828125</ele>
        <time>2022-04-10T08:05:54Z</time>
      </trkpt>
      <trkpt lat="43.22035" lon="6.06047">
        <ele>241.5703125</ele>
        <time>2022-04-10T08:06:05Z</time>
      </trkpt>
      <trkpt lat="43.22046" lon="6.06063">
        <ele>245.1875</ele>
        <time>2022-04-10T08:06:10Z</time>
      </trkpt>
      <trkpt lat="43.22047" lon="6.06066">
        <ele>245.68359375</ele>
        <time>2022-04-10T08:06:11Z</time>
      </trkpt>
      <trkpt lat="43.22048" lon="6.0607">
        <ele>245.88671875</ele>
        <time>2022-04-10T08:06:12Z</time>
      </trkpt>
      <trkpt lat="43.22051" lon="6.06109">
        <ele>247.9921875</ele>
        <time>2022-04-10T08:06:22Z</time>
      </trkpt>
      <trkpt lat="43.22045" lon="6.06174">
        <ele>247.9453125</ele>
        <time>2022-04-10T08:06:32Z</time>
      </trkpt>
      <trkpt lat="43.22035" lon="6.06221">
        <ele>243.203125</ele>
        <time>2022-04-10T08:06:42Z</time>
      </trkpt>
      <trkpt lat="43.22036" lon="6.06238">
        <ele>240.59375</ele>
        <time>2022-04-10T08:06:46Z</time>
      </trkpt>
      <trkpt lat="43.22038" lon="6.06243">
        <ele>240.36328125</ele>
        <time>2022-04-10T08:06:48Z</time>
      </trkpt>
      <trkpt lat="43.22057" lon="6.06283">
        <ele>235.6640625</ele>
        <time>2022-04-10T08:06:58Z</time>
      </trkpt>
      <trkpt lat="43.22081" lon="6.0632">
        <ele>228.125</ele>
        <time>2022-04-10T08:07:09Z</time>
      </trkpt>
      <trkpt lat="43.22086" lon="6.06321">
        <ele>228.7109375</ele>
        <time>2022-04-10T08:07:10Z</time>
      </trkpt>
      <trkpt lat="43.22091" lon="6.06322">
        <ele>229.5703125</ele>
        <time>2022-04-10T08:07:11Z</time>
      </trkpt>
      <trkpt lat="43.22096" lon="6.06322">
        <ele>230.1953125</ele>
        <time>2022-04-10T08:07:12Z</time>
      </trkpt>
      <trkpt lat="43.221" lon="6.06324">
        <ele>230.5078125</ele>
        <time>2022-04-10T08:07:13Z</time>
      </trkpt>
      <trkpt lat="43.22104" lon="6.06324">
        <ele>231.16015625</ele>
        <time>2022-04-10T08:07:14Z</time>
      </trkpt>
      <trkpt lat="43.22108" lon="6.06325">
        <ele>231.4453125</ele>
        <time>2022-04-10T08:07:15Z</time>
      </trkpt>
      <trkpt lat="43.22152" lon="6.06347">
        <ele>228.890625</ele>
        <time>2022-04-10T08:07:28Z</time>
      </trkpt>
      <trkpt lat="43.22176" lon="6.06357">
        <ele>226.4921875</ele>
        <time>2022-04-10T08:07:36Z</time>
      </trkpt>
      <trkpt lat="43.22222" lon="6.06371">
        <ele>222.03125</ele>
        <time>2022-04-10T08:07:49Z</time>
      </trkpt>
      <trkpt lat="43.22227" lon="6.06372">
        <ele>221.515625</ele>
        <time>2022-04-10T08:07:50Z</time>
      </trkpt>
      <trkpt lat="43.22261" lon="6.06373">
        <ele>220.015625</ele>
        <time>2022-04-10T08:07:59Z</time>
      </trkpt>
      <trkpt lat="43.2227" lon="6.06371">
        <ele>218.9921875</ele>
        <time>2022-04-10T08:08:01Z</time>
      </trkpt>
      <trkpt lat="43.22275" lon="6.06369">
        <ele>218.9453125</ele>
        <time>2022-04-10T08:08:02Z</time>
      </trkpt>
      <trkpt lat="43.22281" lon="6.06367">
        <ele>218.88671875</ele>
        <time>2022-04-10T08:08:03Z</time>
      </trkpt>
      <trkpt lat="43.22286" lon="6.06364">
        <ele>218.99609375</ele>
        <time>2022-04-10T08:08:04Z</time>
      </trkpt>
      <trkpt lat="43.2229" lon="6.06362">
        <ele>219.30859375</ele>
        <time>2022-04-10T08:08:05Z</time>
      </trkpt>
      <trkpt lat="43.22294" lon="6.06359">
        <ele>219.65625</ele>
        <time>2022-04-10T08:08:06Z</time>
      </trkpt>
      <trkpt lat="43.22319" lon="6.06341">
        <ele>222.21484375</ele>
        <time>2022-04-10T08:08:12Z</time>
      </trkpt>
      <trkpt lat="43.22329" lon="6.06336">
        <ele>222.37890625</ele>
        <time>2022-04-10T08:08:14Z</time>
      </trkpt>
      <trkpt lat="43.22334" lon="6.06335">
        <ele>222.046875</ele>
        <time>2022-04-10T08:08:15Z</time>
      </trkpt>
      <trkpt lat="43.22353" lon="6.06333">
        <ele>223.64453125</ele>
        <time>2022-04-10T08:08:19Z</time>
      </trkpt>
      <trkpt lat="43.22357" lon="6.06334">
        <ele>224.04296875</ele>
        <time>2022-04-10T08:08:20Z</time>
      </trkpt>
      <trkpt lat="43.22361" lon="6.06334">
        <ele>224.328125</ele>
        <time>2022-04-10T08:08:21Z</time>
      </trkpt>
      <trkpt lat="43.22366" lon="6.06335">
        <ele>224.73046875</ele>
        <time>2022-04-10T08:08:22Z</time>
      </trkpt>
      <trkpt lat="43.22382" lon="6.06335">
        <ele>229.8828125</ele>
        <time>2022-04-10T08:08:25Z</time>
      </trkpt>
      <trkpt lat="43.22387" lon="6.06337">
        <ele>231.4296875</ele>
        <time>2022-04-10T08:08:26Z</time>
      </trkpt>
      <trkpt lat="43.22401" lon="6.06342">
        <ele>235.171875</ele>
        <time>2022-04-10T08:08:29Z</time>
      </trkpt>
      <trkpt lat="43.2241" lon="6.06343">
        <ele>238.2109375</ele>
        <time>2022-04-10T08:08:32Z</time>
      </trkpt>
      <trkpt lat="43.22412" lon="6.06342">
        <ele>238.99609375</ele>
        <time>2022-04-10T08:08:33Z</time>
      </trkpt>
      <trkpt lat="43.22414" lon="6.06343">
        <ele>239.40234375</ele>
        <time>2022-04-10T08:08:34Z</time>
      </trkpt>
      <trkpt lat="43.22415" lon="6.06347">
        <ele>239.17578125</ele>
        <time>2022-04-10T08:08:35Z</time>
      </trkpt>
      <trkpt lat="43.22416" lon="6.0635">
        <ele>238.70703125</ele>
        <time>2022-04-10T08:08:36Z</time>
      </trkpt>
      <trkpt lat="43.22417" lon="6.06354">
        <ele>238.02734375</ele>
        <time>2022-04-10T08:08:37Z</time>
      </trkpt>
      <trkpt lat="43.22417" lon="6.06358">
        <ele>236.84765625</ele>
        <time>2022-04-10T08:08:38Z</time>
      </trkpt>
      <trkpt lat="43.22435" lon="6.06389">
        <ele>231.4375</ele>
        <time>2022-04-10T08:08:47Z</time>
      </trkpt>
      <trkpt lat="43.22454" lon="6.06413">
        <ele>226.65234375</ele>
        <time>2022-04-10T08:08:56Z</time>
      </trkpt>
      <trkpt lat="43.22456" lon="6.06414">
        <ele>226.50390625</ele>
        <time>2022-04-10T08:08:57Z</time>
      </trkpt>
      <trkpt lat="43.22458" lon="6.06416">
        <ele>225.875</ele>
        <time>2022-04-10T08:08:58Z</time>
      </trkpt>
      <trkpt lat="43.22461" lon="6.06418">
        <ele>225.25</ele>
        <time>2022-04-10T08:08:59Z</time>
      </trkpt>
      <trkpt lat="43.22463" lon="6.06421">
        <ele>224.3125</ele>
        <time>2022-04-10T08:09:00Z</time>
      </trkpt>
      <trkpt lat="43.22466" lon="6.06422">
        <ele>223.83984375</ele>
        <time>2022-04-10T08:09:01Z</time>
      </trkpt>
      <trkpt lat="43.22489" lon="6.06428">
        <ele>223.6484375</ele>
        <time>2022-04-10T08:09:07Z</time>
      </trkpt>
      <trkpt lat="43.22524" lon="6.06441">
        <ele>222.00390625</ele>
        <time>2022-04-10T08:09:17Z</time>
      </trkpt>
      <trkpt lat="43.22566" lon="6.06453">
        <ele>221.0625</ele>
        <time>2022-04-10T08:09:27Z</time>
      </trkpt>
      <trkpt lat="43.22575" lon="6.06461">
        <ele>218.28125</ele>
        <time>2022-04-10T08:09:30Z</time>
      </trkpt>
      <trkpt lat="43.22577" lon="6.06464">
        <ele>217.109375</ele>
        <time>2022-04-10T08:09:31Z</time>
      </trkpt>
      <trkpt lat="43.22579" lon="6.06465">
        <ele>216.765625</ele>
        <time>2022-04-10T08:09:32Z</time>
      </trkpt>
      <trkpt lat="43.22608" lon="6.06472">
        <ele>214.62109375</ele>
        <time>2022-04-10T08:09:40Z</time>
      </trkpt>
      <trkpt lat="43.22614" lon="6.06472">
        <ele>214.57421875</ele>
        <time>2022-04-10T08:09:41Z</time>
      </trkpt>
      <trkpt lat="43.2262" lon="6.06471">
        <ele>214.76171875</ele>
        <time>2022-04-10T08:09:42Z</time>
      </trkpt>
      <trkpt lat="43.22625" lon="6.06471">
        <ele>214.89453125</ele>
        <time>2022-04-10T08:09:43Z</time>
      </trkpt>
      <trkpt lat="43.22643" lon="6.06467">
        <ele>216.61328125</ele>
        <time>2022-04-10T08:09:47Z</time>
      </trkpt>
      <trkpt lat="43.22654" lon="6.06467">
        <ele>216.828125</ele>
        <time>2022-04-10T08:09:50Z</time>
      </trkpt>
      <trkpt lat="43.22659" lon="6.06469">
        <ele>215.95703125</ele>
        <time>2022-04-10T08:09:51Z</time>
      </trkpt>
      <trkpt lat="43.22675" lon="6.06472">
        <ele>214.5390625</ele>
        <time>2022-04-10T08:09:54Z</time>
      </trkpt>
      <trkpt lat="43.22681" lon="6.06473">
        <ele>213.98828125</ele>
        <time>2022-04-10T08:09:55Z</time>
      </trkpt>
      <trkpt lat="43.22686" lon="6.06475">
        <ele>213.0078125</ele>
        <time>2022-04-10T08:09:56Z</time>
      </trkpt>
      <trkpt lat="43.22695" lon="6.06477">
        <ele>212.02734375</ele>
        <time>2022-04-10T08:09:58Z</time>
      </trkpt>
      <trkpt lat="43.22716" lon="6.06468">
        <ele>214.63671875</ele>
        <time>2022-04-10T08:10:04Z</time>
      </trkpt>
      <trkpt lat="43.22751" lon="6.06462">
        <ele>215.8203125</ele>
        <time>2022-04-10T08:10:13Z</time>
      </trkpt>
      <trkpt lat="43.22785" lon="6.06461">
        <ele>215.20703125</ele>
        <time>2022-04-10T08:10:18Z</time>
      </trkpt>
      <trkpt lat="43.22794" lon="6.06461">
        <ele>215.53125</ele>
        <time>2022-04-10T08:10:19Z</time>
      </trkpt>
      <trkpt lat="43.22823" lon="6.06462">
        <ele>215.578125</ele>
        <time>2022-04-10T08:10:23Z</time>
      </trkpt>
      <trkpt lat="43.22837" lon="6.06459">
        <ele>216.68359375</ele>
        <time>2022-04-10T08:10:25Z</time>
      </trkpt>
      <trkpt lat="43.22875" lon="6.0645">
        <ele>218.16796875</ele>
        <time>2022-04-10T08:10:32Z</time>
      </trkpt>
      <trkpt lat="43.22887" lon="6.06444">
        <ele>218.9609375</ele>
        <time>2022-04-10T08:10:34Z</time>
      </trkpt>
      <trkpt lat="43.22894" lon="6.0644">
        <ele>219.765625</ele>
        <time>2022-04-10T08:10:35Z</time>
      </trkpt>
      <trkpt lat="43.22955" lon="6.06394">
        <ele>227.6796875</ele>
        <time>2022-04-10T08:10:47Z</time>
      </trkpt>
      <trkpt lat="43.2298" lon="6.06392">
        <ele>229.1328125</ele>
        <time>2022-04-10T08:10:52Z</time>
      </trkpt>
      <trkpt lat="43.22984" lon="6.0639">
        <ele>230.41015625</ele>
        <time>2022-04-10T08:10:53Z</time>
      </trkpt>
      <trkpt lat="43.22989" lon="6.06389">
        <ele>231.62890625</ele>
        <time>2022-04-10T08:10:54Z</time>
      </trkpt>
      <trkpt lat="43.22994" lon="6.06387">
        <ele>232.80078125</ele>
        <time>2022-04-10T08:10:55Z</time>
      </trkpt>
      <trkpt lat="43.23" lon="6.06388">
        <ele>233.66796875</ele>
        <time>2022-04-10T08:10:56Z</time>
      </trkpt>
      <trkpt lat="43.23005" lon="6.0639">
        <ele>233.8984375</ele>
        <time>2022-04-10T08:10:57Z</time>
      </trkpt>
      <trkpt lat="43.2301" lon="6.06394">
        <ele>233.9140625</ele>
        <time>2022-04-10T08:10:58Z</time>
      </trkpt>
      <trkpt lat="43.23015" lon="6.06397">
        <ele>233.71875</ele>
        <time>2022-04-10T08:10:59Z</time>
      </trkpt>
      <trkpt lat="43.23036" lon="6.0642">
        <ele>231.35546875</ele>
        <time>2022-04-10T08:11:04Z</time>
      </trkpt>
      <trkpt lat="43.23041" lon="6.06424">
        <ele>231.28515625</ele>
        <time>2022-04-10T08:11:05Z</time>
      </trkpt>
      <trkpt lat="43.23075" lon="6.06439">
        <ele>235.234375</ele>
        <time>2022-04-10T08:11:12Z</time>
      </trkpt>
      <trkpt lat="43.23086" lon="6.06448">
        <ele>235.53515625</ele>
        <time>2022-04-10T08:11:21Z</time>
      </trkpt>
      <trkpt lat="43.23087" lon="6.0645">
        <ele>235.1484375</ele>
        <time>2022-04-10T08:11:41Z</time>
      </trkpt>
      <trkpt lat="43.23088" lon="6.06454">
        <ele>233.9296875</ele>
        <time>2022-04-10T08:11:53Z</time>
      </trkpt>
      <trkpt lat="43.23091" lon="6.06455">
        <ele>234.66015625</ele>
        <time>2022-04-10T08:12:29Z</time>
      </trkpt>
      <trkpt lat="43.23091" lon="6.0645">
        <ele>236.34765625</ele>
        <time>2022-04-10T08:13:06Z</time>
      </trkpt>
      <trkpt lat="43.2309" lon="6.0645">
        <ele>236.0625</ele>
        <time>2022-04-10T08:13:24Z</time>
      </trkpt>
      <trkpt lat="43.23092" lon="6.06454">
        <ele>235.33203125</ele>
        <time>2022-04-10T08:13:51Z</time>
      </trkpt>
      <trkpt lat="43.23094" lon="6.06449">
        <ele>237.51953125</ele>
        <time>2022-04-10T08:14:32Z</time>
      </trkpt>
      <trkpt lat="43.23092" lon="6.06447">
        <ele>237.5234375</ele>
        <time>2022-04-10T08:15:03Z</time>
      </trkpt>
      <trkpt lat="43.23091" lon="6.06452">
        <ele>235.58984375</ele>
        <time>2022-04-10T08:15:30Z</time>
      </trkpt>
      <trkpt lat="43.23092" lon="6.06454">
        <ele>235.4609375</ele>
        <time>2022-04-10T08:15:57Z</time>
      </trkpt>
      <trkpt lat="43.23096" lon="6.06456">
        <ele>236.05078125</ele>
        <time>2022-04-10T08:16:17Z</time>
      </trkpt>
      <trkpt lat="43.23097" lon="6.06457">
        <ele>235.6640625</ele>
        <time>2022-04-10T08:16:18Z</time>
      </trkpt>
      <trkpt lat="43.23118" lon="6.06481">
        <ele>234.0078125</ele>
        <time>2022-04-10T08:16:27Z</time>
      </trkpt>
      <trkpt lat="43.23121" lon="6.06485">
        <ele>233.76953125</ele>
        <time>2022-04-10T08:16:28Z</time>
      </trkpt>
      <trkpt lat="43.23125" lon="6.0649">
        <ele>233.44140625</ele>
        <time>2022-04-10T08:16:29Z</time>
      </trkpt>
      <trkpt lat="43.23133" lon="6.06499">
        <ele>232.57421875</ele>
        <time>2022-04-10T08:16:31Z</time>
      </trkpt>
      <trkpt lat="43.23136" lon="6.06504">
        <ele>231.9453125</ele>
        <time>2022-04-10T08:16:32Z</time>
      </trkpt>
      <trkpt lat="43.23157" lon="6.06524">
        <ele>229.09765625</ele>
        <time>2022-04-10T08:16:37Z</time>
      </trkpt>
      <trkpt lat="43.23162" lon="6.06526">
        <ele>229.27734375</ele>
        <time>2022-04-10T08:16:38Z</time>
      </trkpt>
      <trkpt lat="43.23167" lon="6.06528">
        <ele>229.55078125</ele>
        <time>2022-04-10T08:16:39Z</time>
      </trkpt>
      <trkpt lat="43.23181" lon="6.06534">
        <ele>230.3046875</ele>
        <time>2022-04-10T08:16:42Z</time>
      </trkpt>
      <trkpt lat="43.23186" lon="6.06537">
        <ele>230.05859375</ele>
        <time>2022-04-10T08:16:43Z</time>
      </trkpt>
      <trkpt lat="43.23206" lon="6.0655">
        <ele>227.8828125</ele>
        <time>2022-04-10T08:16:47Z</time>
      </trkpt>
      <trkpt lat="43.2321" lon="6.06553">
        <ele>227.44921875</ele>
        <time>2022-04-10T08:16:48Z</time>
      </trkpt>
      <trkpt lat="43.23215" lon="6.06556">
        <ele>226.8359375</ele>
        <time>2022-04-10T08:16:49Z</time>
      </trkpt>
      <trkpt lat="43.2322" lon="6.06559">
        <ele>226.32421875</ele>
        <time>2022-04-10T08:16:50Z</time>
      </trkpt>
      <trkpt lat="43.23226" lon="6.06562">
        <ele>225.80859375</ele>
        <time>2022-04-10T08:16:51Z</time>
      </trkpt>
      <trkpt lat="43.23236" lon="6.06568">
        <ele>224.97265625</ele>
        <time>2022-04-10T08:16:53Z</time>
      </trkpt>
      <trkpt lat="43.23241" lon="6.0657">
        <ele>224.91796875</ele>
        <time>2022-04-10T08:16:54Z</time>
      </trkpt>
      <trkpt lat="43.23257" lon="6.06575">
        <ele>225.02734375</ele>
        <time>2022-04-10T08:16:57Z</time>
      </trkpt>
      <trkpt lat="43.23274" lon="6.06578">
        <ele>225.36328125</ele>
        <time>2022-04-10T08:17:00Z</time>
      </trkpt>
      <trkpt lat="43.2328" lon="6.06577">
        <ele>226.21484375</ele>
        <time>2022-04-10T08:17:01Z</time>
      </trkpt>
      <trkpt lat="43.23286" lon="6.06575">
        <ele>227.44140625</ele>
        <time>2022-04-10T08:17:02Z</time>
      </trkpt>
      <trkpt lat="43.23298" lon="6.0657">
        <ele>230.29296875</ele>
        <time>2022-04-10T08:17:04Z</time>
      </trkpt>
      <trkpt lat="43.23304" lon="6.0657">
        <ele>231.1171875</ele>
        <time>2022-04-10T08:17:05Z</time>
      </trkpt>
      <trkpt lat="43.23311" lon="6.06571">
        <ele>231.328125</ele>
        <time>2022-04-10T08:17:06Z</time>
      </trkpt>
      <trkpt lat="43.23319" lon="6.06573">
        <ele>231.41796875</ele>
        <time>2022-04-10T08:17:07Z</time>
      </trkpt>
      <trkpt lat="43.23325" lon="6.06576">
        <ele>231.19140625</ele>
        <time>2022-04-10T08:17:08Z</time>
      </trkpt>
      <trkpt lat="43.23331" lon="6.06579">
        <ele>230.80078125</ele>
        <time>2022-04-10T08:17:09Z</time>
      </trkpt>
      <trkpt lat="43.23336" lon="6.06583">
        <ele>230.234375</ele>
        <time>2022-04-10T08:17:10Z</time>
      </trkpt>
      <trkpt lat="43.23345" lon="6.0659">
        <ele>228.625</ele>
        <time>2022-04-10T08:17:12Z</time>
      </trkpt>
      <trkpt lat="43.23351" lon="6.06593">
        <ele>228.35546875</ele>
        <time>2022-04-10T08:17:13Z</time>
      </trkpt>
      <trkpt lat="43.23362" lon="6.06597">
        <ele>228.20703125</ele>
        <time>2022-04-10T08:17:15Z</time>
      </trkpt>
      <trkpt lat="43.23367" lon="6.06601">
        <ele>227.6015625</ele>
        <time>2022-04-10T08:17:16Z</time>
      </trkpt>
      <trkpt lat="43.23371" lon="6.06606">
        <ele>226.265625</ele>
        <time>2022-04-10T08:17:17Z</time>
      </trkpt>
      <trkpt lat="43.23375" lon="6.06611">
        <ele>224.875</ele>
        <time>2022-04-10T08:17:18Z</time>
      </trkpt>
      <trkpt lat="43.23378" lon="6.06615">
        <ele>223.96875</ele>
        <time>2022-04-10T08:17:19Z</time>
      </trkpt>
      <trkpt lat="43.23382" lon="6.06618">
        <ele>223.56640625</ele>
        <time>2022-04-10T08:17:20Z</time>
      </trkpt>
      <trkpt lat="43.23387" lon="6.06619">
        <ele>223.5234375</ele>
        <time>2022-04-10T08:17:21Z</time>
      </trkpt>
      <trkpt lat="43.23392" lon="6.06621">
        <ele>223.640625</ele>
        <time>2022-04-10T08:17:22Z</time>
      </trkpt>
      <trkpt lat="43.23404" lon="6.06623">
        <ele>223.31640625</ele>
        <time>2022-04-10T08:17:24Z</time>
      </trkpt>
      <trkpt lat="43.23411" lon="6.06624">
        <ele>223.0078125</ele>
        <time>2022-04-10T08:17:25Z</time>
      </trkpt>
      <trkpt lat="43.23417" lon="6.06626">
        <ele>222.60546875</ele>
        <time>2022-04-10T08:17:26Z</time>
      </trkpt>
      <trkpt lat="43.23423" lon="6.0663">
        <ele>222.0703125</ele>
        <time>2022-04-10T08:17:27Z</time>
      </trkpt>
      <trkpt lat="43.23428" lon="6.06634">
        <ele>220.91796875</ele>
        <time>2022-04-10T08:17:28Z</time>
      </trkpt>
      <trkpt lat="43.23459" lon="6.06645">
        <ele>216.76171875</ele>
        <time>2022-04-10T08:17:37Z</time>
      </trkpt>
      <trkpt lat="43.23465" lon="6.06647">
        <ele>215.77734375</ele>
        <time>2022-04-10T08:17:39Z</time>
      </trkpt>
      <trkpt lat="43.23473" lon="6.06649">
        <ele>214.66796875</ele>
        <time>2022-04-10T08:17:41Z</time>
      </trkpt>
      <trkpt lat="43.23477" lon="6.0665">
        <ele>214.1640625</ele>
        <time>2022-04-10T08:17:42Z</time>
      </trkpt>
      <trkpt lat="43.23481" lon="6.06651">
        <ele>213.26953125</ele>
        <time>2022-04-10T08:17:43Z</time>
      </trkpt>
      <trkpt lat="43.23485" lon="6.06653">
        <ele>212.16796875</ele>
        <time>2022-04-10T08:17:44Z</time>
      </trkpt>
      <trkpt lat="43.2349" lon="6.06656">
        <ele>210.8359375</ele>
        <time>2022-04-10T08:17:45Z</time>
      </trkpt>
      <trkpt lat="43.235" lon="6.06667">
        <ele>207.34765625</ele>
        <time>2022-04-10T08:17:48Z</time>
      </trkpt>
      <trkpt lat="43.23502" lon="6.06671">
        <ele>206.59765625</ele>
        <time>2022-04-10T08:17:49Z</time>
      </trkpt>
      <trkpt lat="43.2351" lon="6.0667">
        <ele>205.12890625</ele>
        <time>2022-04-10T08:17:58Z</time>
      </trkpt>
      <trkpt lat="43.23513" lon="6.06672">
        <ele>204.265625</ele>
        <time>2022-04-10T08:18:05Z</time>
      </trkpt>
      <trkpt lat="43.23516" lon="6.06676">
        <ele>203.44140625</ele>
        <time>2022-04-10T08:18:12Z</time>
      </trkpt>
      <trkpt lat="43.23516" lon="6.06677">
        <ele>203.21484375</ele>
        <time>2022-04-10T08:18:13Z</time>
      </trkpt>
      <trkpt lat="43.23516" lon="6.06679">
        <ele>202.99609375</ele>
        <time>2022-04-10T08:18:14Z</time>
      </trkpt>
      <trkpt lat="43.2352" lon="6.06683">
        <ele>202.00390625</ele>
        <time>2022-04-10T08:18:22Z</time>
      </trkpt>
      <trkpt lat="43.23525" lon="6.06687">
        <ele>200.9140625</ele>
        <time>2022-04-10T08:18:34Z</time>
      </trkpt>
      <trkpt lat="43.23529" lon="6.06698">
        <ele>199.421875</ele>
        <time>2022-04-10T08:18:46Z</time>
      </trkpt>
      <trkpt lat="43.23533" lon="6.06703">
        <ele>198.71875</ele>
        <time>2022-04-10T08:18:56Z</time>
      </trkpt>
      <trkpt lat="43.23534" lon="6.06705">
        <ele>198.27734375</ele>
        <time>2022-04-10T08:18:58Z</time>
      </trkpt>
      <trkpt lat="43.23536" lon="6.06705">
        <ele>197.91015625</ele>
        <time>2022-04-10T08:18:59Z</time>
      </trkpt>
      <trkpt lat="43.23537" lon="6.06705">
        <ele>197.64453125</ele>
        <time>2022-04-10T08:19:00Z</time>
      </trkpt>
      <trkpt lat="43.23538" lon="6.06704">
        <ele>197.4609375</ele>
        <time>2022-04-10T08:19:02Z</time>
      </trkpt>
      <trkpt lat="43.23543" lon="6.06695">
        <ele>196.84375</ele>
        <time>2022-04-10T08:19:16Z</time>
      </trkpt>
      <trkpt lat="43.23547" lon="6.06695">
        <ele>196.01171875</ele>
        <time>2022-04-10T08:19:29Z</time>
      </trkpt>
      <trkpt lat="43.23548" lon="6.06699">
        <ele>195.7109375</ele>
        <time>2022-04-10T08:19:30Z</time>
      </trkpt>
      <trkpt lat="43.2355" lon="6.06703">
        <ele>195.1796875</ele>
        <time>2022-04-10T08:19:31Z</time>
      </trkpt>
      <trkpt lat="43.23551" lon="6.06708">
        <ele>194.71484375</ele>
        <time>2022-04-10T08:19:32Z</time>
      </trkpt>
      <trkpt lat="43.23552" lon="6.06711">
        <ele>194.4765625</ele>
        <time>2022-04-10T08:19:33Z</time>
      </trkpt>
      <trkpt lat="43.23553" lon="6.06714">
        <ele>194.34375</ele>
        <time>2022-04-10T08:19:34Z</time>
      </trkpt>
      <trkpt lat="43.23551" lon="6.06716">
        <ele>194.60546875</ele>
        <time>2022-04-10T08:19:47Z</time>
      </trkpt>
      <trkpt lat="43.2355" lon="6.06721">
        <ele>194.578125</ele>
        <time>2022-04-10T08:20:17Z</time>
      </trkpt>
      <trkpt lat="43.2355" lon="6.06719">
        <ele>194.62890625</ele>
        <time>2022-04-10T08:20:41Z</time>
      </trkpt>
      <trkpt lat="43.2355" lon="6.06722">
        <ele>194.47265625</ele>
        <time>2022-04-10T08:20:46Z</time>
      </trkpt>
      <trkpt lat="43.23551" lon="6.06726">
        <ele>194.26953125</ele>
        <time>2022-04-10T08:20:47Z</time>
      </trkpt>
      <trkpt lat="43.23555" lon="6.06742">
        <ele>193.37109375</ele>
        <time>2022-04-10T08:20:50Z</time>
      </trkpt>
      <trkpt lat="43.23558" lon="6.06747">
        <ele>192.91796875</ele>
        <time>2022-04-10T08:20:51Z</time>
      </trkpt>
      <trkpt lat="43.23562" lon="6.06751">
        <ele>192.51171875</ele>
        <time>2022-04-10T08:20:52Z</time>
      </trkpt>
      <trkpt lat="43.23566" lon="6.06756">
        <ele>192.15625</ele>
        <time>2022-04-10T08:20:53Z</time>
      </trkpt>
      <trkpt lat="43.2357" lon="6.06761">
        <ele>191.98828125</ele>
        <time>2022-04-10T08:20:54Z</time>
      </trkpt>
      <trkpt lat="43.23572" lon="6.06766">
        <ele>191.9609375</ele>
        <time>2022-04-10T08:20:55Z</time>
      </trkpt>
      <trkpt lat="43.23573" lon="6.06769">
        <ele>191.98828125</ele>
        <time>2022-04-10T08:20:56Z</time>
      </trkpt>
      <trkpt lat="43.23574" lon="6.06773">
        <ele>191.73828125</ele>
        <time>2022-04-10T08:20:57Z</time>
      </trkpt>
      <trkpt lat="43.23575" lon="6.06776">
        <ele>191.5234375</ele>
        <time>2022-04-10T08:20:58Z</time>
      </trkpt>
      <trkpt lat="43.23576" lon="6.06787">
        <ele>190.80859375</ele>
        <time>2022-04-10T08:21:02Z</time>
      </trkpt>
      <trkpt lat="43.23575" lon="6.06789">
        <ele>190.625</ele>
        <time>2022-04-10T08:21:05Z</time>
      </trkpt>
      <trkpt lat="43.23575" lon="6.06791">
        <ele>190.484375</ele>
        <time>2022-04-10T08:21:07Z</time>
      </trkpt>
      <trkpt lat="43.23577" lon="6.06794">
        <ele>190.3984375</ele>
        <time>2022-04-10T08:21:08Z</time>
      </trkpt>
      <trkpt lat="43.23606" lon="6.06821">
        <ele>187.76953125</ele>
        <time>2022-04-10T08:21:19Z</time>
      </trkpt>
      <trkpt lat="43.23613" lon="6.06827">
        <ele>186.7421875</ele>
        <time>2022-04-10T08:21:29Z</time>
      </trkpt>
      <trkpt lat="43.23613" lon="6.06826">
        <ele>186.859375</ele>
        <time>2022-04-10T08:21:52Z</time>
      </trkpt>
      <trkpt lat="43.23613" lon="6.06827">
        <ele>186.73046875</ele>
        <time>2022-04-10T08:22:31Z</time>
      </trkpt>
      <trkpt lat="43.23613" lon="6.06828">
        <ele>186.49609375</ele>
        <time>2022-04-10T08:23:21Z</time>
      </trkpt>
      <trkpt lat="43.23614" lon="6.06828">
        <ele>186.359375</ele>
        <time>2022-04-10T08:24:04Z</time>
      </trkpt>
      <trkpt lat="43.23613" lon="6.06827">
        <ele>186.578125</ele>
        <time>2022-04-10T08:24:48Z</time>
      </trkpt>
      <trkpt lat="43.23613" lon="6.06828">
        <ele>186.55859375</ele>
        <time>2022-04-10T08:25:29Z</time>
      </trkpt>
      <trkpt lat="43.23615" lon="6.06824">
        <ele>187.078125</ele>
        <time>2022-04-10T08:25:39Z</time>
      </trkpt>
      <trkpt lat="43.23615" lon="6.06823">
        <ele>187.01953125</ele>
        <time>2022-04-10T08:25:40Z</time>
      </trkpt>
      <trkpt lat="43.23616" lon="6.06821">
        <ele>186.8828125</ele>
        <time>2022-04-10T08:25:41Z</time>
      </trkpt>
      <trkpt lat="43.23616" lon="6.06818">
        <ele>186.8984375</ele>
        <time>2022-04-10T08:25:50Z</time>
      </trkpt>
      <trkpt lat="43.23613" lon="6.06816">
        <ele>187.29296875</ele>
        <time>2022-04-10T08:25:53Z</time>
      </trkpt>
      <trkpt lat="43.23611" lon="6.06816">
        <ele>187.41796875</ele>
        <time>2022-04-10T08:25:54Z</time>
      </trkpt>
      <trkpt lat="43.2361" lon="6.06816">
        <ele>187.53515625</ele>
        <time>2022-04-10T08:25:55Z</time>
      </trkpt>
      <trkpt lat="43.23609" lon="6.06817">
        <ele>187.63671875</ele>
        <time>2022-04-10T08:25:56Z</time>
      </trkpt>
      <trkpt lat="43.23605" lon="6.06818">
        <ele>187.9296875</ele>
        <time>2022-04-10T08:26:08Z</time>
      </trkpt>
      <trkpt lat="43.23584" lon="6.06801">
        <ele>190.453125</ele>
        <time>2022-04-10T08:26:20Z</time>
      </trkpt>
      <trkpt lat="43.23579" lon="6.0679">
        <ele>190.75390625</ele>
        <time>2022-04-10T08:26:24Z</time>
      </trkpt>
      <trkpt lat="43.23577" lon="6.06775">
        <ele>191.6171875</ele>
        <time>2022-04-10T08:26:32Z</time>
      </trkpt>
      <trkpt lat="43.23576" lon="6.06771">
        <ele>191.8671875</ele>
        <time>2022-04-10T08:26:33Z</time>
      </trkpt>
      <trkpt lat="43.23577" lon="6.06768">
        <ele>191.96484375</ele>
        <time>2022-04-10T08:26:34Z</time>
      </trkpt>
      <trkpt lat="43.23579" lon="6.06766">
        <ele>191.8984375</ele>
        <time>2022-04-10T08:26:35Z</time>
      </trkpt>
      <trkpt lat="43.23582" lon="6.06767">
        <ele>191.87109375</ele>
        <time>2022-04-10T08:26:36Z</time>
      </trkpt>
      <trkpt lat="43.23585" lon="6.06768">
        <ele>191.90234375</ele>
        <time>2022-04-10T08:26:37Z</time>
      </trkpt>
      <trkpt lat="43.23589" lon="6.06769">
        <ele>191.6484375</ele>
        <time>2022-04-10T08:26:38Z</time>
      </trkpt>
      <trkpt lat="43.23594" lon="6.0677">
        <ele>190.6484375</ele>
        <time>2022-04-10T08:26:39Z</time>
      </trkpt>
      <trkpt lat="43.236" lon="6.06772">
        <ele>189.4609375</ele>
        <time>2022-04-10T08:26:40Z</time>
      </trkpt>
      <trkpt lat="43.2362" lon="6.06779">
        <ele>185.31640625</ele>
        <time>2022-04-10T08:26:43Z</time>
      </trkpt>
      <trkpt lat="43.23634" lon="6.06786">
        <ele>181.921875</ele>
        <time>2022-04-10T08:26:45Z</time>
      </trkpt>
      <trkpt lat="43.23641" lon="6.0679">
        <ele>180.34765625</ele>
        <time>2022-04-10T08:26:46Z</time>
      </trkpt>
      <trkpt lat="43.23647" lon="6.06795">
        <ele>178.7890625</ele>
        <time>2022-04-10T08:26:47Z</time>
      </trkpt>
      <trkpt lat="43.23652" lon="6.06799">
        <ele>177.70703125</ele>
        <time>2022-04-10T08:26:48Z</time>
      </trkpt>
      <trkpt lat="43.23655" lon="6.06803">
        <ele>176.86328125</ele>
        <time>2022-04-10T08:26:49Z</time>
      </trkpt>
      <trkpt lat="43.23659" lon="6.06807">
        <ele>175.7890625</ele>
        <time>2022-04-10T08:26:50Z</time>
      </trkpt>
      <trkpt lat="43.23663" lon="6.06812">
        <ele>174.78125</ele>
        <time>2022-04-10T08:26:51Z</time>
      </trkpt>
      <trkpt lat="43.23675" lon="6.06835">
        <ele>170.96875</ele>
        <time>2022-04-10T08:26:54Z</time>
      </trkpt>
      <trkpt lat="43.23688" lon="6.06868">
        <ele>164.78125</ele>
        <time>2022-04-10T08:26:59Z</time>
      </trkpt>
      <trkpt lat="43.23689" lon="6.06876">
        <ele>163.77734375</ele>
        <time>2022-04-10T08:27:00Z</time>
      </trkpt>
      <trkpt lat="43.2369" lon="6.06883">
        <ele>163.02734375</ele>
        <time>2022-04-10T08:27:01Z</time>
      </trkpt>
      <trkpt lat="43.2369" lon="6.06896">
        <ele>161.328125</ele>
        <time>2022-04-10T08:27:04Z</time>
      </trkpt>
      <trkpt lat="43.23692" lon="6.06896">
        <ele>160.94921875</ele>
        <time>2022-04-10T08:27:09Z</time>
      </trkpt>
      <trkpt lat="43.23693" lon="6.06893">
        <ele>160.953125</ele>
        <time>2022-04-10T08:27:10Z</time>
      </trkpt>
      <trkpt lat="43.23694" lon="6.0689">
        <ele>161.0859375</ele>
        <time>2022-04-10T08:27:11Z</time>
      </trkpt>
      <trkpt lat="43.23695" lon="6.06885">
        <ele>161.50390625</ele>
        <time>2022-04-10T08:27:12Z</time>
      </trkpt>
      <trkpt lat="43.23695" lon="6.06881">
        <ele>162.0546875</ele>
        <time>2022-04-10T08:27:13Z</time>
      </trkpt>
      <trkpt lat="43.23704" lon="6.06838">
        <ele>161.9453125</ele>
        <time>2022-04-10T08:27:24Z</time>
      </trkpt>
      <trkpt lat="43.2371" lon="6.06809">
        <ele>161.078125</ele>
        <time>2022-04-10T08:27:30Z</time>
      </trkpt>
      <trkpt lat="43.23712" lon="6.06797">
        <ele>160.6484375</ele>
        <time>2022-04-10T08:27:33Z</time>
      </trkpt>
      <trkpt lat="43.23713" lon="6.06787">
        <ele>160.51171875</ele>
        <time>2022-04-10T08:27:35Z</time>
      </trkpt>
      <trkpt lat="43.23719" lon="6.06761">
        <ele>159.55859375</ele>
        <time>2022-04-10T08:27:42Z</time>
      </trkpt>
      <trkpt lat="43.23722" lon="6.06759">
        <ele>159.04296875</ele>
        <time>2022-04-10T08:27:43Z</time>
      </trkpt>
      <trkpt lat="43.23725" lon="6.06758">
        <ele>158.27734375</ele>
        <time>2022-04-10T08:27:44Z</time>
      </trkpt>
      <trkpt lat="43.23736" lon="6.06755">
        <ele>157.18359375</ele>
        <time>2022-04-10T08:27:46Z</time>
      </trkpt>
      <trkpt lat="43.23747" lon="6.06751">
        <ele>156.3125</ele>
        <time>2022-04-10T08:27:48Z</time>
      </trkpt>
      <trkpt lat="43.23764" lon="6.06739">
        <ele>155.37890625</ele>
        <time>2022-04-10T08:27:53Z</time>
      </trkpt>
      <trkpt lat="43.23804" lon="6.06695">
        <ele>155.5546875</ele>
        <time>2022-04-10T08:28:08Z</time>
      </trkpt>
      <trkpt lat="43.2382" lon="6.06688">
        <ele>155.50390625</ele>
        <time>2022-04-10T08:28:12Z</time>
      </trkpt>
      <trkpt lat="43.23825" lon="6.06687">
        <ele>155.40625</ele>
        <time>2022-04-10T08:28:13Z</time>
      </trkpt>
      <trkpt lat="43.23877" lon="6.06673">
        <ele>154.56640625</ele>
        <time>2022-04-10T08:28:27Z</time>
      </trkpt>
      <trkpt lat="43.2393" lon="6.06634">
        <ele>154.53125</ele>
        <time>2022-04-10T08:28:43Z</time>
      </trkpt>
      <trkpt lat="43.23985" lon="6.0658">
        <ele>152.9453125</ele>
        <time>2022-04-10T08:29:00Z</time>
      </trkpt>
      <trkpt lat="43.24011" lon="6.06534">
        <ele>151.33984375</ele>
        <time>2022-04-10T08:29:13Z</time>
      </trkpt>
      <trkpt lat="43.24013" lon="6.06499">
        <ele>152.3515625</ele>
        <time>2022-04-10T08:29:21Z</time>
      </trkpt>
      <trkpt lat="43.24013" lon="6.06496">
        <ele>152.43359375</ele>
        <time>2022-04-10T08:29:22Z</time>
      </trkpt>
      <trkpt lat="43.24012" lon="6.06493">
        <ele>152.5078125</ele>
        <time>2022-04-10T08:29:23Z</time>
      </trkpt>
      <trkpt lat="43.24011" lon="6.06489">
        <ele>152.66796875</ele>
        <time>2022-04-10T08:29:24Z</time>
      </trkpt>
      <trkpt lat="43.2401" lon="6.06485">
        <ele>152.8359375</ele>
        <time>2022-04-10T08:29:25Z</time>
      </trkpt>
      <trkpt lat="43.24008" lon="6.06481">
        <ele>153</ele>
        <time>2022-04-10T08:29:26Z</time>
      </trkpt>
      <trkpt lat="43.23991" lon="6.06425">
        <ele>156.53125</ele>
        <time>2022-04-10T08:29:39Z</time>
      </trkpt>
      <trkpt lat="43.23988" lon="6.06366">
        <ele>157</ele>
        <time>2022-04-10T08:29:52Z</time>
      </trkpt>
      <trkpt lat="43.23984" lon="6.06328">
        <ele>157.890625</ele>
        <time>2022-04-10T08:30:01Z</time>
      </trkpt>
      <trkpt lat="43.23984" lon="6.06323">
        <ele>158.0390625</ele>
        <time>2022-04-10T08:30:02Z</time>
      </trkpt>
      <trkpt lat="43.23977" lon="6.06277">
        <ele>160.4765625</ele>
        <time>2022-04-10T08:30:14Z</time>
      </trkpt>
      <trkpt lat="43.23978" lon="6.06223">
        <ele>164.93359375</ele>
        <time>2022-04-10T08:30:27Z</time>
      </trkpt>
      <trkpt lat="43.23981" lon="6.06172">
        <ele>169.70703125</ele>
        <time>2022-04-10T08:30:41Z</time>
      </trkpt>
      <trkpt lat="43.23961" lon="6.06116">
        <ele>172.578125</ele>
        <time>2022-04-10T08:30:53Z</time>
      </trkpt>
      <trkpt lat="43.23956" lon="6.06082">
        <ele>174.05859375</ele>
        <time>2022-04-10T08:30:58Z</time>
      </trkpt>
      <trkpt lat="43.23955" lon="6.0607">
        <ele>174.546875</ele>
        <time>2022-04-10T08:31:00Z</time>
      </trkpt>
      <trkpt lat="43.23954" lon="6.06063">
        <ele>174.45703125</ele>
        <time>2022-04-10T08:31:01Z</time>
      </trkpt>
      <trkpt lat="43.23952" lon="6.06057">
        <ele>174.34765625</ele>
        <time>2022-04-10T08:31:02Z</time>
      </trkpt>
      <trkpt lat="43.23951" lon="6.0605">
        <ele>174.3515625</ele>
        <time>2022-04-10T08:31:03Z</time>
      </trkpt>
      <trkpt lat="43.23951" lon="6.06045">
        <ele>174.53515625</ele>
        <time>2022-04-10T08:31:04Z</time>
      </trkpt>
      <trkpt lat="43.23952" lon="6.06041">
        <ele>174.9296875</ele>
        <time>2022-04-10T08:31:05Z</time>
      </trkpt>
      <trkpt lat="43.23954" lon="6.06038">
        <ele>175.46875</ele>
        <time>2022-04-10T08:31:06Z</time>
      </trkpt>
      <trkpt lat="43.23956" lon="6.06035">
        <ele>176.0625</ele>
        <time>2022-04-10T08:31:07Z</time>
      </trkpt>
      <trkpt lat="43.23958" lon="6.06032">
        <ele>176.65625</ele>
        <time>2022-04-10T08:31:08Z</time>
      </trkpt>
      <trkpt lat="43.23961" lon="6.06028">
        <ele>177.2421875</ele>
        <time>2022-04-10T08:31:09Z</time>
      </trkpt>
      <trkpt lat="43.23969" lon="6.0601">
        <ele>179.421875</ele>
        <time>2022-04-10T08:31:14Z</time>
      </trkpt>
      <trkpt lat="43.23983" lon="6.05987">
        <ele>182.8203125</ele>
        <time>2022-04-10T08:31:21Z</time>
      </trkpt>
      <trkpt lat="43.23987" lon="6.05981">
        <ele>183.75390625</ele>
        <time>2022-04-10T08:31:23Z</time>
      </trkpt>
      <trkpt lat="43.24006" lon="6.05925">
        <ele>186.87890625</ele>
        <time>2022-04-10T08:31:36Z</time>
      </trkpt>
      <trkpt lat="43.24016" lon="6.05882">
        <ele>187.94140625</ele>
        <time>2022-04-10T08:31:46Z</time>
      </trkpt>
      <trkpt lat="43.24015" lon="6.05826">
        <ele>187.16796875</ele>
        <time>2022-04-10T08:31:58Z</time>
      </trkpt>
      <trkpt lat="43.24014" lon="6.05821">
        <ele>186.90625</ele>
        <time>2022-04-10T08:31:59Z</time>
      </trkpt>
      <trkpt lat="43.24013" lon="6.05814">
        <ele>186.54296875</ele>
        <time>2022-04-10T08:32:00Z</time>
      </trkpt>
      <trkpt lat="43.24001" lon="6.05782">
        <ele>183.8359375</ele>
        <time>2022-04-10T08:32:07Z</time>
      </trkpt>
      <trkpt lat="43.24001" lon="6.05779">
        <ele>183.8203125</ele>
        <time>2022-04-10T08:32:08Z</time>
      </trkpt>
      <trkpt lat="43.24" lon="6.05775">
        <ele>183.81640625</ele>
        <time>2022-04-10T08:32:09Z</time>
      </trkpt>
      <trkpt lat="43.24" lon="6.05771">
        <ele>183.82421875</ele>
        <time>2022-04-10T08:32:10Z</time>
      </trkpt>
      <trkpt lat="43.23999" lon="6.05767">
        <ele>183.85546875</ele>
        <time>2022-04-10T08:32:11Z</time>
      </trkpt>
      <trkpt lat="43.23998" lon="6.05763">
        <ele>183.8984375</ele>
        <time>2022-04-10T08:32:12Z</time>
      </trkpt>
      <trkpt lat="43.24" lon="6.05735">
        <ele>184.2578125</ele>
        <time>2022-04-10T08:32:19Z</time>
      </trkpt>
      <trkpt lat="43.24007" lon="6.05703">
        <ele>184.5234375</ele>
        <time>2022-04-10T08:32:31Z</time>
      </trkpt>
      <trkpt lat="43.24008" lon="6.0568">
        <ele>185.05078125</ele>
        <time>2022-04-10T08:32:39Z</time>
      </trkpt>
      <trkpt lat="43.24012" lon="6.05648">
        <ele>186.5078125</ele>
        <time>2022-04-10T08:32:50Z</time>
      </trkpt>
      <trkpt lat="43.24021" lon="6.05617">
        <ele>187.9921875</ele>
        <time>2022-04-10T08:33:00Z</time>
      </trkpt>
      <trkpt lat="43.24021" lon="6.05615">
        <ele>188.0703125</ele>
        <time>2022-04-10T08:33:01Z</time>
      </trkpt>
      <trkpt lat="43.24022" lon="6.05612">
        <ele>188.1484375</ele>
        <time>2022-04-10T08:33:02Z</time>
      </trkpt>
      <trkpt lat="43.24031" lon="6.05572">
        <ele>189.2421875</ele>
        <time>2022-04-10T08:33:14Z</time>
      </trkpt>
      <trkpt lat="43.2404" lon="6.05533">
        <ele>190.39453125</ele>
        <time>2022-04-10T08:33:26Z</time>
      </trkpt>
      <trkpt lat="43.24043" lon="6.05488">
        <ele>192.7578125</ele>
        <time>2022-04-10T08:33:39Z</time>
      </trkpt>
      <trkpt lat="43.24044" lon="6.05462">
        <ele>194.5703125</ele>
        <time>2022-04-10T08:33:46Z</time>
      </trkpt>
      <trkpt lat="43.24047" lon="6.05435">
        <ele>196.4609375</ele>
        <time>2022-04-10T08:33:55Z</time>
      </trkpt>
      <trkpt lat="43.24053" lon="6.05398">
        <ele>198.265625</ele>
        <time>2022-04-10T08:34:07Z</time>
      </trkpt>
      <trkpt lat="43.24058" lon="6.05362">
        <ele>200.609375</ele>
        <time>2022-04-10T08:34:19Z</time>
      </trkpt>
      <trkpt lat="43.24065" lon="6.05319">
        <ele>202.84765625</ele>
        <time>2022-04-10T08:34:34Z</time>
      </trkpt>
      <trkpt lat="43.24073" lon="6.0527">
        <ele>205.25390625</ele>
        <time>2022-04-10T08:34:49Z</time>
      </trkpt>
      <trkpt lat="43.24078" lon="6.05225">
        <ele>208.38671875</ele>
        <time>2022-04-10T08:35:01Z</time>
      </trkpt>
      <trkpt lat="43.24084" lon="6.05181">
        <ele>212.4296875</ele>
        <time>2022-04-10T08:35:13Z</time>
      </trkpt>
      <trkpt lat="43.24096" lon="6.05128">
        <ele>215.64453125</ele>
        <time>2022-04-10T08:35:27Z</time>
      </trkpt>
      <trkpt lat="43.24107" lon="6.05062">
        <ele>220.2890625</ele>
        <time>2022-04-10T08:35:44Z</time>
      </trkpt>
      <trkpt lat="43.24111" lon="6.05035">
        <ele>222.22265625</ele>
        <time>2022-04-10T08:35:51Z</time>
      </trkpt>
      <trkpt lat="43.24131" lon="6.04966">
        <ele>221.60546875</ele>
        <time>2022-04-10T08:36:08Z</time>
      </trkpt>
      <trkpt lat="43.24141" lon="6.04919">
        <ele>222.21484375</ele>
        <time>2022-04-10T08:36:19Z</time>
      </trkpt>
      <trkpt lat="43.24144" lon="6.04886">
        <ele>227.08984375</ele>
        <time>2022-04-10T08:36:27Z</time>
      </trkpt>
      <trkpt lat="43.24144" lon="6.04882">
        <ele>227.7890625</ele>
        <time>2022-04-10T08:36:28Z</time>
      </trkpt>
      <trkpt lat="43.24153" lon="6.04843">
        <ele>232.69921875</ele>
        <time>2022-04-10T08:36:38Z</time>
      </trkpt>
      <trkpt lat="43.24164" lon="6.04813">
        <ele>234.74609375</ele>
        <time>2022-04-10T08:36:47Z</time>
      </trkpt>
      <trkpt lat="43.24162" lon="6.04811">
        <ele>235.765625</ele>
        <time>2022-04-10T08:36:48Z</time>
      </trkpt>
      <trkpt lat="43.2416" lon="6.0481">
        <ele>236.765625</ele>
        <time>2022-04-10T08:36:49Z</time>
      </trkpt>
      <trkpt lat="43.24157" lon="6.04811">
        <ele>237.46875</ele>
        <time>2022-04-10T08:36:50Z</time>
      </trkpt>
      <trkpt lat="43.24155" lon="6.04813">
        <ele>237.671875</ele>
        <time>2022-04-10T08:36:51Z</time>
      </trkpt>
      <trkpt lat="43.24153" lon="6.04816">
        <ele>237.7109375</ele>
        <time>2022-04-10T08:36:52Z</time>
      </trkpt>
      <trkpt lat="43.24151" lon="6.04819">
        <ele>237.80859375</ele>
        <time>2022-04-10T08:36:53Z</time>
      </trkpt>
      <trkpt lat="43.24148" lon="6.04822">
        <ele>238.1640625</ele>
        <time>2022-04-10T08:36:54Z</time>
      </trkpt>
      <trkpt lat="43.24139" lon="6.04836">
        <ele>238.62890625</ele>
        <time>2022-04-10T08:36:59Z</time>
      </trkpt>
      <trkpt lat="43.24114" lon="6.04875">
        <ele>241.58984375</ele>
        <time>2022-04-10T08:37:12Z</time>
      </trkpt>
      <trkpt lat="43.24102" lon="6.04896">
        <ele>243.21875</ele>
        <time>2022-04-10T08:37:19Z</time>
      </trkpt>
      <trkpt lat="43.241" lon="6.04897">
        <ele>244.3125</ele>
        <time>2022-04-10T08:37:20Z</time>
      </trkpt>
      <trkpt lat="43.24097" lon="6.04895">
        <ele>245.6328125</ele>
        <time>2022-04-10T08:37:21Z</time>
      </trkpt>
      <trkpt lat="43.24095" lon="6.04892">
        <ele>246.8046875</ele>
        <time>2022-04-10T08:37:22Z</time>
      </trkpt>
      <trkpt lat="43.24094" lon="6.04888">
        <ele>247.6328125</ele>
        <time>2022-04-10T08:37:23Z</time>
      </trkpt>
      <trkpt lat="43.24094" lon="6.04884">
        <ele>248.08203125</ele>
        <time>2022-04-10T08:37:24Z</time>
      </trkpt>
      <trkpt lat="43.24095" lon="6.0488">
        <ele>248.34375</ele>
        <time>2022-04-10T08:37:25Z</time>
      </trkpt>
      <trkpt lat="43.24099" lon="6.04844">
        <ele>251.30078125</ele>
        <time>2022-04-10T08:37:34Z</time>
      </trkpt>
      <trkpt lat="43.24115" lon="6.04778">
        <ele>255.9140625</ele>
        <time>2022-04-10T08:37:50Z</time>
      </trkpt>
      <trkpt lat="43.24123" lon="6.04738">
        <ele>261.7109375</ele>
        <time>2022-04-10T08:38:00Z</time>
      </trkpt>
      <trkpt lat="43.24115" lon="6.04688">
        <ele>269.84765625</ele>
        <time>2022-04-10T08:38:12Z</time>
      </trkpt>
      <trkpt lat="43.24116" lon="6.0468">
        <ele>270.48828125</ele>
        <time>2022-04-10T08:38:14Z</time>
      </trkpt>
      <trkpt lat="43.24123" lon="6.04626">
        <ele>274.546875</ele>
        <time>2022-04-10T08:38:27Z</time>
      </trkpt>
      <trkpt lat="43.24144" lon="6.04573">
        <ele>277.95703125</ele>
        <time>2022-04-10T08:38:41Z</time>
      </trkpt>
      <trkpt lat="43.24168" lon="6.04518">
        <ele>278.87890625</ele>
        <time>2022-04-10T08:38:56Z</time>
      </trkpt>
      <trkpt lat="43.24192" lon="6.04458">
        <ele>277.40625</ele>
        <time>2022-04-10T08:39:12Z</time>
      </trkpt>
      <trkpt lat="43.24218" lon="6.04379">
        <ele>271.4921875</ele>
        <time>2022-04-10T08:39:32Z</time>
      </trkpt>
      <trkpt lat="43.24232" lon="6.04304">
        <ele>270.82421875</ele>
        <time>2022-04-10T08:39:48Z</time>
      </trkpt>
      <trkpt lat="43.24235" lon="6.04273">
        <ele>273.203125</ele>
        <time>2022-04-10T08:39:59Z</time>
      </trkpt>
      <trkpt lat="43.24235" lon="6.04271">
        <ele>273.33984375</ele>
        <time>2022-04-10T08:40:16Z</time>
      </trkpt>
      <trkpt lat="43.24235" lon="6.04272">
        <ele>273.24609375</ele>
        <time>2022-04-10T08:40:36Z</time>
      </trkpt>
      <trkpt lat="43.24237" lon="6.04269">
        <ele>273.359375</ele>
        <time>2022-04-10T08:41:03Z</time>
      </trkpt>
      <trkpt lat="43.24237" lon="6.04267">
        <ele>273.4453125</ele>
        <time>2022-04-10T08:41:04Z</time>
      </trkpt>
      <trkpt lat="43.24246" lon="6.04233">
        <ele>275.28515625</ele>
        <time>2022-04-10T08:41:11Z</time>
      </trkpt>
      <trkpt lat="43.24248" lon="6.04226">
        <ele>275.65625</ele>
        <time>2022-04-10T08:41:12Z</time>
      </trkpt>
      <trkpt lat="43.24269" lon="6.04144">
        <ele>279.78125</ele>
        <time>2022-04-10T08:41:26Z</time>
      </trkpt>
      <trkpt lat="43.24282" lon="6.04097">
        <ele>281.5</ele>
        <time>2022-04-10T08:41:40Z</time>
      </trkpt>
      <trkpt lat="43.24295" lon="6.0406">
        <ele>284.3671875</ele>
        <time>2022-04-10T08:41:54Z</time>
      </trkpt>
      <trkpt lat="43.24299" lon="6.04053">
        <ele>284.8046875</ele>
        <time>2022-04-10T08:41:58Z</time>
      </trkpt>
      <trkpt lat="43.24301" lon="6.04052">
        <ele>284.8515625</ele>
        <time>2022-04-10T08:42:11Z</time>
      </trkpt>
      <trkpt lat="43.24313" lon="6.04025">
        <ele>285</ele>
        <time>2022-04-10T08:42:23Z</time>
      </trkpt>
      <trkpt lat="43.24316" lon="6.04021">
        <ele>285</ele>
        <time>2022-04-10T08:42:24Z</time>
      </trkpt>
      <trkpt lat="43.24342" lon="6.03987">
        <ele>284.73828125</ele>
        <time>2022-04-10T08:42:31Z</time>
      </trkpt>
      <trkpt lat="43.24356" lon="6.03971">
        <ele>286.24609375</ele>
        <time>2022-04-10T08:42:34Z</time>
      </trkpt>
      <trkpt lat="43.2436" lon="6.03966">
        <ele>286.609375</ele>
        <time>2022-04-10T08:42:35Z</time>
      </trkpt>
      <trkpt lat="43.2437" lon="6.03949">
        <ele>287.55078125</ele>
        <time>2022-04-10T08:42:38Z</time>
      </trkpt>
      <trkpt lat="43.24381" lon="6.03902">
        <ele>288.859375</ele>
        <time>2022-04-10T08:42:47Z</time>
      </trkpt>
      <trkpt lat="43.24386" lon="6.03832">
        <ele>290.53515625</ele>
        <time>2022-04-10T08:43:00Z</time>
      </trkpt>
      <trkpt lat="43.24415" lon="6.0379">
        <ele>295.5234375</ele>
        <time>2022-04-10T08:43:11Z</time>
      </trkpt>
      <trkpt lat="43.24429" lon="6.03754">
        <ele>299.046875</ele>
        <time>2022-04-10T08:43:20Z</time>
      </trkpt>
      <trkpt lat="43.24429" lon="6.0375">
        <ele>299.3125</ele>
        <time>2022-04-10T08:43:21Z</time>
      </trkpt>
      <trkpt lat="43.24438" lon="6.03716">
        <ele>302.38671875</ele>
        <time>2022-04-10T08:43:28Z</time>
      </trkpt>
      <trkpt lat="43.2444" lon="6.03707">
        <ele>303.22265625</ele>
        <time>2022-04-10T08:43:30Z</time>
      </trkpt>
      <trkpt lat="43.24444" lon="6.03677">
        <ele>305.2109375</ele>
        <time>2022-04-10T08:43:37Z</time>
      </trkpt>
      <trkpt lat="43.24448" lon="6.03638">
        <ele>308.48828125</ele>
        <time>2022-04-10T08:43:46Z</time>
      </trkpt>
      <trkpt lat="43.24465" lon="6.03608">
        <ele>313.14453125</ele>
        <time>2022-04-10T08:43:54Z</time>
      </trkpt>
      <trkpt lat="43.24482" lon="6.03575">
        <ele>318.84375</ele>
        <time>2022-04-10T08:44:03Z</time>
      </trkpt>
      <trkpt lat="43.24494" lon="6.03533">
        <ele>324.84375</ele>
        <time>2022-04-10T08:44:13Z</time>
      </trkpt>
      <trkpt lat="43.24495" lon="6.03493">
        <ele>327.1015625</ele>
        <time>2022-04-10T08:44:22Z</time>
      </trkpt>
      <trkpt lat="43.24495" lon="6.03455">
        <ele>329.55078125</ele>
        <time>2022-04-10T08:44:31Z</time>
      </trkpt>
      <trkpt lat="43.24496" lon="6.03418">
        <ele>333.359375</ele>
        <time>2022-04-10T08:44:40Z</time>
      </trkpt>
      <trkpt lat="43.24495" lon="6.03374">
        <ele>336.4296875</ele>
        <time>2022-04-10T08:44:51Z</time>
      </trkpt>
      <trkpt lat="43.24493" lon="6.03342">
        <ele>337.765625</ele>
        <time>2022-04-10T08:45:00Z</time>
      </trkpt>
      <trkpt lat="43.24495" lon="6.03334">
        <ele>338.9609375</ele>
        <time>2022-04-10T08:45:03Z</time>
      </trkpt>
      <trkpt lat="43.24497" lon="6.03334">
        <ele>339.62109375</ele>
        <time>2022-04-10T08:45:04Z</time>
      </trkpt>
      <trkpt lat="43.245" lon="6.03335">
        <ele>340.4453125</ele>
        <time>2022-04-10T08:45:05Z</time>
      </trkpt>
      <trkpt lat="43.24503" lon="6.03336">
        <ele>341.20703125</ele>
        <time>2022-04-10T08:45:06Z</time>
      </trkpt>
      <trkpt lat="43.24505" lon="6.03338">
        <ele>341.8828125</ele>
        <time>2022-04-10T08:45:07Z</time>
      </trkpt>
      <trkpt lat="43.24507" lon="6.0334">
        <ele>342.3828125</ele>
        <time>2022-04-10T08:45:08Z</time>
      </trkpt>
      <trkpt lat="43.24508" lon="6.03343">
        <ele>342.765625</ele>
        <time>2022-04-10T08:45:09Z</time>
      </trkpt>
      <trkpt lat="43.2451" lon="6.03347">
        <ele>343.0703125</ele>
        <time>2022-04-10T08:45:10Z</time>
      </trkpt>
      <trkpt lat="43.24532" lon="6.03412">
        <ele>346.0625</ele>
        <time>2022-04-10T08:45:25Z</time>
      </trkpt>
      <trkpt lat="43.24557" lon="6.03488">
        <ele>349.37109375</ele>
        <time>2022-04-10T08:45:41Z</time>
      </trkpt>
      <trkpt lat="43.24574" lon="6.03542">
        <ele>351.6796875</ele>
        <time>2022-04-10T08:45:53Z</time>
      </trkpt>
      <trkpt lat="43.24578" lon="6.03542">
        <ele>352.84765625</ele>
        <time>2022-04-10T08:45:54Z</time>
      </trkpt>
      <trkpt lat="43.2458" lon="6.0354">
        <ele>353.92578125</ele>
        <time>2022-04-10T08:45:55Z</time>
      </trkpt>
      <trkpt lat="43.24582" lon="6.03536">
        <ele>354.58984375</ele>
        <time>2022-04-10T08:45:56Z</time>
      </trkpt>
      <trkpt lat="43.24582" lon="6.03533">
        <ele>354.87890625</ele>
        <time>2022-04-10T08:45:57Z</time>
      </trkpt>
      <trkpt lat="43.24582" lon="6.03529">
        <ele>355.015625</ele>
        <time>2022-04-10T08:45:58Z</time>
      </trkpt>
      <trkpt lat="43.2458" lon="6.03486">
        <ele>357.05859375</ele>
        <time>2022-04-10T08:46:08Z</time>
      </trkpt>
      <trkpt lat="43.2458" lon="6.03433">
        <ele>359.984375</ele>
        <time>2022-04-10T08:46:20Z</time>
      </trkpt>
      <trkpt lat="43.24581" lon="6.03388">
        <ele>361.3984375</ele>
        <time>2022-04-10T08:46:30Z</time>
      </trkpt>
      <trkpt lat="43.24573" lon="6.03309">
        <ele>364.71875</ele>
        <time>2022-04-10T08:46:47Z</time>
      </trkpt>
      <trkpt lat="43.24566" lon="6.03253">
        <ele>366.94140625</ele>
        <time>2022-04-10T08:46:59Z</time>
      </trkpt>
      <trkpt lat="43.24556" lon="6.03195">
        <ele>370.3828125</ele>
        <time>2022-04-10T08:47:12Z</time>
      </trkpt>
      <trkpt lat="43.24548" lon="6.03149">
        <ele>372.0234375</ele>
        <time>2022-04-10T08:47:22Z</time>
      </trkpt>
      <trkpt lat="43.24545" lon="6.03114">
        <ele>373.80859375</ele>
        <time>2022-04-10T08:47:30Z</time>
      </trkpt>
      <trkpt lat="43.24549" lon="6.03075">
        <ele>375.91015625</ele>
        <time>2022-04-10T08:47:39Z</time>
      </trkpt>
      <trkpt lat="43.24558" lon="6.03027">
        <ele>378.66015625</ele>
        <time>2022-04-10T08:47:50Z</time>
      </trkpt>
      <trkpt lat="43.2456" lon="6.03019">
        <ele>379.1328125</ele>
        <time>2022-04-10T08:47:52Z</time>
      </trkpt>
      <trkpt lat="43.24573" lon="6.02966">
        <ele>382.3984375</ele>
        <time>2022-04-10T08:48:04Z</time>
      </trkpt>
      <trkpt lat="43.24583" lon="6.02904">
        <ele>385.98828125</ele>
        <time>2022-04-10T08:48:17Z</time>
      </trkpt>
      <trkpt lat="43.24596" lon="6.02858">
        <ele>391.1171875</ele>
        <time>2022-04-10T08:48:27Z</time>
      </trkpt>
      <trkpt lat="43.24609" lon="6.0281">
        <ele>396.5546875</ele>
        <time>2022-04-10T08:48:37Z</time>
      </trkpt>
      <trkpt lat="43.24623" lon="6.02768">
        <ele>402.40625</ele>
        <time>2022-04-10T08:48:46Z</time>
      </trkpt>
      <trkpt lat="43.24627" lon="6.02749">
        <ele>404.34765625</ele>
        <time>2022-04-10T08:48:50Z</time>
      </trkpt>
      <trkpt lat="43.24627" lon="6.02721">
        <ele>406.42578125</ele>
        <time>2022-04-10T08:48:56Z</time>
      </trkpt>
      <trkpt lat="43.2463" lon="6.02688">
        <ele>409.71875</ele>
        <time>2022-04-10T08:49:03Z</time>
      </trkpt>
      <trkpt lat="43.24632" lon="6.02674">
        <ele>411.07421875</ele>
        <time>2022-04-10T08:49:06Z</time>
      </trkpt>
      <trkpt lat="43.24639" lon="6.02638">
        <ele>415.0546875</ele>
        <time>2022-04-10T08:49:14Z</time>
      </trkpt>
      <trkpt lat="43.2464" lon="6.02629">
        <ele>415.9140625</ele>
        <time>2022-04-10T08:49:16Z</time>
      </trkpt>
      <trkpt lat="43.24643" lon="6.02596">
        <ele>418.67578125</ele>
        <time>2022-04-10T08:49:23Z</time>
      </trkpt>
      <trkpt lat="43.24644" lon="6.02577">
        <ele>420.16796875</ele>
        <time>2022-04-10T08:49:27Z</time>
      </trkpt>
      <trkpt lat="43.24645" lon="6.02545">
        <ele>422.58984375</ele>
        <time>2022-04-10T08:49:34Z</time>
      </trkpt>
      <trkpt lat="43.24646" lon="6.0251">
        <ele>425.19921875</ele>
        <time>2022-04-10T08:49:42Z</time>
      </trkpt>
      <trkpt lat="43.24646" lon="6.02506">
        <ele>425.52734375</ele>
        <time>2022-04-10T08:49:43Z</time>
      </trkpt>
      <trkpt lat="43.24651" lon="6.02472">
        <ele>427.70703125</ele>
        <time>2022-04-10T08:49:52Z</time>
      </trkpt>
      <trkpt lat="43.24664" lon="6.0244">
        <ele>429.33984375</ele>
        <time>2022-04-10T08:50:04Z</time>
      </trkpt>
      <trkpt lat="43.24679" lon="6.02409">
        <ele>430.84765625</ele>
        <time>2022-04-10T08:50:15Z</time>
      </trkpt>
      <trkpt lat="43.24699" lon="6.0236">
        <ele>430.39453125</ele>
        <time>2022-04-10T08:50:27Z</time>
      </trkpt>
      <trkpt lat="43.24702" lon="6.02351">
        <ele>430.10546875</ele>
        <time>2022-04-10T08:50:29Z</time>
      </trkpt>
      <trkpt lat="43.24704" lon="6.02345">
        <ele>429.984375</ele>
        <time>2022-04-10T08:50:30Z</time>
      </trkpt>
      <trkpt lat="43.24708" lon="6.02334">
        <ele>429.6796875</ele>
        <time>2022-04-10T08:50:32Z</time>
      </trkpt>
      <trkpt lat="43.24709" lon="6.02329">
        <ele>429.484375</ele>
        <time>2022-04-10T08:50:33Z</time>
      </trkpt>
      <trkpt lat="43.2471" lon="6.02325">
        <ele>429.2265625</ele>
        <time>2022-04-10T08:50:34Z</time>
      </trkpt>
      <trkpt lat="43.24712" lon="6.0232">
        <ele>428.97265625</ele>
        <time>2022-04-10T08:50:35Z</time>
      </trkpt>
      <trkpt lat="43.24714" lon="6.02316">
        <ele>428.74609375</ele>
        <time>2022-04-10T08:50:36Z</time>
      </trkpt>
      <trkpt lat="43.24731" lon="6.0225">
        <ele>425.2265625</ele>
        <time>2022-04-10T08:50:50Z</time>
      </trkpt>
      <trkpt lat="43.24752" lon="6.02212">
        <ele>423.8515625</ele>
        <time>2022-04-10T08:51:01Z</time>
      </trkpt>
      <trkpt lat="43.24759" lon="6.02195">
        <ele>422.6328125</ele>
        <time>2022-04-10T08:51:13Z</time>
      </trkpt>
      <trkpt lat="43.2476" lon="6.02196">
        <ele>422.53515625</ele>
        <time>2022-04-10T08:51:41Z</time>
      </trkpt>
      <trkpt lat="43.24758" lon="6.02194">
        <ele>422.67578125</ele>
        <time>2022-04-10T08:52:10Z</time>
      </trkpt>
      <trkpt lat="43.24756" lon="6.02191">
        <ele>422.87109375</ele>
        <time>2022-04-10T08:52:38Z</time>
      </trkpt>
      <trkpt lat="43.24753" lon="6.02191">
        <ele>423.06640625</ele>
        <time>2022-04-10T08:52:47Z</time>
      </trkpt>
      <trkpt lat="43.2475" lon="6.02189">
        <ele>423.03125</ele>
        <time>2022-04-10T08:53:33Z</time>
      </trkpt>
      <trkpt lat="43.24746" lon="6.02193">
        <ele>423.15234375</ele>
        <time>2022-04-10T08:54:14Z</time>
      </trkpt>
      <trkpt lat="43.24754" lon="6.02192">
        <ele>423.12109375</ele>
        <time>2022-04-10T08:54:56Z</time>
      </trkpt>
      <trkpt lat="43.24753" lon="6.02191">
        <ele>423.08203125</ele>
        <time>2022-04-10T08:55:38Z</time>
      </trkpt>
      <trkpt lat="43.24751" lon="6.02189">
        <ele>423.00390625</ele>
        <time>2022-04-10T08:56:33Z</time>
      </trkpt>
      <trkpt lat="43.24751" lon="6.0219">
        <ele>423.03125</ele>
        <time>2022-04-10T08:57:19Z</time>
      </trkpt>
      <trkpt lat="43.24754" lon="6.02191">
        <ele>423.0703125</ele>
        <time>2022-04-10T08:58:05Z</time>
      </trkpt>
      <trkpt lat="43.24751" lon="6.02189">
        <ele>423.02734375</ele>
        <time>2022-04-10T08:58:55Z</time>
      </trkpt>
      <trkpt lat="43.24754" lon="6.02191">
        <ele>423.0703125</ele>
        <time>2022-04-10T08:59:37Z</time>
      </trkpt>
      <trkpt lat="43.24753" lon="6.02191">
        <ele>423.09765625</ele>
        <time>2022-04-10T09:00:22Z</time>
      </trkpt>
      <trkpt lat="43.24753" lon="6.02187">
        <ele>423</ele>
        <time>2022-04-10T09:00:53Z</time>
      </trkpt>
      <trkpt lat="43.24754" lon="6.02195">
        <ele>423.2421875</ele>
        <time>2022-04-10T09:01:27Z</time>
      </trkpt>
      <trkpt lat="43.24753" lon="6.02198">
        <ele>423.33984375</ele>
        <time>2022-04-10T09:02:00Z</time>
      </trkpt>
      <trkpt lat="43.24752" lon="6.02197">
        <ele>423.28515625</ele>
        <time>2022-04-10T09:02:21Z</time>
      </trkpt>
      <trkpt lat="43.24752" lon="6.02197">
        <ele>423.30859375</ele>
        <time>2022-04-10T09:02:41Z</time>
      </trkpt>
      <trkpt lat="43.24749" lon="6.02209">
        <ele>423.73046875</ele>
        <time>2022-04-10T09:02:46Z</time>
      </trkpt>
      <trkpt lat="43.24748" lon="6.02212">
        <ele>423.84375</ele>
        <time>2022-04-10T09:02:47Z</time>
      </trkpt>
      <trkpt lat="43.24747" lon="6.02215">
        <ele>423.953125</ele>
        <time>2022-04-10T09:02:48Z</time>
      </trkpt>
      <trkpt lat="43.24733" lon="6.02239">
        <ele>424.609375</ele>
        <time>2022-04-10T09:02:59Z</time>
      </trkpt>
      <trkpt lat="43.24716" lon="6.02304">
        <ele>427.921875</ele>
        <time>2022-04-10T09:03:16Z</time>
      </trkpt>
      <trkpt lat="43.24697" lon="6.02365">
        <ele>430.59765625</ele>
        <time>2022-04-10T09:03:31Z</time>
      </trkpt>
      <trkpt lat="43.24667" lon="6.02431">
        <ele>429.5703125</ele>
        <time>2022-04-10T09:03:44Z</time>
      </trkpt>
      <trkpt lat="43.24664" lon="6.02438">
        <ele>429.28125</ele>
        <time>2022-04-10T09:03:45Z</time>
      </trkpt>
      <trkpt lat="43.24661" lon="6.02445">
        <ele>428.96484375</ele>
        <time>2022-04-10T09:03:46Z</time>
      </trkpt>
      <trkpt lat="43.24658" lon="6.0245">
        <ele>428.6171875</ele>
        <time>2022-04-10T09:03:47Z</time>
      </trkpt>
      <trkpt lat="43.24654" lon="6.02454">
        <ele>428.203125</ele>
        <time>2022-04-10T09:03:48Z</time>
      </trkpt>
      <trkpt lat="43.24649" lon="6.02457">
        <ele>427.6953125</ele>
        <time>2022-04-10T09:03:49Z</time>
      </trkpt>
      <trkpt lat="43.24644" lon="6.02457">
        <ele>427.125</ele>
        <time>2022-04-10T09:03:50Z</time>
      </trkpt>
      <trkpt lat="43.24639" lon="6.02456">
        <ele>426.6640625</ele>
        <time>2022-04-10T09:03:51Z</time>
      </trkpt>
      <trkpt lat="43.24634" lon="6.02454">
        <ele>426.2578125</ele>
        <time>2022-04-10T09:03:52Z</time>
      </trkpt>
      <trkpt lat="43.24631" lon="6.02451">
        <ele>425.890625</ele>
        <time>2022-04-10T09:03:53Z</time>
      </trkpt>
      <trkpt lat="43.24616" lon="6.02441">
        <ele>424.21484375</ele>
        <time>2022-04-10T09:03:58Z</time>
      </trkpt>
      <trkpt lat="43.24602" lon="6.02435">
        <ele>425.15625</ele>
        <time>2022-04-10T09:04:05Z</time>
      </trkpt>
      <trkpt lat="43.246" lon="6.02435">
        <ele>425.37109375</ele>
        <time>2022-04-10T09:04:06Z</time>
      </trkpt>
      <trkpt lat="43.24577" lon="6.02434">
        <ele>427.390625</ele>
        <time>2022-04-10T09:04:14Z</time>
      </trkpt>
      <trkpt lat="43.24574" lon="6.02433">
        <ele>427.42578125</ele>
        <time>2022-04-10T09:04:15Z</time>
      </trkpt>
      <trkpt lat="43.24553" lon="6.02428">
        <ele>428.40234375</ele>
        <time>2022-04-10T09:04:23Z</time>
      </trkpt>
      <trkpt lat="43.2455" lon="6.02429">
        <ele>428.9453125</ele>
        <time>2022-04-10T09:04:25Z</time>
      </trkpt>
      <trkpt lat="43.24547" lon="6.02428">
        <ele>428.9921875</ele>
        <time>2022-04-10T09:04:26Z</time>
      </trkpt>
      <trkpt lat="43.24544" lon="6.02428">
        <ele>429.078125</ele>
        <time>2022-04-10T09:04:27Z</time>
      </trkpt>
      <trkpt lat="43.24542" lon="6.02428">
        <ele>429.3359375</ele>
        <time>2022-04-10T09:04:28Z</time>
      </trkpt>
      <trkpt lat="43.24539" lon="6.02429">
        <ele>429.81640625</ele>
        <time>2022-04-10T09:04:29Z</time>
      </trkpt>
      <trkpt lat="43.24536" lon="6.02429">
        <ele>430.2421875</ele>
        <time>2022-04-10T09:04:30Z</time>
      </trkpt>
      <trkpt lat="43.24534" lon="6.0243">
        <ele>430.6171875</ele>
        <time>2022-04-10T09:04:31Z</time>
      </trkpt>
      <trkpt lat="43.24531" lon="6.0243">
        <ele>430.83984375</ele>
        <time>2022-04-10T09:04:32Z</time>
      </trkpt>
      <trkpt lat="43.24529" lon="6.02431">
        <ele>430.9453125</ele>
        <time>2022-04-10T09:04:33Z</time>
      </trkpt>
      <trkpt lat="43.2453" lon="6.02438">
        <ele>432.8046875</ele>
        <time>2022-04-10T09:04:42Z</time>
      </trkpt>
      <trkpt lat="43.24528" lon="6.0245">
        <ele>435</ele>
        <time>2022-04-10T09:04:57Z</time>
      </trkpt>
      <trkpt lat="43.24528" lon="6.02451">
        <ele>435.08984375</ele>
        <time>2022-04-10T09:04:59Z</time>
      </trkpt>
      <trkpt lat="43.24512" lon="6.02449">
        <ele>434.26953125</ele>
        <time>2022-04-10T09:05:06Z</time>
      </trkpt>
      <trkpt lat="43.2451" lon="6.0245">
        <ele>434.19921875</ele>
        <time>2022-04-10T09:05:07Z</time>
      </trkpt>
      <trkpt lat="43.24507" lon="6.02449">
        <ele>434</ele>
        <time>2022-04-10T09:05:10Z</time>
      </trkpt>
      <trkpt lat="43.24495" lon="6.02445">
        <ele>432.2421875</ele>
        <time>2022-04-10T09:05:29Z</time>
      </trkpt>
      <trkpt lat="43.24484" lon="6.02445">
        <ele>431.26953125</ele>
        <time>2022-04-10T09:05:52Z</time>
      </trkpt>
      <trkpt lat="43.24482" lon="6.02447">
        <ele>431.4453125</ele>
        <time>2022-04-10T09:05:53Z</time>
      </trkpt>
      <trkpt lat="43.24479" lon="6.0245">
        <ele>431.6171875</ele>
        <time>2022-04-10T09:05:54Z</time>
      </trkpt>
      <trkpt lat="43.24476" lon="6.0245">
        <ele>431.4453125</ele>
        <time>2022-04-10T09:05:55Z</time>
      </trkpt>
      <trkpt lat="43.24473" lon="6.0245">
        <ele>430.6953125</ele>
        <time>2022-04-10T09:05:56Z</time>
      </trkpt>
      <trkpt lat="43.24471" lon="6.0245">
        <ele>430.0234375</ele>
        <time>2022-04-10T09:05:57Z</time>
      </trkpt>
      <trkpt lat="43.24468" lon="6.02451">
        <ele>429.51953125</ele>
        <time>2022-04-10T09:05:58Z</time>
      </trkpt>
      <trkpt lat="43.2445" lon="6.02451">
        <ele>424.8828125</ele>
        <time>2022-04-10T09:06:03Z</time>
      </trkpt>
      <trkpt lat="43.2444" lon="6.02458">
        <ele>423.3125</ele>
        <time>2022-04-10T09:06:06Z</time>
      </trkpt>
      <trkpt lat="43.24437" lon="6.02461">
        <ele>423.23046875</ele>
        <time>2022-04-10T09:06:07Z</time>
      </trkpt>
      <trkpt lat="43.24435" lon="6.02464">
        <ele>423.16015625</ele>
        <time>2022-04-10T09:06:08Z</time>
      </trkpt>
      <trkpt lat="43.24433" lon="6.02467">
        <ele>423.15625</ele>
        <time>2022-04-10T09:06:09Z</time>
      </trkpt>
      <trkpt lat="43.24431" lon="6.02469">
        <ele>423.02734375</ele>
        <time>2022-04-10T09:06:10Z</time>
      </trkpt>
      <trkpt lat="43.24429" lon="6.02469">
        <ele>422.53125</ele>
        <time>2022-04-10T09:06:11Z</time>
      </trkpt>
      <trkpt lat="43.24418" lon="6.02464">
        <ele>419.27734375</ele>
        <time>2022-04-10T09:06:15Z</time>
      </trkpt>
      <trkpt lat="43.24416" lon="6.02461">
        <ele>418.48046875</ele>
        <time>2022-04-10T09:06:16Z</time>
      </trkpt>
      <trkpt lat="43.24413" lon="6.02459">
        <ele>417.67578125</ele>
        <time>2022-04-10T09:06:17Z</time>
      </trkpt>
      <trkpt lat="43.2441" lon="6.02456">
        <ele>416.80859375</ele>
        <time>2022-04-10T09:06:18Z</time>
      </trkpt>
      <trkpt lat="43.24407" lon="6.02454">
        <ele>415.87109375</ele>
        <time>2022-04-10T09:06:19Z</time>
      </trkpt>
      <trkpt lat="43.24405" lon="6.02451">
        <ele>414.9140625</ele>
        <time>2022-04-10T09:06:20Z</time>
      </trkpt>
      <trkpt lat="43.24402" lon="6.0245">
        <ele>414.3125</ele>
        <time>2022-04-10T09:06:21Z</time>
      </trkpt>
      <trkpt lat="43.24401" lon="6.0245">
        <ele>414.12890625</ele>
        <time>2022-04-10T09:06:22Z</time>
      </trkpt>
      <trkpt lat="43.24391" lon="6.02463">
        <ele>416.06640625</ele>
        <time>2022-04-10T09:06:35Z</time>
      </trkpt>
      <trkpt lat="43.24382" lon="6.02462">
        <ele>415.171875</ele>
        <time>2022-04-10T09:06:49Z</time>
      </trkpt>
      <trkpt lat="43.24381" lon="6.02462">
        <ele>415.2109375</ele>
        <time>2022-04-10T09:06:50Z</time>
      </trkpt>
      <trkpt lat="43.24377" lon="6.02464">
        <ele>415.37890625</ele>
        <time>2022-04-10T09:06:55Z</time>
      </trkpt>
      <trkpt lat="43.24375" lon="6.02463">
        <ele>414.98046875</ele>
        <time>2022-04-10T09:06:56Z</time>
      </trkpt>
      <trkpt lat="43.24374" lon="6.02461">
        <ele>414.55078125</ele>
        <time>2022-04-10T09:06:57Z</time>
      </trkpt>
      <trkpt lat="43.24372" lon="6.02459">
        <ele>414.1796875</ele>
        <time>2022-04-10T09:06:58Z</time>
      </trkpt>
      <trkpt lat="43.24369" lon="6.02454">
        <ele>412.953125</ele>
        <time>2022-04-10T09:07:14Z</time>
      </trkpt>
      <trkpt lat="43.24363" lon="6.02446">
        <ele>411.41015625</ele>
        <time>2022-04-10T09:07:37Z</time>
      </trkpt>
      <trkpt lat="43.2436" lon="6.02445">
        <ele>411.4140625</ele>
        <time>2022-04-10T09:07:38Z</time>
      </trkpt>
      <trkpt lat="43.24358" lon="6.02446">
        <ele>411.53515625</ele>
        <time>2022-04-10T09:07:39Z</time>
      </trkpt>
      <trkpt lat="43.24355" lon="6.02445">
        <ele>411.60546875</ele>
        <time>2022-04-10T09:07:40Z</time>
      </trkpt>
      <trkpt lat="43.24352" lon="6.02444">
        <ele>411.59375</ele>
        <time>2022-04-10T09:07:41Z</time>
      </trkpt>
      <trkpt lat="43.2435" lon="6.02444">
        <ele>411.71484375</ele>
        <time>2022-04-10T09:07:42Z</time>
      </trkpt>
      <trkpt lat="43.24347" lon="6.02445">
        <ele>411.85546875</ele>
        <time>2022-04-10T09:07:43Z</time>
      </trkpt>
      <trkpt lat="43.24345" lon="6.02444">
        <ele>411.89453125</ele>
        <time>2022-04-10T09:07:44Z</time>
      </trkpt>
      <trkpt lat="43.24342" lon="6.02442">
        <ele>411.890625</ele>
        <time>2022-04-10T09:07:45Z</time>
      </trkpt>
      <trkpt lat="43.24339" lon="6.02439">
        <ele>411.91015625</ele>
        <time>2022-04-10T09:07:46Z</time>
      </trkpt>
      <trkpt lat="43.24337" lon="6.02436">
        <ele>411.59375</ele>
        <time>2022-04-10T09:07:47Z</time>
      </trkpt>
      <trkpt lat="43.24329" lon="6.02429">
        <ele>408.6796875</ele>
        <time>2022-04-10T09:07:50Z</time>
      </trkpt>
      <trkpt lat="43.24328" lon="6.02426">
        <ele>408.171875</ele>
        <time>2022-04-10T09:07:51Z</time>
      </trkpt>
      <trkpt lat="43.24326" lon="6.02422">
        <ele>407.47265625</ele>
        <time>2022-04-10T09:07:52Z</time>
      </trkpt>
      <trkpt lat="43.24324" lon="6.02417">
        <ele>406.78125</ele>
        <time>2022-04-10T09:07:53Z</time>
      </trkpt>
      <trkpt lat="43.24323" lon="6.02413">
        <ele>406.296875</ele>
        <time>2022-04-10T09:07:54Z</time>
      </trkpt>
      <trkpt lat="43.24321" lon="6.02409">
        <ele>405.75</ele>
        <time>2022-04-10T09:07:55Z</time>
      </trkpt>
      <trkpt lat="43.24316" lon="6.02402">
        <ele>404.421875</ele>
        <time>2022-04-10T09:07:57Z</time>
      </trkpt>
      <trkpt lat="43.24304" lon="6.02371">
        <ele>401.44921875</ele>
        <time>2022-04-10T09:08:05Z</time>
      </trkpt>
      <trkpt lat="43.24298" lon="6.02363">
        <ele>400.12890625</ele>
        <time>2022-04-10T09:08:12Z</time>
      </trkpt>
      <trkpt lat="43.24291" lon="6.02357">
        <ele>398.9140625</ele>
        <time>2022-04-10T09:08:24Z</time>
      </trkpt>
      <trkpt lat="43.2429" lon="6.02356">
        <ele>398.7109375</ele>
        <time>2022-04-10T09:08:25Z</time>
      </trkpt>
      <trkpt lat="43.24288" lon="6.02356">
        <ele>398.296875</ele>
        <time>2022-04-10T09:08:26Z</time>
      </trkpt>
      <trkpt lat="43.24286" lon="6.02355">
        <ele>397.828125</ele>
        <time>2022-04-10T09:08:27Z</time>
      </trkpt>
      <trkpt lat="43.24284" lon="6.02353">
        <ele>397.53515625</ele>
        <time>2022-04-10T09:08:28Z</time>
      </trkpt>
      <trkpt lat="43.24283" lon="6.02351">
        <ele>397.3046875</ele>
        <time>2022-04-10T09:08:29Z</time>
      </trkpt>
      <trkpt lat="43.24279" lon="6.02339">
        <ele>395.75</ele>
        <time>2022-04-10T09:08:32Z</time>
      </trkpt>
      <trkpt lat="43.24274" lon="6.02333">
        <ele>394.12890625</ele>
        <time>2022-04-10T09:08:35Z</time>
      </trkpt>
      <trkpt lat="43.24272" lon="6.02329">
        <ele>393.30859375</ele>
        <time>2022-04-10T09:08:44Z</time>
      </trkpt>
      <trkpt lat="43.24266" lon="6.02329">
        <ele>391.19140625</ele>
        <time>2022-04-10T09:08:52Z</time>
      </trkpt>
      <trkpt lat="43.24265" lon="6.02329">
        <ele>390.6484375</ele>
        <time>2022-04-10T09:08:53Z</time>
      </trkpt>
      <trkpt lat="43.24263" lon="6.02328">
        <ele>390.1640625</ele>
        <time>2022-04-10T09:08:54Z</time>
      </trkpt>
      <trkpt lat="43.24261" lon="6.02326">
        <ele>389.62890625</ele>
        <time>2022-04-10T09:08:55Z</time>
      </trkpt>
      <trkpt lat="43.2426" lon="6.02324">
        <ele>389.1015625</ele>
        <time>2022-04-10T09:08:56Z</time>
      </trkpt>
      <trkpt lat="43.24256" lon="6.02322">
        <ele>387.91015625</ele>
        <time>2022-04-10T09:09:06Z</time>
      </trkpt>
      <trkpt lat="43.24247" lon="6.02314">
        <ele>384.57421875</ele>
        <time>2022-04-10T09:09:16Z</time>
      </trkpt>
      <trkpt lat="43.24246" lon="6.02314">
        <ele>384.28125</ele>
        <time>2022-04-10T09:09:17Z</time>
      </trkpt>
      <trkpt lat="43.24239" lon="6.02311">
        <ele>382.0703125</ele>
        <time>2022-04-10T09:09:31Z</time>
      </trkpt>
      <trkpt lat="43.24229" lon="6.02303">
        <ele>379.42578125</ele>
        <time>2022-04-10T09:09:37Z</time>
      </trkpt>
      <trkpt lat="43.24222" lon="6.02302">
        <ele>376.9375</ele>
        <time>2022-04-10T09:09:41Z</time>
      </trkpt>
      <trkpt lat="43.24222" lon="6.02302">
        <ele>376.83984375</ele>
        <time>2022-04-10T09:09:42Z</time>
      </trkpt>
      <trkpt lat="43.24216" lon="6.02302">
        <ele>374.19921875</ele>
        <time>2022-04-10T09:09:54Z</time>
      </trkpt>
      <trkpt lat="43.24209" lon="6.02308">
        <ele>370.26171875</ele>
        <time>2022-04-10T09:10:06Z</time>
      </trkpt>
      <trkpt lat="43.24204" lon="6.02314">
        <ele>366.94921875</ele>
        <time>2022-04-10T09:10:19Z</time>
      </trkpt>
      <trkpt lat="43.24194" lon="6.02304">
        <ele>364.265625</ele>
        <time>2022-04-10T09:10:29Z</time>
      </trkpt>
      <trkpt lat="43.24189" lon="6.02301">
        <ele>362.96875</ele>
        <time>2022-04-10T09:10:40Z</time>
      </trkpt>
      <trkpt lat="43.24186" lon="6.02297">
        <ele>362.26953125</ele>
        <time>2022-04-10T09:10:50Z</time>
      </trkpt>
      <trkpt lat="43.24184" lon="6.02295">
        <ele>361.91015625</ele>
        <time>2022-04-10T09:10:51Z</time>
      </trkpt>
      <trkpt lat="43.24182" lon="6.02292">
        <ele>361.66015625</ele>
        <time>2022-04-10T09:10:52Z</time>
      </trkpt>
      <trkpt lat="43.24181" lon="6.0229">
        <ele>361.5234375</ele>
        <time>2022-04-10T09:10:53Z</time>
      </trkpt>
      <trkpt lat="43.24179" lon="6.02288">
        <ele>361.1484375</ele>
        <time>2022-04-10T09:10:54Z</time>
      </trkpt>
      <trkpt lat="43.24178" lon="6.02286">
        <ele>360.703125</ele>
        <time>2022-04-10T09:10:55Z</time>
      </trkpt>
      <trkpt lat="43.24172" lon="6.0228">
        <ele>359.390625</ele>
        <time>2022-04-10T09:10:59Z</time>
      </trkpt>
      <trkpt lat="43.2417" lon="6.02276">
        <ele>359.11328125</ele>
        <time>2022-04-10T09:11:00Z</time>
      </trkpt>
      <trkpt lat="43.24163" lon="6.02263">
        <ele>357.8046875</ele>
        <time>2022-04-10T09:11:04Z</time>
      </trkpt>
      <trkpt lat="43.24158" lon="6.02247">
        <ele>357.8125</ele>
        <time>2022-04-10T09:11:07Z</time>
      </trkpt>
      <trkpt lat="43.24157" lon="6.02242">
        <ele>357.3203125</ele>
        <time>2022-04-10T09:11:08Z</time>
      </trkpt>
      <trkpt lat="43.24155" lon="6.02236">
        <ele>355.37890625</ele>
        <time>2022-04-10T09:11:10Z</time>
      </trkpt>
      <trkpt lat="43.24153" lon="6.02233">
        <ele>354.24609375</ele>
        <time>2022-04-10T09:11:11Z</time>
      </trkpt>
      <trkpt lat="43.24151" lon="6.02231">
        <ele>352.734375</ele>
        <time>2022-04-10T09:11:12Z</time>
      </trkpt>
      <trkpt lat="43.24148" lon="6.02228">
        <ele>351.16796875</ele>
        <time>2022-04-10T09:11:13Z</time>
      </trkpt>
      <trkpt lat="43.24146" lon="6.02225">
        <ele>349.7265625</ele>
        <time>2022-04-10T09:11:14Z</time>
      </trkpt>
      <trkpt lat="43.24144" lon="6.02221">
        <ele>348.17578125</ele>
        <time>2022-04-10T09:11:15Z</time>
      </trkpt>
      <trkpt lat="43.2414" lon="6.02215">
        <ele>345.9140625</ele>
        <time>2022-04-10T09:11:17Z</time>
      </trkpt>
      <trkpt lat="43.24139" lon="6.02214">
        <ele>345.17578125</ele>
        <time>2022-04-10T09:11:18Z</time>
      </trkpt>
      <trkpt lat="43.24136" lon="6.02215">
        <ele>344.5</ele>
        <time>2022-04-10T09:11:19Z</time>
      </trkpt>
      <trkpt lat="43.24132" lon="6.02215">
        <ele>343.10546875</ele>
        <time>2022-04-10T09:11:21Z</time>
      </trkpt>
      <trkpt lat="43.24125" lon="6.02215">
        <ele>340.94921875</ele>
        <time>2022-04-10T09:11:24Z</time>
      </trkpt>
      <trkpt lat="43.24115" lon="6.02215">
        <ele>337.62890625</ele>
        <time>2022-04-10T09:11:27Z</time>
      </trkpt>
      <trkpt lat="43.24099" lon="6.02213">
        <ele>333.1953125</ele>
        <time>2022-04-10T09:11:32Z</time>
      </trkpt>
      <trkpt lat="43.24097" lon="6.02213">
        <ele>332.6328125</ele>
        <time>2022-04-10T09:11:33Z</time>
      </trkpt>
      <trkpt lat="43.24095" lon="6.02211">
        <ele>331.98046875</ele>
        <time>2022-04-10T09:11:34Z</time>
      </trkpt>
      <trkpt lat="43.24092" lon="6.02209">
        <ele>331.00390625</ele>
        <time>2022-04-10T09:11:35Z</time>
      </trkpt>
      <trkpt lat="43.24089" lon="6.02207">
        <ele>330.0078125</ele>
        <time>2022-04-10T09:11:36Z</time>
      </trkpt>
      <trkpt lat="43.24085" lon="6.02204">
        <ele>329.06640625</ele>
        <time>2022-04-10T09:11:37Z</time>
      </trkpt>
      <trkpt lat="43.24081" lon="6.02203">
        <ele>328.22265625</ele>
        <time>2022-04-10T09:11:38Z</time>
      </trkpt>
      <trkpt lat="43.24078" lon="6.02202">
        <ele>327.5078125</ele>
        <time>2022-04-10T09:11:39Z</time>
      </trkpt>
      <trkpt lat="43.24074" lon="6.02201">
        <ele>326.92578125</ele>
        <time>2022-04-10T09:11:40Z</time>
      </trkpt>
      <trkpt lat="43.24072" lon="6.02198">
        <ele>326.4609375</ele>
        <time>2022-04-10T09:11:41Z</time>
      </trkpt>
      <trkpt lat="43.2407" lon="6.02196">
        <ele>326.1875</ele>
        <time>2022-04-10T09:11:42Z</time>
      </trkpt>
      <trkpt lat="43.24053" lon="6.0218">
        <ele>323.3515625</ele>
        <time>2022-04-10T09:11:47Z</time>
      </trkpt>
      <trkpt lat="43.24049" lon="6.0218">
        <ele>322.828125</ele>
        <time>2022-04-10T09:11:48Z</time>
      </trkpt>
      <trkpt lat="43.24045" lon="6.02179">
        <ele>322.3515625</ele>
        <time>2022-04-10T09:11:49Z</time>
      </trkpt>
      <trkpt lat="43.2404" lon="6.02179">
        <ele>321.87109375</ele>
        <time>2022-04-10T09:11:50Z</time>
      </trkpt>
      <trkpt lat="43.24036" lon="6.02178">
        <ele>321.359375</ele>
        <time>2022-04-10T09:11:51Z</time>
      </trkpt>
      <trkpt lat="43.24026" lon="6.02176">
        <ele>320.19140625</ele>
        <time>2022-04-10T09:11:53Z</time>
      </trkpt>
      <trkpt lat="43.24023" lon="6.02176">
        <ele>319.8046875</ele>
        <time>2022-04-10T09:11:54Z</time>
      </trkpt>
      <trkpt lat="43.24006" lon="6.02177">
        <ele>317.546875</ele>
        <time>2022-04-10T09:12:02Z</time>
      </trkpt>
      <trkpt lat="43.23987" lon="6.02166">
        <ele>318.0859375</ele>
        <time>2022-04-10T09:12:12Z</time>
      </trkpt>
      <trkpt lat="43.23973" lon="6.02136">
        <ele>321.203125</ele>
        <time>2022-04-10T09:12:21Z</time>
      </trkpt>
      <trkpt lat="43.23969" lon="6.0213">
        <ele>321.703125</ele>
        <time>2022-04-10T09:12:23Z</time>
      </trkpt>
      <trkpt lat="43.23945" lon="6.02099">
        <ele>325.06640625</ele>
        <time>2022-04-10T09:12:34Z</time>
      </trkpt>
      <trkpt lat="43.23914" lon="6.02069">
        <ele>327.1953125</ele>
        <time>2022-04-10T09:12:44Z</time>
      </trkpt>
      <trkpt lat="43.23881" lon="6.02053">
        <ele>329.36328125</ele>
        <time>2022-04-10T09:12:53Z</time>
      </trkpt>
      <trkpt lat="43.23873" lon="6.02048">
        <ele>329.4921875</ele>
        <time>2022-04-10T09:12:55Z</time>
      </trkpt>
      <trkpt lat="43.23863" lon="6.02043">
        <ele>329.0703125</ele>
        <time>2022-04-10T09:12:57Z</time>
      </trkpt>
      <trkpt lat="43.23858" lon="6.02041">
        <ele>328.19140625</ele>
        <time>2022-04-10T09:12:58Z</time>
      </trkpt>
      <trkpt lat="43.23842" lon="6.02034">
        <ele>325.484375</ele>
        <time>2022-04-10T09:13:01Z</time>
      </trkpt>
      <trkpt lat="43.23837" lon="6.02031">
        <ele>324.55859375</ele>
        <time>2022-04-10T09:13:02Z</time>
      </trkpt>
      <trkpt lat="43.23833" lon="6.02029">
        <ele>323.75</ele>
        <time>2022-04-10T09:13:03Z</time>
      </trkpt>
      <trkpt lat="43.23821" lon="6.02021">
        <ele>321.2421875</ele>
        <time>2022-04-10T09:13:06Z</time>
      </trkpt>
      <trkpt lat="43.23809" lon="6.0201">
        <ele>318.40234375</ele>
        <time>2022-04-10T09:13:10Z</time>
      </trkpt>
      <trkpt lat="43.23807" lon="6.02007">
        <ele>317.3984375</ele>
        <time>2022-04-10T09:13:11Z</time>
      </trkpt>
      <trkpt lat="43.23803" lon="6.02002">
        <ele>316.23046875</ele>
        <time>2022-04-10T09:13:12Z</time>
      </trkpt>
      <trkpt lat="43.23794" lon="6.01993">
        <ele>314.24609375</ele>
        <time>2022-04-10T09:13:14Z</time>
      </trkpt>
      <trkpt lat="43.23782" lon="6.01985">
        <ele>312.6484375</ele>
        <time>2022-04-10T09:13:17Z</time>
      </trkpt>
      <trkpt lat="43.23778" lon="6.01984">
        <ele>312.32421875</ele>
        <time>2022-04-10T09:13:18Z</time>
      </trkpt>
      <trkpt lat="43.23775" lon="6.01983">
        <ele>311.8828125</ele>
        <time>2022-04-10T09:13:19Z</time>
      </trkpt>
      <trkpt lat="43.23768" lon="6.01977">
        <ele>310.74609375</ele>
        <time>2022-04-10T09:13:21Z</time>
      </trkpt>
      <trkpt lat="43.23763" lon="6.01976">
        <ele>310.421875</ele>
        <time>2022-04-10T09:13:22Z</time>
      </trkpt>
      <trkpt lat="43.23759" lon="6.01976">
        <ele>310.23828125</ele>
        <time>2022-04-10T09:13:23Z</time>
      </trkpt>
      <trkpt lat="43.23755" lon="6.01977">
        <ele>310.140625</ele>
        <time>2022-04-10T09:13:24Z</time>
      </trkpt>
      <trkpt lat="43.23751" lon="6.01978">
        <ele>309.78125</ele>
        <time>2022-04-10T09:13:25Z</time>
      </trkpt>
      <trkpt lat="43.23746" lon="6.0198">
        <ele>309.3671875</ele>
        <time>2022-04-10T09:13:26Z</time>
      </trkpt>
      <trkpt lat="43.23742" lon="6.01983">
        <ele>309.0234375</ele>
        <time>2022-04-10T09:13:27Z</time>
      </trkpt>
      <trkpt lat="43.23738" lon="6.01985">
        <ele>308.6328125</ele>
        <time>2022-04-10T09:13:28Z</time>
      </trkpt>
      <trkpt lat="43.23735" lon="6.01985">
        <ele>308.25</ele>
        <time>2022-04-10T09:13:29Z</time>
      </trkpt>
      <trkpt lat="43.23733" lon="6.01984">
        <ele>307.88671875</ele>
        <time>2022-04-10T09:13:30Z</time>
      </trkpt>
      <trkpt lat="43.2373" lon="6.01982">
        <ele>307.46875</ele>
        <time>2022-04-10T09:13:31Z</time>
      </trkpt>
      <trkpt lat="43.23726" lon="6.01981">
        <ele>306.9453125</ele>
        <time>2022-04-10T09:13:32Z</time>
      </trkpt>
      <trkpt lat="43.23722" lon="6.01979">
        <ele>306.1015625</ele>
        <time>2022-04-10T09:13:33Z</time>
      </trkpt>
      <trkpt lat="43.23713" lon="6.01975">
        <ele>304.24609375</ele>
        <time>2022-04-10T09:13:35Z</time>
      </trkpt>
      <trkpt lat="43.23702" lon="6.01968">
        <ele>302.5078125</ele>
        <time>2022-04-10T09:13:37Z</time>
      </trkpt>
      <trkpt lat="43.23697" lon="6.01964">
        <ele>301.55859375</ele>
        <time>2022-04-10T09:13:38Z</time>
      </trkpt>
      <trkpt lat="43.23691" lon="6.01961">
        <ele>300.43359375</ele>
        <time>2022-04-10T09:13:39Z</time>
      </trkpt>
      <trkpt lat="43.23684" lon="6.01959">
        <ele>299.3203125</ele>
        <time>2022-04-10T09:13:40Z</time>
      </trkpt>
      <trkpt lat="43.23678" lon="6.01955">
        <ele>298.3984375</ele>
        <time>2022-04-10T09:13:41Z</time>
      </trkpt>
      <trkpt lat="43.23658" lon="6.0194">
        <ele>295.6015625</ele>
        <time>2022-04-10T09:13:45Z</time>
      </trkpt>
      <trkpt lat="43.2365" lon="6.01935">
        <ele>294.15625</ele>
        <time>2022-04-10T09:13:50Z</time>
      </trkpt>
      <trkpt lat="43.23648" lon="6.01934">
        <ele>293.83203125</ele>
        <time>2022-04-10T09:13:51Z</time>
      </trkpt>
      <trkpt lat="43.23633" lon="6.01925">
        <ele>291.12890625</ele>
        <time>2022-04-10T09:13:55Z</time>
      </trkpt>
      <trkpt lat="43.23629" lon="6.01922">
        <ele>290.34765625</ele>
        <time>2022-04-10T09:13:56Z</time>
      </trkpt>
      <trkpt lat="43.23608" lon="6.01909">
        <ele>286.3515625</ele>
        <time>2022-04-10T09:14:00Z</time>
      </trkpt>
      <trkpt lat="43.23596" lon="6.01907">
        <ele>283.90234375</ele>
        <time>2022-04-10T09:14:02Z</time>
      </trkpt>
      <trkpt lat="43.2357" lon="6.01905">
        <ele>279.55078125</ele>
        <time>2022-04-10T09:14:06Z</time>
      </trkpt>
      <trkpt lat="43.2354" lon="6.0191">
        <ele>275.2578125</ele>
        <time>2022-04-10T09:14:11Z</time>
      </trkpt>
      <trkpt lat="43.23535" lon="6.01909">
        <ele>274.28515625</ele>
        <time>2022-04-10T09:14:12Z</time>
      </trkpt>
      <trkpt lat="43.23531" lon="6.01905">
        <ele>273.38671875</ele>
        <time>2022-04-10T09:14:13Z</time>
      </trkpt>
      <trkpt lat="43.23522" lon="6.01895">
        <ele>272.0078125</ele>
        <time>2022-04-10T09:14:15Z</time>
      </trkpt>
      <trkpt lat="43.23517" lon="6.01891">
        <ele>271.5078125</ele>
        <time>2022-04-10T09:14:16Z</time>
      </trkpt>
      <trkpt lat="43.23511" lon="6.01889">
        <ele>271.140625</ele>
        <time>2022-04-10T09:14:17Z</time>
      </trkpt>
      <trkpt lat="43.23504" lon="6.01889">
        <ele>270.7890625</ele>
        <time>2022-04-10T09:14:18Z</time>
      </trkpt>
      <trkpt lat="43.23498" lon="6.0189">
        <ele>270.3828125</ele>
        <time>2022-04-10T09:14:19Z</time>
      </trkpt>
      <trkpt lat="43.23492" lon="6.01891">
        <ele>269.91796875</ele>
        <time>2022-04-10T09:14:20Z</time>
      </trkpt>
      <trkpt lat="43.2348" lon="6.01892">
        <ele>268.92578125</ele>
        <time>2022-04-10T09:14:22Z</time>
      </trkpt>
      <trkpt lat="43.23423" lon="6.01898">
        <ele>265.921875</ele>
        <time>2022-04-10T09:14:32Z</time>
      </trkpt>
      <trkpt lat="43.23418" lon="6.01897">
        <ele>266.24609375</ele>
        <time>2022-04-10T09:14:33Z</time>
      </trkpt>
      <trkpt lat="43.23413" lon="6.01896">
        <ele>266.78515625</ele>
        <time>2022-04-10T09:14:34Z</time>
      </trkpt>
      <trkpt lat="43.23408" lon="6.01894">
        <ele>267.56640625</ele>
        <time>2022-04-10T09:14:35Z</time>
      </trkpt>
      <trkpt lat="43.23402" lon="6.01891">
        <ele>268.62109375</ele>
        <time>2022-04-10T09:14:36Z</time>
      </trkpt>
      <trkpt lat="43.23396" lon="6.01888">
        <ele>269.75390625</ele>
        <time>2022-04-10T09:14:37Z</time>
      </trkpt>
      <trkpt lat="43.23391" lon="6.01885">
        <ele>270.4453125</ele>
        <time>2022-04-10T09:14:38Z</time>
      </trkpt>
      <trkpt lat="43.23385" lon="6.01883">
        <ele>270.7578125</ele>
        <time>2022-04-10T09:14:39Z</time>
      </trkpt>
      <trkpt lat="43.23357" lon="6.01869">
        <ele>271.4296875</ele>
        <time>2022-04-10T09:14:43Z</time>
      </trkpt>
      <trkpt lat="43.2335" lon="6.01864">
        <ele>271.640625</ele>
        <time>2022-04-10T09:14:44Z</time>
      </trkpt>
      <trkpt lat="43.23343" lon="6.01859">
        <ele>271.9453125</ele>
        <time>2022-04-10T09:14:45Z</time>
      </trkpt>
      <trkpt lat="43.23336" lon="6.01854">
        <ele>271.84765625</ele>
        <time>2022-04-10T09:14:46Z</time>
      </trkpt>
      <trkpt lat="43.23329" lon="6.01849">
        <ele>271.18359375</ele>
        <time>2022-04-10T09:14:47Z</time>
      </trkpt>
      <trkpt lat="43.23323" lon="6.01844">
        <ele>270.69921875</ele>
        <time>2022-04-10T09:14:48Z</time>
      </trkpt>
      <trkpt lat="43.23318" lon="6.01838">
        <ele>270.40625</ele>
        <time>2022-04-10T09:14:49Z</time>
      </trkpt>
      <trkpt lat="43.23315" lon="6.01833">
        <ele>270.265625</ele>
        <time>2022-04-10T09:14:50Z</time>
      </trkpt>
      <trkpt lat="43.23313" lon="6.01833">
        <ele>270.0234375</ele>
        <time>2022-04-10T09:14:51Z</time>
      </trkpt>
      <trkpt lat="43.23311" lon="6.01835">
        <ele>269.6640625</ele>
        <time>2022-04-10T09:14:52Z</time>
      </trkpt>
      <trkpt lat="43.23309" lon="6.01838">
        <ele>269.13671875</ele>
        <time>2022-04-10T09:15:04Z</time>
      </trkpt>
      <trkpt lat="43.23308" lon="6.0184">
        <ele>268.80078125</ele>
        <time>2022-04-10T09:15:16Z</time>
      </trkpt>
      <trkpt lat="43.23307" lon="6.01842">
        <ele>268.5234375</ele>
        <time>2022-04-10T09:15:17Z</time>
      </trkpt>
      <trkpt lat="43.23307" lon="6.01854">
        <ele>267.46875</ele>
        <time>2022-04-10T09:15:27Z</time>
      </trkpt>
      <trkpt lat="43.23307" lon="6.01855">
        <ele>267.5078125</ele>
        <time>2022-04-10T09:16:07Z</time>
      </trkpt>
      <trkpt lat="43.23308" lon="6.01857">
        <ele>267.3125</ele>
        <time>2022-04-10T09:16:41Z</time>
      </trkpt>
      <trkpt lat="43.23308" lon="6.01858">
        <ele>267.2265625</ele>
        <time>2022-04-10T09:16:42Z</time>
      </trkpt>
      <trkpt lat="43.23309" lon="6.01861">
        <ele>267.046875</ele>
        <time>2022-04-10T09:16:43Z</time>
      </trkpt>
      <trkpt lat="43.2331" lon="6.01864">
        <ele>266.65234375</ele>
        <time>2022-04-10T09:16:44Z</time>
      </trkpt>
      <trkpt lat="43.2331" lon="6.01869">
        <ele>266.046875</ele>
        <time>2022-04-10T09:16:45Z</time>
      </trkpt>
      <trkpt lat="43.2331" lon="6.01874">
        <ele>265.27734375</ele>
        <time>2022-04-10T09:16:46Z</time>
      </trkpt>
      <trkpt lat="43.2331" lon="6.01899">
        <ele>261.67578125</ele>
        <time>2022-04-10T09:16:50Z</time>
      </trkpt>
      <trkpt lat="43.23312" lon="6.01906">
        <ele>260.97265625</ele>
        <time>2022-04-10T09:16:51Z</time>
      </trkpt>
      <trkpt lat="43.23314" lon="6.01912">
        <ele>260.26953125</ele>
        <time>2022-04-10T09:16:52Z</time>
      </trkpt>
      <trkpt lat="43.23317" lon="6.01919">
        <ele>259.2421875</ele>
        <time>2022-04-10T09:16:53Z</time>
      </trkpt>
      <trkpt lat="43.23321" lon="6.01927">
        <ele>258.171875</ele>
        <time>2022-04-10T09:16:54Z</time>
      </trkpt>
      <trkpt lat="43.23325" lon="6.01935">
        <ele>256.98828125</ele>
        <time>2022-04-10T09:16:55Z</time>
      </trkpt>
      <trkpt lat="43.23328" lon="6.01943">
        <ele>255.6953125</ele>
        <time>2022-04-10T09:16:56Z</time>
      </trkpt>
      <trkpt lat="43.23332" lon="6.01951">
        <ele>254.41796875</ele>
        <time>2022-04-10T09:16:57Z</time>
      </trkpt>
      <trkpt lat="43.23348" lon="6.01979">
        <ele>249.0859375</ele>
        <time>2022-04-10T09:17:01Z</time>
      </trkpt>
      <trkpt lat="43.23352" lon="6.01985">
        <ele>247.703125</ele>
        <time>2022-04-10T09:17:02Z</time>
      </trkpt>
      <trkpt lat="43.23359" lon="6.01998">
        <ele>245.26953125</ele>
        <time>2022-04-10T09:17:04Z</time>
      </trkpt>
      <trkpt lat="43.23363" lon="6.02003">
        <ele>244.64453125</ele>
        <time>2022-04-10T09:17:05Z</time>
      </trkpt>
      <trkpt lat="43.23368" lon="6.02008">
        <ele>243.984375</ele>
        <time>2022-04-10T09:17:06Z</time>
      </trkpt>
      <trkpt lat="43.23373" lon="6.02012">
        <ele>243.34375</ele>
        <time>2022-04-10T09:17:07Z</time>
      </trkpt>
      <trkpt lat="43.23378" lon="6.02016">
        <ele>242.8359375</ele>
        <time>2022-04-10T09:17:08Z</time>
      </trkpt>
      <trkpt lat="43.23384" lon="6.02018">
        <ele>242.52734375</ele>
        <time>2022-04-10T09:17:09Z</time>
      </trkpt>
      <trkpt lat="43.2339" lon="6.02019">
        <ele>242.31640625</ele>
        <time>2022-04-10T09:17:10Z</time>
      </trkpt>
      <trkpt lat="43.234" lon="6.02024">
        <ele>241.8984375</ele>
        <time>2022-04-10T09:17:12Z</time>
      </trkpt>
      <trkpt lat="43.23404" lon="6.02027">
        <ele>241.796875</ele>
        <time>2022-04-10T09:17:13Z</time>
      </trkpt>
      <trkpt lat="43.2341" lon="6.02029">
        <ele>241.7890625</ele>
        <time>2022-04-10T09:17:14Z</time>
      </trkpt>
      <trkpt lat="43.23415" lon="6.0203">
        <ele>241.859375</ele>
        <time>2022-04-10T09:17:15Z</time>
      </trkpt>
      <trkpt lat="43.23419" lon="6.02031">
        <ele>241.93359375</ele>
        <time>2022-04-10T09:17:16Z</time>
      </trkpt>
      <trkpt lat="43.23421" lon="6.0203">
        <ele>242</ele>
        <time>2022-04-10T09:17:24Z</time>
      </trkpt>
      <trkpt lat="43.23421" lon="6.0203">
        <ele>242</ele>
        <time>2022-04-10T09:17:37Z</time>
      </trkpt>
      <trkpt lat="43.23423" lon="6.02031">
        <ele>242.16015625</ele>
        <time>2022-04-10T09:17:38Z</time>
      </trkpt>
      <trkpt lat="43.23426" lon="6.02032">
        <ele>242.4140625</ele>
        <time>2022-04-10T09:17:39Z</time>
      </trkpt>
      <trkpt lat="43.2343" lon="6.02035">
        <ele>242.7421875</ele>
        <time>2022-04-10T09:17:40Z</time>
      </trkpt>
      <trkpt lat="43.23434" lon="6.02037">
        <ele>243.1484375</ele>
        <time>2022-04-10T09:17:41Z</time>
      </trkpt>
      <trkpt lat="43.23451" lon="6.0205">
        <ele>245.4453125</ele>
        <time>2022-04-10T09:17:45Z</time>
      </trkpt>
      <trkpt lat="43.23454" lon="6.02054">
        <ele>246.734375</ele>
        <time>2022-04-10T09:17:46Z</time>
      </trkpt>
      <trkpt lat="43.23455" lon="6.02058">
        <ele>247.67578125</ele>
        <time>2022-04-10T09:17:47Z</time>
      </trkpt>
      <trkpt lat="43.23455" lon="6.02062">
        <ele>248.19140625</ele>
        <time>2022-04-10T09:17:48Z</time>
      </trkpt>
      <trkpt lat="43.23453" lon="6.02065">
        <ele>248.3515625</ele>
        <time>2022-04-10T09:17:49Z</time>
      </trkpt>
      <trkpt lat="43.2345" lon="6.02067">
        <ele>248.359375</ele>
        <time>2022-04-10T09:17:50Z</time>
      </trkpt>
      <trkpt lat="43.23448" lon="6.02069">
        <ele>248.33984375</ele>
        <time>2022-04-10T09:17:51Z</time>
      </trkpt>
      <trkpt lat="43.23445" lon="6.02072">
        <ele>248.421875</ele>
        <time>2022-04-10T09:17:52Z</time>
      </trkpt>
      <trkpt lat="43.23443" lon="6.02074">
        <ele>248.53515625</ele>
        <time>2022-04-10T09:17:53Z</time>
      </trkpt>
      <trkpt lat="43.2344" lon="6.02077">
        <ele>248.68359375</ele>
        <time>2022-04-10T09:17:54Z</time>
      </trkpt>
      <trkpt lat="43.23438" lon="6.0208">
        <ele>248.87109375</ele>
        <time>2022-04-10T09:17:55Z</time>
      </trkpt>
      <trkpt lat="43.23406" lon="6.02115">
        <ele>251.6484375</ele>
        <time>2022-04-10T09:18:08Z</time>
      </trkpt>
      <trkpt lat="43.23383" lon="6.02133">
        <ele>252.78515625</ele>
        <time>2022-04-10T09:18:21Z</time>
      </trkpt>
      <trkpt lat="43.23371" lon="6.02157">
        <ele>257.7890625</ele>
        <time>2022-04-10T09:18:32Z</time>
      </trkpt>
      <trkpt lat="43.23367" lon="6.02161">
        <ele>258.14453125</ele>
        <time>2022-04-10T09:18:34Z</time>
      </trkpt>
      <trkpt lat="43.23365" lon="6.02163">
        <ele>258.44140625</ele>
        <time>2022-04-10T09:18:35Z</time>
      </trkpt>
      <trkpt lat="43.23364" lon="6.02165">
        <ele>258.75</ele>
        <time>2022-04-10T09:18:36Z</time>
      </trkpt>
      <trkpt lat="43.23362" lon="6.02167">
        <ele>259.03515625</ele>
        <time>2022-04-10T09:18:37Z</time>
      </trkpt>
      <trkpt lat="43.2336" lon="6.02169">
        <ele>259.3203125</ele>
        <time>2022-04-10T09:18:38Z</time>
      </trkpt>
      <trkpt lat="43.23359" lon="6.02171">
        <ele>259.69140625</ele>
        <time>2022-04-10T09:18:39Z</time>
      </trkpt>
      <trkpt lat="43.23358" lon="6.02173">
        <ele>260.13671875</ele>
        <time>2022-04-10T09:18:40Z</time>
      </trkpt>
      <trkpt lat="43.23357" lon="6.02176">
        <ele>260.6875</ele>
        <time>2022-04-10T09:18:41Z</time>
      </trkpt>
      <trkpt lat="43.23356" lon="6.02179">
        <ele>261.20703125</ele>
        <time>2022-04-10T09:18:42Z</time>
      </trkpt>
      <trkpt lat="43.23343" lon="6.02202">
        <ele>264.609375</ele>
        <time>2022-04-10T09:18:51Z</time>
      </trkpt>
      <trkpt lat="43.23325" lon="6.0222">
        <ele>265.609375</ele>
        <time>2022-04-10T09:19:01Z</time>
      </trkpt>
      <trkpt lat="43.23324" lon="6.02223">
        <ele>266.05859375</ele>
        <time>2022-04-10T09:19:02Z</time>
      </trkpt>
      <trkpt lat="43.23323" lon="6.02225">
        <ele>266.38671875</ele>
        <time>2022-04-10T09:19:03Z</time>
      </trkpt>
      <trkpt lat="43.23322" lon="6.02228">
        <ele>266.609375</ele>
        <time>2022-04-10T09:19:04Z</time>
      </trkpt>
      <trkpt lat="43.2332" lon="6.0223">
        <ele>266.78125</ele>
        <time>2022-04-10T09:19:05Z</time>
      </trkpt>
      <trkpt lat="43.23318" lon="6.02232">
        <ele>266.81640625</ele>
        <time>2022-04-10T09:19:06Z</time>
      </trkpt>
      <trkpt lat="43.23316" lon="6.02233">
        <ele>266.7421875</ele>
        <time>2022-04-10T09:19:07Z</time>
      </trkpt>
      <trkpt lat="43.2331" lon="6.02239">
        <ele>266.9765625</ele>
        <time>2022-04-10T09:19:10Z</time>
      </trkpt>
      <trkpt lat="43.23309" lon="6.02242">
        <ele>267.45703125</ele>
        <time>2022-04-10T09:19:11Z</time>
      </trkpt>
      <trkpt lat="43.23308" lon="6.02245">
        <ele>267.8046875</ele>
        <time>2022-04-10T09:19:12Z</time>
      </trkpt>
      <trkpt lat="43.23287" lon="6.02284">
        <ele>270.19140625</ele>
        <time>2022-04-10T09:19:24Z</time>
      </trkpt>
      <trkpt lat="43.23277" lon="6.02308">
        <ele>272.00390625</ele>
        <time>2022-04-10T09:19:33Z</time>
      </trkpt>
      <trkpt lat="43.23261" lon="6.02341">
        <ele>272.8125</ele>
        <time>2022-04-10T09:19:45Z</time>
      </trkpt>
      <trkpt lat="43.23249" lon="6.02363">
        <ele>272.64453125</ele>
        <time>2022-04-10T09:19:53Z</time>
      </trkpt>
      <trkpt lat="43.23248" lon="6.02366">
        <ele>272.734375</ele>
        <time>2022-04-10T09:19:54Z</time>
      </trkpt>
      <trkpt lat="43.23247" lon="6.0237">
        <ele>272.828125</ele>
        <time>2022-04-10T09:19:55Z</time>
      </trkpt>
      <trkpt lat="43.23246" lon="6.02373">
        <ele>272.94921875</ele>
        <time>2022-04-10T09:19:56Z</time>
      </trkpt>
      <trkpt lat="43.23245" lon="6.02377">
        <ele>273.06640625</ele>
        <time>2022-04-10T09:19:57Z</time>
      </trkpt>
      <trkpt lat="43.23244" lon="6.02381">
        <ele>273.25390625</ele>
        <time>2022-04-10T09:19:58Z</time>
      </trkpt>
      <trkpt lat="43.23243" lon="6.02385">
        <ele>273.34375</ele>
        <time>2022-04-10T09:19:59Z</time>
      </trkpt>
      <trkpt lat="43.23226" lon="6.02431">
        <ele>272.609375</ele>
        <time>2022-04-10T09:20:12Z</time>
      </trkpt>
      <trkpt lat="43.23213" lon="6.02494">
        <ele>270.94140625</ele>
        <time>2022-04-10T09:20:25Z</time>
      </trkpt>
      <trkpt lat="43.23209" lon="6.02532">
        <ele>267.92578125</ele>
        <time>2022-04-10T09:20:38Z</time>
      </trkpt>
      <trkpt lat="43.23208" lon="6.02544">
        <ele>266.0859375</ele>
        <time>2022-04-10T09:20:48Z</time>
      </trkpt>
      <trkpt lat="43.2321" lon="6.02547">
        <ele>265.84375</ele>
        <time>2022-04-10T09:21:02Z</time>
      </trkpt>
      <trkpt lat="43.23215" lon="6.02577">
        <ele>262.734375</ele>
        <time>2022-04-10T09:21:16Z</time>
      </trkpt>
      <trkpt lat="43.2322" lon="6.02603">
        <ele>258.89453125</ele>
        <time>2022-04-10T09:21:21Z</time>
      </trkpt>
      <trkpt lat="43.23223" lon="6.02608">
        <ele>258.19140625</ele>
        <time>2022-04-10T09:21:22Z</time>
      </trkpt>
      <trkpt lat="43.23229" lon="6.02619">
        <ele>256.59375</ele>
        <time>2022-04-10T09:21:24Z</time>
      </trkpt>
      <trkpt lat="43.23229" lon="6.02624">
        <ele>255.75</ele>
        <time>2022-04-10T09:21:25Z</time>
      </trkpt>
      <trkpt lat="43.2323" lon="6.02628">
        <ele>254.9296875</ele>
        <time>2022-04-10T09:21:26Z</time>
      </trkpt>
      <trkpt lat="43.23231" lon="6.02633">
        <ele>254.140625</ele>
        <time>2022-04-10T09:21:27Z</time>
      </trkpt>
      <trkpt lat="43.23233" lon="6.02637">
        <ele>253.35546875</ele>
        <time>2022-04-10T09:21:28Z</time>
      </trkpt>
      <trkpt lat="43.23236" lon="6.02642">
        <ele>252.57421875</ele>
        <time>2022-04-10T09:21:29Z</time>
      </trkpt>
      <trkpt lat="43.23239" lon="6.02647">
        <ele>251.7265625</ele>
        <time>2022-04-10T09:21:30Z</time>
      </trkpt>
      <trkpt lat="43.23244" lon="6.02651">
        <ele>251.0234375</ele>
        <time>2022-04-10T09:21:31Z</time>
      </trkpt>
      <trkpt lat="43.2325" lon="6.02654">
        <ele>250.4296875</ele>
        <time>2022-04-10T09:21:32Z</time>
      </trkpt>
      <trkpt lat="43.23255" lon="6.02657">
        <ele>249.6875</ele>
        <time>2022-04-10T09:21:33Z</time>
      </trkpt>
      <trkpt lat="43.2326" lon="6.02662">
        <ele>248.6875</ele>
        <time>2022-04-10T09:21:34Z</time>
      </trkpt>
      <trkpt lat="43.23279" lon="6.02676">
        <ele>245.11328125</ele>
        <time>2022-04-10T09:21:37Z</time>
      </trkpt>
      <trkpt lat="43.23291" lon="6.02683">
        <ele>243.203125</ele>
        <time>2022-04-10T09:21:39Z</time>
      </trkpt>
      <trkpt lat="43.23301" lon="6.02689">
        <ele>241.22265625</ele>
        <time>2022-04-10T09:21:41Z</time>
      </trkpt>
      <trkpt lat="43.23315" lon="6.02698">
        <ele>238.4453125</ele>
        <time>2022-04-10T09:21:44Z</time>
      </trkpt>
      <trkpt lat="43.23321" lon="6.02701">
        <ele>237.34765625</ele>
        <time>2022-04-10T09:21:45Z</time>
      </trkpt>
      <trkpt lat="43.23326" lon="6.02705">
        <ele>236.203125</ele>
        <time>2022-04-10T09:21:46Z</time>
      </trkpt>
      <trkpt lat="43.2333" lon="6.02709">
        <ele>235.17578125</ele>
        <time>2022-04-10T09:21:47Z</time>
      </trkpt>
      <trkpt lat="43.23334" lon="6.02712">
        <ele>234.04296875</ele>
        <time>2022-04-10T09:21:48Z</time>
      </trkpt>
      <trkpt lat="43.23339" lon="6.02716">
        <ele>232.98828125</ele>
        <time>2022-04-10T09:21:49Z</time>
      </trkpt>
      <trkpt lat="43.23342" lon="6.02718">
        <ele>232.76171875</ele>
        <time>2022-04-10T09:21:50Z</time>
      </trkpt>
      <trkpt lat="43.23345" lon="6.0272">
        <ele>232.6015625</ele>
        <time>2022-04-10T09:21:51Z</time>
      </trkpt>
      <trkpt lat="43.23352" lon="6.02723">
        <ele>232.2421875</ele>
        <time>2022-04-10T09:21:54Z</time>
      </trkpt>
      <trkpt lat="43.23366" lon="6.0273">
        <ele>231.4921875</ele>
        <time>2022-04-10T09:21:58Z</time>
      </trkpt>
      <trkpt lat="43.23385" lon="6.02733">
        <ele>231.58984375</ele>
        <time>2022-04-10T09:22:03Z</time>
      </trkpt>
      <trkpt lat="43.23401" lon="6.02729">
        <ele>232.4375</ele>
        <time>2022-04-10T09:22:07Z</time>
      </trkpt>
      <trkpt lat="43.23405" lon="6.02729">
        <ele>232.6484375</ele>
        <time>2022-04-10T09:22:08Z</time>
      </trkpt>
      <trkpt lat="43.23422" lon="6.02728">
        <ele>233.484375</ele>
        <time>2022-04-10T09:22:12Z</time>
      </trkpt>
      <trkpt lat="43.23426" lon="6.02729">
        <ele>233.94921875</ele>
        <time>2022-04-10T09:22:13Z</time>
      </trkpt>
      <trkpt lat="43.2343" lon="6.02732">
        <ele>234.5078125</ele>
        <time>2022-04-10T09:22:14Z</time>
      </trkpt>
      <trkpt lat="43.23433" lon="6.02735">
        <ele>235.12890625</ele>
        <time>2022-04-10T09:22:15Z</time>
      </trkpt>
      <trkpt lat="43.23436" lon="6.0274">
        <ele>235.77734375</ele>
        <time>2022-04-10T09:22:16Z</time>
      </trkpt>
      <trkpt lat="43.23437" lon="6.02745">
        <ele>236.359375</ele>
        <time>2022-04-10T09:22:17Z</time>
      </trkpt>
      <trkpt lat="43.23437" lon="6.02749">
        <ele>236.9140625</ele>
        <time>2022-04-10T09:22:18Z</time>
      </trkpt>
      <trkpt lat="43.23436" lon="6.02752">
        <ele>237.28125</ele>
        <time>2022-04-10T09:22:19Z</time>
      </trkpt>
      <trkpt lat="43.23435" lon="6.02755">
        <ele>237.6484375</ele>
        <time>2022-04-10T09:22:20Z</time>
      </trkpt>
      <trkpt lat="43.23428" lon="6.02772">
        <ele>238.46875</ele>
        <time>2022-04-10T09:22:25Z</time>
      </trkpt>
      <trkpt lat="43.23402" lon="6.02803">
        <ele>239.37109375</ele>
        <time>2022-04-10T09:22:37Z</time>
      </trkpt>
      <trkpt lat="43.23384" lon="6.02825">
        <ele>239.296875</ele>
        <time>2022-04-10T09:22:45Z</time>
      </trkpt>
      <trkpt lat="43.2335" lon="6.02861">
        <ele>238.609375</ele>
        <time>2022-04-10T09:23:00Z</time>
      </trkpt>
      <trkpt lat="43.23335" lon="6.02871">
        <ele>236.14453125</ele>
        <time>2022-04-10T09:23:08Z</time>
      </trkpt>
      <trkpt lat="43.23335" lon="6.02873">
        <ele>235.9296875</ele>
        <time>2022-04-10T09:23:09Z</time>
      </trkpt>
      <trkpt lat="43.23334" lon="6.02875">
        <ele>235.61328125</ele>
        <time>2022-04-10T09:23:10Z</time>
      </trkpt>
      <trkpt lat="43.23333" lon="6.02878">
        <ele>235.25390625</ele>
        <time>2022-04-10T09:23:11Z</time>
      </trkpt>
      <trkpt lat="43.23333" lon="6.02881">
        <ele>234.94921875</ele>
        <time>2022-04-10T09:23:12Z</time>
      </trkpt>
      <trkpt lat="43.23333" lon="6.02884">
        <ele>234.69140625</ele>
        <time>2022-04-10T09:23:13Z</time>
      </trkpt>
      <trkpt lat="43.23333" lon="6.02888">
        <ele>234.42578125</ele>
        <time>2022-04-10T09:23:14Z</time>
      </trkpt>
      <trkpt lat="43.23334" lon="6.02892">
        <ele>234.11328125</ele>
        <time>2022-04-10T09:23:15Z</time>
      </trkpt>
      <trkpt lat="43.23337" lon="6.02897">
        <ele>233.9375</ele>
        <time>2022-04-10T09:23:16Z</time>
      </trkpt>
      <trkpt lat="43.23341" lon="6.02901">
        <ele>233.96484375</ele>
        <time>2022-04-10T09:23:17Z</time>
      </trkpt>
      <trkpt lat="43.23346" lon="6.02905">
        <ele>234.0078125</ele>
        <time>2022-04-10T09:23:18Z</time>
      </trkpt>
      <trkpt lat="43.23349" lon="6.0291">
        <ele>233.84375</ele>
        <time>2022-04-10T09:23:19Z</time>
      </trkpt>
      <trkpt lat="43.23352" lon="6.02916">
        <ele>233.4765625</ele>
        <time>2022-04-10T09:23:20Z</time>
      </trkpt>
      <trkpt lat="43.23354" lon="6.02922">
        <ele>233.21875</ele>
        <time>2022-04-10T09:23:21Z</time>
      </trkpt>
      <trkpt lat="43.23358" lon="6.02926">
        <ele>233.13671875</ele>
        <time>2022-04-10T09:23:22Z</time>
      </trkpt>
      <trkpt lat="43.23362" lon="6.02931">
        <ele>233.1640625</ele>
        <time>2022-04-10T09:23:23Z</time>
      </trkpt>
      <trkpt lat="43.23369" lon="6.02938">
        <ele>233.44921875</ele>
        <time>2022-04-10T09:23:25Z</time>
      </trkpt>
      <trkpt lat="43.23372" lon="6.02941">
        <ele>234.02734375</ele>
        <time>2022-04-10T09:23:26Z</time>
      </trkpt>
      <trkpt lat="43.23376" lon="6.02944">
        <ele>234.73828125</ele>
        <time>2022-04-10T09:23:27Z</time>
      </trkpt>
      <trkpt lat="43.23379" lon="6.02947">
        <ele>235.37890625</ele>
        <time>2022-04-10T09:23:28Z</time>
      </trkpt>
      <trkpt lat="43.23381" lon="6.02951">
        <ele>235.921875</ele>
        <time>2022-04-10T09:23:29Z</time>
      </trkpt>
      <trkpt lat="43.23382" lon="6.02956">
        <ele>236.32421875</ele>
        <time>2022-04-10T09:23:30Z</time>
      </trkpt>
      <trkpt lat="43.23381" lon="6.02962">
        <ele>236.5703125</ele>
        <time>2022-04-10T09:23:31Z</time>
      </trkpt>
      <trkpt lat="43.2338" lon="6.02968">
        <ele>236.8984375</ele>
        <time>2022-04-10T09:23:32Z</time>
      </trkpt>
      <trkpt lat="43.23379" lon="6.02974">
        <ele>237.48828125</ele>
        <time>2022-04-10T09:23:33Z</time>
      </trkpt>
      <trkpt lat="43.23378" lon="6.02981">
        <ele>237.9453125</ele>
        <time>2022-04-10T09:23:34Z</time>
      </trkpt>
      <trkpt lat="43.23375" lon="6.02987">
        <ele>238.203125</ele>
        <time>2022-04-10T09:23:35Z</time>
      </trkpt>
      <trkpt lat="43.23372" lon="6.02993">
        <ele>238.3125</ele>
        <time>2022-04-10T09:23:36Z</time>
      </trkpt>
      <trkpt lat="43.23369" lon="6.02998">
        <ele>239.06640625</ele>
        <time>2022-04-10T09:23:37Z</time>
      </trkpt>
      <trkpt lat="43.23365" lon="6.03002">
        <ele>239.57421875</ele>
        <time>2022-04-10T09:23:38Z</time>
      </trkpt>
      <trkpt lat="43.23361" lon="6.03005">
        <ele>239.84765625</ele>
        <time>2022-04-10T09:23:39Z</time>
      </trkpt>
      <trkpt lat="43.23357" lon="6.03008">
        <ele>239.98828125</ele>
        <time>2022-04-10T09:23:40Z</time>
      </trkpt>
      <trkpt lat="43.23337" lon="6.03022">
        <ele>241.015625</ele>
        <time>2022-04-10T09:23:47Z</time>
      </trkpt>
      <trkpt lat="43.23311" lon="6.03043">
        <ele>242.3984375</ele>
        <time>2022-04-10T09:23:58Z</time>
      </trkpt>
      <trkpt lat="43.23286" lon="6.03068">
        <ele>243.25</ele>
        <time>2022-04-10T09:24:10Z</time>
      </trkpt>
      <trkpt lat="43.23272" lon="6.03104">
        <ele>245</ele>
        <time>2022-04-10T09:24:21Z</time>
      </trkpt>
      <trkpt lat="43.23256" lon="6.0315">
        <ele>241.90625</ele>
        <time>2022-04-10T09:24:32Z</time>
      </trkpt>
      <trkpt lat="43.23255" lon="6.03156">
        <ele>241.328125</ele>
        <time>2022-04-10T09:24:33Z</time>
      </trkpt>
      <trkpt lat="43.23254" lon="6.03163">
        <ele>240.734375</ele>
        <time>2022-04-10T09:24:34Z</time>
      </trkpt>
      <trkpt lat="43.23253" lon="6.0317">
        <ele>240.078125</ele>
        <time>2022-04-10T09:24:35Z</time>
      </trkpt>
      <trkpt lat="43.23253" lon="6.03178">
        <ele>239.4609375</ele>
        <time>2022-04-10T09:24:36Z</time>
      </trkpt>
      <trkpt lat="43.23254" lon="6.03186">
        <ele>239.0390625</ele>
        <time>2022-04-10T09:24:37Z</time>
      </trkpt>
      <trkpt lat="43.23256" lon="6.03194">
        <ele>238.03125</ele>
        <time>2022-04-10T09:24:38Z</time>
      </trkpt>
      <trkpt lat="43.23257" lon="6.03203">
        <ele>236.58984375</ele>
        <time>2022-04-10T09:24:39Z</time>
      </trkpt>
      <trkpt lat="43.23259" lon="6.03211">
        <ele>235.125</ele>
        <time>2022-04-10T09:24:40Z</time>
      </trkpt>
      <trkpt lat="43.2326" lon="6.03227">
        <ele>232.34765625</ele>
        <time>2022-04-10T09:24:42Z</time>
      </trkpt>
      <trkpt lat="43.23261" lon="6.03234">
        <ele>230.94921875</ele>
        <time>2022-04-10T09:24:43Z</time>
      </trkpt>
      <trkpt lat="43.23262" lon="6.03242">
        <ele>229.5</ele>
        <time>2022-04-10T09:24:44Z</time>
      </trkpt>
      <trkpt lat="43.23264" lon="6.03251">
        <ele>227.87890625</ele>
        <time>2022-04-10T09:24:45Z</time>
      </trkpt>
      <trkpt lat="43.23267" lon="6.03261">
        <ele>226.0078125</ele>
        <time>2022-04-10T09:24:46Z</time>
      </trkpt>
      <trkpt lat="43.23271" lon="6.03271">
        <ele>224.0234375</ele>
        <time>2022-04-10T09:24:47Z</time>
      </trkpt>
      <trkpt lat="43.23275" lon="6.0328">
        <ele>222.77734375</ele>
        <time>2022-04-10T09:24:48Z</time>
      </trkpt>
      <trkpt lat="43.2328" lon="6.03287">
        <ele>221.8046875</ele>
        <time>2022-04-10T09:24:49Z</time>
      </trkpt>
      <trkpt lat="43.23286" lon="6.03292">
        <ele>221.05078125</ele>
        <time>2022-04-10T09:24:50Z</time>
      </trkpt>
      <trkpt lat="43.23292" lon="6.03297">
        <ele>220.37109375</ele>
        <time>2022-04-10T09:24:51Z</time>
      </trkpt>
      <trkpt lat="43.23297" lon="6.03302">
        <ele>219.6875</ele>
        <time>2022-04-10T09:24:52Z</time>
      </trkpt>
      <trkpt lat="43.23308" lon="6.03313">
        <ele>218.40234375</ele>
        <time>2022-04-10T09:24:54Z</time>
      </trkpt>
      <trkpt lat="43.23313" lon="6.03318">
        <ele>218.01953125</ele>
        <time>2022-04-10T09:24:55Z</time>
      </trkpt>
      <trkpt lat="43.23319" lon="6.03322">
        <ele>217.83984375</ele>
        <time>2022-04-10T09:24:56Z</time>
      </trkpt>
      <trkpt lat="43.23326" lon="6.03325">
        <ele>217.75</ele>
        <time>2022-04-10T09:24:57Z</time>
      </trkpt>
      <trkpt lat="43.23332" lon="6.03327">
        <ele>217.7421875</ele>
        <time>2022-04-10T09:24:58Z</time>
      </trkpt>
      <trkpt lat="43.23342" lon="6.03329">
        <ele>218.16796875</ele>
        <time>2022-04-10T09:25:00Z</time>
      </trkpt>
      <trkpt lat="43.23346" lon="6.03327">
        <ele>218.56640625</ele>
        <time>2022-04-10T09:25:01Z</time>
      </trkpt>
      <trkpt lat="43.23351" lon="6.03326">
        <ele>219.02734375</ele>
        <time>2022-04-10T09:25:02Z</time>
      </trkpt>
      <trkpt lat="43.23355" lon="6.03325">
        <ele>219.3671875</ele>
        <time>2022-04-10T09:25:03Z</time>
      </trkpt>
      <trkpt lat="43.23358" lon="6.03326">
        <ele>219.4921875</ele>
        <time>2022-04-10T09:25:04Z</time>
      </trkpt>
      <trkpt lat="43.23361" lon="6.03328">
        <ele>219.62109375</ele>
        <time>2022-04-10T09:25:05Z</time>
      </trkpt>
      <trkpt lat="43.23377" lon="6.0335">
        <ele>220.3359375</ele>
        <time>2022-04-10T09:25:12Z</time>
      </trkpt>
      <trkpt lat="43.23391" lon="6.03392">
        <ele>220.2578125</ele>
        <time>2022-04-10T09:25:23Z</time>
      </trkpt>
      <trkpt lat="43.23416" lon="6.03437">
        <ele>223.90234375</ele>
        <time>2022-04-10T09:25:36Z</time>
      </trkpt>
      <trkpt lat="43.23421" lon="6.03447">
        <ele>223.84765625</ele>
        <time>2022-04-10T09:25:39Z</time>
      </trkpt>
      <trkpt lat="43.23433" lon="6.03492">
        <ele>219.97265625</ele>
        <time>2022-04-10T09:25:52Z</time>
      </trkpt>
      <trkpt lat="43.23466" lon="6.03524">
        <ele>217.81640625</ele>
        <time>2022-04-10T09:26:05Z</time>
      </trkpt>
      <trkpt lat="43.23494" lon="6.03542">
        <ele>217.04296875</ele>
        <time>2022-04-10T09:26:13Z</time>
      </trkpt>
      <trkpt lat="43.23518" lon="6.03558">
        <ele>217.01171875</ele>
        <time>2022-04-10T09:26:19Z</time>
      </trkpt>
      <trkpt lat="43.23527" lon="6.03567">
        <ele>217.0625</ele>
        <time>2022-04-10T09:26:29Z</time>
      </trkpt>
      <trkpt lat="43.23531" lon="6.03564">
        <ele>217.38671875</ele>
        <time>2022-04-10T09:26:56Z</time>
      </trkpt>
      <trkpt lat="43.23533" lon="6.03566">
        <ele>217.44921875</ele>
        <time>2022-04-10T09:27:34Z</time>
      </trkpt>
      <trkpt lat="43.23531" lon="6.0357">
        <ele>217.1875</ele>
        <time>2022-04-10T09:27:47Z</time>
      </trkpt>
      <trkpt lat="43.23528" lon="6.03571">
        <ele>216.9296875</ele>
        <time>2022-04-10T09:28:17Z</time>
      </trkpt>
      <trkpt lat="43.23526" lon="6.0357">
        <ele>216.81640625</ele>
        <time>2022-04-10T09:28:45Z</time>
      </trkpt>
      <trkpt lat="43.23529" lon="6.0357">
        <ele>217.01953125</ele>
        <time>2022-04-10T09:29:15Z</time>
      </trkpt>
      <trkpt lat="43.23526" lon="6.03569">
        <ele>216.91015625</ele>
        <time>2022-04-10T09:29:34Z</time>
      </trkpt>
      <trkpt lat="43.23527" lon="6.03572">
        <ele>216.81640625</ele>
        <time>2022-04-10T09:30:00Z</time>
      </trkpt>
      <trkpt lat="43.23527" lon="6.03571">
        <ele>216.83984375</ele>
        <time>2022-04-10T09:30:22Z</time>
      </trkpt>
      <trkpt lat="43.23525" lon="6.0357">
        <ele>216.7265625</ele>
        <time>2022-04-10T09:30:45Z</time>
      </trkpt>
      <trkpt lat="43.23523" lon="6.03573">
        <ele>216.53515625</ele>
        <time>2022-04-10T09:31:25Z</time>
      </trkpt>
      <trkpt lat="43.23525" lon="6.03571">
        <ele>216.69921875</ele>
        <time>2022-04-10T09:31:42Z</time>
      </trkpt>
      <trkpt lat="43.23523" lon="6.03569">
        <ele>216.7109375</ele>
        <time>2022-04-10T09:32:07Z</time>
      </trkpt>
      <trkpt lat="43.23522" lon="6.03571">
        <ele>216.546875</ele>
        <time>2022-04-10T09:32:28Z</time>
      </trkpt>
      <trkpt lat="43.23525" lon="6.03568">
        <ele>216.84765625</ele>
        <time>2022-04-10T09:32:49Z</time>
      </trkpt>
      <trkpt lat="43.23524" lon="6.03568">
        <ele>216.8046875</ele>
        <time>2022-04-10T09:33:07Z</time>
      </trkpt>
      <trkpt lat="43.23522" lon="6.03568">
        <ele>216.6640625</ele>
        <time>2022-04-10T09:33:43Z</time>
      </trkpt>
      <trkpt lat="43.23522" lon="6.03568">
        <ele>216.70703125</ele>
        <time>2022-04-10T09:34:22Z</time>
      </trkpt>
      <trkpt lat="43.23523" lon="6.03567">
        <ele>216.7734375</ele>
        <time>2022-04-10T09:34:52Z</time>
      </trkpt>
      <trkpt lat="43.23524" lon="6.03568">
        <ele>216.80859375</ele>
        <time>2022-04-10T09:35:18Z</time>
      </trkpt>
      <trkpt lat="43.23526" lon="6.03571">
        <ele>216.8125</ele>
        <time>2022-04-10T09:35:54Z</time>
      </trkpt>
      <trkpt lat="43.23529" lon="6.0357">
        <ele>217.05078125</ele>
        <time>2022-04-10T09:36:22Z</time>
      </trkpt>
      <trkpt lat="43.23527" lon="6.0357">
        <ele>216.9375</ele>
        <time>2022-04-10T09:37:00Z</time>
      </trkpt>
      <trkpt lat="43.23524" lon="6.03572">
        <ele>216.62109375</ele>
        <time>2022-04-10T09:37:28Z</time>
      </trkpt>
      <trkpt lat="43.23528" lon="6.0357">
        <ele>216.9375</ele>
        <time>2022-04-10T09:38:08Z</time>
      </trkpt>
      <trkpt lat="43.23527" lon="6.03573">
        <ele>216.73046875</ele>
        <time>2022-04-10T09:38:28Z</time>
      </trkpt>
      <trkpt lat="43.23527" lon="6.03573">
        <ele>216.7421875</ele>
        <time>2022-04-10T09:39:01Z</time>
      </trkpt>
      <trkpt lat="43.23524" lon="6.03571">
        <ele>216.703125</ele>
        <time>2022-04-10T09:39:28Z</time>
      </trkpt>
      <trkpt lat="43.23524" lon="6.03571">
        <ele>216.6484375</ele>
        <time>2022-04-10T09:39:59Z</time>
      </trkpt>
      <trkpt lat="43.23527" lon="6.03574">
        <ele>216.73828125</ele>
        <time>2022-04-10T09:40:23Z</time>
      </trkpt>
      <trkpt lat="43.23538" lon="6.03594">
        <ele>216.94921875</ele>
        <time>2022-04-10T09:40:34Z</time>
      </trkpt>
      <trkpt lat="43.23541" lon="6.036">
        <ele>217.10546875</ele>
        <time>2022-04-10T09:40:37Z</time>
      </trkpt>
      <trkpt lat="43.23542" lon="6.03603">
        <ele>217.09765625</ele>
        <time>2022-04-10T09:40:38Z</time>
      </trkpt>
      <trkpt lat="43.23543" lon="6.03605">
        <ele>217.22265625</ele>
        <time>2022-04-10T09:40:39Z</time>
      </trkpt>
      <trkpt lat="43.23545" lon="6.03608">
        <ele>217.484375</ele>
        <time>2022-04-10T09:40:40Z</time>
      </trkpt>
      <trkpt lat="43.23546" lon="6.0361">
        <ele>217.7578125</ele>
        <time>2022-04-10T09:40:41Z</time>
      </trkpt>
      <trkpt lat="43.23562" lon="6.03628">
        <ele>221.015625</ele>
        <time>2022-04-10T09:40:52Z</time>
      </trkpt>
      <trkpt lat="43.23567" lon="6.03637">
        <ele>222.4609375</ele>
        <time>2022-04-10T09:40:55Z</time>
      </trkpt>
      <trkpt lat="43.23569" lon="6.03639">
        <ele>223.11328125</ele>
        <time>2022-04-10T09:40:56Z</time>
      </trkpt>
      <trkpt lat="43.23572" lon="6.0364">
        <ele>223.68359375</ele>
        <time>2022-04-10T09:40:57Z</time>
      </trkpt>
      <trkpt lat="43.23574" lon="6.0364">
        <ele>224.03125</ele>
        <time>2022-04-10T09:40:58Z</time>
      </trkpt>
      <trkpt lat="43.23577" lon="6.0364">
        <ele>224.4453125</ele>
        <time>2022-04-10T09:40:59Z</time>
      </trkpt>
      <trkpt lat="43.236" lon="6.03648">
        <ele>229.48046875</ele>
        <time>2022-04-10T09:41:08Z</time>
      </trkpt>
      <trkpt lat="43.23602" lon="6.03649">
        <ele>230.03515625</ele>
        <time>2022-04-10T09:41:09Z</time>
      </trkpt>
      <trkpt lat="43.23604" lon="6.03651">
        <ele>230.8828125</ele>
        <time>2022-04-10T09:41:10Z</time>
      </trkpt>
      <trkpt lat="43.23604" lon="6.03654">
        <ele>231.51171875</ele>
        <time>2022-04-10T09:41:11Z</time>
      </trkpt>
      <trkpt lat="43.23604" lon="6.03657">
        <ele>231.94140625</ele>
        <time>2022-04-10T09:41:12Z</time>
      </trkpt>
      <trkpt lat="43.23603" lon="6.03659">
        <ele>232.140625</ele>
        <time>2022-04-10T09:41:13Z</time>
      </trkpt>
      <trkpt lat="43.23602" lon="6.03661">
        <ele>232.15234375</ele>
        <time>2022-04-10T09:41:14Z</time>
      </trkpt>
      <trkpt lat="43.236" lon="6.03662">
        <ele>232.1171875</ele>
        <time>2022-04-10T09:41:15Z</time>
      </trkpt>
      <trkpt lat="43.23592" lon="6.03671">
        <ele>231.9765625</ele>
        <time>2022-04-10T09:41:20Z</time>
      </trkpt>
      <trkpt lat="43.23588" lon="6.03692">
        <ele>234.89453125</ele>
        <time>2022-04-10T09:41:27Z</time>
      </trkpt>
      <trkpt lat="43.23589" lon="6.03695">
        <ele>235.8125</ele>
        <time>2022-04-10T09:41:28Z</time>
      </trkpt>
      <trkpt lat="43.236" lon="6.03741">
        <ele>250.11328125</ele>
        <time>2022-04-10T09:41:43Z</time>
      </trkpt>
      <trkpt lat="43.23599" lon="6.03744">
        <ele>250.4296875</ele>
        <time>2022-04-10T09:41:44Z</time>
      </trkpt>
      <trkpt lat="43.23598" lon="6.03747">
        <ele>250.8984375</ele>
        <time>2022-04-10T09:41:45Z</time>
      </trkpt>
      <trkpt lat="43.23596" lon="6.0375">
        <ele>251.265625</ele>
        <time>2022-04-10T09:41:46Z</time>
      </trkpt>
      <trkpt lat="43.23594" lon="6.03753">
        <ele>251.51171875</ele>
        <time>2022-04-10T09:41:47Z</time>
      </trkpt>
      <trkpt lat="43.23558" lon="6.03776">
        <ele>248.5234375</ele>
        <time>2022-04-10T09:42:02Z</time>
      </trkpt>
      <trkpt lat="43.23521" lon="6.03785">
        <ele>244.1328125</ele>
        <time>2022-04-10T09:42:16Z</time>
      </trkpt>
      <trkpt lat="43.23483" lon="6.03818">
        <ele>248.83984375</ele>
        <time>2022-04-10T09:42:32Z</time>
      </trkpt>
      <trkpt lat="43.2347" lon="6.03841">
        <ele>252.0703125</ele>
        <time>2022-04-10T09:42:40Z</time>
      </trkpt>
      <trkpt lat="43.23452" lon="6.03893">
        <ele>258.03125</ele>
        <time>2022-04-10T09:42:54Z</time>
      </trkpt>
      <trkpt lat="43.23429" lon="6.03933">
        <ele>261.4375</ele>
        <time>2022-04-10T09:43:08Z</time>
      </trkpt>
      <trkpt lat="43.23402" lon="6.03908">
        <ele>251.7109375</ele>
        <time>2022-04-10T09:43:18Z</time>
      </trkpt>
      <trkpt lat="43.2337" lon="6.03911">
        <ele>252.03125</ele>
        <time>2022-04-10T09:43:28Z</time>
      </trkpt>
      <trkpt lat="43.23343" lon="6.03945">
        <ele>258.69921875</ele>
        <time>2022-04-10T09:43:41Z</time>
      </trkpt>
      <trkpt lat="43.23336" lon="6.03964">
        <ele>262.0859375</ele>
        <time>2022-04-10T09:43:46Z</time>
      </trkpt>
      <trkpt lat="43.23314" lon="6.04007">
        <ele>264.7578125</ele>
        <time>2022-04-10T09:43:57Z</time>
      </trkpt>
      <trkpt lat="43.2329" lon="6.04034">
        <ele>265.97265625</ele>
        <time>2022-04-10T09:44:06Z</time>
      </trkpt>
      <trkpt lat="43.23287" lon="6.04033">
        <ele>265.5</ele>
        <time>2022-04-10T09:44:07Z</time>
      </trkpt>
      <trkpt lat="43.23283" lon="6.04031">
        <ele>264.8359375</ele>
        <time>2022-04-10T09:44:08Z</time>
      </trkpt>
      <trkpt lat="43.23236" lon="6.03995">
        <ele>260.01953125</ele>
        <time>2022-04-10T09:44:22Z</time>
      </trkpt>
      <trkpt lat="43.23229" lon="6.03988">
        <ele>259.69140625</ele>
        <time>2022-04-10T09:44:24Z</time>
      </trkpt>
      <trkpt lat="43.23225" lon="6.03985">
        <ele>259.49609375</ele>
        <time>2022-04-10T09:44:25Z</time>
      </trkpt>
      <trkpt lat="43.23182" lon="6.03939">
        <ele>257.33984375</ele>
        <time>2022-04-10T09:44:39Z</time>
      </trkpt>
      <trkpt lat="43.23164" lon="6.03918">
        <ele>257.52734375</ele>
        <time>2022-04-10T09:44:44Z</time>
      </trkpt>
      <trkpt lat="43.23152" lon="6.03899">
        <ele>256.99609375</ele>
        <time>2022-04-10T09:44:48Z</time>
      </trkpt>
      <trkpt lat="43.23149" lon="6.03894">
        <ele>256.83984375</ele>
        <time>2022-04-10T09:44:49Z</time>
      </trkpt>
      <trkpt lat="43.23146" lon="6.0389">
        <ele>256.69921875</ele>
        <time>2022-04-10T09:44:50Z</time>
      </trkpt>
      <trkpt lat="43.23135" lon="6.0387">
        <ele>255.26171875</ele>
        <time>2022-04-10T09:44:54Z</time>
      </trkpt>
      <trkpt lat="43.23128" lon="6.03846">
        <ele>252.47265625</ele>
        <time>2022-04-10T09:44:58Z</time>
      </trkpt>
      <trkpt lat="43.23119" lon="6.03801">
        <ele>246.9765625</ele>
        <time>2022-04-10T09:45:03Z</time>
      </trkpt>
      <trkpt lat="43.23108" lon="6.03758">
        <ele>242.59765625</ele>
        <time>2022-04-10T09:45:07Z</time>
      </trkpt>
      <trkpt lat="43.23099" lon="6.03737">
        <ele>241.08203125</ele>
        <time>2022-04-10T09:45:09Z</time>
      </trkpt>
      <trkpt lat="43.23092" lon="6.03728">
        <ele>240.6171875</ele>
        <time>2022-04-10T09:45:10Z</time>
      </trkpt>
      <trkpt lat="43.23084" lon="6.0372">
        <ele>240.84765625</ele>
        <time>2022-04-10T09:45:11Z</time>
      </trkpt>
      <trkpt lat="43.23068" lon="6.03705">
        <ele>242.4765625</ele>
        <time>2022-04-10T09:45:13Z</time>
      </trkpt>
      <trkpt lat="43.23062" lon="6.03696">
        <ele>242.66796875</ele>
        <time>2022-04-10T09:45:14Z</time>
      </trkpt>
      <trkpt lat="43.23017" lon="6.0361">
        <ele>241.06640625</ele>
        <time>2022-04-10T09:45:25Z</time>
      </trkpt>
      <trkpt lat="43.23004" lon="6.03584">
        <ele>240.9765625</ele>
        <time>2022-04-10T09:45:29Z</time>
      </trkpt>
      <trkpt lat="43.23002" lon="6.03578">
        <ele>240.7578125</ele>
        <time>2022-04-10T09:45:30Z</time>
      </trkpt>
      <trkpt lat="43.23" lon="6.03571">
        <ele>240.4453125</ele>
        <time>2022-04-10T09:45:31Z</time>
      </trkpt>
      <trkpt lat="43.22999" lon="6.03563">
        <ele>239.90625</ele>
        <time>2022-04-10T09:45:32Z</time>
      </trkpt>
      <trkpt lat="43.22998" lon="6.03555">
        <ele>239.1640625</ele>
        <time>2022-04-10T09:45:33Z</time>
      </trkpt>
      <trkpt lat="43.22998" lon="6.03547">
        <ele>238.2734375</ele>
        <time>2022-04-10T09:45:34Z</time>
      </trkpt>
      <trkpt lat="43.22998" lon="6.03538">
        <ele>237.34765625</ele>
        <time>2022-04-10T09:45:35Z</time>
      </trkpt>
      <trkpt lat="43.22995" lon="6.03497">
        <ele>234.40234375</ele>
        <time>2022-04-10T09:45:39Z</time>
      </trkpt>
      <trkpt lat="43.22994" lon="6.03486">
        <ele>233.71875</ele>
        <time>2022-04-10T09:45:40Z</time>
      </trkpt>
      <trkpt lat="43.22993" lon="6.03475">
        <ele>232.87890625</ele>
        <time>2022-04-10T09:45:41Z</time>
      </trkpt>
      <trkpt lat="43.22991" lon="6.03439">
        <ele>229.2890625</ele>
        <time>2022-04-10T09:45:44Z</time>
      </trkpt>
      <trkpt lat="43.2299" lon="6.03402">
        <ele>225.47265625</ele>
        <time>2022-04-10T09:45:47Z</time>
      </trkpt>
      <trkpt lat="43.22983" lon="6.03354">
        <ele>221.8671875</ele>
        <time>2022-04-10T09:45:51Z</time>
      </trkpt>
      <trkpt lat="43.2298" lon="6.03344">
        <ele>221.55859375</ele>
        <time>2022-04-10T09:45:52Z</time>
      </trkpt>
      <trkpt lat="43.22976" lon="6.03335">
        <ele>221.60546875</ele>
        <time>2022-04-10T09:45:53Z</time>
      </trkpt>
      <trkpt lat="43.2297" lon="6.03326">
        <ele>221.91796875</ele>
        <time>2022-04-10T09:45:54Z</time>
      </trkpt>
      <trkpt lat="43.22964" lon="6.03318">
        <ele>221.8046875</ele>
        <time>2022-04-10T09:45:55Z</time>
      </trkpt>
      <trkpt lat="43.22957" lon="6.03311">
        <ele>221.93359375</ele>
        <time>2022-04-10T09:45:56Z</time>
      </trkpt>
      <trkpt lat="43.2295" lon="6.03305">
        <ele>222.49609375</ele>
        <time>2022-04-10T09:45:57Z</time>
      </trkpt>
      <trkpt lat="43.22942" lon="6.033">
        <ele>222.8671875</ele>
        <time>2022-04-10T09:45:58Z</time>
      </trkpt>
      <trkpt lat="43.22909" lon="6.03283">
        <ele>223.1640625</ele>
        <time>2022-04-10T09:46:02Z</time>
      </trkpt>
      <trkpt lat="43.22895" lon="6.03275">
        <ele>222.015625</ele>
        <time>2022-04-10T09:46:04Z</time>
      </trkpt>
      <trkpt lat="43.22888" lon="6.03269">
        <ele>220.5625</ele>
        <time>2022-04-10T09:46:05Z</time>
      </trkpt>
      <trkpt lat="43.22875" lon="6.03256">
        <ele>217.00390625</ele>
        <time>2022-04-10T09:46:07Z</time>
      </trkpt>
      <trkpt lat="43.22869" lon="6.03248">
        <ele>215.234375</ele>
        <time>2022-04-10T09:46:08Z</time>
      </trkpt>
      <trkpt lat="43.22863" lon="6.03243">
        <ele>213.59375</ele>
        <time>2022-04-10T09:46:09Z</time>
      </trkpt>
      <trkpt lat="43.22858" lon="6.03241">
        <ele>212.6015625</ele>
        <time>2022-04-10T09:46:10Z</time>
      </trkpt>
      <trkpt lat="43.22854" lon="6.03242">
        <ele>212.7265625</ele>
        <time>2022-04-10T09:46:11Z</time>
      </trkpt>
      <trkpt lat="43.22851" lon="6.03246">
        <ele>213.390625</ele>
        <time>2022-04-10T09:46:12Z</time>
      </trkpt>
      <trkpt lat="43.22849" lon="6.03252">
        <ele>214.1484375</ele>
        <time>2022-04-10T09:46:13Z</time>
      </trkpt>
      <trkpt lat="43.22847" lon="6.03258">
        <ele>215.1328125</ele>
        <time>2022-04-10T09:46:14Z</time>
      </trkpt>
      <trkpt lat="43.22847" lon="6.03266">
        <ele>216.4921875</ele>
        <time>2022-04-10T09:46:15Z</time>
      </trkpt>
      <trkpt lat="43.22848" lon="6.03275">
        <ele>218.015625</ele>
        <time>2022-04-10T09:46:16Z</time>
      </trkpt>
      <trkpt lat="43.22849" lon="6.03284">
        <ele>219.37109375</ele>
        <time>2022-04-10T09:46:17Z</time>
      </trkpt>
      <trkpt lat="43.22849" lon="6.03294">
        <ele>220.671875</ele>
        <time>2022-04-10T09:46:18Z</time>
      </trkpt>
      <trkpt lat="43.22848" lon="6.03305">
        <ele>221.7109375</ele>
        <time>2022-04-10T09:46:19Z</time>
      </trkpt>
      <trkpt lat="43.22848" lon="6.03315">
        <ele>222.8125</ele>
        <time>2022-04-10T09:46:20Z</time>
      </trkpt>
      <trkpt lat="43.22849" lon="6.03335">
        <ele>225.2890625</ele>
        <time>2022-04-10T09:46:22Z</time>
      </trkpt>
      <trkpt lat="43.22848" lon="6.03343">
        <ele>225.9609375</ele>
        <time>2022-04-10T09:46:23Z</time>
      </trkpt>
      <trkpt lat="43.22847" lon="6.03349">
        <ele>226.18359375</ele>
        <time>2022-04-10T09:46:24Z</time>
      </trkpt>
      <trkpt lat="43.22844" lon="6.03354">
        <ele>225.83984375</ele>
        <time>2022-04-10T09:46:25Z</time>
      </trkpt>
      <trkpt lat="43.2284" lon="6.03356">
        <ele>224.80859375</ele>
        <time>2022-04-10T09:46:26Z</time>
      </trkpt>
      <trkpt lat="43.22835" lon="6.03355">
        <ele>223.82421875</ele>
        <time>2022-04-10T09:46:27Z</time>
      </trkpt>
      <trkpt lat="43.2283" lon="6.03351">
        <ele>222.79296875</ele>
        <time>2022-04-10T09:46:28Z</time>
      </trkpt>
      <trkpt lat="43.22826" lon="6.03345">
        <ele>221.25390625</ele>
        <time>2022-04-10T09:46:29Z</time>
      </trkpt>
      <trkpt lat="43.22822" lon="6.03338">
        <ele>219.328125</ele>
        <time>2022-04-10T09:46:30Z</time>
      </trkpt>
      <trkpt lat="43.22814" lon="6.03323">
        <ele>215.171875</ele>
        <time>2022-04-10T09:46:32Z</time>
      </trkpt>
      <trkpt lat="43.22804" lon="6.0331">
        <ele>212.87890625</ele>
        <time>2022-04-10T09:46:34Z</time>
      </trkpt>
      <trkpt lat="43.22799" lon="6.03304">
        <ele>211.5390625</ele>
        <time>2022-04-10T09:46:35Z</time>
      </trkpt>
      <trkpt lat="43.22793" lon="6.03298">
        <ele>209.89453125</ele>
        <time>2022-04-10T09:46:36Z</time>
      </trkpt>
      <trkpt lat="43.22763" lon="6.03274">
        <ele>205.87109375</ele>
        <time>2022-04-10T09:46:41Z</time>
      </trkpt>
      <trkpt lat="43.2275" lon="6.03262">
        <ele>204.47265625</ele>
        <time>2022-04-10T09:46:44Z</time>
      </trkpt>
      <trkpt lat="43.22746" lon="6.03259">
        <ele>203.890625</ele>
        <time>2022-04-10T09:46:45Z</time>
      </trkpt>
      <trkpt lat="43.22737" lon="6.03246">
        <ele>200.48046875</ele>
        <time>2022-04-10T09:46:48Z</time>
      </trkpt>
      <trkpt lat="43.22723" lon="6.03234">
        <ele>197.71875</ele>
        <time>2022-04-10T09:46:51Z</time>
      </trkpt>
      <trkpt lat="43.22719" lon="6.03229">
        <ele>196.9453125</ele>
        <time>2022-04-10T09:46:52Z</time>
      </trkpt>
      <trkpt lat="43.22701" lon="6.03204">
        <ele>192.42578125</ele>
        <time>2022-04-10T09:46:56Z</time>
      </trkpt>
      <trkpt lat="43.22696" lon="6.03199">
        <ele>191.640625</ele>
        <time>2022-04-10T09:46:57Z</time>
      </trkpt>
      <trkpt lat="43.22691" lon="6.03195">
        <ele>191.21484375</ele>
        <time>2022-04-10T09:46:58Z</time>
      </trkpt>
      <trkpt lat="43.22686" lon="6.03192">
        <ele>191.30859375</ele>
        <time>2022-04-10T09:46:59Z</time>
      </trkpt>
      <trkpt lat="43.22682" lon="6.03191">
        <ele>191.890625</ele>
        <time>2022-04-10T09:47:00Z</time>
      </trkpt>
      <trkpt lat="43.22677" lon="6.0319">
        <ele>192.88671875</ele>
        <time>2022-04-10T09:47:01Z</time>
      </trkpt>
      <trkpt lat="43.22672" lon="6.03191">
        <ele>194.08984375</ele>
        <time>2022-04-10T09:47:02Z</time>
      </trkpt>
      <trkpt lat="43.22662" lon="6.03192">
        <ele>196.1796875</ele>
        <time>2022-04-10T09:47:04Z</time>
      </trkpt>
      <trkpt lat="43.22646" lon="6.03198">
        <ele>200.68359375</ele>
        <time>2022-04-10T09:47:07Z</time>
      </trkpt>
      <trkpt lat="43.22641" lon="6.03199">
        <ele>201.26171875</ele>
        <time>2022-04-10T09:47:08Z</time>
      </trkpt>
      <trkpt lat="43.22622" lon="6.03204">
        <ele>201.74609375</ele>
        <time>2022-04-10T09:47:11Z</time>
      </trkpt>
      <trkpt lat="43.2261" lon="6.03209">
        <ele>202.25</ele>
        <time>2022-04-10T09:47:13Z</time>
      </trkpt>
      <trkpt lat="43.226" lon="6.03216">
        <ele>203.16796875</ele>
        <time>2022-04-10T09:47:15Z</time>
      </trkpt>
      <trkpt lat="43.22596" lon="6.03216">
        <ele>202.41796875</ele>
        <time>2022-04-10T09:47:16Z</time>
      </trkpt>
      <trkpt lat="43.22593" lon="6.03213">
        <ele>200.5</ele>
        <time>2022-04-10T09:47:17Z</time>
      </trkpt>
      <trkpt lat="43.22591" lon="6.03207">
        <ele>197.73046875</ele>
        <time>2022-04-10T09:47:18Z</time>
      </trkpt>
      <trkpt lat="43.2259" lon="6.03201">
        <ele>194.71875</ele>
        <time>2022-04-10T09:47:19Z</time>
      </trkpt>
      <trkpt lat="43.22591" lon="6.03193">
        <ele>191.828125</ele>
        <time>2022-04-10T09:47:20Z</time>
      </trkpt>
      <trkpt lat="43.22593" lon="6.03186">
        <ele>189.4375</ele>
        <time>2022-04-10T09:47:21Z</time>
      </trkpt>
      <trkpt lat="43.22596" lon="6.03179">
        <ele>188.1875</ele>
        <time>2022-04-10T09:47:22Z</time>
      </trkpt>
      <trkpt lat="43.22599" lon="6.03172">
        <ele>187.0234375</ele>
        <time>2022-04-10T09:47:23Z</time>
      </trkpt>
      <trkpt lat="43.22603" lon="6.03166">
        <ele>185.71484375</ele>
        <time>2022-04-10T09:47:24Z</time>
      </trkpt>
      <trkpt lat="43.22607" lon="6.03161">
        <ele>184.421875</ele>
        <time>2022-04-10T09:47:25Z</time>
      </trkpt>
      <trkpt lat="43.2261" lon="6.03156">
        <ele>183.48046875</ele>
        <time>2022-04-10T09:47:26Z</time>
      </trkpt>
      <trkpt lat="43.22622" lon="6.03133">
        <ele>176.86328125</ele>
        <time>2022-04-10T09:47:30Z</time>
      </trkpt>
      <trkpt lat="43.22625" lon="6.03126">
        <ele>175.18359375</ele>
        <time>2022-04-10T09:47:31Z</time>
      </trkpt>
      <trkpt lat="43.2263" lon="6.03109">
        <ele>171.3125</ele>
        <time>2022-04-10T09:47:33Z</time>
      </trkpt>
      <trkpt lat="43.22632" lon="6.031">
        <ele>169.41015625</ele>
        <time>2022-04-10T09:47:34Z</time>
      </trkpt>
      <trkpt lat="43.22634" lon="6.03092">
        <ele>167.6015625</ele>
        <time>2022-04-10T09:47:35Z</time>
      </trkpt>
      <trkpt lat="43.22638" lon="6.03073">
        <ele>163.83203125</ele>
        <time>2022-04-10T09:47:37Z</time>
      </trkpt>
      <trkpt lat="43.22638" lon="6.03064">
        <ele>162.54296875</ele>
        <time>2022-04-10T09:47:38Z</time>
      </trkpt>
      <trkpt lat="43.22636" lon="6.03055">
        <ele>161.67578125</ele>
        <time>2022-04-10T09:47:39Z</time>
      </trkpt>
      <trkpt lat="43.22633" lon="6.03046">
        <ele>161.27734375</ele>
        <time>2022-04-10T09:47:40Z</time>
      </trkpt>
      <trkpt lat="43.2263" lon="6.03038">
        <ele>161.12890625</ele>
        <time>2022-04-10T09:47:41Z</time>
      </trkpt>
      <trkpt lat="43.22626" lon="6.03031">
        <ele>160.97265625</ele>
        <time>2022-04-10T09:47:42Z</time>
      </trkpt>
      <trkpt lat="43.22615" lon="6.0301">
        <ele>160.68359375</ele>
        <time>2022-04-10T09:47:45Z</time>
      </trkpt>
      <trkpt lat="43.22611" lon="6.03004">
        <ele>161.00390625</ele>
        <time>2022-04-10T09:47:46Z</time>
      </trkpt>
      <trkpt lat="43.22606" lon="6.02997">
        <ele>161.08203125</ele>
        <time>2022-04-10T09:47:47Z</time>
      </trkpt>
      <trkpt lat="43.22602" lon="6.0299">
        <ele>160.515625</ele>
        <time>2022-04-10T09:47:48Z</time>
      </trkpt>
      <trkpt lat="43.22596" lon="6.02983">
        <ele>159.703125</ele>
        <time>2022-04-10T09:47:49Z</time>
      </trkpt>
      <trkpt lat="43.22591" lon="6.02976">
        <ele>158.75</ele>
        <time>2022-04-10T09:47:50Z</time>
      </trkpt>
      <trkpt lat="43.22574" lon="6.02957">
        <ele>158.05859375</ele>
        <time>2022-04-10T09:47:53Z</time>
      </trkpt>
      <trkpt lat="43.2257" lon="6.02949">
        <ele>157.4375</ele>
        <time>2022-04-10T09:47:54Z</time>
      </trkpt>
      <trkpt lat="43.22562" lon="6.02933">
        <ele>155.609375</ele>
        <time>2022-04-10T09:47:56Z</time>
      </trkpt>
      <trkpt lat="43.22542" lon="6.02877">
        <ele>150.00390625</ele>
        <time>2022-04-10T09:48:02Z</time>
      </trkpt>
      <trkpt lat="43.22537" lon="6.02867">
        <ele>148.98046875</ele>
        <time>2022-04-10T09:48:03Z</time>
      </trkpt>
      <trkpt lat="43.22527" lon="6.02848">
        <ele>148.32421875</ele>
        <time>2022-04-10T09:48:05Z</time>
      </trkpt>
      <trkpt lat="43.22515" lon="6.02817">
        <ele>148.265625</ele>
        <time>2022-04-10T09:48:08Z</time>
      </trkpt>
      <trkpt lat="43.225" lon="6.02777">
        <ele>145.09765625</ele>
        <time>2022-04-10T09:48:12Z</time>
      </trkpt>
      <trkpt lat="43.22493" lon="6.0276">
        <ele>144.74609375</ele>
        <time>2022-04-10T09:48:14Z</time>
      </trkpt>
      <trkpt lat="43.22485" lon="6.02746">
        <ele>144.23046875</ele>
        <time>2022-04-10T09:48:16Z</time>
      </trkpt>
      <trkpt lat="43.22483" lon="6.0274">
        <ele>143.765625</ele>
        <time>2022-04-10T09:48:17Z</time>
      </trkpt>
      <trkpt lat="43.22482" lon="6.02736">
        <ele>143.30859375</ele>
        <time>2022-04-10T09:48:18Z</time>
      </trkpt>
      <trkpt lat="43.22482" lon="6.02727">
        <ele>142.15234375</ele>
        <time>2022-04-10T09:48:24Z</time>
      </trkpt>
      <trkpt lat="43.22482" lon="6.02724">
        <ele>141.76171875</ele>
        <time>2022-04-10T09:48:25Z</time>
      </trkpt>
      <trkpt lat="43.22481" lon="6.0272">
        <ele>141.2109375</ele>
        <time>2022-04-10T09:48:26Z</time>
      </trkpt>
      <trkpt lat="43.2248" lon="6.02714">
        <ele>140.671875</ele>
        <time>2022-04-10T09:48:27Z</time>
      </trkpt>
      <trkpt lat="43.22479" lon="6.02708">
        <ele>140.34375</ele>
        <time>2022-04-10T09:48:28Z</time>
      </trkpt>
      <trkpt lat="43.22475" lon="6.02694">
        <ele>139.96484375</ele>
        <time>2022-04-10T09:48:30Z</time>
      </trkpt>
      <trkpt lat="43.22453" lon="6.02614">
        <ele>135.20703125</ele>
        <time>2022-04-10T09:48:39Z</time>
      </trkpt>
      <trkpt lat="43.2245" lon="6.02606">
        <ele>134.05078125</ele>
        <time>2022-04-10T09:48:40Z</time>
      </trkpt>
      <trkpt lat="43.22446" lon="6.02597">
        <ele>134.390625</ele>
        <time>2022-04-10T09:48:41Z</time>
      </trkpt>
      <trkpt lat="43.22441" lon="6.0259">
        <ele>134.79296875</ele>
        <time>2022-04-10T09:48:42Z</time>
      </trkpt>
      <trkpt lat="43.22421" lon="6.02559">
        <ele>135.8671875</ele>
        <time>2022-04-10T09:48:46Z</time>
      </trkpt>
      <trkpt lat="43.22415" lon="6.02552">
        <ele>136.00390625</ele>
        <time>2022-04-10T09:48:47Z</time>
      </trkpt>
      <trkpt lat="43.22404" lon="6.0254">
        <ele>135.35546875</ele>
        <time>2022-04-10T09:48:49Z</time>
      </trkpt>
      <trkpt lat="43.22399" lon="6.02535">
        <ele>134.66015625</ele>
        <time>2022-04-10T09:48:50Z</time>
      </trkpt>
      <trkpt lat="43.22395" lon="6.02529">
        <ele>133.5390625</ele>
        <time>2022-04-10T09:48:51Z</time>
      </trkpt>
      <trkpt lat="43.22381" lon="6.02502">
        <ele>132.125</ele>
        <time>2022-04-10T09:48:55Z</time>
      </trkpt>
      <trkpt lat="43.22377" lon="6.02495">
        <ele>131.90234375</ele>
        <time>2022-04-10T09:48:56Z</time>
      </trkpt>
      <trkpt lat="43.22374" lon="6.02487">
        <ele>131.5078125</ele>
        <time>2022-04-10T09:48:57Z</time>
      </trkpt>
      <trkpt lat="43.22372" lon="6.02478">
        <ele>130.9296875</ele>
        <time>2022-04-10T09:48:58Z</time>
      </trkpt>
      <trkpt lat="43.2236" lon="6.02443">
        <ele>127.60546875</ele>
        <time>2022-04-10T09:49:02Z</time>
      </trkpt>
      <trkpt lat="43.22343" lon="6.02406">
        <ele>126.91015625</ele>
        <time>2022-04-10T09:49:06Z</time>
      </trkpt>
      <trkpt lat="43.22333" lon="6.02389">
        <ele>126.87109375</ele>
        <time>2022-04-10T09:49:08Z</time>
      </trkpt>
      <trkpt lat="43.22306" lon="6.02347">
        <ele>125.9609375</ele>
        <time>2022-04-10T09:49:16Z</time>
      </trkpt>
      <trkpt lat="43.22299" lon="6.02342">
        <ele>125.96875</ele>
        <time>2022-04-10T09:49:27Z</time>
      </trkpt>
      <trkpt lat="43.22296" lon="6.0234">
        <ele>125.796875</ele>
        <time>2022-04-10T09:49:52Z</time>
      </trkpt>
      <trkpt lat="43.22294" lon="6.02338">
        <ele>125.703125</ele>
        <time>2022-04-10T09:49:53Z</time>
      </trkpt>
      <trkpt lat="43.2229" lon="6.02337">
        <ele>125.76171875</ele>
        <time>2022-04-10T09:49:54Z</time>
      </trkpt>
      <trkpt lat="43.22285" lon="6.02337">
        <ele>126.0625</ele>
        <time>2022-04-10T09:49:55Z</time>
      </trkpt>
      <trkpt lat="43.22279" lon="6.02338">
        <ele>126.71875</ele>
        <time>2022-04-10T09:49:56Z</time>
      </trkpt>
      <trkpt lat="43.22274" lon="6.02337">
        <ele>127.375</ele>
        <time>2022-04-10T09:49:57Z</time>
      </trkpt>
      <trkpt lat="43.22268" lon="6.02336">
        <ele>127.86328125</ele>
        <time>2022-04-10T09:49:58Z</time>
      </trkpt>
      <trkpt lat="43.22263" lon="6.02335">
        <ele>128.15234375</ele>
        <time>2022-04-10T09:49:59Z</time>
      </trkpt>
      <trkpt lat="43.22257" lon="6.02332">
        <ele>128.20703125</ele>
        <time>2022-04-10T09:50:00Z</time>
      </trkpt>
      <trkpt lat="43.22252" lon="6.0233">
        <ele>128.0546875</ele>
        <time>2022-04-10T09:50:01Z</time>
      </trkpt>
      <trkpt lat="43.22224" lon="6.02314">
        <ele>126.48046875</ele>
        <time>2022-04-10T09:50:06Z</time>
      </trkpt>
      <trkpt lat="43.22215" lon="6.02307">
        <ele>125.46875</ele>
        <time>2022-04-10T09:50:08Z</time>
      </trkpt>
      <trkpt lat="43.22199" lon="6.02294">
        <ele>123.92578125</ele>
        <time>2022-04-10T09:50:11Z</time>
      </trkpt>
      <trkpt lat="43.22192" lon="6.02292">
        <ele>124.296875</ele>
        <time>2022-04-10T09:50:12Z</time>
      </trkpt>
      <trkpt lat="43.22184" lon="6.0229">
        <ele>124.85546875</ele>
        <time>2022-04-10T09:50:13Z</time>
      </trkpt>
      <trkpt lat="43.22178" lon="6.02286">
        <ele>124.91796875</ele>
        <time>2022-04-10T09:50:14Z</time>
      </trkpt>
      <trkpt lat="43.22173" lon="6.02282">
        <ele>124.33203125</ele>
        <time>2022-04-10T09:50:15Z</time>
      </trkpt>
      <trkpt lat="43.2217" lon="6.02277">
        <ele>123.27734375</ele>
        <time>2022-04-10T09:50:16Z</time>
      </trkpt>
      <trkpt lat="43.22167" lon="6.0227">
        <ele>121.90234375</ele>
        <time>2022-04-10T09:50:17Z</time>
      </trkpt>
      <trkpt lat="43.22165" lon="6.02263">
        <ele>120.62109375</ele>
        <time>2022-04-10T09:50:18Z</time>
      </trkpt>
      <trkpt lat="43.22164" lon="6.02257">
        <ele>119.3984375</ele>
        <time>2022-04-10T09:50:19Z</time>
      </trkpt>
      <trkpt lat="43.22163" lon="6.02251">
        <ele>118.30859375</ele>
        <time>2022-04-10T09:50:20Z</time>
      </trkpt>
      <trkpt lat="43.22162" lon="6.02247">
        <ele>117.515625</ele>
        <time>2022-04-10T09:50:21Z</time>
      </trkpt>
      <trkpt lat="43.22161" lon="6.02245">
        <ele>117.1015625</ele>
        <time>2022-04-10T09:50:22Z</time>
      </trkpt>
      <trkpt lat="43.22157" lon="6.02243">
        <ele>116.94921875</ele>
        <time>2022-04-10T09:50:34Z</time>
      </trkpt>
      <trkpt lat="43.22156" lon="6.02241">
        <ele>116.74609375</ele>
        <time>2022-04-10T09:50:50Z</time>
      </trkpt>
      <trkpt lat="43.2216" lon="6.02242">
        <ele>116.87109375</ele>
        <time>2022-04-10T09:51:14Z</time>
      </trkpt>
      <trkpt lat="43.22155" lon="6.02244">
        <ele>116.95703125</ele>
        <time>2022-04-10T09:51:26Z</time>
      </trkpt>
      <trkpt lat="43.22155" lon="6.02245">
        <ele>117.1328125</ele>
        <time>2022-04-10T09:51:53Z</time>
      </trkpt>
      <trkpt lat="43.22155" lon="6.02246">
        <ele>117.42578125</ele>
        <time>2022-04-10T09:52:31Z</time>
      </trkpt>
      <trkpt lat="43.22155" lon="6.02242">
        <ele>116.86328125</ele>
        <time>2022-04-10T09:52:58Z</time>
      </trkpt>
      <trkpt lat="43.2215" lon="6.02244">
        <ele>116.984375</ele>
        <time>2022-04-10T09:53:37Z</time>
      </trkpt>
      <trkpt lat="43.2215" lon="6.02254">
        <ele>119.03515625</ele>
        <time>2022-04-10T09:54:04Z</time>
      </trkpt>
      <trkpt lat="43.22147" lon="6.02255">
        <ele>119.3671875</ele>
        <time>2022-04-10T09:54:23Z</time>
      </trkpt>
      <trkpt lat="43.22105" lon="6.02258">
        <ele>118.85546875</ele>
        <time>2022-04-10T09:54:34Z</time>
      </trkpt>
      <trkpt lat="43.22042" lon="6.02261">
        <ele>114.23046875</ele>
        <time>2022-04-10T09:54:47Z</time>
      </trkpt>
      <trkpt lat="43.22005" lon="6.02258">
        <ele>112.46875</ele>
        <time>2022-04-10T09:54:54Z</time>
      </trkpt>
      <trkpt lat="43.21989" lon="6.02262">
        <ele>111.86328125</ele>
        <time>2022-04-10T09:54:57Z</time>
      </trkpt>
      <trkpt lat="43.21984" lon="6.02265">
        <ele>111.5625</ele>
        <time>2022-04-10T09:54:58Z</time>
      </trkpt>
      <trkpt lat="43.21979" lon="6.02269">
        <ele>111.1875</ele>
        <time>2022-04-10T09:54:59Z</time>
      </trkpt>
      <trkpt lat="43.21975" lon="6.02273">
        <ele>111.15234375</ele>
        <time>2022-04-10T09:55:00Z</time>
      </trkpt>
      <trkpt lat="43.21971" lon="6.02278">
        <ele>111.4296875</ele>
        <time>2022-04-10T09:55:01Z</time>
      </trkpt>
      <trkpt lat="43.21967" lon="6.02284">
        <ele>111.65234375</ele>
        <time>2022-04-10T09:55:02Z</time>
      </trkpt>
      <trkpt lat="43.21964" lon="6.0229">
        <ele>111.8203125</ele>
        <time>2022-04-10T09:55:03Z</time>
      </trkpt>
      <trkpt lat="43.21961" lon="6.02295">
        <ele>111.9375</ele>
        <time>2022-04-10T09:55:04Z</time>
      </trkpt>
      <trkpt lat="43.21958" lon="6.02301">
        <ele>112.01171875</ele>
        <time>2022-04-10T09:55:05Z</time>
      </trkpt>
      <trkpt lat="43.21954" lon="6.02306">
        <ele>112.03125</ele>
        <time>2022-04-10T09:55:06Z</time>
      </trkpt>
      <trkpt lat="43.2195" lon="6.0231">
        <ele>112</ele>
        <time>2022-04-10T09:55:07Z</time>
      </trkpt>
      <trkpt lat="43.21945" lon="6.02313">
        <ele>112.0859375</ele>
        <time>2022-04-10T09:55:08Z</time>
      </trkpt>
      <trkpt lat="43.21941" lon="6.02315">
        <ele>112.14453125</ele>
        <time>2022-04-10T09:55:09Z</time>
      </trkpt>
      <trkpt lat="43.21936" lon="6.02317">
        <ele>112.1796875</ele>
        <time>2022-04-10T09:55:10Z</time>
      </trkpt>
      <trkpt lat="43.21915" lon="6.02328">
        <ele>112.234375</ele>
        <time>2022-04-10T09:55:15Z</time>
      </trkpt>
      <trkpt lat="43.21912" lon="6.02331">
        <ele>112.26171875</ele>
        <time>2022-04-10T09:55:16Z</time>
      </trkpt>
      <trkpt lat="43.21887" lon="6.02353">
        <ele>112.66015625</ele>
        <time>2022-04-10T09:55:24Z</time>
      </trkpt>
      <trkpt lat="43.21883" lon="6.02355">
        <ele>112.87890625</ele>
        <time>2022-04-10T09:55:25Z</time>
      </trkpt>
      <trkpt lat="43.21879" lon="6.02356">
        <ele>113.09765625</ele>
        <time>2022-04-10T09:55:26Z</time>
      </trkpt>
      <trkpt lat="43.21874" lon="6.02357">
        <ele>113.34375</ele>
        <time>2022-04-10T09:55:27Z</time>
      </trkpt>
      <trkpt lat="43.2187" lon="6.02358">
        <ele>113.5546875</ele>
        <time>2022-04-10T09:55:28Z</time>
      </trkpt>
      <trkpt lat="43.21866" lon="6.02359">
        <ele>113.7734375</ele>
        <time>2022-04-10T09:55:29Z</time>
      </trkpt>
      <trkpt lat="43.21862" lon="6.0236">
        <ele>113.9921875</ele>
        <time>2022-04-10T09:55:30Z</time>
      </trkpt>
      <trkpt lat="43.21858" lon="6.0236">
        <ele>114.2578125</ele>
        <time>2022-04-10T09:55:31Z</time>
      </trkpt>
      <trkpt lat="43.21854" lon="6.02359">
        <ele>114.578125</ele>
        <time>2022-04-10T09:55:32Z</time>
      </trkpt>
      <trkpt lat="43.21826" lon="6.0236">
        <ele>115.95703125</ele>
        <time>2022-04-10T09:55:38Z</time>
      </trkpt>
      <trkpt lat="43.21822" lon="6.02361">
        <ele>115.97265625</ele>
        <time>2022-04-10T09:55:39Z</time>
      </trkpt>
      <trkpt lat="43.21804" lon="6.02366">
        <ele>116.12109375</ele>
        <time>2022-04-10T09:55:43Z</time>
      </trkpt>
      <trkpt lat="43.21786" lon="6.02367">
        <ele>116.57421875</ele>
        <time>2022-04-10T09:55:47Z</time>
      </trkpt>
      <trkpt lat="43.21743" lon="6.02363">
        <ele>116.48046875</ele>
        <time>2022-04-10T09:55:58Z</time>
      </trkpt>
      <trkpt lat="43.21727" lon="6.02366">
        <ele>116.51171875</ele>
        <time>2022-04-10T09:56:01Z</time>
      </trkpt>
      <trkpt lat="43.21688" lon="6.0237">
        <ele>116.5703125</ele>
        <time>2022-04-10T09:56:07Z</time>
      </trkpt>
      <trkpt lat="43.21682" lon="6.02372">
        <ele>116.12890625</ele>
        <time>2022-04-10T09:56:08Z</time>
      </trkpt>
      <trkpt lat="43.21663" lon="6.02379">
        <ele>114.76953125</ele>
        <time>2022-04-10T09:56:11Z</time>
      </trkpt>
      <trkpt lat="43.2162" lon="6.02396">
        <ele>112.18359375</ele>
        <time>2022-04-10T09:56:17Z</time>
      </trkpt>
      <trkpt lat="43.21613" lon="6.02396">
        <ele>112.1328125</ele>
        <time>2022-04-10T09:56:18Z</time>
      </trkpt>
      <trkpt lat="43.21606" lon="6.02396">
        <ele>112.1640625</ele>
        <time>2022-04-10T09:56:19Z</time>
      </trkpt>
      <trkpt lat="43.21581" lon="6.02394">
        <ele>112.09765625</ele>
        <time>2022-04-10T09:56:23Z</time>
      </trkpt>
      <trkpt lat="43.21524" lon="6.02408">
        <ele>109.32421875</ele>
        <time>2022-04-10T09:56:32Z</time>
      </trkpt>
      <trkpt lat="43.21519" lon="6.02413">
        <ele>108.796875</ele>
        <time>2022-04-10T09:56:33Z</time>
      </trkpt>
      <trkpt lat="43.21495" lon="6.02436">
        <ele>107.65234375</ele>
        <time>2022-04-10T09:56:37Z</time>
      </trkpt>
      <trkpt lat="43.21471" lon="6.02451">
        <ele>107.94921875</ele>
        <time>2022-04-10T09:56:41Z</time>
      </trkpt>
      <trkpt lat="43.21466" lon="6.02453">
        <ele>108.12109375</ele>
        <time>2022-04-10T09:56:42Z</time>
      </trkpt>
      <trkpt lat="43.21461" lon="6.02456">
        <ele>108.26171875</ele>
        <time>2022-04-10T09:56:43Z</time>
      </trkpt>
      <trkpt lat="43.21455" lon="6.02457">
        <ele>108.4453125</ele>
        <time>2022-04-10T09:56:44Z</time>
      </trkpt>
      <trkpt lat="43.2145" lon="6.02457">
        <ele>108.65625</ele>
        <time>2022-04-10T09:56:45Z</time>
      </trkpt>
      <trkpt lat="43.21408" lon="6.02465">
        <ele>109.078125</ele>
        <time>2022-04-10T09:56:53Z</time>
      </trkpt>
      <trkpt lat="43.21391" lon="6.02468">
        <ele>109.0625</ele>
        <time>2022-04-10T09:56:56Z</time>
      </trkpt>
      <trkpt lat="43.21386" lon="6.02468">
        <ele>109.2734375</ele>
        <time>2022-04-10T09:56:57Z</time>
      </trkpt>
      <trkpt lat="43.2138" lon="6.02467">
        <ele>109.48046875</ele>
        <time>2022-04-10T09:56:58Z</time>
      </trkpt>
      <trkpt lat="43.21374" lon="6.02467">
        <ele>109.6953125</ele>
        <time>2022-04-10T09:56:59Z</time>
      </trkpt>
      <trkpt lat="43.21367" lon="6.02467">
        <ele>109.93359375</ele>
        <time>2022-04-10T09:57:00Z</time>
      </trkpt>
      <trkpt lat="43.21276" lon="6.02475">
        <ele>108.0078125</ele>
        <time>2022-04-10T09:57:15Z</time>
      </trkpt>
      <trkpt lat="43.21224" lon="6.02492">
        <ele>106.703125</ele>
        <time>2022-04-10T09:57:25Z</time>
      </trkpt>
      <trkpt lat="43.2121" lon="6.02497">
        <ele>107.02734375</ele>
        <time>2022-04-10T09:57:28Z</time>
      </trkpt>
      <trkpt lat="43.21206" lon="6.025">
        <ele>107.00390625</ele>
        <time>2022-04-10T09:57:29Z</time>
      </trkpt>
      <trkpt lat="43.21198" lon="6.02506">
        <ele>106.74609375</ele>
        <time>2022-04-10T09:57:31Z</time>
      </trkpt>
      <trkpt lat="43.2116" lon="6.0253">
        <ele>105.3359375</ele>
        <time>2022-04-10T09:57:39Z</time>
      </trkpt>
      <trkpt lat="43.21155" lon="6.02534">
        <ele>105.390625</ele>
        <time>2022-04-10T09:57:40Z</time>
      </trkpt>
      <trkpt lat="43.21137" lon="6.02551">
        <ele>105.09765625</ele>
        <time>2022-04-10T09:57:44Z</time>
      </trkpt>
      <trkpt lat="43.21131" lon="6.02555">
        <ele>104.890625</ele>
        <time>2022-04-10T09:57:45Z</time>
      </trkpt>
      <trkpt lat="43.21125" lon="6.02558">
        <ele>104.76171875</ele>
        <time>2022-04-10T09:57:46Z</time>
      </trkpt>
      <trkpt lat="43.21119" lon="6.02561">
        <ele>104.70703125</ele>
        <time>2022-04-10T09:57:47Z</time>
      </trkpt>
      <trkpt lat="43.21113" lon="6.02563">
        <ele>104.6171875</ele>
        <time>2022-04-10T09:57:48Z</time>
      </trkpt>
      <trkpt lat="43.21094" lon="6.02566">
        <ele>104.5</ele>
        <time>2022-04-10T09:57:51Z</time>
      </trkpt>
      <trkpt lat="43.21089" lon="6.02566">
        <ele>104.6875</ele>
        <time>2022-04-10T09:57:52Z</time>
      </trkpt>
      <trkpt lat="43.21083" lon="6.02563">
        <ele>105.109375</ele>
        <time>2022-04-10T09:57:53Z</time>
      </trkpt>
      <trkpt lat="43.21078" lon="6.0256">
        <ele>105.703125</ele>
        <time>2022-04-10T09:57:54Z</time>
      </trkpt>
      <trkpt lat="43.21074" lon="6.02556">
        <ele>106.4453125</ele>
        <time>2022-04-10T09:57:55Z</time>
      </trkpt>
      <trkpt lat="43.2107" lon="6.02552">
        <ele>107.2265625</ele>
        <time>2022-04-10T09:57:56Z</time>
      </trkpt>
      <trkpt lat="43.21062" lon="6.02547">
        <ele>108.51953125</ele>
        <time>2022-04-10T09:57:58Z</time>
      </trkpt>
      <trkpt lat="43.21057" lon="6.02545">
        <ele>108.7578125</ele>
        <time>2022-04-10T09:57:59Z</time>
      </trkpt>
      <trkpt lat="43.21053" lon="6.02545">
        <ele>108.83984375</ele>
        <time>2022-04-10T09:58:00Z</time>
      </trkpt>
      <trkpt lat="43.21048" lon="6.02545">
        <ele>108.76953125</ele>
        <time>2022-04-10T09:58:01Z</time>
      </trkpt>
      <trkpt lat="43.21043" lon="6.02546">
        <ele>108.58984375</ele>
        <time>2022-04-10T09:58:02Z</time>
      </trkpt>
      <trkpt lat="43.21038" lon="6.02547">
        <ele>108.390625</ele>
        <time>2022-04-10T09:58:03Z</time>
      </trkpt>
      <trkpt lat="43.20995" lon="6.02568">
        <ele>104.9375</ele>
        <time>2022-04-10T09:58:11Z</time>
      </trkpt>
      <trkpt lat="43.20989" lon="6.02574">
        <ele>104.171875</ele>
        <time>2022-04-10T09:58:12Z</time>
      </trkpt>
      <trkpt lat="43.20978" lon="6.02585">
        <ele>103.44921875</ele>
        <time>2022-04-10T09:58:14Z</time>
      </trkpt>
      <trkpt lat="43.20972" lon="6.02589">
        <ele>103.43359375</ele>
        <time>2022-04-10T09:58:15Z</time>
      </trkpt>
      <trkpt lat="43.20964" lon="6.02591">
        <ele>103.546875</ele>
        <time>2022-04-10T09:58:16Z</time>
      </trkpt>
      <trkpt lat="43.20957" lon="6.02591">
        <ele>103.75390625</ele>
        <time>2022-04-10T09:58:17Z</time>
      </trkpt>
      <trkpt lat="43.2095" lon="6.02592">
        <ele>103.97265625</ele>
        <time>2022-04-10T09:58:18Z</time>
      </trkpt>
      <trkpt lat="43.20936" lon="6.02592">
        <ele>104.17578125</ele>
        <time>2022-04-10T09:58:20Z</time>
      </trkpt>
      <trkpt lat="43.2093" lon="6.02591">
        <ele>104.4375</ele>
        <time>2022-04-10T09:58:21Z</time>
      </trkpt>
      <trkpt lat="43.20923" lon="6.02588">
        <ele>104.7890625</ele>
        <time>2022-04-10T09:58:22Z</time>
      </trkpt>
      <trkpt lat="43.20891" lon="6.02569">
        <ele>107.1328125</ele>
        <time>2022-04-10T09:58:28Z</time>
      </trkpt>
      <trkpt lat="43.20887" lon="6.02565">
        <ele>107.62109375</ele>
        <time>2022-04-10T09:58:29Z</time>
      </trkpt>
      <trkpt lat="43.20855" lon="6.02531">
        <ele>110.078125</ele>
        <time>2022-04-10T09:58:40Z</time>
      </trkpt>
      <trkpt lat="43.20834" lon="6.02517">
        <ele>110.515625</ele>
        <time>2022-04-10T09:58:47Z</time>
      </trkpt>
      <trkpt lat="43.2078" lon="6.02496">
        <ele>110.43359375</ele>
        <time>2022-04-10T09:58:59Z</time>
      </trkpt>
      <trkpt lat="43.20762" lon="6.02492">
        <ele>109.7890625</ele>
        <time>2022-04-10T09:59:02Z</time>
      </trkpt>
      <trkpt lat="43.20757" lon="6.02492">
        <ele>109.36328125</ele>
        <time>2022-04-10T09:59:03Z</time>
      </trkpt>
      <trkpt lat="43.2074" lon="6.02494">
        <ele>107.92578125</ele>
        <time>2022-04-10T09:59:06Z</time>
      </trkpt>
      <trkpt lat="43.20727" lon="6.02492">
        <ele>107.23046875</ele>
        <time>2022-04-10T09:59:09Z</time>
      </trkpt>
      <trkpt lat="43.20698" lon="6.02486">
        <ele>105.74609375</ele>
        <time>2022-04-10T09:59:19Z</time>
      </trkpt>
      <trkpt lat="43.20692" lon="6.02479">
        <ele>106.1328125</ele>
        <time>2022-04-10T09:59:22Z</time>
      </trkpt>
      <trkpt lat="43.20691" lon="6.02475">
        <ele>106.46875</ele>
        <time>2022-04-10T09:59:23Z</time>
      </trkpt>
      <trkpt lat="43.20691" lon="6.02471">
        <ele>106.84375</ele>
        <time>2022-04-10T09:59:24Z</time>
      </trkpt>
      <trkpt lat="43.20691" lon="6.02467">
        <ele>107.26953125</ele>
        <time>2022-04-10T09:59:25Z</time>
      </trkpt>
      <trkpt lat="43.20692" lon="6.02464">
        <ele>107.69921875</ele>
        <time>2022-04-10T09:59:26Z</time>
      </trkpt>
      <trkpt lat="43.2069" lon="6.0246">
        <ele>108.05859375</ele>
        <time>2022-04-10T09:59:28Z</time>
      </trkpt>
      <trkpt lat="43.20688" lon="6.02458">
        <ele>108.171875</ele>
        <time>2022-04-10T09:59:29Z</time>
      </trkpt>
      <trkpt lat="43.20685" lon="6.02456">
        <ele>108.19140625</ele>
        <time>2022-04-10T09:59:30Z</time>
      </trkpt>
      <trkpt lat="43.20682" lon="6.02454">
        <ele>108.09375</ele>
        <time>2022-04-10T09:59:31Z</time>
      </trkpt>
      <trkpt lat="43.20679" lon="6.02453">
        <ele>107.98828125</ele>
        <time>2022-04-10T09:59:32Z</time>
      </trkpt>
      <trkpt lat="43.2066" lon="6.02447">
        <ele>107.28125</ele>
        <time>2022-04-10T09:59:37Z</time>
      </trkpt>
      <trkpt lat="43.20641" lon="6.02443">
        <ele>106.3046875</ele>
        <time>2022-04-10T09:59:43Z</time>
      </trkpt>
      <trkpt lat="43.20638" lon="6.02444">
        <ele>106.0859375</ele>
        <time>2022-04-10T09:59:44Z</time>
      </trkpt>
      <trkpt lat="43.20637" lon="6.02447">
        <ele>105.75</ele>
        <time>2022-04-10T09:59:45Z</time>
      </trkpt>
      <trkpt lat="43.20634" lon="6.0245">
        <ele>105.421875</ele>
        <time>2022-04-10T09:59:46Z</time>
      </trkpt>
      <trkpt lat="43.20632" lon="6.02452">
        <ele>105.11328125</ele>
        <time>2022-04-10T09:59:47Z</time>
      </trkpt>
      <trkpt lat="43.2063" lon="6.02452">
        <ele>104.87890625</ele>
        <time>2022-04-10T09:59:48Z</time>
      </trkpt>
      <trkpt lat="43.20627" lon="6.02453">
        <ele>104.6328125</ele>
        <time>2022-04-10T09:59:49Z</time>
      </trkpt>
      <trkpt lat="43.20624" lon="6.02453">
        <ele>104.41796875</ele>
        <time>2022-04-10T09:59:50Z</time>
      </trkpt>
      <trkpt lat="43.20616" lon="6.02452">
        <ele>104</ele>
        <time>2022-04-10T09:59:53Z</time>
      </trkpt>
      <trkpt lat="43.20616" lon="6.02444">
        <ele>104.55859375</ele>
        <time>2022-04-10T10:00:02Z</time>
      </trkpt>
      <trkpt lat="43.2062" lon="6.02445">
        <ele>104.70703125</ele>
        <time>2022-04-10T10:00:20Z</time>
      </trkpt>
      <trkpt lat="43.20612" lon="6.02442">
        <ele>104.5703125</ele>
        <time>2022-04-10T10:00:46Z</time>
      </trkpt>
      <trkpt lat="43.20612" lon="6.02439">
        <ele>104.75390625</ele>
        <time>2022-04-10T10:01:12Z</time>
      </trkpt>
      <trkpt lat="43.20612" lon="6.02435">
        <ele>105.23828125</ele>
        <time>2022-04-10T10:01:42Z</time>
      </trkpt>
      <trkpt lat="43.2061" lon="6.02433">
        <ele>105.28125</ele>
        <time>2022-04-10T10:01:56Z</time>
      </trkpt>
      <trkpt lat="43.20613" lon="6.02432">
        <ele>105.47265625</ele>
        <time>2022-04-10T10:02:13Z</time>
      </trkpt>
      <trkpt lat="43.20614" lon="6.02436">
        <ele>105.0859375</ele>
        <time>2022-04-10T10:02:37Z</time>
      </trkpt>
      <trkpt lat="43.20615" lon="6.02437">
        <ele>105.00390625</ele>
        <time>2022-04-10T10:02:39Z</time>
      </trkpt>
      <trkpt lat="43.20616" lon="6.02438">
        <ele>104.984375</ele>
        <time>2022-04-10T10:02:40Z</time>
      </trkpt>
      <trkpt lat="43.20625" lon="6.02439">
        <ele>105.47265625</ele>
        <time>2022-04-10T10:02:46Z</time>
      </trkpt>
      <trkpt lat="43.20628" lon="6.02442">
        <ele>105.5546875</ele>
        <time>2022-04-10T10:02:49Z</time>
      </trkpt>
      <trkpt lat="43.20629" lon="6.02444">
        <ele>105.390625</ele>
        <time>2022-04-10T10:02:52Z</time>
      </trkpt>
      <trkpt lat="43.20629" lon="6.02446">
        <ele>105.2421875</ele>
        <time>2022-04-10T10:02:53Z</time>
      </trkpt>
      <trkpt lat="43.20633" lon="6.02477">
        <ele>103.17578125</ele>
        <time>2022-04-10T10:02:59Z</time>
      </trkpt>
      <trkpt lat="43.20633" lon="6.02483">
        <ele>102.56640625</ele>
        <time>2022-04-10T10:03:00Z</time>
      </trkpt>
      <trkpt lat="43.20633" lon="6.02513">
        <ele>100.21875</ele>
        <time>2022-04-10T10:03:10Z</time>
      </trkpt>
      <trkpt lat="43.20633" lon="6.02513">
        <ele>100.1640625</ele>
        <time>2022-04-10T10:03:11Z</time>
      </trkpt>
      <trkpt lat="43.20632" lon="6.02514">
        <ele>100.1015625</ele>
        <time>2022-04-10T10:03:12Z</time>
      </trkpt>
      <trkpt lat="43.2063" lon="6.02514">
        <ele>100.03515625</ele>
        <time>2022-04-10T10:03:13Z</time>
      </trkpt>
      <trkpt lat="43.20627" lon="6.02513">
        <ele>99.96484375</ele>
        <time>2022-04-10T10:03:14Z</time>
      </trkpt>
      <trkpt lat="43.20624" lon="6.02513">
        <ele>99.8828125</ele>
        <time>2022-04-10T10:03:15Z</time>
      </trkpt>
      <trkpt lat="43.20571" lon="6.02504">
        <ele>99.64453125</ele>
        <time>2022-04-10T10:03:28Z</time>
      </trkpt>
      <trkpt lat="43.20567" lon="6.02502">
        <ele>99.65234375</ele>
        <time>2022-04-10T10:03:29Z</time>
      </trkpt>
      <trkpt lat="43.20559" lon="6.02496">
        <ele>99.875</ele>
        <time>2022-04-10T10:03:31Z</time>
      </trkpt>
      <trkpt lat="43.20549" lon="6.0249">
        <ele>100.23828125</ele>
        <time>2022-04-10T10:03:33Z</time>
      </trkpt>
      <trkpt lat="43.20545" lon="6.02488">
        <ele>100.28515625</ele>
        <time>2022-04-10T10:03:34Z</time>
      </trkpt>
      <trkpt lat="43.20513" lon="6.02504">
        <ele>98.78125</ele>
        <time>2022-04-10T10:03:43Z</time>
      </trkpt>
      <trkpt lat="43.2049" lon="6.02524">
        <ele>97.3203125</ele>
        <time>2022-04-10T10:03:49Z</time>
      </trkpt>
      <trkpt lat="43.20486" lon="6.02523">
        <ele>97.20703125</ele>
        <time>2022-04-10T10:03:50Z</time>
      </trkpt>
      <trkpt lat="43.20482" lon="6.02523">
        <ele>97.05078125</ele>
        <time>2022-04-10T10:03:51Z</time>
      </trkpt>
      <trkpt lat="43.20478" lon="6.02526">
        <ele>96.85546875</ele>
        <time>2022-04-10T10:03:52Z</time>
      </trkpt>
      <trkpt lat="43.20474" lon="6.02529">
        <ele>96.73046875</ele>
        <time>2022-04-10T10:03:53Z</time>
      </trkpt>
      <trkpt lat="43.20436" lon="6.02565">
        <ele>95.4453125</ele>
        <time>2022-04-10T10:04:05Z</time>
      </trkpt>
      <trkpt lat="43.20423" lon="6.0258">
        <ele>94.90625</ele>
        <time>2022-04-10T10:04:10Z</time>
      </trkpt>
      <trkpt lat="43.20419" lon="6.0258">
        <ele>94.7421875</ele>
        <time>2022-04-10T10:04:11Z</time>
      </trkpt>
      <trkpt lat="43.20415" lon="6.0258">
        <ele>94.59375</ele>
        <time>2022-04-10T10:04:12Z</time>
      </trkpt>
      <trkpt lat="43.20405" lon="6.02578">
        <ele>94.3125</ele>
        <time>2022-04-10T10:04:14Z</time>
      </trkpt>
      <trkpt lat="43.20401" lon="6.02577">
        <ele>94.203125</ele>
        <time>2022-04-10T10:04:15Z</time>
      </trkpt>
      <trkpt lat="43.20391" lon="6.02574">
        <ele>94.1015625</ele>
        <time>2022-04-10T10:04:17Z</time>
      </trkpt>
      <trkpt lat="43.20387" lon="6.02573">
        <ele>94.1015625</ele>
        <time>2022-04-10T10:04:18Z</time>
      </trkpt>
      <trkpt lat="43.20372" lon="6.02569">
        <ele>94.04296875</ele>
        <time>2022-04-10T10:04:21Z</time>
      </trkpt>
      <trkpt lat="43.20366" lon="6.02567">
        <ele>94</ele>
        <time>2022-04-10T10:04:22Z</time>
      </trkpt>
      <trkpt lat="43.20361" lon="6.02565">
        <ele>94</ele>
        <time>2022-04-10T10:04:23Z</time>
      </trkpt>
      <trkpt lat="43.20325" lon="6.02558">
        <ele>94.37109375</ele>
        <time>2022-04-10T10:04:29Z</time>
      </trkpt>
      <trkpt lat="43.20319" lon="6.02555">
        <ele>94.60546875</ele>
        <time>2022-04-10T10:04:30Z</time>
      </trkpt>
      <trkpt lat="43.20314" lon="6.02549">
        <ele>94.921875</ele>
        <time>2022-04-10T10:04:31Z</time>
      </trkpt>
      <trkpt lat="43.20275" lon="6.02467">
        <ele>96.6796875</ele>
        <time>2022-04-10T10:04:42Z</time>
      </trkpt>
      <trkpt lat="43.20271" lon="6.02463">
        <ele>96.984375</ele>
        <time>2022-04-10T10:04:43Z</time>
      </trkpt>
      <trkpt lat="43.20266" lon="6.0246">
        <ele>97.30078125</ele>
        <time>2022-04-10T10:04:44Z</time>
      </trkpt>
      <trkpt lat="43.20262" lon="6.02459">
        <ele>97.5859375</ele>
        <time>2022-04-10T10:04:45Z</time>
      </trkpt>
      <trkpt lat="43.20259" lon="6.02459">
        <ele>97.8203125</ele>
        <time>2022-04-10T10:04:46Z</time>
      </trkpt>
      <trkpt lat="43.20256" lon="6.02461">
        <ele>98.02734375</ele>
        <time>2022-04-10T10:04:47Z</time>
      </trkpt>
      <trkpt lat="43.20254" lon="6.02465">
        <ele>98.20703125</ele>
        <time>2022-04-10T10:04:48Z</time>
      </trkpt>
      <trkpt lat="43.20252" lon="6.0247">
        <ele>98.21875</ele>
        <time>2022-04-10T10:04:49Z</time>
      </trkpt>
      <trkpt lat="43.2025" lon="6.02476">
        <ele>98.1484375</ele>
        <time>2022-04-10T10:04:50Z</time>
      </trkpt>
      <trkpt lat="43.20248" lon="6.02481">
        <ele>98.09375</ele>
        <time>2022-04-10T10:04:51Z</time>
      </trkpt>
      <trkpt lat="43.20232" lon="6.02523">
        <ele>97.83984375</ele>
        <time>2022-04-10T10:04:59Z</time>
      </trkpt>
      <trkpt lat="43.20192" lon="6.02588">
        <ele>96.53515625</ele>
        <time>2022-04-10T10:05:09Z</time>
      </trkpt>
      <trkpt lat="43.20187" lon="6.02594">
        <ele>96.328125</ele>
        <time>2022-04-10T10:05:10Z</time>
      </trkpt>
      <trkpt lat="43.20139" lon="6.02638">
        <ele>94.77734375</ele>
        <time>2022-04-10T10:05:19Z</time>
      </trkpt>
      <trkpt lat="43.20134" lon="6.02645">
        <ele>94.3515625</ele>
        <time>2022-04-10T10:05:20Z</time>
      </trkpt>
      <trkpt lat="43.20127" lon="6.0265">
        <ele>93.9765625</ele>
        <time>2022-04-10T10:05:21Z</time>
      </trkpt>
      <trkpt lat="43.20113" lon="6.02659">
        <ele>93.328125</ele>
        <time>2022-04-10T10:05:23Z</time>
      </trkpt>
      <trkpt lat="43.20106" lon="6.02662">
        <ele>93.375</ele>
        <time>2022-04-10T10:05:24Z</time>
      </trkpt>
      <trkpt lat="43.20098" lon="6.02663">
        <ele>93.53515625</ele>
        <time>2022-04-10T10:05:25Z</time>
      </trkpt>
      <trkpt lat="43.20092" lon="6.02665">
        <ele>93.6484375</ele>
        <time>2022-04-10T10:05:26Z</time>
      </trkpt>
      <trkpt lat="43.20085" lon="6.02668">
        <ele>93.625</ele>
        <time>2022-04-10T10:05:27Z</time>
      </trkpt>
      <trkpt lat="43.20079" lon="6.02671">
        <ele>93.45703125</ele>
        <time>2022-04-10T10:05:28Z</time>
      </trkpt>
      <trkpt lat="43.20074" lon="6.02676">
        <ele>93.1796875</ele>
        <time>2022-04-10T10:05:29Z</time>
      </trkpt>
      <trkpt lat="43.20029" lon="6.02713">
        <ele>91.21484375</ele>
        <time>2022-04-10T10:05:40Z</time>
      </trkpt>
      <trkpt lat="43.20025" lon="6.02719">
        <ele>90.92578125</ele>
        <time>2022-04-10T10:05:49Z</time>
      </trkpt>
      <trkpt lat="43.20025" lon="6.0272">
        <ele>90.8984375</ele>
        <time>2022-04-10T10:05:50Z</time>
      </trkpt>
      <trkpt lat="43.20024" lon="6.02723">
        <ele>90.85546875</ele>
        <time>2022-04-10T10:05:51Z</time>
      </trkpt>
      <trkpt lat="43.20021" lon="6.02725">
        <ele>90.828125</ele>
        <time>2022-04-10T10:05:52Z</time>
      </trkpt>
      <trkpt lat="43.1997" lon="6.02765">
        <ele>90.3359375</ele>
        <time>2022-04-10T10:06:04Z</time>
      </trkpt>
      <trkpt lat="43.19893" lon="6.028">
        <ele>91.29296875</ele>
        <time>2022-04-10T10:06:17Z</time>
      </trkpt>
      <trkpt lat="43.19889" lon="6.02804">
        <ele>91.59375</ele>
        <time>2022-04-10T10:06:18Z</time>
      </trkpt>
      <trkpt lat="43.1987" lon="6.02826">
        <ele>91.01171875</ele>
        <time>2022-04-10T10:06:23Z</time>
      </trkpt>
      <trkpt lat="43.19862" lon="6.02835">
        <ele>91.203125</ele>
        <time>2022-04-10T10:06:25Z</time>
      </trkpt>
      <trkpt lat="43.19857" lon="6.02839">
        <ele>91.43359375</ele>
        <time>2022-04-10T10:06:26Z</time>
      </trkpt>
      <trkpt lat="43.19852" lon="6.02842">
        <ele>91.546875</ele>
        <time>2022-04-10T10:06:27Z</time>
      </trkpt>
      <trkpt lat="43.19848" lon="6.02847">
        <ele>91.37890625</ele>
        <time>2022-04-10T10:06:28Z</time>
      </trkpt>
      <trkpt lat="43.19845" lon="6.02853">
        <ele>90.91015625</ele>
        <time>2022-04-10T10:06:29Z</time>
      </trkpt>
      <trkpt lat="43.19842" lon="6.0286">
        <ele>90.546875</ele>
        <time>2022-04-10T10:06:30Z</time>
      </trkpt>
      <trkpt lat="43.19824" lon="6.0289">
        <ele>90.57421875</ele>
        <time>2022-04-10T10:06:34Z</time>
      </trkpt>
      <trkpt lat="43.19777" lon="6.02952">
        <ele>88.9375</ele>
        <time>2022-04-10T10:06:43Z</time>
      </trkpt>
      <trkpt lat="43.19764" lon="6.02962">
        <ele>88.44140625</ele>
        <time>2022-04-10T10:06:45Z</time>
      </trkpt>
      <trkpt lat="43.19757" lon="6.02964">
        <ele>88.2578125</ele>
        <time>2022-04-10T10:06:46Z</time>
      </trkpt>
      <trkpt lat="43.19702" lon="6.02971">
        <ele>90.25</ele>
        <time>2022-04-10T10:06:54Z</time>
      </trkpt>
      <trkpt lat="43.19678" lon="6.02971">
        <ele>90.2421875</ele>
        <time>2022-04-10T10:06:58Z</time>
      </trkpt>
      <trkpt lat="43.19673" lon="6.02973">
        <ele>90.03515625</ele>
        <time>2022-04-10T10:06:59Z</time>
      </trkpt>
      <trkpt lat="43.19607" lon="6.02998">
        <ele>89.6171875</ele>
        <time>2022-04-10T10:07:10Z</time>
      </trkpt>
      <trkpt lat="43.19601" lon="6.03001">
        <ele>89.796875</ele>
        <time>2022-04-10T10:07:11Z</time>
      </trkpt>
      <trkpt lat="43.19595" lon="6.03006">
        <ele>89.8125</ele>
        <time>2022-04-10T10:07:12Z</time>
      </trkpt>
      <trkpt lat="43.1959" lon="6.03013">
        <ele>89.703125</ele>
        <time>2022-04-10T10:07:13Z</time>
      </trkpt>
      <trkpt lat="43.19584" lon="6.0302">
        <ele>89.58203125</ele>
        <time>2022-04-10T10:07:14Z</time>
      </trkpt>
      <trkpt lat="43.1958" lon="6.03026">
        <ele>89.50390625</ele>
        <time>2022-04-10T10:07:15Z</time>
      </trkpt>
      <trkpt lat="43.1957" lon="6.03039">
        <ele>89.3515625</ele>
        <time>2022-04-10T10:07:17Z</time>
      </trkpt>
      <trkpt lat="43.19523" lon="6.03077">
        <ele>90.41796875</ele>
        <time>2022-04-10T10:07:26Z</time>
      </trkpt>
      <trkpt lat="43.19515" lon="6.03085">
        <ele>90.359375</ele>
        <time>2022-04-10T10:07:28Z</time>
      </trkpt>
      <trkpt lat="43.19507" lon="6.03092">
        <ele>90.484375</ele>
        <time>2022-04-10T10:07:30Z</time>
      </trkpt>
      <trkpt lat="43.19487" lon="6.03121">
        <ele>90.43359375</ele>
        <time>2022-04-10T10:07:37Z</time>
      </trkpt>
      <trkpt lat="43.19446" lon="6.03183">
        <ele>89.36328125</ele>
        <time>2022-04-10T10:07:46Z</time>
      </trkpt>
      <trkpt lat="43.19438" lon="6.03198">
        <ele>89.12890625</ele>
        <time>2022-04-10T10:07:48Z</time>
      </trkpt>
      <trkpt lat="43.1943" lon="6.03225">
        <ele>88.46484375</ele>
        <time>2022-04-10T10:07:55Z</time>
      </trkpt>
      <trkpt lat="43.19432" lon="6.0323">
        <ele>88.1953125</ele>
        <time>2022-04-10T10:07:56Z</time>
      </trkpt>
      <trkpt lat="43.19435" lon="6.03236">
        <ele>87.890625</ele>
        <time>2022-04-10T10:07:57Z</time>
      </trkpt>
      <trkpt lat="43.19446" lon="6.03254">
        <ele>87.125</ele>
        <time>2022-04-10T10:08:00Z</time>
      </trkpt>
      <trkpt lat="43.19449" lon="6.03262">
        <ele>87.03515625</ele>
        <time>2022-04-10T10:08:01Z</time>
      </trkpt>
      <trkpt lat="43.19449" lon="6.0327">
        <ele>87.00390625</ele>
        <time>2022-04-10T10:08:02Z</time>
      </trkpt>
      <trkpt lat="43.19448" lon="6.03278">
        <ele>86.75390625</ele>
        <time>2022-04-10T10:08:03Z</time>
      </trkpt>
      <trkpt lat="43.19444" lon="6.03285">
        <ele>86.5</ele>
        <time>2022-04-10T10:08:04Z</time>
      </trkpt>
      <trkpt lat="43.1944" lon="6.03291">
        <ele>86.2890625</ele>
        <time>2022-04-10T10:08:05Z</time>
      </trkpt>
      <trkpt lat="43.19435" lon="6.03296">
        <ele>86.12109375</ele>
        <time>2022-04-10T10:08:06Z</time>
      </trkpt>
      <trkpt lat="43.19432" lon="6.03299">
        <ele>86.015625</ele>
        <time>2022-04-10T10:08:07Z</time>
      </trkpt>
      <trkpt lat="43.19429" lon="6.033">
        <ele>85.95703125</ele>
        <time>2022-04-10T10:08:08Z</time>
      </trkpt>
      <trkpt lat="43.19427" lon="6.03301">
        <ele>85.921875</ele>
        <time>2022-04-10T10:08:09Z</time>
      </trkpt>
      <trkpt lat="43.19422" lon="6.03306">
        <ele>85.734375</ele>
        <time>2022-04-10T10:08:13Z</time>
      </trkpt>
      <trkpt lat="43.19425" lon="6.03306">
        <ele>85.75390625</ele>
        <time>2022-04-10T10:08:15Z</time>
      </trkpt>
      <trkpt lat="43.19427" lon="6.03304">
        <ele>85.8125</ele>
        <time>2022-04-10T10:08:16Z</time>
      </trkpt>
      <trkpt lat="43.19429" lon="6.03303">
        <ele>85.87109375</ele>
        <time>2022-04-10T10:08:17Z</time>
      </trkpt>
      <trkpt lat="43.19432" lon="6.03301">
        <ele>85.94140625</ele>
        <time>2022-04-10T10:08:18Z</time>
      </trkpt>
      <trkpt lat="43.19434" lon="6.03298">
        <ele>86.0234375</ele>
        <time>2022-04-10T10:08:19Z</time>
      </trkpt>
      <trkpt lat="43.19437" lon="6.03296">
        <ele>86.1015625</ele>
        <time>2022-04-10T10:08:20Z</time>
      </trkpt>
      <trkpt lat="43.19451" lon="6.03256">
        <ele>87.00390625</ele>
        <time>2022-04-10T10:08:30Z</time>
      </trkpt>
      <trkpt lat="43.19432" lon="6.03236">
        <ele>87.9765625</ele>
        <time>2022-04-10T10:08:38Z</time>
      </trkpt>
      <trkpt lat="43.19429" lon="6.0324">
        <ele>87.9453125</ele>
        <time>2022-04-10T10:08:39Z</time>
      </trkpt>
      <trkpt lat="43.19426" lon="6.03245">
        <ele>87.875</ele>
        <time>2022-04-10T10:08:40Z</time>
      </trkpt>
      <trkpt lat="43.19424" lon="6.0325">
        <ele>87.77734375</ele>
        <time>2022-04-10T10:08:41Z</time>
      </trkpt>
      <trkpt lat="43.19421" lon="6.03255">
        <ele>87.68359375</ele>
        <time>2022-04-10T10:08:42Z</time>
      </trkpt>
      <trkpt lat="43.19389" lon="6.03282">
        <ele>87.48828125</ele>
        <time>2022-04-10T10:08:52Z</time>
      </trkpt>
      <trkpt lat="43.19384" lon="6.03282">
        <ele>87.6640625</ele>
        <time>2022-04-10T10:08:53Z</time>
      </trkpt>
      <trkpt lat="43.19335" lon="6.03281">
        <ele>88.29296875</ele>
        <time>2022-04-10T10:09:05Z</time>
      </trkpt>
      <trkpt lat="43.19331" lon="6.03283">
        <ele>88.1796875</ele>
        <time>2022-04-10T10:09:06Z</time>
      </trkpt>
      <trkpt lat="43.19321" lon="6.03287">
        <ele>87.90234375</ele>
        <time>2022-04-10T10:09:08Z</time>
      </trkpt>
      <trkpt lat="43.19316" lon="6.03287">
        <ele>87.859375</ele>
        <time>2022-04-10T10:09:09Z</time>
      </trkpt>
      <trkpt lat="43.1931" lon="6.03287">
        <ele>87.875</ele>
        <time>2022-04-10T10:09:10Z</time>
      </trkpt>
      <trkpt lat="43.193" lon="6.03286">
        <ele>87.91015625</ele>
        <time>2022-04-10T10:09:12Z</time>
      </trkpt>
      <trkpt lat="43.19288" lon="6.03289">
        <ele>87.75390625</ele>
        <time>2022-04-10T10:09:14Z</time>
      </trkpt>
      <trkpt lat="43.19282" lon="6.03288">
        <ele>87.80078125</ele>
        <time>2022-04-10T10:09:15Z</time>
      </trkpt>
      <trkpt lat="43.19238" lon="6.03286">
        <ele>88.7734375</ele>
        <time>2022-04-10T10:09:22Z</time>
      </trkpt>
      <trkpt lat="43.19231" lon="6.03284">
        <ele>89.0390625</ele>
        <time>2022-04-10T10:09:23Z</time>
      </trkpt>
      <trkpt lat="43.1922" lon="6.0328">
        <ele>89.38671875</ele>
        <time>2022-04-10T10:09:25Z</time>
      </trkpt>
      <trkpt lat="43.19215" lon="6.03279">
        <ele>89.47265625</ele>
        <time>2022-04-10T10:09:26Z</time>
      </trkpt>
      <trkpt lat="43.1921" lon="6.03279">
        <ele>89.4609375</ele>
        <time>2022-04-10T10:09:27Z</time>
      </trkpt>
      <trkpt lat="43.19205" lon="6.0328">
        <ele>89.37890625</ele>
        <time>2022-04-10T10:09:28Z</time>
      </trkpt>
      <trkpt lat="43.192" lon="6.03281">
        <ele>89.31640625</ele>
        <time>2022-04-10T10:09:29Z</time>
      </trkpt>
      <trkpt lat="43.1919" lon="6.03282">
        <ele>89.22265625</ele>
        <time>2022-04-10T10:09:31Z</time>
      </trkpt>
      <trkpt lat="43.19154" lon="6.03302">
        <ele>87.86328125</ele>
        <time>2022-04-10T10:09:43Z</time>
      </trkpt>
      <trkpt lat="43.19138" lon="6.03316">
        <ele>87.51953125</ele>
        <time>2022-04-10T10:09:49Z</time>
      </trkpt>
      <trkpt lat="43.19126" lon="6.03324">
        <ele>87.1953125</ele>
        <time>2022-04-10T10:09:52Z</time>
      </trkpt>
      <trkpt lat="43.19122" lon="6.03327">
        <ele>87</ele>
        <time>2022-04-10T10:09:53Z</time>
      </trkpt>
      <trkpt lat="43.1911" lon="6.03339">
        <ele>87.1640625</ele>
        <time>2022-04-10T10:09:56Z</time>
      </trkpt>
      <trkpt lat="43.19074" lon="6.03379">
        <ele>87.7421875</ele>
        <time>2022-04-10T10:10:05Z</time>
      </trkpt>
      <trkpt lat="43.19069" lon="6.03382">
        <ele>87.78515625</ele>
        <time>2022-04-10T10:10:06Z</time>
      </trkpt>
      <trkpt lat="43.19065" lon="6.03384">
        <ele>87.8515625</ele>
        <time>2022-04-10T10:10:07Z</time>
      </trkpt>
      <trkpt lat="43.19046" lon="6.03395">
        <ele>88.1484375</ele>
        <time>2022-04-10T10:10:11Z</time>
      </trkpt>
      <trkpt lat="43.19037" lon="6.03402">
        <ele>88.2109375</ele>
        <time>2022-04-10T10:10:13Z</time>
      </trkpt>
      <trkpt lat="43.19033" lon="6.03407">
        <ele>88.1796875</ele>
        <time>2022-04-10T10:10:14Z</time>
      </trkpt>
      <trkpt lat="43.19022" lon="6.03421">
        <ele>88.0625</ele>
        <time>2022-04-10T10:10:17Z</time>
      </trkpt>
      <trkpt lat="43.19018" lon="6.03425">
        <ele>88.07421875</ele>
        <time>2022-04-10T10:10:18Z</time>
      </trkpt>
      <trkpt lat="43.19009" lon="6.03432">
        <ele>88.13671875</ele>
        <time>2022-04-10T10:10:20Z</time>
      </trkpt>
      <trkpt lat="43.19005" lon="6.03435">
        <ele>88.21484375</ele>
        <time>2022-04-10T10:10:21Z</time>
      </trkpt>
      <trkpt lat="43.19" lon="6.03437">
        <ele>88.3203125</ele>
        <time>2022-04-10T10:10:22Z</time>
      </trkpt>
      <trkpt lat="43.18981" lon="6.03443">
        <ele>88.76953125</ele>
        <time>2022-04-10T10:10:26Z</time>
      </trkpt>
      <trkpt lat="43.18972" lon="6.03447">
        <ele>89.13671875</ele>
        <time>2022-04-10T10:10:28Z</time>
      </trkpt>
      <trkpt lat="43.18968" lon="6.0345">
        <ele>89.2421875</ele>
        <time>2022-04-10T10:10:29Z</time>
      </trkpt>
      <trkpt lat="43.18964" lon="6.03453">
        <ele>89.2734375</ele>
        <time>2022-04-10T10:10:30Z</time>
      </trkpt>
      <trkpt lat="43.18956" lon="6.03461">
        <ele>89.1796875</ele>
        <time>2022-04-10T10:10:32Z</time>
      </trkpt>
      <trkpt lat="43.18943" lon="6.03472">
        <ele>89.70703125</ele>
        <time>2022-04-10T10:10:35Z</time>
      </trkpt>
      <trkpt lat="43.18935" lon="6.03478">
        <ele>90.328125</ele>
        <time>2022-04-10T10:10:37Z</time>
      </trkpt>
      <trkpt lat="43.18919" lon="6.03494">
        <ele>90.75</ele>
        <time>2022-04-10T10:10:41Z</time>
      </trkpt>
      <trkpt lat="43.18911" lon="6.03505">
        <ele>91.01171875</ele>
        <time>2022-04-10T10:10:43Z</time>
      </trkpt>
      <trkpt lat="43.18908" lon="6.03512">
        <ele>91.04296875</ele>
        <time>2022-04-10T10:10:44Z</time>
      </trkpt>
      <trkpt lat="43.18901" lon="6.03526">
        <ele>91.0234375</ele>
        <time>2022-04-10T10:10:46Z</time>
      </trkpt>
      <trkpt lat="43.18872" lon="6.03581">
        <ele>91.17578125</ele>
        <time>2022-04-10T10:10:54Z</time>
      </trkpt>
      <trkpt lat="43.18849" lon="6.03606">
        <ele>92.08203125</ele>
        <time>2022-04-10T10:10:59Z</time>
      </trkpt>
      <trkpt lat="43.18834" lon="6.03614">
        <ele>93.578125</ele>
        <time>2022-04-10T10:11:02Z</time>
      </trkpt>
      <trkpt lat="43.18829" lon="6.03618">
        <ele>94.01953125</ele>
        <time>2022-04-10T10:11:03Z</time>
      </trkpt>
      <trkpt lat="43.18794" lon="6.03645">
        <ele>95.91015625</ele>
        <time>2022-04-10T10:11:11Z</time>
      </trkpt>
      <trkpt lat="43.18788" lon="6.03647">
        <ele>96.171875</ele>
        <time>2022-04-10T10:11:12Z</time>
      </trkpt>
      <trkpt lat="43.18754" lon="6.0366">
        <ele>97.21484375</ele>
        <time>2022-04-10T10:11:18Z</time>
      </trkpt>
      <trkpt lat="43.18738" lon="6.03667">
        <ele>97.94140625</ele>
        <time>2022-04-10T10:11:21Z</time>
      </trkpt>
      <trkpt lat="43.18724" lon="6.03676">
        <ele>98.28125</ele>
        <time>2022-04-10T10:11:24Z</time>
      </trkpt>
      <trkpt lat="43.1872" lon="6.03679">
        <ele>98.33203125</ele>
        <time>2022-04-10T10:11:25Z</time>
      </trkpt>
      <trkpt lat="43.18713" lon="6.03686">
        <ele>98.34375</ele>
        <time>2022-04-10T10:11:27Z</time>
      </trkpt>
      <trkpt lat="43.1871" lon="6.03691">
        <ele>98.328125</ele>
        <time>2022-04-10T10:11:28Z</time>
      </trkpt>
      <trkpt lat="43.18707" lon="6.03697">
        <ele>98.26171875</ele>
        <time>2022-04-10T10:11:29Z</time>
      </trkpt>
      <trkpt lat="43.18706" lon="6.03705">
        <ele>98.0859375</ele>
        <time>2022-04-10T10:11:30Z</time>
      </trkpt>
      <trkpt lat="43.18705" lon="6.03714">
        <ele>97.8203125</ele>
        <time>2022-04-10T10:11:31Z</time>
      </trkpt>
      <trkpt lat="43.18705" lon="6.03723">
        <ele>97.5</ele>
        <time>2022-04-10T10:11:32Z</time>
      </trkpt>
      <trkpt lat="43.18704" lon="6.03731">
        <ele>97.27734375</ele>
        <time>2022-04-10T10:11:33Z</time>
      </trkpt>
      <trkpt lat="43.18701" lon="6.03738">
        <ele>97.26953125</ele>
        <time>2022-04-10T10:11:34Z</time>
      </trkpt>
      <trkpt lat="43.18698" lon="6.03744">
        <ele>97.38671875</ele>
        <time>2022-04-10T10:11:35Z</time>
      </trkpt>
      <trkpt lat="43.18693" lon="6.03754">
        <ele>97.21875</ele>
        <time>2022-04-10T10:11:38Z</time>
      </trkpt>
      <trkpt lat="43.18694" lon="6.03757">
        <ele>96.8359375</ele>
        <time>2022-04-10T10:11:39Z</time>
      </trkpt>
      <trkpt lat="43.18697" lon="6.0376">
        <ele>96.3359375</ele>
        <time>2022-04-10T10:11:40Z</time>
      </trkpt>
      <trkpt lat="43.18704" lon="6.03769">
        <ele>95.03125</ele>
        <time>2022-04-10T10:11:42Z</time>
      </trkpt>
      <trkpt lat="43.18725" lon="6.0379">
        <ele>92.65234375</ele>
        <time>2022-04-10T10:11:46Z</time>
      </trkpt>
      <trkpt lat="43.18749" lon="6.03816">
        <ele>89.0546875</ele>
        <time>2022-04-10T10:11:51Z</time>
      </trkpt>
      <trkpt lat="43.18752" lon="6.03821">
        <ele>88.66015625</ele>
        <time>2022-04-10T10:11:52Z</time>
      </trkpt>
      <trkpt lat="43.18752" lon="6.03826">
        <ele>88.40625</ele>
        <time>2022-04-10T10:11:53Z</time>
      </trkpt>
      <trkpt lat="43.1875" lon="6.03832">
        <ele>88.2734375</ele>
        <time>2022-04-10T10:11:54Z</time>
      </trkpt>
      <trkpt lat="43.18728" lon="6.03869">
        <ele>87.49609375</ele>
        <time>2022-04-10T10:11:59Z</time>
      </trkpt>
      <trkpt lat="43.18722" lon="6.03876">
        <ele>87.27734375</ele>
        <time>2022-04-10T10:12:00Z</time>
      </trkpt>
      <trkpt lat="43.18657" lon="6.03958">
        <ele>84.140625</ele>
        <time>2022-04-10T10:12:12Z</time>
      </trkpt>
      <trkpt lat="43.18607" lon="6.04022">
        <ele>82.3125</ele>
        <time>2022-04-10T10:12:22Z</time>
      </trkpt>
      <trkpt lat="43.18518" lon="6.04133">
        <ele>80.828125</ele>
        <time>2022-04-10T10:12:41Z</time>
      </trkpt>
      <trkpt lat="43.18458" lon="6.04209">
        <ele>81.17578125</ele>
        <time>2022-04-10T10:12:56Z</time>
      </trkpt>
      <trkpt lat="43.18421" lon="6.04255">
        <ele>78.765625</ele>
        <time>2022-04-10T10:13:08Z</time>
      </trkpt>
      <trkpt lat="43.18403" lon="6.04275">
        <ele>77.45703125</ele>
        <time>2022-04-10T10:13:14Z</time>
      </trkpt>
      <trkpt lat="43.1838" lon="6.04299">
        <ele>76.6015625</ele>
        <time>2022-04-10T10:13:19Z</time>
      </trkpt>
      <trkpt lat="43.18373" lon="6.04302">
        <ele>76.55078125</ele>
        <time>2022-04-10T10:13:20Z</time>
      </trkpt>
      <trkpt lat="43.18367" lon="6.04305">
        <ele>76.5234375</ele>
        <time>2022-04-10T10:13:21Z</time>
      </trkpt>
      <trkpt lat="43.18361" lon="6.04306">
        <ele>76.4296875</ele>
        <time>2022-04-10T10:13:22Z</time>
      </trkpt>
      <trkpt lat="43.18354" lon="6.04308">
        <ele>76.33984375</ele>
        <time>2022-04-10T10:13:23Z</time>
      </trkpt>
      <trkpt lat="43.18348" lon="6.04309">
        <ele>76.21484375</ele>
        <time>2022-04-10T10:13:24Z</time>
      </trkpt>
      <trkpt lat="43.18327" lon="6.04315">
        <ele>76.9921875</ele>
        <time>2022-04-10T10:13:28Z</time>
      </trkpt>
      <trkpt lat="43.18311" lon="6.04321">
        <ele>77.734375</ele>
        <time>2022-04-10T10:13:31Z</time>
      </trkpt>
      <trkpt lat="43.18291" lon="6.04335">
        <ele>78.0703125</ele>
        <time>2022-04-10T10:13:35Z</time>
      </trkpt>
      <trkpt lat="43.18287" lon="6.04339">
        <ele>78</ele>
        <time>2022-04-10T10:13:36Z</time>
      </trkpt>
      <trkpt lat="43.18269" lon="6.04362">
        <ele>77.92578125</ele>
        <time>2022-04-10T10:13:40Z</time>
      </trkpt>
      <trkpt lat="43.18263" lon="6.04368">
        <ele>78.1015625</ele>
        <time>2022-04-10T10:13:41Z</time>
      </trkpt>
      <trkpt lat="43.18252" lon="6.04381">
        <ele>78.23046875</ele>
        <time>2022-04-10T10:13:43Z</time>
      </trkpt>
      <trkpt lat="43.18247" lon="6.04389">
        <ele>78.015625</ele>
        <time>2022-04-10T10:13:44Z</time>
      </trkpt>
      <trkpt lat="43.18244" lon="6.04396">
        <ele>77.734375</ele>
        <time>2022-04-10T10:13:45Z</time>
      </trkpt>
      <trkpt lat="43.18243" lon="6.04401">
        <ele>77.4609375</ele>
        <time>2022-04-10T10:13:46Z</time>
      </trkpt>
      <trkpt lat="43.18242" lon="6.04406">
        <ele>77.1953125</ele>
        <time>2022-04-10T10:13:47Z</time>
      </trkpt>
      <trkpt lat="43.18241" lon="6.04411">
        <ele>76.94921875</ele>
        <time>2022-04-10T10:13:48Z</time>
      </trkpt>
      <trkpt lat="43.18238" lon="6.04416">
        <ele>76.78125</ele>
        <time>2022-04-10T10:13:49Z</time>
      </trkpt>
      <trkpt lat="43.18235" lon="6.04419">
        <ele>76.64453125</ele>
        <time>2022-04-10T10:13:50Z</time>
      </trkpt>
      <trkpt lat="43.18231" lon="6.04422">
        <ele>76.546875</ele>
        <time>2022-04-10T10:13:51Z</time>
      </trkpt>
      <trkpt lat="43.18227" lon="6.04425">
        <ele>76.4375</ele>
        <time>2022-04-10T10:13:52Z</time>
      </trkpt>
      <trkpt lat="43.1815" lon="6.0448">
        <ele>73.91796875</ele>
        <time>2022-04-10T10:14:06Z</time>
      </trkpt>
      <trkpt lat="43.18044" lon="6.04556">
        <ele>73.43359375</ele>
        <time>2022-04-10T10:14:26Z</time>
      </trkpt>
      <trkpt lat="43.17965" lon="6.04612">
        <ele>72.26953125</ele>
        <time>2022-04-10T10:14:41Z</time>
      </trkpt>
      <trkpt lat="43.1796" lon="6.04616">
        <ele>72.30859375</ele>
        <time>2022-04-10T10:14:42Z</time>
      </trkpt>
      <trkpt lat="43.1795" lon="6.04623">
        <ele>72.34765625</ele>
        <time>2022-04-10T10:14:44Z</time>
      </trkpt>
      <trkpt lat="43.17945" lon="6.04627">
        <ele>72.2265625</ele>
        <time>2022-04-10T10:14:45Z</time>
      </trkpt>
      <trkpt lat="43.17909" lon="6.04647">
        <ele>72.02734375</ele>
        <time>2022-04-10T10:14:54Z</time>
      </trkpt>
      <trkpt lat="43.17906" lon="6.04644">
        <ele>72.21875</ele>
        <time>2022-04-10T10:14:55Z</time>
      </trkpt>
      <trkpt lat="43.17901" lon="6.04631">
        <ele>72.94921875</ele>
        <time>2022-04-10T10:14:58Z</time>
      </trkpt>
      <trkpt lat="43.17906" lon="6.04615">
        <ele>73.89453125</ele>
        <time>2022-04-10T10:15:06Z</time>
      </trkpt>
      <trkpt lat="43.17905" lon="6.04644">
        <ele>72.265625</ele>
        <time>2022-04-10T10:15:14Z</time>
      </trkpt>
      <trkpt lat="43.17906" lon="6.04646">
        <ele>72.1484375</ele>
        <time>2022-04-10T10:15:15Z</time>
      </trkpt>
      <trkpt lat="43.17908" lon="6.04645">
        <ele>72.1171875</ele>
        <time>2022-04-10T10:15:16Z</time>
      </trkpt>
      <trkpt lat="43.1791" lon="6.04643">
        <ele>72.125</ele>
        <time>2022-04-10T10:15:17Z</time>
      </trkpt>
      <trkpt lat="43.17909" lon="6.04636">
        <ele>72.43359375</ele>
        <time>2022-04-10T10:15:24Z</time>
      </trkpt>
      <trkpt lat="43.17908" lon="6.04634">
        <ele>72.515625</ele>
        <time>2022-04-10T10:15:25Z</time>
      </trkpt>
      <trkpt lat="43.17906" lon="6.04627">
        <ele>73.0234375</ele>
        <time>2022-04-10T10:15:30Z</time>
      </trkpt>
      <trkpt lat="43.17903" lon="6.0463">
        <ele>72.921875</ele>
        <time>2022-04-10T10:15:31Z</time>
      </trkpt>
      <trkpt lat="43.17902" lon="6.04633">
        <ele>72.7734375</ele>
        <time>2022-04-10T10:15:32Z</time>
      </trkpt>
      <trkpt lat="43.17902" lon="6.04637">
        <ele>72.62109375</ele>
        <time>2022-04-10T10:15:33Z</time>
      </trkpt>
      <trkpt lat="43.17904" lon="6.0465">
        <ele>72.09765625</ele>
        <time>2022-04-10T10:15:35Z</time>
      </trkpt>
      <trkpt lat="43.1791" lon="6.04675">
        <ele>70.96875</ele>
        <time>2022-04-10T10:15:39Z</time>
      </trkpt>
      <trkpt lat="43.17912" lon="6.04682">
        <ele>70.640625</ele>
        <time>2022-04-10T10:15:40Z</time>
      </trkpt>
      <trkpt lat="43.17916" lon="6.04688">
        <ele>70.27734375</ele>
        <time>2022-04-10T10:15:41Z</time>
      </trkpt>
      <trkpt lat="43.17919" lon="6.04694">
        <ele>69.96875</ele>
        <time>2022-04-10T10:15:42Z</time>
      </trkpt>
      <trkpt lat="43.17933" lon="6.0471">
        <ele>69.12109375</ele>
        <time>2022-04-10T10:15:47Z</time>
      </trkpt>
      <trkpt lat="43.17961" lon="6.04774">
        <ele>68</ele>
        <time>2022-04-10T10:15:57Z</time>
      </trkpt>
      <trkpt lat="43.17974" lon="6.0482">
        <ele>67.8203125</ele>
        <time>2022-04-10T10:16:07Z</time>
      </trkpt>
      <trkpt lat="43.17966" lon="6.0483">
        <ele>67.4296875</ele>
        <time>2022-04-10T10:16:10Z</time>
      </trkpt>
      <trkpt lat="43.17964" lon="6.04836">
        <ele>67.27734375</ele>
        <time>2022-04-10T10:16:11Z</time>
      </trkpt>
      <trkpt lat="43.17963" lon="6.04843">
        <ele>67.1484375</ele>
        <time>2022-04-10T10:16:12Z</time>
      </trkpt>
      <trkpt lat="43.17962" lon="6.04868">
        <ele>67</ele>
        <time>2022-04-10T10:16:15Z</time>
      </trkpt>
      <trkpt lat="43.17964" lon="6.04876">
        <ele>67</ele>
        <time>2022-04-10T10:16:16Z</time>
      </trkpt>
      <trkpt lat="43.17967" lon="6.04883">
        <ele>67</ele>
        <time>2022-04-10T10:16:17Z</time>
      </trkpt>
      <trkpt lat="43.1797" lon="6.04889">
        <ele>67</ele>
        <time>2022-04-10T10:16:18Z</time>
      </trkpt>
      <trkpt lat="43.17973" lon="6.04895">
        <ele>67</ele>
        <time>2022-04-10T10:16:19Z</time>
      </trkpt>
      <trkpt lat="43.17983" lon="6.04915">
        <ele>67.1171875</ele>
        <time>2022-04-10T10:16:23Z</time>
      </trkpt>
      <trkpt lat="43.1799" lon="6.04928">
        <ele>67.359375</ele>
        <time>2022-04-10T10:16:25Z</time>
      </trkpt>
      <trkpt lat="43.17995" lon="6.04931">
        <ele>67.53515625</ele>
        <time>2022-04-10T10:16:26Z</time>
      </trkpt>
      <trkpt lat="43.18" lon="6.0493">
        <ele>67.71875</ele>
        <time>2022-04-10T10:16:27Z</time>
      </trkpt>
      <trkpt lat="43.18005" lon="6.04926">
        <ele>67.88671875</ele>
        <time>2022-04-10T10:16:28Z</time>
      </trkpt>
      <trkpt lat="43.18009" lon="6.0492">
        <ele>68</ele>
        <time>2022-04-10T10:16:29Z</time>
      </trkpt>
      <trkpt lat="43.18014" lon="6.04913">
        <ele>68</ele>
        <time>2022-04-10T10:16:30Z</time>
      </trkpt>
      <trkpt lat="43.18057" lon="6.04874">
        <ele>68</ele>
        <time>2022-04-10T10:16:38Z</time>
      </trkpt>
      <trkpt lat="43.18062" lon="6.04871">
        <ele>68</ele>
        <time>2022-04-10T10:16:39Z</time>
      </trkpt>
      <trkpt lat="43.18068" lon="6.0487">
        <ele>68.06640625</ele>
        <time>2022-04-10T10:16:40Z</time>
      </trkpt>
      <trkpt lat="43.18074" lon="6.04872">
        <ele>68.1328125</ele>
        <time>2022-04-10T10:16:41Z</time>
      </trkpt>
      <trkpt lat="43.18079" lon="6.04876">
        <ele>68.109375</ele>
        <time>2022-04-10T10:16:42Z</time>
      </trkpt>
      <trkpt lat="43.18084" lon="6.04882">
        <ele>68</ele>
        <time>2022-04-10T10:16:43Z</time>
      </trkpt>
      <trkpt lat="43.18087" lon="6.0489">
        <ele>68</ele>
        <time>2022-04-10T10:16:44Z</time>
      </trkpt>
      <trkpt lat="43.1809" lon="6.04897">
        <ele>68</ele>
        <time>2022-04-10T10:16:45Z</time>
      </trkpt>
      <trkpt lat="43.18098" lon="6.04919">
        <ele>68.53125</ele>
        <time>2022-04-10T10:16:48Z</time>
      </trkpt>
      <trkpt lat="43.18102" lon="6.04926">
        <ele>68.74609375</ele>
        <time>2022-04-10T10:16:49Z</time>
      </trkpt>
      <trkpt lat="43.18105" lon="6.04932">
        <ele>68.91015625</ele>
        <time>2022-04-10T10:16:50Z</time>
      </trkpt>
      <trkpt lat="43.18146" lon="6.0503">
        <ele>70.98046875</ele>
        <time>2022-04-10T10:17:04Z</time>
      </trkpt>
      <trkpt lat="43.1816" lon="6.05076">
        <ele>71</ele>
        <time>2022-04-10T10:17:11Z</time>
      </trkpt>
      <trkpt lat="43.1816" lon="6.05082">
        <ele>71</ele>
        <time>2022-04-10T10:17:12Z</time>
      </trkpt>
      <trkpt lat="43.18157" lon="6.05086">
        <ele>71</ele>
        <time>2022-04-10T10:17:13Z</time>
      </trkpt>
      <trkpt lat="43.18153" lon="6.05087">
        <ele>71</ele>
        <time>2022-04-10T10:17:14Z</time>
      </trkpt>
      <trkpt lat="43.18148" lon="6.05088">
        <ele>71</ele>
        <time>2022-04-10T10:17:15Z</time>
      </trkpt>
      <trkpt lat="43.18139" lon="6.05092">
        <ele>70.890625</ele>
        <time>2022-04-10T10:17:17Z</time>
      </trkpt>
      <trkpt lat="43.18064" lon="6.05129">
        <ele>70</ele>
        <time>2022-04-10T10:17:31Z</time>
      </trkpt>
      <trkpt lat="43.17978" lon="6.0517">
        <ele>69</ele>
        <time>2022-04-10T10:17:46Z</time>
      </trkpt>
      <trkpt lat="43.17974" lon="6.05175">
        <ele>69</ele>
        <time>2022-04-10T10:17:47Z</time>
      </trkpt>
      <trkpt lat="43.17971" lon="6.05182">
        <ele>69</ele>
        <time>2022-04-10T10:17:48Z</time>
      </trkpt>
      <trkpt lat="43.1797" lon="6.0519">
        <ele>69</ele>
        <time>2022-04-10T10:17:49Z</time>
      </trkpt>
      <trkpt lat="43.17968" lon="6.05198">
        <ele>69</ele>
        <time>2022-04-10T10:17:50Z</time>
      </trkpt>
      <trkpt lat="43.17964" lon="6.05214">
        <ele>69</ele>
        <time>2022-04-10T10:17:52Z</time>
      </trkpt>
      <trkpt lat="43.17961" lon="6.05221">
        <ele>69</ele>
        <time>2022-04-10T10:17:53Z</time>
      </trkpt>
      <trkpt lat="43.17956" lon="6.05227">
        <ele>69</ele>
        <time>2022-04-10T10:17:54Z</time>
      </trkpt>
      <trkpt lat="43.17951" lon="6.05232">
        <ele>68.93359375</ele>
        <time>2022-04-10T10:17:55Z</time>
      </trkpt>
      <trkpt lat="43.17945" lon="6.05236">
        <ele>68.734375</ele>
        <time>2022-04-10T10:17:56Z</time>
      </trkpt>
      <trkpt lat="43.17883" lon="6.05279">
        <ele>68</ele>
        <time>2022-04-10T10:18:07Z</time>
      </trkpt>
      <trkpt lat="43.1778" lon="6.05361">
        <ele>66</ele>
        <time>2022-04-10T10:18:26Z</time>
      </trkpt>
      <trkpt lat="43.17695" lon="6.0543">
        <ele>65.77734375</ele>
        <time>2022-04-10T10:18:42Z</time>
      </trkpt>
      <trkpt lat="43.17603" lon="6.05513">
        <ele>64</ele>
        <time>2022-04-10T10:19:00Z</time>
      </trkpt>
      <trkpt lat="43.17597" lon="6.05517">
        <ele>64</ele>
        <time>2022-04-10T10:19:01Z</time>
      </trkpt>
      <trkpt lat="43.1755" lon="6.05571">
        <ele>63.515625</ele>
        <time>2022-04-10T10:19:11Z</time>
      </trkpt>
      <trkpt lat="43.17548" lon="6.05579">
        <ele>63.421875</ele>
        <time>2022-04-10T10:19:12Z</time>
      </trkpt>
      <trkpt lat="43.17546" lon="6.05587">
        <ele>63.34375</ele>
        <time>2022-04-10T10:19:13Z</time>
      </trkpt>
      <trkpt lat="43.17541" lon="6.05602">
        <ele>63.1875</ele>
        <time>2022-04-10T10:19:15Z</time>
      </trkpt>
      <trkpt lat="43.17538" lon="6.05609">
        <ele>63.0625</ele>
        <time>2022-04-10T10:19:16Z</time>
      </trkpt>
      <trkpt lat="43.17533" lon="6.05615">
        <ele>63</ele>
        <time>2022-04-10T10:19:17Z</time>
      </trkpt>
      <trkpt lat="43.17529" lon="6.0562">
        <ele>63</ele>
        <time>2022-04-10T10:19:18Z</time>
      </trkpt>
      <trkpt lat="43.17524" lon="6.05624">
        <ele>63</ele>
        <time>2022-04-10T10:19:19Z</time>
      </trkpt>
      <trkpt lat="43.17446" lon="6.05676">
        <ele>63</ele>
        <time>2022-04-10T10:19:34Z</time>
      </trkpt>
      <trkpt lat="43.17404" lon="6.05711">
        <ele>62.90625</ele>
        <time>2022-04-10T10:19:42Z</time>
      </trkpt>
      <trkpt lat="43.17386" lon="6.05734">
        <ele>62.87890625</ele>
        <time>2022-04-10T10:19:46Z</time>
      </trkpt>
      <trkpt lat="43.17381" lon="6.05739">
        <ele>62.93359375</ele>
        <time>2022-04-10T10:19:47Z</time>
      </trkpt>
      <trkpt lat="43.17375" lon="6.05743">
        <ele>63</ele>
        <time>2022-04-10T10:19:48Z</time>
      </trkpt>
      <trkpt lat="43.17296" lon="6.05797">
        <ele>62</ele>
        <time>2022-04-10T10:20:03Z</time>
      </trkpt>
      <trkpt lat="43.17272" lon="6.05813">
        <ele>62</ele>
        <time>2022-04-10T10:20:12Z</time>
      </trkpt>
      <trkpt lat="43.17271" lon="6.05814">
        <ele>62</ele>
        <time>2022-04-10T10:20:19Z</time>
      </trkpt>
      <trkpt lat="43.17268" lon="6.05817">
        <ele>62</ele>
        <time>2022-04-10T10:20:21Z</time>
      </trkpt>
      <trkpt lat="43.17263" lon="6.05823">
        <ele>62</ele>
        <time>2022-04-10T10:20:23Z</time>
      </trkpt>
      <trkpt lat="43.17255" lon="6.05828">
        <ele>62</ele>
        <time>2022-04-10T10:20:25Z</time>
      </trkpt>
      <trkpt lat="43.17211" lon="6.0587">
        <ele>61.27734375</ele>
        <time>2022-04-10T10:20:35Z</time>
      </trkpt>
      <trkpt lat="43.17202" lon="6.05879">
        <ele>61</ele>
        <time>2022-04-10T10:20:37Z</time>
      </trkpt>
      <trkpt lat="43.17148" lon="6.05928">
        <ele>61</ele>
        <time>2022-04-10T10:20:48Z</time>
      </trkpt>
      <trkpt lat="43.17144" lon="6.05935">
        <ele>61</ele>
        <time>2022-04-10T10:20:49Z</time>
      </trkpt>
      <trkpt lat="43.17141" lon="6.05942">
        <ele>61</ele>
        <time>2022-04-10T10:20:50Z</time>
      </trkpt>
      <trkpt lat="43.17138" lon="6.0595">
        <ele>61</ele>
        <time>2022-04-10T10:20:51Z</time>
      </trkpt>
      <trkpt lat="43.17135" lon="6.05958">
        <ele>61</ele>
        <time>2022-04-10T10:20:52Z</time>
      </trkpt>
      <trkpt lat="43.17132" lon="6.05964">
        <ele>61</ele>
        <time>2022-04-10T10:20:53Z</time>
      </trkpt>
      <trkpt lat="43.17128" lon="6.05971">
        <ele>61</ele>
        <time>2022-04-10T10:20:54Z</time>
      </trkpt>
      <trkpt lat="43.17099" lon="6.06022">
        <ele>60</ele>
        <time>2022-04-10T10:21:02Z</time>
      </trkpt>
      <trkpt lat="43.17056" lon="6.06108">
        <ele>58.69140625</ele>
        <time>2022-04-10T10:21:16Z</time>
      </trkpt>
      <trkpt lat="43.17041" lon="6.06141">
        <ele>58.11328125</ele>
        <time>2022-04-10T10:21:21Z</time>
      </trkpt>
      <trkpt lat="43.17038" lon="6.06148">
        <ele>58.015625</ele>
        <time>2022-04-10T10:21:22Z</time>
      </trkpt>
      <trkpt lat="43.16999" lon="6.06199">
        <ele>57</ele>
        <time>2022-04-10T10:21:31Z</time>
      </trkpt>
      <trkpt lat="43.1694" lon="6.06278">
        <ele>55.31640625</ele>
        <time>2022-04-10T10:21:46Z</time>
      </trkpt>
      <trkpt lat="43.16903" lon="6.0634">
        <ele>55</ele>
        <time>2022-04-10T10:21:57Z</time>
      </trkpt>
      <trkpt lat="43.169" lon="6.06346">
        <ele>55</ele>
        <time>2022-04-10T10:21:58Z</time>
      </trkpt>
      <trkpt lat="43.16881" lon="6.06405">
        <ele>55</ele>
        <time>2022-04-10T10:22:07Z</time>
      </trkpt>
      <trkpt lat="43.16864" lon="6.06439">
        <ele>55</ele>
        <time>2022-04-10T10:22:14Z</time>
      </trkpt>
      <trkpt lat="43.16857" lon="6.06448">
        <ele>55</ele>
        <time>2022-04-10T10:22:17Z</time>
      </trkpt>
      <trkpt lat="43.1681" lon="6.06498">
        <ele>55</ele>
        <time>2022-04-10T10:22:28Z</time>
      </trkpt>
      <trkpt lat="43.16784" lon="6.06522">
        <ele>55</ele>
        <time>2022-04-10T10:22:35Z</time>
      </trkpt>
      <trkpt lat="43.16783" lon="6.06526">
        <ele>55</ele>
        <time>2022-04-10T10:22:36Z</time>
      </trkpt>
      <trkpt lat="43.16783" lon="6.0653">
        <ele>55</ele>
        <time>2022-04-10T10:22:37Z</time>
      </trkpt>
      <trkpt lat="43.16784" lon="6.06534">
        <ele>55</ele>
        <time>2022-04-10T10:22:38Z</time>
      </trkpt>
      <trkpt lat="43.16784" lon="6.06539">
        <ele>55</ele>
        <time>2022-04-10T10:22:39Z</time>
      </trkpt>
      <trkpt lat="43.16785" lon="6.06544">
        <ele>55</ele>
        <time>2022-04-10T10:22:40Z</time>
      </trkpt>
      <trkpt lat="43.16785" lon="6.06551">
        <ele>55.125</ele>
        <time>2022-04-10T10:22:41Z</time>
      </trkpt>
      <trkpt lat="43.16783" lon="6.06557">
        <ele>55.31640625</ele>
        <time>2022-04-10T10:22:42Z</time>
      </trkpt>
      <trkpt lat="43.1678" lon="6.06563">
        <ele>55.4375</ele>
        <time>2022-04-10T10:22:43Z</time>
      </trkpt>
      <trkpt lat="43.16778" lon="6.06566">
        <ele>55.46484375</ele>
        <time>2022-04-10T10:22:44Z</time>
      </trkpt>
      <trkpt lat="43.16772" lon="6.0657">
        <ele>55.3984375</ele>
        <time>2022-04-10T10:22:45Z</time>
      </trkpt>
      <trkpt lat="43.16732" lon="6.06587">
        <ele>55.015625</ele>
        <time>2022-04-10T10:22:54Z</time>
      </trkpt>
      <trkpt lat="43.16701" lon="6.06601">
        <ele>55</ele>
        <time>2022-04-10T10:23:01Z</time>
      </trkpt>
      <trkpt lat="43.16696" lon="6.06603">
        <ele>55</ele>
        <time>2022-04-10T10:23:02Z</time>
      </trkpt>
      <trkpt lat="43.16687" lon="6.06607">
        <ele>54.859375</ele>
        <time>2022-04-10T10:23:04Z</time>
      </trkpt>
      <trkpt lat="43.16682" lon="6.06609">
        <ele>54.76953125</ele>
        <time>2022-04-10T10:23:05Z</time>
      </trkpt>
      <trkpt lat="43.16634" lon="6.06634">
        <ele>54</ele>
        <time>2022-04-10T10:23:15Z</time>
      </trkpt>
      <trkpt lat="43.16629" lon="6.06637">
        <ele>54</ele>
        <time>2022-04-10T10:23:16Z</time>
      </trkpt>
      <trkpt lat="43.16624" lon="6.06639">
        <ele>54</ele>
        <time>2022-04-10T10:23:17Z</time>
      </trkpt>
      <trkpt lat="43.16619" lon="6.06641">
        <ele>53.98046875</ele>
        <time>2022-04-10T10:23:18Z</time>
      </trkpt>
      <trkpt lat="43.16614" lon="6.06644">
        <ele>53.796875</ele>
        <time>2022-04-10T10:23:19Z</time>
      </trkpt>
      <trkpt lat="43.16541" lon="6.06686">
        <ele>53</ele>
        <time>2022-04-10T10:23:35Z</time>
      </trkpt>
      <trkpt lat="43.16507" lon="6.06711">
        <ele>52.94140625</ele>
        <time>2022-04-10T10:23:43Z</time>
      </trkpt>
      <trkpt lat="43.16503" lon="6.06714">
        <ele>52.75390625</ele>
        <time>2022-04-10T10:23:44Z</time>
      </trkpt>
      <trkpt lat="43.16488" lon="6.06722">
        <ele>52.1796875</ele>
        <time>2022-04-10T10:23:47Z</time>
      </trkpt>
      <trkpt lat="43.16437" lon="6.06741">
        <ele>52</ele>
        <time>2022-04-10T10:23:57Z</time>
      </trkpt>
      <trkpt lat="43.16421" lon="6.06748">
        <ele>52</ele>
        <time>2022-04-10T10:24:00Z</time>
      </trkpt>
      <trkpt lat="43.16334" lon="6.06777">
        <ele>52</ele>
        <time>2022-04-10T10:24:17Z</time>
      </trkpt>
      <trkpt lat="43.16308" lon="6.06787">
        <ele>52</ele>
        <time>2022-04-10T10:24:22Z</time>
      </trkpt>
      <trkpt lat="43.16298" lon="6.06793">
        <ele>52</ele>
        <time>2022-04-10T10:24:24Z</time>
      </trkpt>
      <trkpt lat="43.16293" lon="6.06797">
        <ele>52</ele>
        <time>2022-04-10T10:24:25Z</time>
      </trkpt>
      <trkpt lat="43.16285" lon="6.06805">
        <ele>52</ele>
        <time>2022-04-10T10:24:27Z</time>
      </trkpt>
      <trkpt lat="43.1628" lon="6.06808">
        <ele>52</ele>
        <time>2022-04-10T10:24:28Z</time>
      </trkpt>
      <trkpt lat="43.16275" lon="6.06809">
        <ele>52</ele>
        <time>2022-04-10T10:24:29Z</time>
      </trkpt>
      <trkpt lat="43.1627" lon="6.06807">
        <ele>52</ele>
        <time>2022-04-10T10:24:30Z</time>
      </trkpt>
      <trkpt lat="43.16267" lon="6.06803">
        <ele>52</ele>
        <time>2022-04-10T10:24:31Z</time>
      </trkpt>
      <trkpt lat="43.16265" lon="6.06797">
        <ele>52</ele>
        <time>2022-04-10T10:24:32Z</time>
      </trkpt>
      <trkpt lat="43.16262" lon="6.06791">
        <ele>52</ele>
        <time>2022-04-10T10:24:33Z</time>
      </trkpt>
      <trkpt lat="43.1626" lon="6.06784">
        <ele>52</ele>
        <time>2022-04-10T10:24:34Z</time>
      </trkpt>
      <trkpt lat="43.16258" lon="6.06778">
        <ele>51.97265625</ele>
        <time>2022-04-10T10:24:35Z</time>
      </trkpt>
      <trkpt lat="43.16243" lon="6.06737">
        <ele>51</ele>
        <time>2022-04-10T10:24:41Z</time>
      </trkpt>
      <trkpt lat="43.16241" lon="6.06731">
        <ele>51</ele>
        <time>2022-04-10T10:24:42Z</time>
      </trkpt>
      <trkpt lat="43.16237" lon="6.06725">
        <ele>51</ele>
        <time>2022-04-10T10:24:43Z</time>
      </trkpt>
      <trkpt lat="43.16233" lon="6.06721">
        <ele>51</ele>
        <time>2022-04-10T10:24:44Z</time>
      </trkpt>
      <trkpt lat="43.16227" lon="6.0672">
        <ele>51</ele>
        <time>2022-04-10T10:24:45Z</time>
      </trkpt>
      <trkpt lat="43.16222" lon="6.06719">
        <ele>51</ele>
        <time>2022-04-10T10:24:46Z</time>
      </trkpt>
      <trkpt lat="43.16216" lon="6.06719">
        <ele>51</ele>
        <time>2022-04-10T10:24:47Z</time>
      </trkpt>
      <trkpt lat="43.1621" lon="6.0672">
        <ele>51</ele>
        <time>2022-04-10T10:24:48Z</time>
      </trkpt>
      <trkpt lat="43.16204" lon="6.06721">
        <ele>51</ele>
        <time>2022-04-10T10:24:49Z</time>
      </trkpt>
      <trkpt lat="43.16124" lon="6.06724">
        <ele>50.0546875</ele>
        <time>2022-04-10T10:25:03Z</time>
      </trkpt>
      <trkpt lat="43.16092" lon="6.0672">
        <ele>50</ele>
        <time>2022-04-10T10:25:09Z</time>
      </trkpt>
      <trkpt lat="43.16014" lon="6.06706">
        <ele>49.1640625</ele>
        <time>2022-04-10T10:25:23Z</time>
      </trkpt>
      <trkpt lat="43.16008" lon="6.06702">
        <ele>48.90625</ele>
        <time>2022-04-10T10:25:24Z</time>
      </trkpt>
      <trkpt lat="43.16002" lon="6.06697">
        <ele>48.515625</ele>
        <time>2022-04-10T10:25:25Z</time>
      </trkpt>
      <trkpt lat="43.15997" lon="6.06691">
        <ele>48.15625</ele>
        <time>2022-04-10T10:25:26Z</time>
      </trkpt>
      <trkpt lat="43.15993" lon="6.06684">
        <ele>47.8125</ele>
        <time>2022-04-10T10:25:27Z</time>
      </trkpt>
      <trkpt lat="43.15989" lon="6.06677">
        <ele>47.484375</ele>
        <time>2022-04-10T10:25:28Z</time>
      </trkpt>
      <trkpt lat="43.15986" lon="6.06671">
        <ele>47.24609375</ele>
        <time>2022-04-10T10:25:29Z</time>
      </trkpt>
      <trkpt lat="43.15976" lon="6.06651">
        <ele>46.6015625</ele>
        <time>2022-04-10T10:25:32Z</time>
      </trkpt>
      <trkpt lat="43.15973" lon="6.06645">
        <ele>46.359375</ele>
        <time>2022-04-10T10:25:33Z</time>
      </trkpt>
      <trkpt lat="43.15968" lon="6.0664">
        <ele>46.1875</ele>
        <time>2022-04-10T10:25:34Z</time>
      </trkpt>
      <trkpt lat="43.15963" lon="6.06637">
        <ele>46.078125</ele>
        <time>2022-04-10T10:25:35Z</time>
      </trkpt>
      <trkpt lat="43.15958" lon="6.06634">
        <ele>46.01953125</ele>
        <time>2022-04-10T10:25:36Z</time>
      </trkpt>
      <trkpt lat="43.15952" lon="6.06632">
        <ele>45.99609375</ele>
        <time>2022-04-10T10:25:37Z</time>
      </trkpt>
      <trkpt lat="43.15947" lon="6.06631">
        <ele>45.99609375</ele>
        <time>2022-04-10T10:25:38Z</time>
      </trkpt>
      <trkpt lat="43.15941" lon="6.06631">
        <ele>45.984375</ele>
        <time>2022-04-10T10:25:39Z</time>
      </trkpt>
      <trkpt lat="43.15935" lon="6.06634">
        <ele>45.92578125</ele>
        <time>2022-04-10T10:25:40Z</time>
      </trkpt>
      <trkpt lat="43.15931" lon="6.06638">
        <ele>45.78515625</ele>
        <time>2022-04-10T10:25:41Z</time>
      </trkpt>
      <trkpt lat="43.15928" lon="6.06643">
        <ele>45.58203125</ele>
        <time>2022-04-10T10:25:42Z</time>
      </trkpt>
      <trkpt lat="43.15927" lon="6.0665">
        <ele>45.31640625</ele>
        <time>2022-04-10T10:25:43Z</time>
      </trkpt>
      <trkpt lat="43.15927" lon="6.06658">
        <ele>45.03515625</ele>
        <time>2022-04-10T10:25:44Z</time>
      </trkpt>
      <trkpt lat="43.15927" lon="6.06665">
        <ele>45.03515625</ele>
        <time>2022-04-10T10:25:45Z</time>
      </trkpt>
      <trkpt lat="43.15928" lon="6.06678">
        <ele>45.0859375</ele>
        <time>2022-04-10T10:25:47Z</time>
      </trkpt>
      <trkpt lat="43.15937" lon="6.06703">
        <ele>45.38671875</ele>
        <time>2022-04-10T10:25:52Z</time>
      </trkpt>
      <trkpt lat="43.15937" lon="6.06706">
        <ele>45.4140625</ele>
        <time>2022-04-10T10:25:53Z</time>
      </trkpt>
      <trkpt lat="43.15939" lon="6.06715">
        <ele>45.48046875</ele>
        <time>2022-04-10T10:25:58Z</time>
      </trkpt>
      <trkpt lat="43.15938" lon="6.06718">
        <ele>45.4375</ele>
        <time>2022-04-10T10:25:59Z</time>
      </trkpt>
      <trkpt lat="43.15936" lon="6.06722">
        <ele>45.37890625</ele>
        <time>2022-04-10T10:26:00Z</time>
      </trkpt>
      <trkpt lat="43.15934" lon="6.06725">
        <ele>45.3046875</ele>
        <time>2022-04-10T10:26:01Z</time>
      </trkpt>
      <trkpt lat="43.15932" lon="6.06727">
        <ele>45.203125</ele>
        <time>2022-04-10T10:26:02Z</time>
      </trkpt>
      <trkpt lat="43.15928" lon="6.06727">
        <ele>45.09375</ele>
        <time>2022-04-10T10:26:03Z</time>
      </trkpt>
      <trkpt lat="43.15926" lon="6.06725">
        <ele>45.01171875</ele>
        <time>2022-04-10T10:26:04Z</time>
      </trkpt>
      <trkpt lat="43.15923" lon="6.06724">
        <ele>45.12109375</ele>
        <time>2022-04-10T10:26:05Z</time>
      </trkpt>
      <trkpt lat="43.1592" lon="6.06723">
        <ele>45.23046875</ele>
        <time>2022-04-10T10:26:06Z</time>
      </trkpt>
      <trkpt lat="43.15915" lon="6.06724">
        <ele>45.39453125</ele>
        <time>2022-04-10T10:26:16Z</time>
      </trkpt>
      <trkpt lat="43.15903" lon="6.06721">
        <ele>45.8359375</ele>
        <time>2022-04-10T10:26:41Z</time>
      </trkpt>
      <trkpt lat="43.15864" lon="6.06701">
        <ele>46.46484375</ele>
        <time>2022-04-10T10:26:51Z</time>
      </trkpt>
      <trkpt lat="43.1586" lon="6.06696">
        <ele>46.7734375</ele>
        <time>2022-04-10T10:26:52Z</time>
      </trkpt>
      <trkpt lat="43.15806" lon="6.06619">
        <ele>48.7421875</ele>
        <time>2022-04-10T10:27:06Z</time>
      </trkpt>
      <trkpt lat="43.15802" lon="6.06617">
        <ele>48.96484375</ele>
        <time>2022-04-10T10:27:07Z</time>
      </trkpt>
      <trkpt lat="43.15798" lon="6.06616">
        <ele>49.12890625</ele>
        <time>2022-04-10T10:27:08Z</time>
      </trkpt>
      <trkpt lat="43.15793" lon="6.06618">
        <ele>49.2265625</ele>
        <time>2022-04-10T10:27:09Z</time>
      </trkpt>
      <trkpt lat="43.15789" lon="6.06622">
        <ele>49.25390625</ele>
        <time>2022-04-10T10:27:10Z</time>
      </trkpt>
      <trkpt lat="43.15785" lon="6.06626">
        <ele>49.2109375</ele>
        <time>2022-04-10T10:27:11Z</time>
      </trkpt>
      <trkpt lat="43.15781" lon="6.06632">
        <ele>49.21484375</ele>
        <time>2022-04-10T10:27:12Z</time>
      </trkpt>
      <trkpt lat="43.1576" lon="6.06657">
        <ele>49.03125</ele>
        <time>2022-04-10T10:27:17Z</time>
      </trkpt>
      <trkpt lat="43.15756" lon="6.06663">
        <ele>49</ele>
        <time>2022-04-10T10:27:18Z</time>
      </trkpt>
      <trkpt lat="43.15752" lon="6.06668">
        <ele>49</ele>
        <time>2022-04-10T10:27:19Z</time>
      </trkpt>
      <trkpt lat="43.15692" lon="6.06745">
        <ele>48.51953125</ele>
        <time>2022-04-10T10:27:33Z</time>
      </trkpt>
      <trkpt lat="43.1566" lon="6.06783">
        <ele>48</ele>
        <time>2022-04-10T10:27:40Z</time>
      </trkpt>
      <trkpt lat="43.15616" lon="6.06831">
        <ele>47</ele>
        <time>2022-04-10T10:27:49Z</time>
      </trkpt>
      <trkpt lat="43.15607" lon="6.0684">
        <ele>47</ele>
        <time>2022-04-10T10:27:51Z</time>
      </trkpt>
      <trkpt lat="43.15593" lon="6.06854">
        <ele>47</ele>
        <time>2022-04-10T10:27:54Z</time>
      </trkpt>
      <trkpt lat="43.15528" lon="6.06933">
        <ele>47</ele>
        <time>2022-04-10T10:28:10Z</time>
      </trkpt>
      <trkpt lat="43.1552" lon="6.06948">
        <ele>46.5703125</ele>
        <time>2022-04-10T10:28:13Z</time>
      </trkpt>
      <trkpt lat="43.15515" lon="6.06957">
        <ele>46.234375</ele>
        <time>2022-04-10T10:28:16Z</time>
      </trkpt>
      <trkpt lat="43.15514" lon="6.06957">
        <ele>46.21875</ele>
        <time>2022-04-10T10:28:17Z</time>
      </trkpt>
      <trkpt lat="43.15506" lon="6.06955">
        <ele>46.3125</ele>
        <time>2022-04-10T10:28:21Z</time>
      </trkpt>
      <trkpt lat="43.15504" lon="6.06953">
        <ele>46.38671875</ele>
        <time>2022-04-10T10:28:22Z</time>
      </trkpt>
      <trkpt lat="43.15501" lon="6.06952">
        <ele>46.4140625</ele>
        <time>2022-04-10T10:28:23Z</time>
      </trkpt>
      <trkpt lat="43.15498" lon="6.06953">
        <ele>46.3671875</ele>
        <time>2022-04-10T10:28:24Z</time>
      </trkpt>
      <trkpt lat="43.15495" lon="6.06956">
        <ele>46.28515625</ele>
        <time>2022-04-10T10:28:25Z</time>
      </trkpt>
      <trkpt lat="43.15491" lon="6.06958">
        <ele>46.1953125</ele>
        <time>2022-04-10T10:28:26Z</time>
      </trkpt>
      <trkpt lat="43.15487" lon="6.06961">
        <ele>46.1015625</ele>
        <time>2022-04-10T10:28:27Z</time>
      </trkpt>
      <trkpt lat="43.15482" lon="6.06964">
        <ele>46</ele>
        <time>2022-04-10T10:28:28Z</time>
      </trkpt>
      <trkpt lat="43.15478" lon="6.06969">
        <ele>46.11328125</ele>
        <time>2022-04-10T10:28:29Z</time>
      </trkpt>
      <trkpt lat="43.15474" lon="6.06974">
        <ele>46.16796875</ele>
        <time>2022-04-10T10:28:30Z</time>
      </trkpt>
      <trkpt lat="43.15471" lon="6.06979">
        <ele>46.1640625</ele>
        <time>2022-04-10T10:28:31Z</time>
      </trkpt>
      <trkpt lat="43.15467" lon="6.06984">
        <ele>46.1328125</ele>
        <time>2022-04-10T10:28:32Z</time>
      </trkpt>
      <trkpt lat="43.15463" lon="6.06987">
        <ele>46.1015625</ele>
        <time>2022-04-10T10:28:33Z</time>
      </trkpt>
      <trkpt lat="43.15458" lon="6.06989">
        <ele>46.06640625</ele>
        <time>2022-04-10T10:28:34Z</time>
      </trkpt>
      <trkpt lat="43.1545" lon="6.06994">
        <ele>45.984375</ele>
        <time>2022-04-10T10:28:36Z</time>
      </trkpt>
      <trkpt lat="43.15446" lon="6.06995">
        <ele>45.9609375</ele>
        <time>2022-04-10T10:28:37Z</time>
      </trkpt>
      <trkpt lat="43.15421" lon="6.07012">
        <ele>45.24609375</ele>
        <time>2022-04-10T10:28:46Z</time>
      </trkpt>
      <trkpt lat="43.15419" lon="6.07012">
        <ele>45.265625</ele>
        <time>2022-04-10T10:28:47Z</time>
      </trkpt>
      <trkpt lat="43.15416" lon="6.07006">
        <ele>45.45703125</ele>
        <time>2022-04-10T10:28:49Z</time>
      </trkpt>
      <trkpt lat="43.15397" lon="6.06987">
        <ele>46.0859375</ele>
        <time>2022-04-10T10:28:58Z</time>
      </trkpt>
      <trkpt lat="43.15389" lon="6.0699">
        <ele>45.73046875</ele>
        <time>2022-04-10T10:29:08Z</time>
      </trkpt>
      <trkpt lat="43.15389" lon="6.06988">
        <ele>45.78125</ele>
        <time>2022-04-10T10:29:33Z</time>
      </trkpt>
      <trkpt lat="43.15388" lon="6.0699">
        <ele>45.6796875</ele>
        <time>2022-04-10T10:30:08Z</time>
      </trkpt>
      <trkpt lat="43.15389" lon="6.0699">
        <ele>45.71875</ele>
        <time>2022-04-10T10:30:37Z</time>
      </trkpt>
      <trkpt lat="43.15387" lon="6.06991">
        <ele>45.6328125</ele>
        <time>2022-04-10T10:31:06Z</time>
      </trkpt>
      <trkpt lat="43.15388" lon="6.0699">
        <ele>45.66796875</ele>
        <time>2022-04-10T10:31:31Z</time>
      </trkpt>
    </trkseg>
  </trk>
</gpx>